<?xml version='1.0' encoding='UTF-8'?><gpx version="1.1" creator="JPX - https://github.com/jenetics/jpx" xmlns="http://www.topografix.com/GPX/1/1"><trk><trkseg><trkpt lat="49.29271149911724" lon="0.972771399469933"><ele>117.0</ele><time>2026-04-19T16:21:06Z</time></trkpt><trkpt lat="49.292773090374844" lon="0.9728537165804342"><ele>117.0</ele><time>2026-04-19T16:22:12.998Z</time></trkpt><trkpt lat="49.29284286010305" lon="0.9728975920571193"><ele>117.0</ele><time>2026-04-19T16:22:17.998Z</time></trkpt><trkpt lat="49.29291194367875" lon="0.9728895230550064"><ele>117.0</ele><time>2026-04-19T16:22:19.998Z</time></trkpt><trkpt lat="49.292979172138935" lon="0.9729866773030583"><ele>117.0</ele><time>2026-04-19T16:22:21.998Z</time></trkpt><trkpt lat="49.29302777211092" lon="0.9730513327918535"><ele>117.0</ele><time>2026-04-19T16:22:22.998Z</time></trkpt><trkpt lat="49.29313682198876" lon="0.9730797620636203"><ele>116.75</ele><time>2026-04-19T16:22:24.998Z</time></trkpt><trkpt lat="49.29325023339119" lon="0.9730682561093091"><ele>116.5</ele><time>2026-04-19T16:22:26.998Z</time></trkpt><trkpt lat="49.29336619101719" lon="0.9730438376143549"><ele>116.25</ele><time>2026-04-19T16:22:28.998Z</time></trkpt><trkpt lat="49.29352113438852" lon="0.973034389745817"><ele>116.0</ele><time>2026-04-19T16:22:30.998Z</time></trkpt><trkpt lat="49.29359265829876" lon="0.9731315872633177"><ele>116.0</ele><time>2026-04-19T16:22:31.998Z</time></trkpt><trkpt lat="49.293689763982044" lon="0.973229973194309"><ele>116.0</ele><time>2026-04-19T16:22:32.998Z</time></trkpt><trkpt lat="49.29378929920861" lon="0.9733603244372492"><ele>116.0</ele><time>2026-04-19T16:22:33.998Z</time></trkpt><trkpt lat="49.29386729918707" lon="0.9734912274774038"><ele>116.0</ele><time>2026-04-19T16:22:34.998Z</time></trkpt><trkpt lat="49.29393455943656" lon="0.973609640940672"><ele>116.0</ele><time>2026-04-19T16:22:35.998Z</time></trkpt><trkpt lat="49.29400818561399" lon="0.9737073891300311"><ele>116.0</ele><time>2026-04-19T16:22:36.998Z</time></trkpt><trkpt lat="49.29405894939291" lon="0.973778165798496"><ele>116.0</ele><time>2026-04-19T16:22:37.998Z</time></trkpt><trkpt lat="49.29412518629667" lon="0.9739149930790297"><ele>116.0</ele><time>2026-04-19T16:22:39.999Z</time></trkpt><trkpt lat="49.294142738446105" lon="0.9741278576279971"><ele>116.0</ele><time>2026-04-19T16:22:41.999Z</time></trkpt><trkpt lat="49.294172853673366" lon="0.9742180356056765"><ele>115.99999999999999</ele><time>2026-04-19T16:22:42.999Z</time></trkpt><trkpt lat="49.29426054271104" lon="0.9742503814634896"><ele>116.0</ele><time>2026-04-19T16:22:44Z</time></trkpt><trkpt lat="49.29433553172423" lon="0.9743035089174719"><ele>116.0</ele><time>2026-04-19T16:22:44.999Z</time></trkpt><trkpt lat="49.294404807306535" lon="0.9743346331982711"><ele>116.0</ele><time>2026-04-19T16:22:46Z</time></trkpt><trkpt lat="49.29447761415294" lon="0.9743701554751377"><ele>115.99999999999999</ele><time>2026-04-19T16:22:47Z</time></trkpt><trkpt lat="49.29454168217662" lon="0.9744021398330709"><ele>116.0</ele><time>2026-04-19T16:22:48Z</time></trkpt><trkpt lat="49.2946072947846" lon="0.9744460364010172"><ele>116.00000000000001</ele><time>2026-04-19T16:22:49Z</time></trkpt><trkpt lat="49.29468081799" lon="0.9744795186844236"><ele>116.0</ele><time>2026-04-19T16:22:50Z</time></trkpt><trkpt lat="49.2947468698494" lon="0.9744792778020711"><ele>116.00000000000001</ele><time>2026-04-19T16:22:51Z</time></trkpt><trkpt lat="49.294819879048276" lon="0.9744383872802568"><ele>116.00000000000001</ele><time>2026-04-19T16:22:52Z</time></trkpt><trkpt lat="49.294880251437306" lon="0.9743699603195621"><ele>116.0</ele><time>2026-04-19T16:22:53Z</time></trkpt><trkpt lat="49.294937924692064" lon="0.9743141191947541"><ele>116.00000000000001</ele><time>2026-04-19T16:22:54Z</time></trkpt><trkpt lat="49.2950028097174" lon="0.9742660795869097"><ele>116.00000000000001</ele><time>2026-04-19T16:22:55Z</time></trkpt><trkpt lat="49.29512027573958" lon="0.9741683386726229"><ele>115.83333333333333</ele><time>2026-04-19T16:22:57Z</time></trkpt><trkpt lat="49.29518666921266" lon="0.9741135889614057"><ele>115.66666666666666</ele><time>2026-04-19T16:22:58Z</time></trkpt><trkpt lat="49.29525851284654" lon="0.9740521612814793"><ele>115.5</ele><time>2026-04-19T16:22:58.999Z</time></trkpt><trkpt lat="49.2953371349268" lon="0.973987733757295"><ele>115.33333333333334</ele><time>2026-04-19T16:22:59.999Z</time></trkpt><trkpt lat="49.29541640853976" lon="0.9739201025973481"><ele>115.16666666666667</ele><time>2026-04-19T16:23:00.999Z</time></trkpt><trkpt lat="49.29549687407089" lon="0.973854771724223"><ele>115.0</ele><time>2026-04-19T16:23:01.999Z</time></trkpt><trkpt lat="49.29557295227796" lon="0.9737842613188314"><ele>115.50000000000001</ele><time>2026-04-19T16:23:02.999Z</time></trkpt><trkpt lat="49.295651950717605" lon="0.9737172346825047"><ele>116.0</ele><time>2026-04-19T16:23:03.999Z</time></trkpt><trkpt lat="49.295727987519214" lon="0.9736568775971441"><ele>116.5</ele><time>2026-04-19T16:23:04.999Z</time></trkpt><trkpt lat="49.295807700445664" lon="0.9736006119716829"><ele>117.0</ele><time>2026-04-19T16:23:05.999Z</time></trkpt><trkpt lat="49.295871135258736" lon="0.9735570963077856"><ele>117.50000000000001</ele><time>2026-04-19T16:23:06.999Z</time></trkpt><trkpt lat="49.29595159453728" lon="0.9735082981927328"><ele>118.0</ele><time>2026-04-19T16:23:08.999Z</time></trkpt><trkpt lat="49.296037607531645" lon="0.9734642959473574"><ele>118.0</ele><time>2026-04-19T16:23:10.999Z</time></trkpt><trkpt lat="49.29603894085518" lon="0.9733423177483476"><ele>118.00000000000001</ele><time>2026-04-19T16:23:11.999Z</time></trkpt><trkpt lat="49.29605025766643" lon="0.9732353531231559"><ele>118.00000000000001</ele><time>2026-04-19T16:23:12.999Z</time></trkpt><trkpt lat="49.296065104790834" lon="0.9730679501017175"><ele>118.0</ele><time>2026-04-19T16:23:13.999Z</time></trkpt><trkpt lat="49.296077275808386" lon="0.9728636519732071"><ele>118.0</ele><time>2026-04-19T16:23:14.999Z</time></trkpt><trkpt lat="49.296095185770056" lon="0.9726311765260419"><ele>118.75</ele><time>2026-04-19T16:23:15.999Z</time></trkpt><trkpt lat="49.29611760676298" lon="0.9723873125854013"><ele>119.5</ele><time>2026-04-19T16:23:16.999Z</time></trkpt><trkpt lat="49.29613365284549" lon="0.9722063184348954"><ele>120.25</ele><time>2026-04-19T16:23:17.999Z</time></trkpt><trkpt lat="49.296151222453084" lon="0.9719852678073854"><ele>121.0</ele><time>2026-04-19T16:23:18.999Z</time></trkpt><trkpt lat="49.2961778585005" lon="0.9717633316170939"><ele>121.19999999999999</ele><time>2026-04-19T16:23:19.999Z</time></trkpt><trkpt lat="49.296197591260416" lon="0.9715778082517443"><ele>121.39999999999999</ele><time>2026-04-19T16:23:20.999Z</time></trkpt><trkpt lat="49.29620554804024" lon="0.9714247612388687"><ele>121.6</ele><time>2026-04-19T16:23:21.999Z</time></trkpt><trkpt lat="49.29620052594452" lon="0.9713082419584527"><ele>121.8</ele><time>2026-04-19T16:23:22.999Z</time></trkpt><trkpt lat="49.296190824770434" lon="0.9711801096172289"><ele>122.0</ele><time>2026-04-19T16:23:23.999Z</time></trkpt><trkpt lat="49.296205524717884" lon="0.9709828139530187"><ele>122.25</ele><time>2026-04-19T16:23:24.999Z</time></trkpt><trkpt lat="49.29623159900777" lon="0.9707818076701815"><ele>122.5</ele><time>2026-04-19T16:23:25.999Z</time></trkpt><trkpt lat="49.29628634627023" lon="0.9705703866018485"><ele>122.75</ele><time>2026-04-19T16:23:26.999Z</time></trkpt><trkpt lat="49.29630500869334" lon="0.9703367513961472"><ele>123.0</ele><time>2026-04-19T16:23:27.999Z</time></trkpt><trkpt lat="49.29632508357498" lon="0.9700925185770294"><ele>124.0</ele><time>2026-04-19T16:23:28.999Z</time></trkpt><trkpt lat="49.29633317456538" lon="0.9698244133594077"><ele>125.0</ele><time>2026-04-19T16:23:29.999Z</time></trkpt><trkpt lat="49.29637649986421" lon="0.9695220993730024"><ele>126.0</ele><time>2026-04-19T16:23:30.999Z</time></trkpt><trkpt lat="49.29641038527346" lon="0.9691727221925089"><ele>126.0</ele><time>2026-04-19T16:23:31.999Z</time></trkpt><trkpt lat="49.2964434216037" lon="0.9688101944518451"><ele>126.0</ele><time>2026-04-19T16:23:32.999Z</time></trkpt><trkpt lat="49.29647469561358" lon="0.9684143460035901"><ele>126.5</ele><time>2026-04-19T16:23:33.999Z</time></trkpt><trkpt lat="49.29651207430827" lon="0.9680005548610571"><ele>127.0</ele><time>2026-04-19T16:23:34.999Z</time></trkpt><trkpt lat="49.296547083659135" lon="0.9676000224261568"><ele>128.0</ele><time>2026-04-19T16:23:35.999Z</time></trkpt><trkpt lat="49.29658718564037" lon="0.967189162015062"><ele>129.0</ele><time>2026-04-19T16:23:36.999Z</time></trkpt><trkpt lat="49.29663954589838" lon="0.966794717033868"><ele>129.33333333333334</ele><time>2026-04-19T16:23:37.999Z</time></trkpt><trkpt lat="49.296700457442334" lon="0.9664510864333044"><ele>129.66666666666669</ele><time>2026-04-19T16:23:38.999Z</time></trkpt><trkpt lat="49.29677266097235" lon="0.9661549538292592"><ele>130.0</ele><time>2026-04-19T16:23:39.999Z</time></trkpt><trkpt lat="49.29683265440012" lon="0.9658817575770252"><ele>129.66666666666669</ele><time>2026-04-19T16:23:40.999Z</time></trkpt><trkpt lat="49.296888522714006" lon="0.9656273462640127"><ele>129.33333333333334</ele><time>2026-04-19T16:23:41.999Z</time></trkpt><trkpt lat="49.29695081526075" lon="0.9653428419061728"><ele>129.0</ele><time>2026-04-19T16:23:42.999Z</time></trkpt><trkpt lat="49.29700164747642" lon="0.9650415099035773"><ele>129.0</ele><time>2026-04-19T16:23:43.999Z</time></trkpt><trkpt lat="49.297067965287326" lon="0.9647900676779556"><ele>129.0</ele><time>2026-04-19T16:23:44.999Z</time></trkpt><trkpt lat="49.297126541968986" lon="0.9645484352948662"><ele>129.0</ele><time>2026-04-19T16:23:45.999Z</time></trkpt><trkpt lat="49.297182849385116" lon="0.9643159679332648"><ele>129.0</ele><time>2026-04-19T16:23:46.999Z</time></trkpt><trkpt lat="49.29723677441934" lon="0.9641077398505133"><ele>129.0</ele><time>2026-04-19T16:23:47.999Z</time></trkpt><trkpt lat="49.29729238514268" lon="0.9638973088970332"><ele>129.0</ele><time>2026-04-19T16:23:48.999Z</time></trkpt><trkpt lat="49.29734454768936" lon="0.9636948980919835"><ele>129.0</ele><time>2026-04-19T16:23:49.999Z</time></trkpt><trkpt lat="49.29739527943006" lon="0.9635121499315891"><ele>128.66666666666666</ele><time>2026-04-19T16:23:50.999Z</time></trkpt><trkpt lat="49.2974584787502" lon="0.9633093479349364"><ele>128.33333333333331</ele><time>2026-04-19T16:23:51.999Z</time></trkpt><trkpt lat="49.29751597866781" lon="0.9630812505589732"><ele>128.0</ele><time>2026-04-19T16:23:52.999Z</time></trkpt><trkpt lat="49.29758280255947" lon="0.9628354503469901"><ele>128.0</ele><time>2026-04-19T16:23:53.999Z</time></trkpt><trkpt lat="49.297681349434036" lon="0.9625816504744797"><ele>128.0</ele><time>2026-04-19T16:23:54.999Z</time></trkpt><trkpt lat="49.297760644931024" lon="0.9623606529449702"><ele>128.0</ele><time>2026-04-19T16:23:55.999Z</time></trkpt><trkpt lat="49.297819057844215" lon="0.9621453723845073"><ele>128.25</ele><time>2026-04-19T16:23:56.998Z</time></trkpt><trkpt lat="49.297890347606206" lon="0.9619649051383566"><ele>128.5</ele><time>2026-04-19T16:23:57.998Z</time></trkpt><trkpt lat="49.29795514096965" lon="0.9617932697631688"><ele>128.75</ele><time>2026-04-19T16:23:58.998Z</time></trkpt><trkpt lat="49.29801845820546" lon="0.9616511565714996"><ele>129.0</ele><time>2026-04-19T16:23:59.998Z</time></trkpt><trkpt lat="49.298088143074835" lon="0.9615054763195151"><ele>128.4</ele><time>2026-04-19T16:24:00.998Z</time></trkpt><trkpt lat="49.298148787213094" lon="0.9613709227710053"><ele>127.80000000000001</ele><time>2026-04-19T16:24:01.998Z</time></trkpt><trkpt lat="49.29819918738972" lon="0.9612524891162941"><ele>127.19999999999999</ele><time>2026-04-19T16:24:02.998Z</time></trkpt><trkpt lat="49.29825034426432" lon="0.9611375359586355"><ele>126.6</ele><time>2026-04-19T16:24:03.998Z</time></trkpt><trkpt lat="49.29829622642451" lon="0.9610298291156653"><ele>126.0</ele><time>2026-04-19T16:24:04.998Z</time></trkpt><trkpt lat="49.298355431265136" lon="0.9609509989331947"><ele>126.0</ele><time>2026-04-19T16:24:05.998Z</time></trkpt><trkpt lat="49.2983883846838" lon="0.9608671315116598"><ele>126.0</ele><time>2026-04-19T16:24:06.998Z</time></trkpt><trkpt lat="49.29850585752356" lon="0.9609352022615769"><ele>126.0</ele><time>2026-04-19T16:24:08.998Z</time></trkpt><trkpt lat="49.29857228964428" lon="0.9609660176589506"><ele>126.0</ele><time>2026-04-19T16:24:09.998Z</time></trkpt><trkpt lat="49.29866448066163" lon="0.9610087816597365"><ele>126.0</ele><time>2026-04-19T16:24:10.998Z</time></trkpt><trkpt lat="49.298805434032325" lon="0.9610741647025627"><ele>125.0</ele><time>2026-04-19T16:24:11.998Z</time></trkpt><trkpt lat="49.29898044128829" lon="0.9611515143011471"><ele>124.0</ele><time>2026-04-19T16:24:12.998Z</time></trkpt><trkpt lat="49.29917674053137" lon="0.9612380620808675"><ele>123.0</ele><time>2026-04-19T16:24:13.998Z</time></trkpt><trkpt lat="49.29939428122215" lon="0.9613339751561055"><ele>123.0</ele><time>2026-04-19T16:24:14.998Z</time></trkpt><trkpt lat="49.29961018416892" lon="0.961429166150623"><ele>123.0</ele><time>2026-04-19T16:24:15.998Z</time></trkpt><trkpt lat="49.299797224432375" lon="0.9615116316731829"><ele>123.0</ele><time>2026-04-19T16:24:16.998Z</time></trkpt><trkpt lat="49.29996697288106" lon="0.9615864732826364"><ele>122.0</ele><time>2026-04-19T16:24:17.998Z</time></trkpt><trkpt lat="49.30012296906357" lon="0.961655251555206"><ele>121.0</ele><time>2026-04-19T16:24:18.998Z</time></trkpt><trkpt lat="49.30026137669547" lon="0.9617175122180747"><ele>120.0</ele><time>2026-04-19T16:24:19.998Z</time></trkpt><trkpt lat="49.30038539814248" lon="0.9617746930122689"><ele>119.0</ele><time>2026-04-19T16:24:20.998Z</time></trkpt><trkpt lat="49.300495791237715" lon="0.9618260414797176"><ele>118.66666666666666</ele><time>2026-04-19T16:24:21.998Z</time></trkpt><trkpt lat="49.30060239976239" lon="0.9618502314346798"><ele>118.33333333333333</ele><time>2026-04-19T16:24:22.998Z</time></trkpt><trkpt lat="49.300692667415575" lon="0.9618961363267124"><ele>118.0</ele><time>2026-04-19T16:24:23.998Z</time></trkpt><trkpt lat="49.30077288751293" lon="0.9619306064614167"><ele>117.66666666666666</ele><time>2026-04-19T16:24:24.998Z</time></trkpt><trkpt lat="49.30084135052866" lon="0.9619488084653048"><ele>117.33333333333333</ele><time>2026-04-19T16:24:25.998Z</time></trkpt><trkpt lat="49.30092397082322" lon="0.9620013086472222"><ele>117.0</ele><time>2026-04-19T16:24:27.998Z</time></trkpt><trkpt lat="49.3009888646274" lon="0.9617525896616177"><ele>116.25</ele><time>2026-04-19T16:24:28.998Z</time></trkpt><trkpt lat="49.30105022752788" lon="0.9616133438222213"><ele>115.5</ele><time>2026-04-19T16:24:29.998Z</time></trkpt><trkpt lat="49.301130032886114" lon="0.9614400255757809"><ele>114.75</ele><time>2026-04-19T16:24:30.998Z</time></trkpt><trkpt lat="49.30124486950259" lon="0.9612643916578122"><ele>114.0</ele><time>2026-04-19T16:24:31.998Z</time></trkpt><trkpt lat="49.30133858762253" lon="0.9610996002239967"><ele>114.0</ele><time>2026-04-19T16:24:32.998Z</time></trkpt><trkpt lat="49.30140888640425" lon="0.9609451460160279"><ele>114.0</ele><time>2026-04-19T16:24:33.998Z</time></trkpt><trkpt lat="49.3014802190069" lon="0.9608334628892377"><ele>114.0</ele><time>2026-04-19T16:24:34.998Z</time></trkpt><trkpt lat="49.30154518338145" lon="0.9607257099146572"><ele>114.0</ele><time>2026-04-19T16:24:35.998Z</time></trkpt><trkpt lat="49.30160240520901" lon="0.9606314082265859"><ele>114.0</ele><time>2026-04-19T16:24:36.998Z</time></trkpt><trkpt lat="49.301653991515614" lon="0.9605464463115648"><ele>114.6</ele><time>2026-04-19T16:24:37.998Z</time></trkpt><trkpt lat="49.301699469132174" lon="0.9604699576396903"><ele>115.2</ele><time>2026-04-19T16:24:38.998Z</time></trkpt><trkpt lat="49.3017919448213" lon="0.960354843985668"><ele>115.79999999999998</ele><time>2026-04-19T16:24:40.998Z</time></trkpt><trkpt lat="49.301936427833134" lon="0.9604082465244984"><ele>116.39999999999999</ele><time>2026-04-19T16:24:42.998Z</time></trkpt><trkpt lat="49.30203178903419" lon="0.9604298915521857"><ele>117.0</ele><time>2026-04-19T16:24:43.998Z</time></trkpt><trkpt lat="49.30216282691713" lon="0.9604664693638818"><ele>118.33333333333334</ele><time>2026-04-19T16:24:44.998Z</time></trkpt><trkpt lat="49.30230800082114" lon="0.9605370478652737"><ele>119.66666666666667</ele><time>2026-04-19T16:24:45.999Z</time></trkpt><trkpt lat="49.302463391895095" lon="0.9606289581734941"><ele>121.0</ele><time>2026-04-19T16:24:47Z</time></trkpt><trkpt lat="49.30260962348897" lon="0.9607240289372387"><ele>121.0</ele><time>2026-04-19T16:24:47.999Z</time></trkpt><trkpt lat="49.30272906902805" lon="0.9608119373101636"><ele>121.0</ele><time>2026-04-19T16:24:48.999Z</time></trkpt><trkpt lat="49.30284241985408" lon="0.960871249798342"><ele>121.0</ele><time>2026-04-19T16:24:50Z</time></trkpt><trkpt lat="49.30293835593968" lon="0.9609499865269769"><ele>121.0</ele><time>2026-04-19T16:24:50.999Z</time></trkpt><trkpt lat="49.30303193075751" lon="0.96101874950685"><ele>121.8</ele><time>2026-04-19T16:24:52Z</time></trkpt><trkpt lat="49.3031189033709" lon="0.9610725408363121"><ele>122.6</ele><time>2026-04-19T16:24:53Z</time></trkpt><trkpt lat="49.30320387731052" lon="0.9611113732486317"><ele>123.4</ele><time>2026-04-19T16:24:54Z</time></trkpt><trkpt lat="49.303289291096306" lon="0.961139253522471"><ele>124.2</ele><time>2026-04-19T16:24:55Z</time></trkpt><trkpt lat="49.30338807188075" lon="0.9611493680424656"><ele>125.0</ele><time>2026-04-19T16:24:56Z</time></trkpt><trkpt lat="49.303512887182755" lon="0.9611769092898077"><ele>125.0</ele><time>2026-04-19T16:24:57Z</time></trkpt><trkpt lat="49.303651863563225" lon="0.9611822780044865"><ele>125.0</ele><time>2026-04-19T16:24:58Z</time></trkpt><trkpt lat="49.30376274836907" lon="0.9611995942571058"><ele>125.0</ele><time>2026-04-19T16:24:59Z</time></trkpt><trkpt lat="49.303857765078604" lon="0.9611992430393987"><ele>125.0</ele><time>2026-04-19T16:25:00Z</time></trkpt><trkpt lat="49.30395663938109" lon="0.9612477215520535"><ele>125.0</ele><time>2026-04-19T16:25:01Z</time></trkpt><trkpt lat="49.304043579270434" lon="0.9612625492837188"><ele>125.0</ele><time>2026-04-19T16:25:02Z</time></trkpt><trkpt lat="49.30406997081093" lon="0.9614916607950017"><ele>125.0</ele><time>2026-04-19T16:25:02.999Z</time></trkpt><trkpt lat="49.30415809037607" lon="0.9616710147582761"><ele>125.0</ele><time>2026-04-19T16:25:03.999Z</time></trkpt><trkpt lat="49.304225314357545" lon="0.9618437537111664"><ele>125.0</ele><time>2026-04-19T16:25:04.999Z</time></trkpt><trkpt lat="49.30428178931269" lon="0.9620256130474584"><ele>125.25</ele><time>2026-04-19T16:25:05.999Z</time></trkpt><trkpt lat="49.30434462119358" lon="0.9621801940246898"><ele>125.5</ele><time>2026-04-19T16:25:06.999Z</time></trkpt><trkpt lat="49.30439031553684" lon="0.9623429202930572"><ele>125.75</ele><time>2026-04-19T16:25:07.999Z</time></trkpt><trkpt lat="49.304440528464774" lon="0.9625077045883259"><ele>126.0</ele><time>2026-04-19T16:25:08.999Z</time></trkpt><trkpt lat="49.30449960987321" lon="0.9626714115207284"><ele>126.33333333333333</ele><time>2026-04-19T16:25:09.999Z</time></trkpt><trkpt lat="49.30455156021955" lon="0.9628084946906631"><ele>126.66666666666666</ele><time>2026-04-19T16:25:10.999Z</time></trkpt><trkpt lat="49.304599638394826" lon="0.9629266648444852"><ele>127.0</ele><time>2026-04-19T16:25:11.999Z</time></trkpt><trkpt lat="49.30463903530661" lon="0.9630397620471189"><ele>127.33333333333333</ele><time>2026-04-19T16:25:12.999Z</time></trkpt><trkpt lat="49.304671750310725" lon="0.9631423106608812"><ele>127.66666666666666</ele><time>2026-04-19T16:25:13.999Z</time></trkpt><trkpt lat="49.30470957778455" lon="0.963253742637062"><ele>128.0</ele><time>2026-04-19T16:25:14.999Z</time></trkpt><trkpt lat="49.30474499615682" lon="0.9633591197700332"><ele>127.80000000000001</ele><time>2026-04-19T16:25:15.999Z</time></trkpt><trkpt lat="49.30478087683096" lon="0.9634408944073128"><ele>127.60000000000001</ele><time>2026-04-19T16:25:16.999Z</time></trkpt><trkpt lat="49.30485905880956" lon="0.963546094957551"><ele>127.39999999999999</ele><time>2026-04-19T16:25:18.999Z</time></trkpt><trkpt lat="49.30492855334821" lon="0.9635873199325705"><ele>127.19999999999999</ele><time>2026-04-19T16:25:19.999Z</time></trkpt><trkpt lat="49.30505987487472" lon="0.963675438827502"><ele>127.0</ele><time>2026-04-19T16:25:20.999Z</time></trkpt><trkpt lat="49.305196875847415" lon="0.9637838794142896"><ele>127.0</ele><time>2026-04-19T16:25:21.999Z</time></trkpt><trkpt lat="49.305334296687214" lon="0.9639666785038884"><ele>127.0</ele><time>2026-04-19T16:25:22.999Z</time></trkpt><trkpt lat="49.305484507576146" lon="0.9641396694648345"><ele>127.0</ele><time>2026-04-19T16:25:23.999Z</time></trkpt><trkpt lat="49.30567025371406" lon="0.9643273237058085"><ele>127.0</ele><time>2026-04-19T16:25:24.999Z</time></trkpt><trkpt lat="49.30586101718705" lon="0.9645268233310724"><ele>127.0</ele><time>2026-04-19T16:25:25.999Z</time></trkpt><trkpt lat="49.306081246237135" lon="0.9647092096667748"><ele>127.0</ele><time>2026-04-19T16:25:26.999Z</time></trkpt><trkpt lat="49.30632371756097" lon="0.9648522968350608"><ele>127.0</ele><time>2026-04-19T16:25:27.999Z</time></trkpt><trkpt lat="49.30655779642065" lon="0.9650176503268993"><ele>126.0</ele><time>2026-04-19T16:25:28.999Z</time></trkpt><trkpt lat="49.306805242848036" lon="0.9651909190257949"><ele>125.0</ele><time>2026-04-19T16:25:29.999Z</time></trkpt><trkpt lat="49.30706124091188" lon="0.9653856763293168"><ele>124.5</ele><time>2026-04-19T16:25:30.999Z</time></trkpt><trkpt lat="49.307316414045886" lon="0.9655892188224766"><ele>124.0</ele><time>2026-04-19T16:25:31.999Z</time></trkpt><trkpt lat="49.30755054230645" lon="0.9657712637225049"><ele>124.0</ele><time>2026-04-19T16:25:32.999Z</time></trkpt><trkpt lat="49.30775085884557" lon="0.9659403721632331"><ele>124.0</ele><time>2026-04-19T16:25:33.999Z</time></trkpt><trkpt lat="49.307939797540364" lon="0.9660999922115578"><ele>124.0</ele><time>2026-04-19T16:25:34.999Z</time></trkpt><trkpt lat="49.308115053303325" lon="0.9662083647684608"><ele>124.0</ele><time>2026-04-19T16:25:35.999Z</time></trkpt><trkpt lat="49.30825534118364" lon="0.9663220855567145"><ele>124.0</ele><time>2026-04-19T16:25:36.999Z</time></trkpt><trkpt lat="49.30837464354647" lon="0.9664397410814355"><ele>124.0</ele><time>2026-04-19T16:25:37.999Z</time></trkpt><trkpt lat="49.308496869541955" lon="0.9665094537668988"><ele>124.0</ele><time>2026-04-19T16:25:38.999Z</time></trkpt><trkpt lat="49.30859383803249" lon="0.966590553269221"><ele>124.00000000000001</ele><time>2026-04-19T16:25:39.999Z</time></trkpt><trkpt lat="49.30867539383215" lon="0.9666592871106138"><ele>124.0</ele><time>2026-04-19T16:25:40.999Z</time></trkpt><trkpt lat="49.308742058550116" lon="0.9667091316908255"><ele>124.0</ele><time>2026-04-19T16:25:41.999Z</time></trkpt><trkpt lat="49.30883551696071" lon="0.9667937541298489"><ele>124.0</ele><time>2026-04-19T16:25:43.999Z</time></trkpt><trkpt lat="49.308901193538865" lon="0.9668739859656943"><ele>124.00000000000001</ele><time>2026-04-19T16:25:45.999Z</time></trkpt><trkpt lat="49.30895933640043" lon="0.9669663065557978"><ele>124.0</ele><time>2026-04-19T16:25:47.999Z</time></trkpt><trkpt lat="49.30901909219734" lon="0.9670296962514318"><ele>125.0</ele><time>2026-04-19T16:25:49.999Z</time></trkpt><trkpt lat="49.30911127224056" lon="0.96712748200342"><ele>126.0</ele><time>2026-04-19T16:25:51.999Z</time></trkpt><trkpt lat="49.30910320556318" lon="0.9673195973803312"><ele>127.0</ele><time>2026-04-19T16:25:52.999Z</time></trkpt><trkpt lat="49.309149440170636" lon="0.967401308095415"><ele>128.0</ele><time>2026-04-19T16:25:53.999Z</time></trkpt><trkpt lat="49.309199507213044" lon="0.9675245971816416"><ele>129.0</ele><time>2026-04-19T16:25:54.999Z</time></trkpt><trkpt lat="49.30927376300185" lon="0.9676787737387149"><ele>129.0</ele><time>2026-04-19T16:25:55.999Z</time></trkpt><trkpt lat="49.30937079458199" lon="0.9678756284763329"><ele>129.0</ele><time>2026-04-19T16:25:56.999Z</time></trkpt><trkpt lat="49.30945347952066" lon="0.9680692629684523"><ele>129.0</ele><time>2026-04-19T16:25:57.999Z</time></trkpt><trkpt lat="49.30952107074491" lon="0.9682354459481122"><ele>129.0</ele><time>2026-04-19T16:25:58.999Z</time></trkpt><trkpt lat="49.30958445600673" lon="0.9683758077492483"><ele>128.83333333333334</ele><time>2026-04-19T16:25:59.999Z</time></trkpt><trkpt lat="49.30962146245851" lon="0.968480936835835"><ele>128.66666666666666</ele><time>2026-04-19T16:26:00.999Z</time></trkpt><trkpt lat="49.30967112142325" lon="0.9685465484274192"><ele>128.5</ele><time>2026-04-19T16:26:01.999Z</time></trkpt><trkpt lat="49.30973669874213" lon="0.968615099562594"><ele>128.33333333333331</ele><time>2026-04-19T16:26:02.999Z</time></trkpt><trkpt lat="49.309796004418835" lon="0.9686488309000746"><ele>128.16666666666666</ele><time>2026-04-19T16:26:03.998Z</time></trkpt><trkpt lat="49.30988230057933" lon="0.9687518652916034"><ele>128.0</ele><time>2026-04-19T16:26:05.998Z</time></trkpt><trkpt lat="49.30998467334923" lon="0.9687942124015251"><ele>128.0</ele><time>2026-04-19T16:26:07.998Z</time></trkpt><trkpt lat="49.310059364681834" lon="0.968892172035319"><ele>128.0</ele><time>2026-04-19T16:26:08.998Z</time></trkpt><trkpt lat="49.31017058022584" lon="0.9690139939878742"><ele>128.0</ele><time>2026-04-19T16:26:09.998Z</time></trkpt><trkpt lat="49.31028942589785" lon="0.9691460452642168"><ele>128.0</ele><time>2026-04-19T16:26:10.998Z</time></trkpt><trkpt lat="49.310359561059634" lon="0.969235496006646"><ele>128.0</ele><time>2026-04-19T16:26:11.998Z</time></trkpt><trkpt lat="49.310444315756044" lon="0.9693065509920291"><ele>128.0</ele><time>2026-04-19T16:26:12.998Z</time></trkpt><trkpt lat="49.31052217984016" lon="0.9693904978205188"><ele>128.0</ele><time>2026-04-19T16:26:13.998Z</time></trkpt><trkpt lat="49.31060799993581" lon="0.9694975448694131"><ele>128.0</ele><time>2026-04-19T16:26:14.998Z</time></trkpt><trkpt lat="49.310693250246096" lon="0.9696015889019347"><ele>128.0</ele><time>2026-04-19T16:26:15.998Z</time></trkpt><trkpt lat="49.31077522702269" lon="0.9696730641431134"><ele>128.0</ele><time>2026-04-19T16:26:16.998Z</time></trkpt><trkpt lat="49.31086602885013" lon="0.9697402667567585"><ele>128.0</ele><time>2026-04-19T16:26:17.998Z</time></trkpt><trkpt lat="49.310945726041126" lon="0.9698080218422097"><ele>128.0</ele><time>2026-04-19T16:26:18.998Z</time></trkpt><trkpt lat="49.31102568660961" lon="0.9698774227812971"><ele>128.0</ele><time>2026-04-19T16:26:19.998Z</time></trkpt><trkpt lat="49.31109000204806" lon="0.9699810200996566"><ele>128.0</ele><time>2026-04-19T16:26:20.998Z</time></trkpt><trkpt lat="49.311153457770736" lon="0.9700777883495528"><ele>128.16666666666666</ele><time>2026-04-19T16:26:21.998Z</time></trkpt><trkpt lat="49.311209016398976" lon="0.9701380659423928"><ele>128.33333333333331</ele><time>2026-04-19T16:26:22.998Z</time></trkpt><trkpt lat="49.31127245519927" lon="0.9701822932284664"><ele>128.5</ele><time>2026-04-19T16:26:23.998Z</time></trkpt><trkpt lat="49.311342360943975" lon="0.9702314245752157"><ele>128.66666666666666</ele><time>2026-04-19T16:26:24.998Z</time></trkpt><trkpt lat="49.3113966900949" lon="0.9702862140637873"><ele>128.83333333333334</ele><time>2026-04-19T16:26:25.998Z</time></trkpt><trkpt lat="49.31145738740896" lon="0.9703581559495971"><ele>129.0</ele><time>2026-04-19T16:26:26.998Z</time></trkpt><trkpt lat="49.31155208803541" lon="0.9704483091293219"><ele>128.6</ele><time>2026-04-19T16:26:27.998Z</time></trkpt><trkpt lat="49.311646151776955" lon="0.9705135140244584"><ele>128.2</ele><time>2026-04-19T16:26:28.998Z</time></trkpt><trkpt lat="49.3117104395396" lon="0.970595501802835"><ele>127.79999999999998</ele><time>2026-04-19T16:26:29.998Z</time></trkpt><trkpt lat="49.311782148133105" lon="0.9707009168668935"><ele>127.39999999999999</ele><time>2026-04-19T16:26:30.998Z</time></trkpt><trkpt lat="49.311896922064875" lon="0.9708391416655576"><ele>127.0</ele><time>2026-04-19T16:26:31.998Z</time></trkpt><trkpt lat="49.31202214688857" lon="0.9709605290840149"><ele>127.0</ele><time>2026-04-19T16:26:32.998Z</time></trkpt><trkpt lat="49.31213498680356" lon="0.9710461407585583"><ele>126.99999999999999</ele><time>2026-04-19T16:26:33.998Z</time></trkpt><trkpt lat="49.312231397559614" lon="0.9711183622669113"><ele>126.99999999999999</ele><time>2026-04-19T16:26:34.998Z</time></trkpt><trkpt lat="49.312306384022236" lon="0.9711761345651021"><ele>127.0</ele><time>2026-04-19T16:26:35.998Z</time></trkpt><trkpt lat="49.312382268290605" lon="0.9713093849440135"><ele>127.0</ele><time>2026-04-19T16:26:37.998Z</time></trkpt><trkpt lat="49.312446960935205" lon="0.9713695143644939"><ele>127.00000000000001</ele><time>2026-04-19T16:26:38.998Z</time></trkpt><trkpt lat="49.312528628062374" lon="0.9714343483013471"><ele>127.0</ele><time>2026-04-19T16:26:39.998Z</time></trkpt><trkpt lat="49.312612863927725" lon="0.9714954339624408"><ele>127.0</ele><time>2026-04-19T16:26:40.998Z</time></trkpt><trkpt lat="49.312655534484854" lon="0.9715922171565928"><ele>127.0</ele><time>2026-04-19T16:26:42.998Z</time></trkpt><trkpt lat="49.31258905652759" lon="0.9717035856000209"><ele>127.00000000000001</ele><time>2026-04-19T16:26:44.998Z</time></trkpt><trkpt lat="49.3125324290099" lon="0.9717724883649546"><ele>127.0</ele><time>2026-04-19T16:26:45.998Z</time></trkpt><trkpt lat="49.312469035367975" lon="0.9718597232267351"><ele>127.19999999999999</ele><time>2026-04-19T16:26:46.998Z</time></trkpt><trkpt lat="49.31241553926071" lon="0.9719418315435295"><ele>127.39999999999999</ele><time>2026-04-19T16:26:47.998Z</time></trkpt><trkpt lat="49.31233827266507" lon="0.9720705497291346"><ele>127.60000000000001</ele><time>2026-04-19T16:26:48.998Z</time></trkpt><trkpt lat="49.31224713065139" lon="0.9722175189124469"><ele>127.80000000000001</ele><time>2026-04-19T16:26:49.998Z</time></trkpt><trkpt lat="49.31215917000617" lon="0.9723396987105128"><ele>128.0</ele><time>2026-04-19T16:26:50.998Z</time></trkpt><trkpt lat="49.31208526172985" lon="0.9724304351306593"><ele>127.60000000000001</ele><time>2026-04-19T16:26:52Z</time></trkpt><trkpt lat="49.312020906068994" lon="0.9725361342734489"><ele>127.20000000000002</ele><time>2026-04-19T16:26:53Z</time></trkpt><trkpt lat="49.311982471315574" lon="0.97266095779758"><ele>126.8</ele><time>2026-04-19T16:26:53.999Z</time></trkpt><trkpt lat="49.311937412237924" lon="0.972782900624213"><ele>126.4</ele><time>2026-04-19T16:26:54.999Z</time></trkpt><trkpt lat="49.31188132571238" lon="0.9729091540798738"><ele>126.0</ele><time>2026-04-19T16:26:56Z</time></trkpt><trkpt lat="49.311812577872296" lon="0.9730843239183941"><ele>126.0</ele><time>2026-04-19T16:26:56.999Z</time></trkpt><trkpt lat="49.31174982700903" lon="0.9732496334055332"><ele>126.0</ele><time>2026-04-19T16:26:57.999Z</time></trkpt><trkpt lat="49.31169255384331" lon="0.9733962163260982"><ele>126.0</ele><time>2026-04-19T16:26:59Z</time></trkpt><trkpt lat="49.31164670927855" lon="0.9735134535742023"><ele>126.0</ele><time>2026-04-19T16:26:59.999Z</time></trkpt><trkpt lat="49.311600416826245" lon="0.9736167360194069"><ele>126.0</ele><time>2026-04-19T16:27:01Z</time></trkpt><trkpt lat="49.3115564851771" lon="0.9737218638077239"><ele>125.66666666666667</ele><time>2026-04-19T16:27:02Z</time></trkpt><trkpt lat="49.311513364273544" lon="0.9738406043040341"><ele>125.33333333333334</ele><time>2026-04-19T16:27:03Z</time></trkpt><trkpt lat="49.311485943667606" lon="0.9739515068723635"><ele>125.0</ele><time>2026-04-19T16:27:04Z</time></trkpt><trkpt lat="49.31145006793295" lon="0.9740439565976223"><ele>124.66666666666667</ele><time>2026-04-19T16:27:05Z</time></trkpt><trkpt lat="49.311410752269786" lon="0.9741272537038246"><ele>124.33333333333334</ele><time>2026-04-19T16:27:06Z</time></trkpt><trkpt lat="49.31135822057501" lon="0.9742459640110601"><ele>124.0</ele><time>2026-04-19T16:27:06.999Z</time></trkpt><trkpt lat="49.31130984665859" lon="0.974346265264855"><ele>122.50000000000001</ele><time>2026-04-19T16:27:07.999Z</time></trkpt><trkpt lat="49.311273313115876" lon="0.9744502788960253"><ele>121.0</ele><time>2026-04-19T16:27:08.999Z</time></trkpt><trkpt lat="49.31123274042818" lon="0.9745696543362529"><ele>119.5</ele><time>2026-04-19T16:27:09.999Z</time></trkpt><trkpt lat="49.31119129372315" lon="0.9746769444278081"><ele>118.0</ele><time>2026-04-19T16:27:10.999Z</time></trkpt><trkpt lat="49.3111537426281" lon="0.9747814342453922"><ele>116.50000000000001</ele><time>2026-04-19T16:27:11.999Z</time></trkpt><trkpt lat="49.31111510254891" lon="0.974881412902178"><ele>115.0</ele><time>2026-04-19T16:27:12.999Z</time></trkpt><trkpt lat="49.311082161966695" lon="0.9749747136373641"><ele>112.2</ele><time>2026-04-19T16:27:13.999Z</time></trkpt><trkpt lat="49.31101999652026" lon="0.9751396923576018"><ele>109.4</ele><time>2026-04-19T16:27:15.999Z</time></trkpt><trkpt lat="49.310951135194465" lon="0.9753156534245059"><ele>106.6</ele><time>2026-04-19T16:27:17.999Z</time></trkpt><trkpt lat="49.310913268902155" lon="0.9754162839997141"><ele>103.8</ele><time>2026-04-19T16:27:18.999Z</time></trkpt><trkpt lat="49.31087464039506" lon="0.9755122325570158"><ele>101.0</ele><time>2026-04-19T16:27:19.999Z</time></trkpt><trkpt lat="49.31083657894156" lon="0.9756176401539605"><ele>100.99999999999999</ele><time>2026-04-19T16:27:20.999Z</time></trkpt><trkpt lat="49.31080122410306" lon="0.9757057615075826"><ele>101.0</ele><time>2026-04-19T16:27:21.999Z</time></trkpt><trkpt lat="49.31076207413757" lon="0.9758192879654591"><ele>101.0</ele><time>2026-04-19T16:27:22.999Z</time></trkpt><trkpt lat="49.310720398910675" lon="0.9759363173916505"><ele>101.0</ele><time>2026-04-19T16:27:23.999Z</time></trkpt><trkpt lat="49.31067346833847" lon="0.9760651615348329"><ele>100.99999999999999</ele><time>2026-04-19T16:27:24.999Z</time></trkpt><trkpt lat="49.310623689880394" lon="0.9761830967810258"><ele>101.0</ele><time>2026-04-19T16:27:25.999Z</time></trkpt><trkpt lat="49.31057678120798" lon="0.9762697323929163"><ele>98.8</ele><time>2026-04-19T16:27:26.999Z</time></trkpt><trkpt lat="49.3105283822299" lon="0.9763669092911591"><ele>96.6</ele><time>2026-04-19T16:27:27.999Z</time></trkpt><trkpt lat="49.310477434115704" lon="0.9765204412318906"><ele>94.4</ele><time>2026-04-19T16:27:28.999Z</time></trkpt><trkpt lat="49.310418364416115" lon="0.9766694564208768"><ele>92.2</ele><time>2026-04-19T16:27:29.999Z</time></trkpt><trkpt lat="49.31035938568705" lon="0.9768209041692707"><ele>90.0</ele><time>2026-04-19T16:27:30.999Z</time></trkpt><trkpt lat="49.310292414832325" lon="0.9769685395881743"><ele>90.0</ele><time>2026-04-19T16:27:31.999Z</time></trkpt><trkpt lat="49.31023473479725" lon="0.9771051623726899"><ele>90.0</ele><time>2026-04-19T16:27:32.999Z</time></trkpt><trkpt lat="49.31018114960128" lon="0.9772415354607167"><ele>90.0</ele><time>2026-04-19T16:27:33.999Z</time></trkpt><trkpt lat="49.310126627403186" lon="0.9773434174052508"><ele>90.0</ele><time>2026-04-19T16:27:34.999Z</time></trkpt><trkpt lat="49.31007969829332" lon="0.9774752780882526"><ele>90.0</ele><time>2026-04-19T16:27:35.999Z</time></trkpt><trkpt lat="49.310033747440414" lon="0.9776289830491559"><ele>92.8</ele><time>2026-04-19T16:27:36.999Z</time></trkpt><trkpt lat="49.30997817872758" lon="0.9777967309398957"><ele>95.6</ele><time>2026-04-19T16:27:37.999Z</time></trkpt><trkpt lat="49.309921025280005" lon="0.97794406241755"><ele>98.4</ele><time>2026-04-19T16:27:38.999Z</time></trkpt><trkpt lat="49.30985791870914" lon="0.9780686918498883"><ele>101.2</ele><time>2026-04-19T16:27:39.999Z</time></trkpt><trkpt lat="49.30980792619617" lon="0.9781815554787419"><ele>104.0</ele><time>2026-04-19T16:27:40.999Z</time></trkpt><trkpt lat="49.30976993578378" lon="0.9783017500776044"><ele>106.80000000000001</ele><time>2026-04-19T16:27:41.999Z</time></trkpt><trkpt lat="49.309708654704984" lon="0.978455379243179"><ele>109.60000000000001</ele><time>2026-04-19T16:27:42.999Z</time></trkpt><trkpt lat="49.30964428620479" lon="0.9786173514285281"><ele>112.4</ele><time>2026-04-19T16:27:43.999Z</time></trkpt><trkpt lat="49.30961000617425" lon="0.9787267507049408"><ele>115.2</ele><time>2026-04-19T16:27:44.999Z</time></trkpt><trkpt lat="49.309577237376196" lon="0.9788579113040046"><ele>118.0</ele><time>2026-04-19T16:27:46.999Z</time></trkpt><trkpt lat="49.309633553864764" lon="0.9787584338037008"><ele>118.00000000000001</ele><time>2026-04-19T16:33:23Z</time></trkpt><trkpt lat="49.3096426930098" lon="0.9786411149635629"><ele>118.0</ele><time>2026-04-19T16:33:26.999Z</time></trkpt><trkpt lat="49.30967292097185" lon="0.9785372844371133"><ele>118.0</ele><time>2026-04-19T16:33:28.999Z</time></trkpt><trkpt lat="49.30968513086064" lon="0.9784233196466348"><ele>118.0</ele><time>2026-04-19T16:33:30.999Z</time></trkpt><trkpt lat="49.30972850954532" lon="0.9782824610724586"><ele>118.00000000000001</ele><time>2026-04-19T16:33:32.999Z</time></trkpt><trkpt lat="49.30976002523601" lon="0.9781789464955248"><ele>118.0</ele><time>2026-04-19T16:33:34.999Z</time></trkpt><trkpt lat="49.30979874171864" lon="0.9780708948824205"><ele>114.5</ele><time>2026-04-19T16:33:36.999Z</time></trkpt><trkpt lat="49.30986546706541" lon="0.9779357969748431"><ele>111.0</ele><time>2026-04-19T16:33:38.999Z</time></trkpt><trkpt lat="49.30992209797278" lon="0.9777849158145102"><ele>107.5</ele><time>2026-04-19T16:33:40.999Z</time></trkpt><trkpt lat="49.309983001926156" lon="0.9776432810219257"><ele>104.0</ele><time>2026-04-19T16:33:42.999Z</time></trkpt><trkpt lat="49.31004063843645" lon="0.9774902207705874"><ele>101.2</ele><time>2026-04-19T16:33:44.999Z</time></trkpt><trkpt lat="49.310105738941935" lon="0.9773438911842782"><ele>98.4</ele><time>2026-04-19T16:33:46.999Z</time></trkpt><trkpt lat="49.31016597523463" lon="0.9772101640169527"><ele>95.6</ele><time>2026-04-19T16:33:48.999Z</time></trkpt><trkpt lat="49.31024430499487" lon="0.9770447709315625"><ele>92.8</ele><time>2026-04-19T16:33:50.999Z</time></trkpt><trkpt lat="49.310285319472165" lon="0.9769593247784771"><ele>90.0</ele><time>2026-04-19T16:33:51.999Z</time></trkpt><trkpt lat="49.31032939400183" lon="0.9768498350252575"><ele>90.0</ele><time>2026-04-19T16:33:52.999Z</time></trkpt><trkpt lat="49.310381633151216" lon="0.9767272962782048"><ele>90.0</ele><time>2026-04-19T16:33:53.999Z</time></trkpt><trkpt lat="49.310435610241164" lon="0.976598125122738"><ele>90.0</ele><time>2026-04-19T16:33:54.999Z</time></trkpt><trkpt lat="49.310504511483764" lon="0.9764545431121389"><ele>90.0</ele><time>2026-04-19T16:33:55.999Z</time></trkpt><trkpt lat="49.31055686606527" lon="0.9763127353602665"><ele>90.0</ele><time>2026-04-19T16:33:56.999Z</time></trkpt><trkpt lat="49.31061617295951" lon="0.9761741275616601"><ele>89.8</ele><time>2026-04-19T16:33:57.999Z</time></trkpt><trkpt lat="49.31068311713895" lon="0.9760319390954268"><ele>89.6</ele><time>2026-04-19T16:33:58.999Z</time></trkpt><trkpt lat="49.31073653256082" lon="0.9758922879317853"><ele>89.4</ele><time>2026-04-19T16:33:59.999Z</time></trkpt><trkpt lat="49.31078880724345" lon="0.9757615637116774"><ele>89.2</ele><time>2026-04-19T16:34:00.999Z</time></trkpt><trkpt lat="49.31084706714074" lon="0.975599158719527"><ele>89.0</ele><time>2026-04-19T16:34:01.999Z</time></trkpt><trkpt lat="49.310912743946595" lon="0.9754259658318315"><ele>92.0</ele><time>2026-04-19T16:34:02.999Z</time></trkpt><trkpt lat="49.31098692293884" lon="0.9752412668146783"><ele>95.0</ele><time>2026-04-19T16:34:03.999Z</time></trkpt><trkpt lat="49.311049424972985" lon="0.9750498790813243"><ele>98.0</ele><time>2026-04-19T16:34:04.999Z</time></trkpt><trkpt lat="49.31112139343156" lon="0.9748261209474518"><ele>101.0</ele><time>2026-04-19T16:34:05.999Z</time></trkpt><trkpt lat="49.31120195569734" lon="0.9745826856143803"><ele>104.5</ele><time>2026-04-19T16:34:06.999Z</time></trkpt><trkpt lat="49.311287404851186" lon="0.9743663787629108"><ele>108.0</ele><time>2026-04-19T16:34:07.999Z</time></trkpt><trkpt lat="49.31136688870448" lon="0.9741989081750165"><ele>111.5</ele><time>2026-04-19T16:34:08.999Z</time></trkpt><trkpt lat="49.31142535058419" lon="0.9740462429538052"><ele>115.0</ele><time>2026-04-19T16:34:09.999Z</time></trkpt><trkpt lat="49.311493725051314" lon="0.9738970715032871"><ele>116.8</ele><time>2026-04-19T16:34:10.999Z</time></trkpt><trkpt lat="49.311550208645876" lon="0.9737513548912723"><ele>118.6</ele><time>2026-04-19T16:34:11.999Z</time></trkpt><trkpt lat="49.31160223178338" lon="0.9736372959700514"><ele>120.4</ele><time>2026-04-19T16:34:12.999Z</time></trkpt><trkpt lat="49.31164357497663" lon="0.9735403011877972"><ele>122.2</ele><time>2026-04-19T16:34:13.999Z</time></trkpt><trkpt lat="49.3117034783238" lon="0.9734105375026648"><ele>124.0</ele><time>2026-04-19T16:34:15.999Z</time></trkpt><trkpt lat="49.311748639549414" lon="0.9732831802572037"><ele>124.4</ele><time>2026-04-19T16:34:17.999Z</time></trkpt><trkpt lat="49.31179354414835" lon="0.9731329064964885"><ele>124.80000000000001</ele><time>2026-04-19T16:34:19.999Z</time></trkpt><trkpt lat="49.31182517813282" lon="0.9730419197703224"><ele>125.19999999999999</ele><time>2026-04-19T16:34:20.999Z</time></trkpt><trkpt lat="49.3118807240413" lon="0.9728839811719132"><ele>125.6</ele><time>2026-04-19T16:34:21.999Z</time></trkpt><trkpt lat="49.31195127796441" lon="0.9726841255411937"><ele>126.0</ele><time>2026-04-19T16:34:22.999Z</time></trkpt><trkpt lat="49.312029990113615" lon="0.9724963587742337"><ele>126.4</ele><time>2026-04-19T16:34:23.999Z</time></trkpt><trkpt lat="49.31210127341189" lon="0.9723582988071137"><ele>126.8</ele><time>2026-04-19T16:34:24.999Z</time></trkpt><trkpt lat="49.312173171147506" lon="0.9722626304750001"><ele>127.20000000000002</ele><time>2026-04-19T16:34:25.999Z</time></trkpt><trkpt lat="49.312246759349705" lon="0.9721799624001284"><ele>127.60000000000001</ele><time>2026-04-19T16:34:26.999Z</time></trkpt><trkpt lat="49.31231626969038" lon="0.9720755498481255"><ele>128.0</ele><time>2026-04-19T16:34:27.999Z</time></trkpt><trkpt lat="49.31240970960949" lon="0.9719440826280897"><ele>128.0</ele><time>2026-04-19T16:34:28.999Z</time></trkpt><trkpt lat="49.312492437941934" lon="0.9718217356955298"><ele>128.0</ele><time>2026-04-19T16:34:29.998Z</time></trkpt><trkpt lat="49.31258711639647" lon="0.9717090454337751"><ele>128.0</ele><time>2026-04-19T16:34:30.998Z</time></trkpt><trkpt lat="49.31265979633596" lon="0.9715789672655537"><ele>128.0</ele><time>2026-04-19T16:34:31.998Z</time></trkpt><trkpt lat="49.31274331675606" lon="0.9714280076848512"><ele>127.75</ele><time>2026-04-19T16:34:32.998Z</time></trkpt><trkpt lat="49.312820616876735" lon="0.97131989859712"><ele>127.5</ele><time>2026-04-19T16:34:33.998Z</time></trkpt><trkpt lat="49.31289051201255" lon="0.9712166623431444"><ele>127.25</ele><time>2026-04-19T16:34:34.998Z</time></trkpt><trkpt lat="49.312974433261125" lon="0.971096078400891"><ele>127.0</ele><time>2026-04-19T16:34:35.998Z</time></trkpt><trkpt lat="49.31307641703453" lon="0.9709518248716263"><ele>126.8</ele><time>2026-04-19T16:34:36.998Z</time></trkpt><trkpt lat="49.31316145990929" lon="0.9708089489572763"><ele>126.6</ele><time>2026-04-19T16:34:37.998Z</time></trkpt><trkpt lat="49.313236584169644" lon="0.9706913556183626"><ele>126.39999999999999</ele><time>2026-04-19T16:34:38.998Z</time></trkpt><trkpt lat="49.31329744020455" lon="0.9706091893269787"><ele>126.19999999999999</ele><time>2026-04-19T16:34:39.998Z</time></trkpt><trkpt lat="49.313356568897056" lon="0.9705242891472103"><ele>126.0</ele><time>2026-04-19T16:34:40.998Z</time></trkpt><trkpt lat="49.31341791007978" lon="0.9704596174873599"><ele>126.0</ele><time>2026-04-19T16:34:41.998Z</time></trkpt><trkpt lat="49.31348720738188" lon="0.970370642543865"><ele>126.0</ele><time>2026-04-19T16:34:42.998Z</time></trkpt><trkpt lat="49.31355629105724" lon="0.9702766123657709"><ele>126.0</ele><time>2026-04-19T16:34:43.998Z</time></trkpt><trkpt lat="49.313627414722625" lon="0.9701905290792265"><ele>126.0</ele><time>2026-04-19T16:34:44.998Z</time></trkpt><trkpt lat="49.31370489791753" lon="0.9700840614662091"><ele>126.0</ele><time>2026-04-19T16:34:45.998Z</time></trkpt><trkpt lat="49.3137785167975" lon="0.9700126754400878"><ele>125.83333333333333</ele><time>2026-04-19T16:34:46.998Z</time></trkpt><trkpt lat="49.313820625602624" lon="0.969936425131918"><ele>125.66666666666666</ele><time>2026-04-19T16:34:47.998Z</time></trkpt><trkpt lat="49.31387417918939" lon="0.969877822966438"><ele>125.5</ele><time>2026-04-19T16:34:48.998Z</time></trkpt><trkpt lat="49.31395950211965" lon="0.969774438874494"><ele>125.33333333333333</ele><time>2026-04-19T16:34:49.998Z</time></trkpt><trkpt lat="49.314029574758855" lon="0.9696751388992317"><ele>125.16666666666666</ele><time>2026-04-19T16:34:50.998Z</time></trkpt><trkpt lat="49.314088020655916" lon="0.969580155565106"><ele>125.0</ele><time>2026-04-19T16:34:51.998Z</time></trkpt><trkpt lat="49.31413570128604" lon="0.9695007069931983"><ele>124.6</ele><time>2026-04-19T16:34:52.998Z</time></trkpt><trkpt lat="49.31419137409133" lon="0.969444759119095"><ele>124.2</ele><time>2026-04-19T16:34:53.998Z</time></trkpt><trkpt lat="49.3142427414897" lon="0.969371956790672"><ele>123.80000000000001</ele><time>2026-04-19T16:34:54.998Z</time></trkpt><trkpt lat="49.31430561990241" lon="0.9692629726328773"><ele>123.4</ele><time>2026-04-19T16:34:55.998Z</time></trkpt><trkpt lat="49.31438221128015" lon="0.9691474989528478"><ele>123.0</ele><time>2026-04-19T16:34:56.998Z</time></trkpt><trkpt lat="49.31447493767423" lon="0.9690216447332572"><ele>123.0</ele><time>2026-04-19T16:34:57.998Z</time></trkpt><trkpt lat="49.31457390319633" lon="0.9688699099995438"><ele>123.0</ele><time>2026-04-19T16:34:58.998Z</time></trkpt><trkpt lat="49.314667235673504" lon="0.9687214964847838"><ele>123.0</ele><time>2026-04-19T16:34:59.998Z</time></trkpt><trkpt lat="49.31474443466071" lon="0.968610454616151"><ele>123.0</ele><time>2026-04-19T16:35:00.998Z</time></trkpt><trkpt lat="49.31480725904016" lon="0.9684846653567566"><ele>121.85714285714288</ele><time>2026-04-19T16:35:01.998Z</time></trkpt><trkpt lat="49.314873932535285" lon="0.9684038483255148"><ele>120.71428571428572</ele><time>2026-04-19T16:35:02.998Z</time></trkpt><trkpt lat="49.314931133328535" lon="0.9683311568584957"><ele>119.57142857142857</ele><time>2026-04-19T16:35:03.998Z</time></trkpt><trkpt lat="49.31498827295682" lon="0.9682657383743808"><ele>118.42857142857143</ele><time>2026-04-19T16:35:04.998Z</time></trkpt><trkpt lat="49.31504661734856" lon="0.9681914464868403"><ele>117.28571428571428</ele><time>2026-04-19T16:35:05.998Z</time></trkpt><trkpt lat="49.31509789339703" lon="0.96812778828294"><ele>116.14285714285712</ele><time>2026-04-19T16:35:06.998Z</time></trkpt><trkpt lat="49.31515409392912" lon="0.9680701841792303"><ele>114.99999999999999</ele><time>2026-04-19T16:35:07.998Z</time></trkpt><trkpt lat="49.31525005308672" lon="0.9679569940097452"><ele>114.6</ele><time>2026-04-19T16:35:09.998Z</time></trkpt><trkpt lat="49.31532433606641" lon="0.967841919897748"><ele>114.2</ele><time>2026-04-19T16:35:11.998Z</time></trkpt><trkpt lat="49.31538758684339" lon="0.967768608196571"><ele>113.80000000000001</ele><time>2026-04-19T16:35:13.998Z</time></trkpt><trkpt lat="49.31546621269999" lon="0.9676841071868949"><ele>113.4</ele><time>2026-04-19T16:35:16Z</time></trkpt><trkpt lat="49.3155022981587" lon="0.9675590413761542"><ele>113.0</ele><time>2026-04-19T16:35:18Z</time></trkpt><trkpt lat="49.31557997444714" lon="0.9674362008500924"><ele>110.33333333333333</ele><time>2026-04-19T16:35:20Z</time></trkpt><trkpt lat="49.3156653780251" lon="0.9673285445248039"><ele>107.66666666666666</ele><time>2026-04-19T16:35:22Z</time></trkpt><trkpt lat="49.31571376249455" lon="0.9672660446317682"><ele>105.0</ele><time>2026-04-19T16:35:23Z</time></trkpt><trkpt lat="49.31575941249488" lon="0.9671830100759956"><ele>102.33333333333334</ele><time>2026-04-19T16:35:24Z</time></trkpt><trkpt lat="49.315804610176166" lon="0.9671103105290367"><ele>99.66666666666667</ele><time>2026-04-19T16:35:25Z</time></trkpt><trkpt lat="49.315852654855064" lon="0.9670401308404452"><ele>97.0</ele><time>2026-04-19T16:35:26Z</time></trkpt><trkpt lat="49.31595525866759" lon="0.9669230483331939"><ele>97.0</ele><time>2026-04-19T16:35:28Z</time></trkpt><trkpt lat="49.31601244460585" lon="0.9668631121321819"><ele>97.0</ele><time>2026-04-19T16:35:29Z</time></trkpt><trkpt lat="49.31609213349044" lon="0.9667124916875921"><ele>97.0</ele><time>2026-04-19T16:35:31Z</time></trkpt><trkpt lat="49.31618167966934" lon="0.9666434042301356"><ele>97.0</ele><time>2026-04-19T16:35:33Z</time></trkpt><trkpt lat="49.31627162498583" lon="0.9665303200275435"><ele>97.0</ele><time>2026-04-19T16:35:34.999Z</time></trkpt><trkpt lat="49.31631538391211" lon="0.9664551613797923"><ele>98.8</ele><time>2026-04-19T16:35:35.999Z</time></trkpt><trkpt lat="49.31641650941804" lon="0.9663433214610784"><ele>100.6</ele><time>2026-04-19T16:35:37.999Z</time></trkpt><trkpt lat="49.316473811804286" lon="0.966276198969007"><ele>102.39999999999999</ele><time>2026-04-19T16:35:38.999Z</time></trkpt><trkpt lat="49.316565838692846" lon="0.9661733283081299"><ele>104.19999999999999</ele><time>2026-04-19T16:35:40.999Z</time></trkpt><trkpt lat="49.3166220301913" lon="0.9660962647425906"><ele>106.0</ele><time>2026-04-19T16:35:43.999Z</time></trkpt><trkpt lat="49.316729802868856" lon="0.9660691841966912"><ele>106.00000000000001</ele><time>2026-04-19T16:35:46.999Z</time></trkpt><trkpt lat="49.316798911789185" lon="0.9660059890342723"><ele>106.0</ele><time>2026-04-19T16:35:48.999Z</time></trkpt><trkpt lat="49.31683996825193" lon="0.9658809000499557"><ele>106.0</ele><time>2026-04-19T16:35:50.999Z</time></trkpt><trkpt lat="49.316891467879884" lon="0.9658145893715202"><ele>106.0</ele><time>2026-04-19T16:35:52.999Z</time></trkpt><trkpt lat="49.3169564499701" lon="0.9658264376885318"><ele>106.00000000000001</ele><time>2026-04-19T16:35:55.999Z</time></trkpt><trkpt lat="49.317048830753016" lon="0.9657431763883644"><ele>106.0</ele><time>2026-04-19T16:36:05.999Z</time></trkpt><trkpt lat="49.317111199233544" lon="0.965690782024026"><ele>107.14285714285714</ele><time>2026-04-19T16:36:07.999Z</time></trkpt><trkpt lat="49.317134294969684" lon="0.965598224911525"><ele>108.28571428571428</ele><time>2026-04-19T16:36:10.999Z</time></trkpt><trkpt lat="49.31716164626161" lon="0.9654717081417461"><ele>109.42857142857142</ele><time>2026-04-19T16:36:12.999Z</time></trkpt><trkpt lat="49.317177514714835" lon="0.9653602255071083"><ele>110.57142857142857</ele><time>2026-04-19T16:36:14.999Z</time></trkpt><trkpt lat="49.31718598451148" lon="0.9652332553847632"><ele>111.7142857142857</ele><time>2026-04-19T16:36:16.999Z</time></trkpt><trkpt lat="49.31722111394963" lon="0.965140280723369"><ele>112.85714285714285</ele><time>2026-04-19T16:36:18.999Z</time></trkpt><trkpt lat="49.31726108889632" lon="0.9650584318101552"><ele>114.0</ele><time>2026-04-19T16:36:20.999Z</time></trkpt><trkpt lat="49.31733247537199" lon="0.9649587985712963"><ele>114.33333333333333</ele><time>2026-04-19T16:36:23.999Z</time></trkpt><trkpt lat="49.31742232953204" lon="0.9648782335636729"><ele>114.66666666666666</ele><time>2026-04-19T16:36:25.999Z</time></trkpt><trkpt lat="49.317498401030704" lon="0.9648361055548259"><ele>115.0</ele><time>2026-04-19T16:36:27.999Z</time></trkpt><trkpt lat="49.317577025391955" lon="0.9648574536558278"><ele>115.33333333333333</ele><time>2026-04-19T16:36:29.999Z</time></trkpt><trkpt lat="49.317664940405415" lon="0.9648316915730637"><ele>115.66666666666666</ele><time>2026-04-19T16:36:32.999Z</time></trkpt><trkpt lat="49.317757869402065" lon="0.9648542719666877"><ele>116.0</ele><time>2026-04-19T16:36:35.998Z</time></trkpt><trkpt lat="49.31784741737049" lon="0.9648586227116722"><ele>115.99999999999999</ele><time>2026-04-19T16:36:37.998Z</time></trkpt><trkpt lat="49.317911430295055" lon="0.9649494192733611"><ele>116.0</ele><time>2026-04-19T16:36:40.998Z</time></trkpt><trkpt lat="49.317928296065276" lon="0.9650839921210321"><ele>116.0</ele><time>2026-04-19T16:36:42.998Z</time></trkpt><trkpt lat="49.31800211432313" lon="0.9650597516625009"><ele>116.0</ele><time>2026-04-19T16:36:45.998Z</time></trkpt><trkpt lat="49.317954460464875" lon="0.9649817664117606"><ele>115.99999999999999</ele><time>2026-04-19T16:37:18.999Z</time></trkpt><trkpt lat="49.317905831003635" lon="0.9649150215322742"><ele>116.0</ele><time>2026-04-19T16:38:03Z</time></trkpt><trkpt lat="49.317841225428516" lon="0.9648519884994353"><ele>115.99999999999999</ele><time>2026-04-19T16:38:11Z</time></trkpt><trkpt lat="49.317732629750694" lon="0.9648576231836073"><ele>116.0</ele><time>2026-04-19T16:38:14Z</time></trkpt><trkpt lat="49.31765657307477" lon="0.9648457168777445"><ele>116.0</ele><time>2026-04-19T16:38:16Z</time></trkpt><trkpt lat="49.31759453968892" lon="0.9648980538946254"><ele>116.0</ele><time>2026-04-19T16:38:19Z</time></trkpt><trkpt lat="49.31752965784487" lon="0.9648747278285852"><ele>115.99999999999999</ele><time>2026-04-19T16:38:21Z</time></trkpt><trkpt lat="49.31743929996136" lon="0.9649397242205916"><ele>116.0</ele><time>2026-04-19T16:38:23Z</time></trkpt><trkpt lat="49.317340900708594" lon="0.9649757805650161"><ele>115.66666666666666</ele><time>2026-04-19T16:38:25Z</time></trkpt><trkpt lat="49.31727611077054" lon="0.965072731475968"><ele>115.33333333333333</ele><time>2026-04-19T16:38:29Z</time></trkpt><trkpt lat="49.317229650400684" lon="0.9651628890125575"><ele>115.0</ele><time>2026-04-19T16:38:32Z</time></trkpt><trkpt lat="49.317214941157964" lon="0.965263551774374"><ele>114.66666666666666</ele><time>2026-04-19T16:38:34Z</time></trkpt><trkpt lat="49.317210238782636" lon="0.9654439808724605"><ele>114.33333333333333</ele><time>2026-04-19T16:38:36.999Z</time></trkpt><trkpt lat="49.3171852152838" lon="0.9655506298320924"><ele>114.0</ele><time>2026-04-19T16:38:39.999Z</time></trkpt><trkpt lat="49.317127786756735" lon="0.9656146967920751"><ele>114.0</ele><time>2026-04-19T16:38:41.999Z</time></trkpt><trkpt lat="49.31705125506402" lon="0.9655182494849015"><ele>114.0</ele><time>2026-04-19T16:38:44.999Z</time></trkpt><trkpt lat="49.31697906948245" lon="0.9654010241826101"><ele>114.0</ele><time>2026-04-19T16:38:46.999Z</time></trkpt><trkpt lat="49.31691113518362" lon="0.9652166319127499"><ele>114.0</ele><time>2026-04-19T16:38:48.999Z</time></trkpt><trkpt lat="49.316870867577265" lon="0.9651203616138063"><ele>114.0</ele><time>2026-04-19T16:38:49.999Z</time></trkpt><trkpt lat="49.31682730660922" lon="0.965048951342446"><ele>114.0</ele><time>2026-04-19T16:38:50.999Z</time></trkpt><trkpt lat="49.31673934092824" lon="0.9649855500815628"><ele>114.0</ele><time>2026-04-19T16:38:52.999Z</time></trkpt><trkpt lat="49.31667397419431" lon="0.9649919011738493"><ele>114.0</ele><time>2026-04-19T16:38:53.999Z</time></trkpt><trkpt lat="49.31659241971642" lon="0.9650182559052669"><ele>114.0</ele><time>2026-04-19T16:38:54.999Z</time></trkpt><trkpt lat="49.31649757185569" lon="0.9650479340176774"><ele>114.0</ele><time>2026-04-19T16:38:55.999Z</time></trkpt><trkpt lat="49.31640022967944" lon="0.9650672413548315"><ele>114.0</ele><time>2026-04-19T16:38:56.999Z</time></trkpt><trkpt lat="49.31628168170244" lon="0.9650639185067438"><ele>114.33333333333333</ele><time>2026-04-19T16:38:57.999Z</time></trkpt><trkpt lat="49.31618330557131" lon="0.9650470568901646"><ele>114.66666666666666</ele><time>2026-04-19T16:38:58.999Z</time></trkpt><trkpt lat="49.31610884345856" lon="0.9650241949435854"><ele>115.0</ele><time>2026-04-19T16:38:59.999Z</time></trkpt><trkpt lat="49.31604533435423" lon="0.9650155807060993"><ele>115.33333333333333</ele><time>2026-04-19T16:39:00.999Z</time></trkpt><trkpt lat="49.315964000229734" lon="0.9650104317942119"><ele>115.66666666666666</ele><time>2026-04-19T16:39:01.999Z</time></trkpt><trkpt lat="49.315871818032676" lon="0.9650068966101992"><ele>116.0</ele><time>2026-04-19T16:39:02.999Z</time></trkpt><trkpt lat="49.315758267049354" lon="0.9650176256139199"><ele>116.0</ele><time>2026-04-19T16:39:03.999Z</time></trkpt><trkpt lat="49.31560816622326" lon="0.9650100611930835"><ele>116.0</ele><time>2026-04-19T16:39:04.999Z</time></trkpt><trkpt lat="49.31544224674156" lon="0.9650136773575121"><ele>116.0</ele><time>2026-04-19T16:39:05.999Z</time></trkpt><trkpt lat="49.31529298513593" lon="0.9650114134794109"><ele>116.25</ele><time>2026-04-19T16:39:06.999Z</time></trkpt><trkpt lat="49.31516673488636" lon="0.9650198185627591"><ele>116.5</ele><time>2026-04-19T16:39:07.999Z</time></trkpt><trkpt lat="49.31505831012022" lon="0.9650203411365644"><ele>116.75</ele><time>2026-04-19T16:39:08.999Z</time></trkpt><trkpt lat="49.31495358641049" lon="0.9650042959369717"><ele>117.0</ele><time>2026-04-19T16:39:09.999Z</time></trkpt><trkpt lat="49.314830589873786" lon="0.9649734455817345"><ele>117.0</ele><time>2026-04-19T16:39:10.999Z</time></trkpt><trkpt lat="49.31469712482046" lon="0.9649251144040921"><ele>117.0</ele><time>2026-04-19T16:39:11.999Z</time></trkpt><trkpt lat="49.31453034688386" lon="0.9648386560013616"><ele>117.0</ele><time>2026-04-19T16:39:12.999Z</time></trkpt><trkpt lat="49.31435539551817" lon="0.9647367681711909"><ele>117.0</ele><time>2026-04-19T16:39:13.999Z</time></trkpt><trkpt lat="49.31417015997851" lon="0.964673432093135"><ele>117.0</ele><time>2026-04-19T16:39:14.999Z</time></trkpt><trkpt lat="49.31397734970578" lon="0.9646334799700659"><ele>117.0</ele><time>2026-04-19T16:39:15.999Z</time></trkpt><trkpt lat="49.31381954922958" lon="0.9645943308743015"><ele>117.0</ele><time>2026-04-19T16:39:16.999Z</time></trkpt><trkpt lat="49.313682719672904" lon="0.9645567158807542"><ele>117.0</ele><time>2026-04-19T16:39:17.999Z</time></trkpt><trkpt lat="49.31357067926308" lon="0.9645143567626013"><ele>117.0</ele><time>2026-04-19T16:39:18.999Z</time></trkpt><trkpt lat="49.3134568703925" lon="0.9644469505281863"><ele>117.0</ele><time>2026-04-19T16:39:19.999Z</time></trkpt><trkpt lat="49.31332235866455" lon="0.9643456305490559"><ele>117.0</ele><time>2026-04-19T16:39:20.999Z</time></trkpt><trkpt lat="49.31316164956488" lon="0.9642315300163972"><ele>117.0</ele><time>2026-04-19T16:39:21.999Z</time></trkpt><trkpt lat="49.313019828548086" lon="0.9641505358936036"><ele>117.0</ele><time>2026-04-19T16:39:22.999Z</time></trkpt><trkpt lat="49.31289743349472" lon="0.9640813732111403"><ele>117.39999999999999</ele><time>2026-04-19T16:39:23.999Z</time></trkpt><trkpt lat="49.31278761574812" lon="0.9640167211448081"><ele>117.79999999999998</ele><time>2026-04-19T16:39:25.001Z</time></trkpt><trkpt lat="49.31268654100524" lon="0.963961133883361"><ele>118.2</ele><time>2026-04-19T16:39:26.001Z</time></trkpt><trkpt lat="49.31260017747111" lon="0.963892290144086"><ele>118.6</ele><time>2026-04-19T16:39:27.001Z</time></trkpt><trkpt lat="49.31251953428968" lon="0.9638179339883609"><ele>119.0</ele><time>2026-04-19T16:39:28.001Z</time></trkpt><trkpt lat="49.31244686761823" lon="0.9637507469598255"><ele>118.99999999999999</ele><time>2026-04-19T16:39:29.001Z</time></trkpt><trkpt lat="49.312367986436016" lon="0.9637050047548603"><ele>119.0</ele><time>2026-04-19T16:39:30.001Z</time></trkpt><trkpt lat="49.31229399511793" lon="0.9636485276173933"><ele>119.0</ele><time>2026-04-19T16:39:31.001Z</time></trkpt><trkpt lat="49.312216030132674" lon="0.9636049363551816"><ele>119.0</ele><time>2026-04-19T16:39:32.001Z</time></trkpt><trkpt lat="49.31211848782838" lon="0.9635797866104872"><ele>118.99999999999999</ele><time>2026-04-19T16:39:33.001Z</time></trkpt><trkpt lat="49.312043883492045" lon="0.9635653473272244"><ele>119.0</ele><time>2026-04-19T16:39:34.001Z</time></trkpt><trkpt lat="49.311935855603636" lon="0.9634888393955642"><ele>119.0</ele><time>2026-04-19T16:39:36.001Z</time></trkpt><trkpt lat="49.31187328115707" lon="0.9634297873805824"><ele>119.0</ele><time>2026-04-19T16:39:37.001Z</time></trkpt><trkpt lat="49.31180438066637" lon="0.9633612575450183"><ele>119.0</ele><time>2026-04-19T16:39:38.001Z</time></trkpt><trkpt lat="49.311740375286526" lon="0.9632771349334422"><ele>119.0</ele><time>2026-04-19T16:39:39Z</time></trkpt><trkpt lat="49.31166217439224" lon="0.963151261255353"><ele>119.0</ele><time>2026-04-19T16:39:40Z</time></trkpt><trkpt lat="49.31153960508412" lon="0.9629766347515867"><ele>119.25</ele><time>2026-04-19T16:39:41Z</time></trkpt><trkpt lat="49.311425226864635" lon="0.9628066218129642"><ele>119.5</ele><time>2026-04-19T16:39:42Z</time></trkpt><trkpt lat="49.3113309284828" lon="0.9626737323777239"><ele>119.75</ele><time>2026-04-19T16:39:43Z</time></trkpt><trkpt lat="49.31123282799091" lon="0.9625983155049038"><ele>120.0</ele><time>2026-04-19T16:39:44Z</time></trkpt><trkpt lat="49.31113571068396" lon="0.9625425745414614"><ele>119.33333333333333</ele><time>2026-04-19T16:39:45Z</time></trkpt><trkpt lat="49.31105731309544" lon="0.9624854539507903"><ele>118.66666666666666</ele><time>2026-04-19T16:39:46Z</time></trkpt><trkpt lat="49.31099291576009" lon="0.9624512020516276"><ele>118.0</ele><time>2026-04-19T16:39:47Z</time></trkpt><trkpt lat="49.31093369598099" lon="0.962398233024842"><ele>117.33333333333333</ele><time>2026-04-19T16:39:48Z</time></trkpt><trkpt lat="49.310839229064584" lon="0.9623375016405465"><ele>116.66666666666666</ele><time>2026-04-19T16:39:50Z</time></trkpt><trkpt lat="49.31075221779854" lon="0.9623197015756615"><ele>116.0</ele><time>2026-04-19T16:39:52Z</time></trkpt><trkpt lat="49.31070762262281" lon="0.9624358469819697"><ele>115.99999999999999</ele><time>2026-04-19T16:39:54Z</time></trkpt><trkpt lat="49.31068254947788" lon="0.9625668725883313"><ele>116.0</ele><time>2026-04-19T16:39:56Z</time></trkpt><trkpt lat="49.31074083452374" lon="0.9626360489769369"><ele>116.0</ele><time>2026-04-19T16:39:59Z</time></trkpt><trkpt lat="49.31074677952305" lon="0.9625296159391646"><ele>116.0</ele><time>2026-04-19T16:45:35.998Z</time></trkpt><trkpt lat="49.310722237814005" lon="0.9624137626135655"><ele>115.99999999999999</ele><time>2026-04-19T16:45:44Z</time></trkpt><trkpt lat="49.31072580862151" lon="0.9625410721913852"><ele>116.0</ele><time>2026-04-19T16:45:53Z</time></trkpt><trkpt lat="49.31069291790382" lon="0.9626414555497073"><ele>116.6</ele><time>2026-04-19T16:45:55Z</time></trkpt><trkpt lat="49.310654244695826" lon="0.9627754415535829"><ele>117.19999999999999</ele><time>2026-04-19T16:45:57Z</time></trkpt><trkpt lat="49.310610165537135" lon="0.9629625159325839"><ele>117.80000000000001</ele><time>2026-04-19T16:45:58Z</time></trkpt><trkpt lat="49.31058034836435" lon="0.9631082348384102"><ele>118.4</ele><time>2026-04-19T16:45:59Z</time></trkpt><trkpt lat="49.31055024582494" lon="0.9632594783650256"><ele>119.0</ele><time>2026-04-19T16:46:00Z</time></trkpt><trkpt lat="49.31048993450215" lon="0.9634258434849652"><ele>119.66666666666666</ele><time>2026-04-19T16:46:01Z</time></trkpt><trkpt lat="49.31045320432425" lon="0.9636720326009656"><ele>120.33333333333334</ele><time>2026-04-19T16:46:02Z</time></trkpt><trkpt lat="49.31039588281722" lon="0.9639275267235808"><ele>121.0</ele><time>2026-04-19T16:46:03Z</time></trkpt><trkpt lat="49.31033630219406" lon="0.9642027250506344"><ele>121.5</ele><time>2026-04-19T16:46:04Z</time></trkpt><trkpt lat="49.310269085527146" lon="0.9644228030965847"><ele>122.0</ele><time>2026-04-19T16:46:05Z</time></trkpt><trkpt lat="49.310219342789864" lon="0.9646070999039669"><ele>122.5</ele><time>2026-04-19T16:46:06Z</time></trkpt><trkpt lat="49.310167906646996" lon="0.964765391399876"><ele>123.0</ele><time>2026-04-19T16:46:07Z</time></trkpt><trkpt lat="49.310111119891744" lon="0.964900670160442"><ele>123.0</ele><time>2026-04-19T16:46:08Z</time></trkpt><trkpt lat="49.31006433692564" lon="0.9650017040017178"><ele>123.0</ele><time>2026-04-19T16:46:09Z</time></trkpt><trkpt lat="49.31000353687957" lon="0.9651556821327892"><ele>123.0</ele><time>2026-04-19T16:46:10Z</time></trkpt><trkpt lat="49.30991950983154" lon="0.9653072418046978"><ele>123.0</ele><time>2026-04-19T16:46:11Z</time></trkpt><trkpt lat="49.30977138517869" lon="0.9655140210940605"><ele>123.33333333333334</ele><time>2026-04-19T16:46:12Z</time></trkpt><trkpt lat="49.30962089686737" lon="0.9657504744923046"><ele>123.66666666666667</ele><time>2026-04-19T16:46:13Z</time></trkpt><trkpt lat="49.3094878848381" lon="0.9659687455480958"><ele>124.0</ele><time>2026-04-19T16:46:14Z</time></trkpt><trkpt lat="49.309391554822035" lon="0.9661624753204949"><ele>124.4</ele><time>2026-04-19T16:46:15Z</time></trkpt><trkpt lat="49.30929516044159" lon="0.9663137497752776"><ele>124.80000000000001</ele><time>2026-04-19T16:46:16Z</time></trkpt><trkpt lat="49.30921897684568" lon="0.9664141457898557"><ele>125.19999999999999</ele><time>2026-04-19T16:46:17Z</time></trkpt><trkpt lat="49.30916679586631" lon="0.9665355983605262"><ele>125.6</ele><time>2026-04-19T16:46:18Z</time></trkpt><trkpt lat="49.30911807154458" lon="0.9666183129889253"><ele>126.0</ele><time>2026-04-19T16:46:19Z</time></trkpt><trkpt lat="49.30905278243109" lon="0.9666887620252562"><ele>126.0</ele><time>2026-04-19T16:46:21Z</time></trkpt><trkpt lat="49.30900268562894" lon="0.9667679209075946"><ele>126.0</ele><time>2026-04-19T16:46:23Z</time></trkpt><trkpt lat="49.308951849150276" lon="0.9668541753129682"><ele>126.0</ele><time>2026-04-19T16:46:26Z</time></trkpt><trkpt lat="49.30890541848981" lon="0.9669391828426128"><ele>126.0</ele><time>2026-04-19T16:48:42Z</time></trkpt><trkpt lat="49.308836983671085" lon="0.9670331214221691"><ele>126.0</ele><time>2026-04-19T16:48:43Z</time></trkpt><trkpt lat="49.30875701353216" lon="0.9671835204150094"><ele>126.0</ele><time>2026-04-19T16:48:44Z</time></trkpt><trkpt lat="49.308702435955325" lon="0.9673158510337552"><ele>126.0</ele><time>2026-04-19T16:48:45Z</time></trkpt><trkpt lat="49.30864991645479" lon="0.9674103829835472"><ele>126.0</ele><time>2026-04-19T16:48:46Z</time></trkpt><trkpt lat="49.30859194968386" lon="0.9675205290939295"><ele>126.0</ele><time>2026-04-19T16:48:47Z</time></trkpt><trkpt lat="49.30852078192289" lon="0.9676685361945254"><ele>126.0</ele><time>2026-04-19T16:48:48Z</time></trkpt><trkpt lat="49.30846096127475" lon="0.9678121858905409"><ele>126.0</ele><time>2026-04-19T16:48:49Z</time></trkpt><trkpt lat="49.30839616006543" lon="0.9679821982368664"><ele>126.0</ele><time>2026-04-19T16:48:50Z</time></trkpt><trkpt lat="49.308335147572436" lon="0.9681457364618001"><ele>126.0</ele><time>2026-04-19T16:48:50.999Z</time></trkpt><trkpt lat="49.30827781277128" lon="0.9682972555928304"><ele>126.0</ele><time>2026-04-19T16:48:51.999Z</time></trkpt><trkpt lat="49.30822833544912" lon="0.9684268524422822"><ele>126.0</ele><time>2026-04-19T16:48:52.999Z</time></trkpt><trkpt lat="49.30818096727403" lon="0.968550924817898"><ele>126.0</ele><time>2026-04-19T16:48:53.999Z</time></trkpt><trkpt lat="49.30813131053715" lon="0.9686870942530876"><ele>126.4</ele><time>2026-04-19T16:48:54.999Z</time></trkpt><trkpt lat="49.30807696438952" lon="0.9688459112300518"><ele>126.8</ele><time>2026-04-19T16:48:55.999Z</time></trkpt><trkpt lat="49.30803181037457" lon="0.9689885588753341"><ele>127.20000000000002</ele><time>2026-04-19T16:48:56.999Z</time></trkpt><trkpt lat="49.307986351041826" lon="0.9691377949708554"><ele>127.60000000000001</ele><time>2026-04-19T16:48:57.999Z</time></trkpt><trkpt lat="49.30794135085758" lon="0.9692879462408118"><ele>128.0</ele><time>2026-04-19T16:48:58.999Z</time></trkpt><trkpt lat="49.30790001455344" lon="0.9694325516414505"><ele>127.33333333333333</ele><time>2026-04-19T16:48:59.999Z</time></trkpt><trkpt lat="49.307867923218296" lon="0.9695453773471251"><ele>126.66666666666666</ele><time>2026-04-19T16:49:00.999Z</time></trkpt><trkpt lat="49.30783913408751" lon="0.9696465933042733"><ele>126.0</ele><time>2026-04-19T16:49:01.999Z</time></trkpt><trkpt lat="49.307810756502654" lon="0.9697463624246594"><ele>125.33333333333334</ele><time>2026-04-19T16:49:02.999Z</time></trkpt><trkpt lat="49.3077641522795" lon="0.9699168149113103"><ele>124.66666666666667</ele><time>2026-04-19T16:49:04.999Z</time></trkpt><trkpt lat="49.30774641885865" lon="0.9700675995893088"><ele>124.0</ele><time>2026-04-19T16:49:06.999Z</time></trkpt><trkpt lat="49.307715605847356" lon="0.970189981951161"><ele>124.0</ele><time>2026-04-19T16:49:08.999Z</time></trkpt><trkpt lat="49.30773876343691" lon="0.9703116478989523"><ele>124.0</ele><time>2026-04-19T16:49:13.999Z</time></trkpt><trkpt lat="49.3077214765104" lon="0.9704152222057523"><ele>124.0</ele><time>2026-04-19T16:49:51.999Z</time></trkpt><trkpt lat="49.307632553890194" lon="0.9704994280805599"><ele>124.0</ele><time>2026-04-19T16:49:53.999Z</time></trkpt><trkpt lat="49.30753679611544" lon="0.9706559099808025"><ele>124.0</ele><time>2026-04-19T16:49:56Z</time></trkpt><trkpt lat="49.30743546172543" lon="0.9708015272032507"><ele>124.0</ele><time>2026-04-19T16:49:57Z</time></trkpt><trkpt lat="49.307353981583354" lon="0.9708913919742154"><ele>124.0</ele><time>2026-04-19T16:49:58Z</time></trkpt><trkpt lat="49.30730709944746" lon="0.9710515542075498"><ele>124.0</ele><time>2026-04-19T16:49:59Z</time></trkpt><trkpt lat="49.30725903626775" lon="0.9712115516899225"><ele>124.0</ele><time>2026-04-19T16:50:00Z</time></trkpt><trkpt lat="49.3072062323174" lon="0.971354447601202"><ele>124.0</ele><time>2026-04-19T16:50:01Z</time></trkpt><trkpt lat="49.30715198678475" lon="0.9714618510970121"><ele>123.33333333333334</ele><time>2026-04-19T16:50:02Z</time></trkpt><trkpt lat="49.307103259631376" lon="0.9715602775593198"><ele>122.66666666666667</ele><time>2026-04-19T16:50:03Z</time></trkpt><trkpt lat="49.30705527896772" lon="0.9716443332247731"><ele>122.0</ele><time>2026-04-19T16:50:04Z</time></trkpt><trkpt lat="49.30700913422547" lon="0.971721548082462"><ele>121.33333333333334</ele><time>2026-04-19T16:50:05Z</time></trkpt><trkpt lat="49.30695024013644" lon="0.9718080850419647"><ele>120.66666666666667</ele><time>2026-04-19T16:50:06Z</time></trkpt><trkpt lat="49.30688598884594" lon="0.9718861408404618"><ele>120.0</ele><time>2026-04-19T16:50:07Z</time></trkpt><trkpt lat="49.3068048961746" lon="0.9719717240809334"><ele>120.0</ele><time>2026-04-19T16:50:08Z</time></trkpt><trkpt lat="49.30670081712996" lon="0.9720619161320274"><ele>120.0</ele><time>2026-04-19T16:50:09Z</time></trkpt><trkpt lat="49.30661425449745" lon="0.9721135632687121"><ele>120.0</ele><time>2026-04-19T16:50:10Z</time></trkpt><trkpt lat="49.306537140819245" lon="0.9721440899209756"><ele>120.0</ele><time>2026-04-19T16:50:11Z</time></trkpt><trkpt lat="49.30646201402595" lon="0.9721604481451879"><ele>120.0</ele><time>2026-04-19T16:50:12Z</time></trkpt><trkpt lat="49.306383494490206" lon="0.9721528268247523"><ele>120.0</ele><time>2026-04-19T16:50:13Z</time></trkpt><trkpt lat="49.30627435143125" lon="0.9721316848144572"><ele>119.75</ele><time>2026-04-19T16:50:14Z</time></trkpt><trkpt lat="49.30615002392464" lon="0.9721034932012638"><ele>119.5</ele><time>2026-04-19T16:50:15Z</time></trkpt><trkpt lat="49.30602065072404" lon="0.9721057661235514"><ele>119.25</ele><time>2026-04-19T16:50:16Z</time></trkpt><trkpt lat="49.30588994943436" lon="0.9720845566879908"><ele>119.0</ele><time>2026-04-19T16:50:17Z</time></trkpt><trkpt lat="49.30579211673121" lon="0.9720577939145594"><ele>118.99999999999999</ele><time>2026-04-19T16:50:18Z</time></trkpt><trkpt lat="49.305708238195336" lon="0.9720379485771435"><ele>119.0</ele><time>2026-04-19T16:50:19Z</time></trkpt><trkpt lat="49.30559687279835" lon="0.9720229769931299"><ele>119.0</ele><time>2026-04-19T16:50:21Z</time></trkpt><trkpt lat="49.30550379232719" lon="0.972009243039557"><ele>119.0</ele><time>2026-04-19T16:50:23Z</time></trkpt><trkpt lat="49.30543475973875" lon="0.9720108477942989"><ele>118.99999999999999</ele><time>2026-04-19T16:50:25Z</time></trkpt><trkpt lat="49.30535168720999" lon="0.9719973221494874"><ele>119.0</ele><time>2026-04-19T16:50:28Z</time></trkpt><trkpt lat="49.305277153431255" lon="0.9719944840398325"><ele>118.99999999999999</ele><time>2026-04-19T16:50:30Z</time></trkpt><trkpt lat="49.3052819977777" lon="0.9721004179309655"><ele>119.0</ele><time>2026-04-19T16:50:33Z</time></trkpt><trkpt lat="49.30534533901813" lon="0.9721160238910758"><ele>119.0</ele><time>2026-04-19T16:50:40Z</time></trkpt><trkpt lat="49.30540336144655" lon="0.9722002675454314"><ele>119.0</ele><time>2026-04-19T16:54:04.999Z</time></trkpt><trkpt lat="49.305451593858066" lon="0.9723537929642865"><ele>118.99999999999999</ele><time>2026-04-19T16:54:08Z</time></trkpt><trkpt lat="49.305505776999695" lon="0.9724560861193506"><ele>119.0</ele><time>2026-04-19T16:54:12Z</time></trkpt><trkpt lat="49.30554552510824" lon="0.9725356563108257"><ele>118.99999999999999</ele><time>2026-04-19T16:54:17Z</time></trkpt><trkpt lat="49.305591039990176" lon="0.9726261891704571"><ele>119.0</ele><time>2026-04-19T16:54:20Z</time></trkpt><trkpt lat="49.305604967830824" lon="0.9727631667015215"><ele>119.0</ele><time>2026-04-19T16:54:37Z</time></trkpt><trkpt lat="49.305655339745826" lon="0.9728365646576415"><ele>119.0</ele><time>2026-04-19T16:54:57Z</time></trkpt><trkpt lat="49.30572785078358" lon="0.9728536256212964"><ele>118.99999999999999</ele><time>2026-04-19T16:55:18.999Z</time></trkpt><trkpt lat="49.305802485169096" lon="0.9728583009563726"><ele>119.0</ele><time>2026-04-19T16:55:21.999Z</time></trkpt><trkpt lat="49.30587566595184" lon="0.9728693259408498"><ele>118.99999999999999</ele><time>2026-04-19T16:55:23.999Z</time></trkpt><trkpt lat="49.30598130016953" lon="0.9728990478971834"><ele>119.0</ele><time>2026-04-19T16:55:25.999Z</time></trkpt><trkpt lat="49.30604153502572" lon="0.9729291644410173"><ele>119.0</ele><time>2026-04-19T16:55:27.999Z</time></trkpt><trkpt lat="49.30610096859659" lon="0.9730025836847154"><ele>119.0</ele><time>2026-04-19T16:55:31.999Z</time></trkpt><trkpt lat="49.30607333775778" lon="0.9728975158288429"><ele>118.99999999999999</ele><time>2026-04-19T16:55:56.999Z</time></trkpt><trkpt lat="49.30600395808213" lon="0.9728945627712985"><ele>119.0</ele><time>2026-04-19T16:56:28Z</time></trkpt><trkpt lat="49.305917720766416" lon="0.9728651144474718"><ele>118.99999999999999</ele><time>2026-04-19T16:57:24.999Z</time></trkpt><trkpt lat="49.305822969555905" lon="0.9728313418020519"><ele>119.0</ele><time>2026-04-19T16:57:26.999Z</time></trkpt><trkpt lat="49.30576453364486" lon="0.9727635047589952"><ele>119.0</ele><time>2026-04-19T16:58:52Z</time></trkpt><trkpt lat="49.305692521859065" lon="0.9727432909916213"><ele>119.0</ele><time>2026-04-19T16:58:55Z</time></trkpt><trkpt lat="49.30565533149424" lon="0.9728275526591146"><ele>118.99999999999999</ele><time>2026-04-19T16:58:57Z</time></trkpt><trkpt lat="49.30570057736369" lon="0.9729575026750781"><ele>119.0</ele><time>2026-04-19T16:58:59.999Z</time></trkpt><trkpt lat="49.30576410173852" lon="0.9730750376461045"><ele>119.0</ele><time>2026-04-19T16:59:01.999Z</time></trkpt><trkpt lat="49.30579404672737" lon="0.9731665888045792"><ele>119.0</ele><time>2026-04-19T16:59:02.999Z</time></trkpt><trkpt lat="49.30585237925104" lon="0.9733772468813672"><ele>119.0</ele><time>2026-04-19T16:59:04.999Z</time></trkpt><trkpt lat="49.305902779159936" lon="0.9735120465468765"><ele>119.0</ele><time>2026-04-19T16:59:05.999Z</time></trkpt><trkpt lat="49.305994428406215" lon="0.9736272964862612"><ele>119.0</ele><time>2026-04-19T16:59:06.999Z</time></trkpt><trkpt lat="49.306068703731626" lon="0.9737829701077468"><ele>118.16666666666666</ele><time>2026-04-19T16:59:07.999Z</time></trkpt><trkpt lat="49.306124567262586" lon="0.9739429511363914"><ele>117.33333333333333</ele><time>2026-04-19T16:59:08.999Z</time></trkpt><trkpt lat="49.306169051061275" lon="0.9740710953049112"><ele>116.5</ele><time>2026-04-19T16:59:09.999Z</time></trkpt><trkpt lat="49.30619852759966" lon="0.9741972350747106"><ele>115.66666666666666</ele><time>2026-04-19T16:59:10.999Z</time></trkpt><trkpt lat="49.306194274288444" lon="0.974315446766372"><ele>114.83333333333333</ele><time>2026-04-19T16:59:12.999Z</time></trkpt><trkpt lat="49.306179981725926" lon="0.9744101999423218"><ele>114.0</ele><time>2026-04-19T16:59:14.999Z</time></trkpt><trkpt lat="49.306245653287796" lon="0.9743760052231099"><ele>113.28571428571428</ele><time>2026-04-19T16:59:29.999Z</time></trkpt><trkpt lat="49.30631338265756" lon="0.9743271965349561"><ele>112.57142857142856</ele><time>2026-04-19T16:59:32.999Z</time></trkpt><trkpt lat="49.306387560605856" lon="0.9743913819616845"><ele>111.85714285714286</ele><time>2026-04-19T16:59:34.999Z</time></trkpt><trkpt lat="49.30641888865479" lon="0.9744925134287178"><ele>111.14285714285714</ele><time>2026-04-19T16:59:36.999Z</time></trkpt><trkpt lat="49.30644494519509" lon="0.9746033269853273"><ele>110.42857142857143</ele><time>2026-04-19T16:59:38.999Z</time></trkpt><trkpt lat="49.30647629027893" lon="0.9747062168904591"><ele>109.71428571428572</ele><time>2026-04-19T16:59:40.999Z</time></trkpt><trkpt lat="49.30651718373682" lon="0.9747817775196157"><ele>109.0</ele><time>2026-04-19T16:59:42.999Z</time></trkpt><trkpt lat="49.30657967915607" lon="0.974828725197174"><ele>108.66666666666667</ele><time>2026-04-19T16:59:46.999Z</time></trkpt><trkpt lat="49.30657650028004" lon="0.9749253073359678"><ele>108.33333333333334</ele><time>2026-04-19T17:00:07.998Z</time></trkpt><trkpt lat="49.30660764128387" lon="0.9750104088851066"><ele>108.0</ele><time>2026-04-19T17:00:22.998Z</time></trkpt><trkpt lat="49.30666062048702" lon="0.9750897401426397"><ele>107.66666666666666</ele><time>2026-04-19T17:01:50.999Z</time></trkpt><trkpt lat="49.306733469518235" lon="0.975176618152014"><ele>107.33333333333333</ele><time>2026-04-19T17:01:53.999Z</time></trkpt><trkpt lat="49.30681966623037" lon="0.9752433336194504"><ele>107.0</ele><time>2026-04-19T17:01:56.999Z</time></trkpt><trkpt lat="49.30689548130275" lon="0.9753486004908478"><ele>106.99999999999999</ele><time>2026-04-19T17:01:58.999Z</time></trkpt><trkpt lat="49.306955076551496" lon="0.975429030688931"><ele>107.0</ele><time>2026-04-19T17:02:00.999Z</time></trkpt><trkpt lat="49.30701337688952" lon="0.9754948930016012"><ele>107.0</ele><time>2026-04-19T17:02:04.999Z</time></trkpt><trkpt lat="49.306947905197475" lon="0.9754664306172923"><ele>107.0</ele><time>2026-04-19T17:02:28.998Z</time></trkpt><trkpt lat="49.306875015132874" lon="0.975398515008596"><ele>106.99999999999999</ele><time>2026-04-19T17:02:31Z</time></trkpt><trkpt lat="49.30681499287133" lon="0.9753011289245044"><ele>107.0</ele><time>2026-04-19T17:02:34Z</time></trkpt><trkpt lat="49.30676609964305" lon="0.9752393427583161"><ele>106.99999999999999</ele><time>2026-04-19T17:02:36Z</time></trkpt><trkpt lat="49.306709765314466" lon="0.9751609570934585"><ele>107.0</ele><time>2026-04-19T17:02:39Z</time></trkpt><trkpt lat="49.306675834654165" lon="0.9750707565835683"><ele>107.0</ele><time>2026-04-19T17:02:41Z</time></trkpt><trkpt lat="49.306597717853194" lon="0.9749697179407376"><ele>107.0</ele><time>2026-04-19T17:02:44Z</time></trkpt><trkpt lat="49.30652499416564" lon="0.9749704010695207"><ele>106.99999999999999</ele><time>2026-04-19T17:02:47Z</time></trkpt><trkpt lat="49.306444544030796" lon="0.974977006592886"><ele>107.0</ele><time>2026-04-19T17:02:50Z</time></trkpt><trkpt lat="49.30638137401468" lon="0.9748188370396119"><ele>107.39999999999999</ele><time>2026-04-19T17:02:53Z</time></trkpt><trkpt lat="49.30632212056069" lon="0.9747038967439544"><ele>107.79999999999998</ele><time>2026-04-19T17:02:54Z</time></trkpt><trkpt lat="49.306278084867216" lon="0.9745848460820992"><ele>108.2</ele><time>2026-04-19T17:02:55Z</time></trkpt><trkpt lat="49.30620560776855" lon="0.9744744084332115"><ele>108.6</ele><time>2026-04-19T17:02:56Z</time></trkpt><trkpt lat="49.306138649007046" lon="0.9742899239832551"><ele>109.0</ele><time>2026-04-19T17:02:57Z</time></trkpt><trkpt lat="49.30606280016309" lon="0.9740608430113886"><ele>110.66666666666667</ele><time>2026-04-19T17:02:58Z</time></trkpt><trkpt lat="49.30595556093845" lon="0.9738014173154634"><ele>112.33333333333334</ele><time>2026-04-19T17:02:59Z</time></trkpt><trkpt lat="49.305845900679046" lon="0.973515540153783"><ele>114.0</ele><time>2026-04-19T17:03:00Z</time></trkpt><trkpt lat="49.30575390806371" lon="0.9732865872234081"><ele>114.4</ele><time>2026-04-19T17:03:01Z</time></trkpt><trkpt lat="49.30569233669553" lon="0.9731048370310921"><ele>114.80000000000001</ele><time>2026-04-19T17:03:02Z</time></trkpt><trkpt lat="49.30564109889886" lon="0.9729355018921348"><ele>115.19999999999999</ele><time>2026-04-19T17:03:03Z</time></trkpt><trkpt lat="49.30559185689468" lon="0.972800090508767"><ele>115.6</ele><time>2026-04-19T17:03:04Z</time></trkpt><trkpt lat="49.30556088672382" lon="0.9727002103206851"><ele>116.0</ele><time>2026-04-19T17:03:04.999Z</time></trkpt><trkpt lat="49.30552871513169" lon="0.9725932987127349"><ele>115.99999999999999</ele><time>2026-04-19T17:03:05.999Z</time></trkpt><trkpt lat="49.30549933052239" lon="0.9724878445652404"><ele>116.0</ele><time>2026-04-19T17:03:08.999Z</time></trkpt><trkpt lat="49.30556321114832" lon="0.972610046303434"><ele>116.0</ele><time>2026-04-19T17:03:15.999Z</time></trkpt><trkpt lat="49.30562214885918" lon="0.9727386019915916"><ele>116.0</ele><time>2026-04-19T17:03:17.999Z</time></trkpt><trkpt lat="49.30565829015861" lon="0.9728180048174482"><ele>115.99999999999999</ele><time>2026-04-19T17:03:18.999Z</time></trkpt><trkpt lat="49.3057070622719" lon="0.9729265019165914"><ele>116.0</ele><time>2026-04-19T17:03:19.999Z</time></trkpt><trkpt lat="49.30575174251305" lon="0.973059120653099"><ele>115.66666666666666</ele><time>2026-04-19T17:03:20.999Z</time></trkpt><trkpt lat="49.30579844004496" lon="0.9731766533871843"><ele>115.33333333333333</ele><time>2026-04-19T17:03:21.999Z</time></trkpt><trkpt lat="49.30584435488149" lon="0.9732653822034611"><ele>115.0</ele><time>2026-04-19T17:03:22.999Z</time></trkpt><trkpt lat="49.30588502069257" lon="0.9733543652150346"><ele>114.66666666666666</ele><time>2026-04-19T17:03:23.999Z</time></trkpt><trkpt lat="49.30591031555123" lon="0.9734608910695067"><ele>114.33333333333333</ele><time>2026-04-19T17:03:24.999Z</time></trkpt><trkpt lat="49.30596580306119" lon="0.9736159697332302"><ele>114.0</ele><time>2026-04-19T17:03:26.999Z</time></trkpt><trkpt lat="49.306024381424294" lon="0.9737208284883693"><ele>114.0</ele><time>2026-04-19T17:03:28.999Z</time></trkpt><trkpt lat="49.30608930938845" lon="0.9738423629879425"><ele>114.0</ele><time>2026-04-19T17:03:30.999Z</time></trkpt><trkpt lat="49.30613912112108" lon="0.9739864351059131"><ele>114.0</ele><time>2026-04-19T17:03:32.999Z</time></trkpt><trkpt lat="49.3061855414966" lon="0.9741092649605134"><ele>114.0</ele><time>2026-04-19T17:03:34.999Z</time></trkpt><trkpt lat="49.30624794069598" lon="0.9741355833483041"><ele>114.0</ele><time>2026-04-19T17:03:36.999Z</time></trkpt><trkpt lat="49.30633428830949" lon="0.9742157044226942"><ele>113.16666666666667</ele><time>2026-04-19T17:03:38.999Z</time></trkpt><trkpt lat="49.30638843472591" lon="0.9743107628906822"><ele>112.33333333333334</ele><time>2026-04-19T17:03:40.999Z</time></trkpt><trkpt lat="49.30643281781594" lon="0.9744167753600658"><ele>111.5</ele><time>2026-04-19T17:03:42.999Z</time></trkpt><trkpt lat="49.30644736795978" lon="0.974526223671513"><ele>110.66666666666667</ele><time>2026-04-19T17:03:44.999Z</time></trkpt><trkpt lat="49.30648812356036" lon="0.9746031182520121"><ele>109.83333333333334</ele><time>2026-04-19T17:03:47.999Z</time></trkpt><trkpt lat="49.30653191317307" lon="0.9746843369669714"><ele>109.0</ele><time>2026-04-19T17:03:50.999Z</time></trkpt><trkpt lat="49.30658663602608" lon="0.9747971136268051"><ele>108.42857142857143</ele><time>2026-04-19T17:03:53.999Z</time></trkpt><trkpt lat="49.30664999784311" lon="0.9748576835885038"><ele>107.85714285714286</ele><time>2026-04-19T17:03:56.999Z</time></trkpt><trkpt lat="49.306704878257136" lon="0.974808446291646"><ele>107.28571428571428</ele><time>2026-04-19T17:03:58.999Z</time></trkpt><trkpt lat="49.30675637300977" lon="0.9747233687503266"><ele>106.71428571428572</ele><time>2026-04-19T17:04:01.999Z</time></trkpt><trkpt lat="49.30681209765592" lon="0.9746608966328071"><ele>106.14285714285714</ele><time>2026-04-19T17:04:05.999Z</time></trkpt><trkpt lat="49.306769733386034" lon="0.9747603486087211"><ele>105.57142857142857</ele><time>2026-04-19T17:04:11.998Z</time></trkpt><trkpt lat="49.30672148223422" lon="0.9748688121649897"><ele>105.0</ele><time>2026-04-19T17:04:15.998Z</time></trkpt><trkpt lat="49.30665413685021" lon="0.9749135600043465"><ele>105.0</ele><time>2026-04-19T17:04:18.998Z</time></trkpt><trkpt lat="49.306570092723476" lon="0.9749320286381579"><ele>105.0</ele><time>2026-04-19T17:04:21.998Z</time></trkpt><trkpt lat="49.30653728907781" lon="0.975047029755339"><ele>105.0</ele><time>2026-04-19T17:04:24.998Z</time></trkpt><trkpt lat="49.306573123169734" lon="0.9751539349772194"><ele>105.0</ele><time>2026-04-19T17:04:26.998Z</time></trkpt><trkpt lat="49.306617206557505" lon="0.9752267956631511"><ele>105.0</ele><time>2026-04-19T17:04:27.998Z</time></trkpt><trkpt lat="49.30666744901599" lon="0.9753751011155333"><ele>105.0</ele><time>2026-04-19T17:04:28.998Z</time></trkpt><trkpt lat="49.306738256223774" lon="0.975554355550145"><ele>105.66666666666666</ele><time>2026-04-19T17:04:29.998Z</time></trkpt><trkpt lat="49.3068134216619" lon="0.9757603118259316"><ele>106.33333333333333</ele><time>2026-04-19T17:04:30.998Z</time></trkpt><trkpt lat="49.306882639604716" lon="0.9759519271326774"><ele>107.0</ele><time>2026-04-19T17:04:31.998Z</time></trkpt><trkpt lat="49.30696158774432" lon="0.9761734129325659"><ele>109.33333333333333</ele><time>2026-04-19T17:04:32.998Z</time></trkpt><trkpt lat="49.307064115225245" lon="0.9764416432923916"><ele>111.66666666666666</ele><time>2026-04-19T17:04:33.998Z</time></trkpt><trkpt lat="49.30717331286571" lon="0.976727448563576"><ele>114.0</ele><time>2026-04-19T17:04:34.998Z</time></trkpt><trkpt lat="49.3072850457232" lon="0.9770220376585942"><ele>114.33333333333334</ele><time>2026-04-19T17:04:35.998Z</time></trkpt><trkpt lat="49.30739115883456" lon="0.9772822456294146"><ele>114.66666666666667</ele><time>2026-04-19T17:04:37Z</time></trkpt><trkpt lat="49.30746677239923" lon="0.9775048084436945"><ele>115.0</ele><time>2026-04-19T17:04:38Z</time></trkpt><trkpt lat="49.30752088502518" lon="0.977722455445101"><ele>116.33333333333334</ele><time>2026-04-19T17:04:39Z</time></trkpt><trkpt lat="49.30758127392834" lon="0.9778654006324712"><ele>117.66666666666667</ele><time>2026-04-19T17:04:40Z</time></trkpt><trkpt lat="49.30762701143094" lon="0.9779752853984346"><ele>119.0</ele><time>2026-04-19T17:04:41Z</time></trkpt><trkpt lat="49.30766777028982" lon="0.9780679454460942"><ele>120.33333333333334</ele><time>2026-04-19T17:04:42Z</time></trkpt><trkpt lat="49.30770196145983" lon="0.9781768849347188"><ele>121.66666666666667</ele><time>2026-04-19T17:04:44Z</time></trkpt><trkpt lat="49.30767503324793" lon="0.9780515072331739"><ele>123.0</ele><time>2026-04-19T17:04:50Z</time></trkpt><trkpt lat="49.307600417465785" lon="0.9779074365658499"><ele>123.0</ele><time>2026-04-19T17:04:52Z</time></trkpt><trkpt lat="49.307531332974904" lon="0.9777569093369048"><ele>123.0</ele><time>2026-04-19T17:04:53Z</time></trkpt><trkpt lat="49.30745590277255" lon="0.9775669165952511"><ele>123.0</ele><time>2026-04-19T17:04:54Z</time></trkpt><trkpt lat="49.30736924994303" lon="0.9773124071092568"><ele>122.66666666666666</ele><time>2026-04-19T17:04:55Z</time></trkpt><trkpt lat="49.307276877777255" lon="0.9770832892324894"><ele>122.33333333333333</ele><time>2026-04-19T17:04:56Z</time></trkpt><trkpt lat="49.307192646894364" lon="0.9768594840619582"><ele>122.0</ele><time>2026-04-19T17:04:57Z</time></trkpt><trkpt lat="49.3071156362162" lon="0.9766598959898677"><ele>120.39999999999999</ele><time>2026-04-19T17:04:58Z</time></trkpt><trkpt lat="49.30704879926794" lon="0.976503554194906"><ele>118.79999999999998</ele><time>2026-04-19T17:04:59Z</time></trkpt><trkpt lat="49.30700003224688" lon="0.9763601959631771"><ele>117.2</ele><time>2026-04-19T17:05:00Z</time></trkpt><trkpt lat="49.306947430639944" lon="0.9762181739884288"><ele>115.6</ele><time>2026-04-19T17:05:01Z</time></trkpt><trkpt lat="49.30689977777551" lon="0.9761047942375748"><ele>114.0</ele><time>2026-04-19T17:05:02Z</time></trkpt><trkpt lat="49.306842583245434" lon="0.9759702370486788"><ele>114.0</ele><time>2026-04-19T17:05:03Z</time></trkpt><trkpt lat="49.30680189812248" lon="0.9758747488817969"><ele>114.0</ele><time>2026-04-19T17:05:04Z</time></trkpt><trkpt lat="49.30674688573067" lon="0.9757298777792599"><ele>114.0</ele><time>2026-04-19T17:05:06Z</time></trkpt><trkpt lat="49.30669371322465" lon="0.9756036002156617"><ele>114.0</ele><time>2026-04-19T17:05:08Z</time></trkpt><trkpt lat="49.30665595830946" lon="0.975470137801472"><ele>114.0</ele><time>2026-04-19T17:05:10.999Z</time></trkpt><trkpt lat="49.30660150213894" lon="0.9753511376583958"><ele>113.0</ele><time>2026-04-19T17:05:13.999Z</time></trkpt><trkpt lat="49.306559860694385" lon="0.9752673962576079"><ele>112.0</ele><time>2026-04-19T17:05:15.999Z</time></trkpt><trkpt lat="49.306508190964145" lon="0.9751590041607119"><ele>111.0</ele><time>2026-04-19T17:05:17.999Z</time></trkpt><trkpt lat="49.306454426998826" lon="0.97500908589255"><ele>110.0</ele><time>2026-04-19T17:05:19.999Z</time></trkpt><trkpt lat="49.306408582862844" lon="0.9748804713967261"><ele>109.0</ele><time>2026-04-19T17:05:20.999Z</time></trkpt><trkpt lat="49.30634959122968" lon="0.9747443869240284"><ele>109.0</ele><time>2026-04-19T17:05:21.999Z</time></trkpt><trkpt lat="49.30629311990368" lon="0.9746345436203667"><ele>109.0</ele><time>2026-04-19T17:05:22.999Z</time></trkpt><trkpt lat="49.30624313997251" lon="0.9745247405333817"><ele>109.0</ele><time>2026-04-19T17:05:23.999Z</time></trkpt><trkpt lat="49.30621629637879" lon="0.9743836928255873"><ele>109.0</ele><time>2026-04-19T17:05:25.999Z</time></trkpt><trkpt lat="49.3063196458838" lon="0.9743700569956895"><ele>109.0</ele><time>2026-04-19T17:05:29.999Z</time></trkpt><trkpt lat="49.306373506652456" lon="0.9744771696106693"><ele>108.33333333333334</ele><time>2026-04-19T17:05:33.999Z</time></trkpt><trkpt lat="49.30643539125137" lon="0.9745846672663988"><ele>107.66666666666667</ele><time>2026-04-19T17:05:35.999Z</time></trkpt><trkpt lat="49.30649894555476" lon="0.9746274199111431"><ele>107.0</ele><time>2026-04-19T17:05:39.999Z</time></trkpt><trkpt lat="49.306534376261375" lon="0.9747421309054825"><ele>106.33333333333334</ele><time>2026-04-19T17:05:42.999Z</time></trkpt><trkpt lat="49.306565704371025" lon="0.9748995910929638"><ele>105.66666666666667</ele><time>2026-04-19T17:08:19.998Z</time></trkpt><trkpt lat="49.30663632187697" lon="0.9749519025560074"><ele>105.0</ele><time>2026-04-19T17:08:25.998Z</time></trkpt><trkpt lat="49.306685883844416" lon="0.9748758254005074"><ele>105.0</ele><time>2026-04-19T17:08:28.998Z</time></trkpt><trkpt lat="49.30670713623839" lon="0.9747619711319129"><ele>105.0</ele><time>2026-04-19T17:08:30.998Z</time></trkpt><trkpt lat="49.30670207016758" lon="0.9748761889242896"><ele>105.0</ele><time>2026-04-19T17:12:12.999Z</time></trkpt><trkpt lat="49.30664652486963" lon="0.9749300074861019"><ele>105.0</ele><time>2026-04-19T17:12:16.998Z</time></trkpt><trkpt lat="49.30657019232532" lon="0.9749298288187068"><ele>105.0</ele><time>2026-04-19T17:12:18.998Z</time></trkpt><trkpt lat="49.306498614404134" lon="0.9749798530987874"><ele>105.0</ele><time>2026-04-19T17:12:21.998Z</time></trkpt><trkpt lat="49.30641631984784" lon="0.9749219170066483"><ele>105.8</ele><time>2026-04-19T17:12:26.998Z</time></trkpt><trkpt lat="49.30635322157233" lon="0.974748303881762"><ele>106.6</ele><time>2026-04-19T17:12:28.998Z</time></trkpt><trkpt lat="49.306300014337886" lon="0.9746057218633883"><ele>107.4</ele><time>2026-04-19T17:12:29.998Z</time></trkpt><trkpt lat="49.30625569547574" lon="0.9744798060454334"><ele>108.2</ele><time>2026-04-19T17:12:30.998Z</time></trkpt><trkpt lat="49.30624251894484" lon="0.9743784523954835"><ele>109.0</ele><time>2026-04-19T17:12:32.998Z</time></trkpt><trkpt lat="49.306316388655006" lon="0.9743252457150684"><ele>109.0</ele><time>2026-04-19T17:12:37.998Z</time></trkpt><trkpt lat="49.30639084123564" lon="0.9744032237834827"><ele>109.0</ele><time>2026-04-19T17:12:39.998Z</time></trkpt><trkpt lat="49.30640534768934" lon="0.9745010023303591"><ele>109.0</ele><time>2026-04-19T17:12:41.998Z</time></trkpt><trkpt lat="49.30645233132711" lon="0.9746174255481356"><ele>109.0</ele><time>2026-04-19T17:12:44.998Z</time></trkpt><trkpt lat="49.306511898885965" lon="0.9746931822642941"><ele>109.0</ele><time>2026-04-19T17:12:47.998Z</time></trkpt><trkpt lat="49.30656154540513" lon="0.9749090226103576"><ele>109.00000000000001</ele><time>2026-04-19T17:14:20.999Z</time></trkpt><trkpt lat="49.306619257658845" lon="0.9749632335095376"><ele>109.0</ele><time>2026-04-19T17:17:07.998Z</time></trkpt><trkpt lat="49.30658491778382" lon="0.9748691061929937"><ele>109.0</ele><time>2026-04-19T17:17:13Z</time></trkpt><trkpt lat="49.30652873215694" lon="0.9748007946407792"><ele>109.0</ele><time>2026-04-19T17:17:17Z</time></trkpt><trkpt lat="49.30648973047066" lon="0.974713357228896"><ele>109.00000000000001</ele><time>2026-04-19T17:17:18Z</time></trkpt><trkpt lat="49.30644740398833" lon="0.9745774823246596"><ele>109.0</ele><time>2026-04-19T17:17:20Z</time></trkpt><trkpt lat="49.30640644161518" lon="0.9744733403196061"><ele>109.0</ele><time>2026-04-19T17:17:22Z</time></trkpt><trkpt lat="49.30633870198193" lon="0.9744373981940628"><ele>109.0</ele><time>2026-04-19T17:17:24Z</time></trkpt><trkpt lat="49.30625966142572" lon="0.9743129870596622"><ele>109.0</ele><time>2026-04-19T17:17:27Z</time></trkpt><trkpt lat="49.30621148931508" lon="0.9742218273194367"><ele>109.0</ele><time>2026-04-19T17:17:29Z</time></trkpt><trkpt lat="49.3061770887591" lon="0.9741147818920932"><ele>109.0</ele><time>2026-04-19T17:17:33Z</time></trkpt><trkpt lat="49.3059167764971" lon="0.9736156215749285"><ele>110.0</ele><time>2026-04-19T17:17:34Z</time></trkpt><trkpt lat="49.30586998146635" lon="0.9734992187323585"><ele>111.0</ele><time>2026-04-19T17:17:36Z</time></trkpt><trkpt lat="49.30582459249525" lon="0.9733757305457352"><ele>112.0</ele><time>2026-04-19T17:17:38Z</time></trkpt><trkpt lat="49.30576217653859" lon="0.9732422182466307"><ele>113.0</ele><time>2026-04-19T17:17:40Z</time></trkpt><trkpt lat="49.30570436886346" lon="0.9731087192694382"><ele>114.0</ele><time>2026-04-19T17:17:42Z</time></trkpt><trkpt lat="49.30566842662027" lon="0.9729919462277289"><ele>114.33333333333333</ele><time>2026-04-19T17:17:43.999Z</time></trkpt><trkpt lat="49.3056129249572" lon="0.9728566590342163"><ele>114.66666666666666</ele><time>2026-04-19T17:17:45.999Z</time></trkpt><trkpt lat="49.30557261467953" lon="0.9727578740571212"><ele>115.0</ele><time>2026-04-19T17:17:46.999Z</time></trkpt><trkpt lat="49.30552272368251" lon="0.9726251927929489"><ele>115.33333333333333</ele><time>2026-04-19T17:17:47.999Z</time></trkpt><trkpt lat="49.30548691344082" lon="0.9724984888011192"><ele>115.66666666666666</ele><time>2026-04-19T17:17:49.999Z</time></trkpt><trkpt lat="49.305449255192215" lon="0.972396135146081"><ele>116.0</ele><time>2026-04-19T17:17:51.999Z</time></trkpt><trkpt lat="49.30542774217724" lon="0.9723041455560991"><ele>116.6</ele><time>2026-04-19T17:17:53.999Z</time></trkpt><trkpt lat="49.305391472046104" lon="0.9721816344925112"><ele>117.19999999999999</ele><time>2026-04-19T17:17:56.999Z</time></trkpt><trkpt lat="49.3054213686771" lon="0.9720876304237844"><ele>117.80000000000001</ele><time>2026-04-19T17:17:58.999Z</time></trkpt><trkpt lat="49.30549445139389" lon="0.9720426755807623"><ele>118.4</ele><time>2026-04-19T17:18:00.999Z</time></trkpt><trkpt lat="49.30558695370553" lon="0.9720341698597363"><ele>119.0</ele><time>2026-04-19T17:18:01.999Z</time></trkpt><trkpt lat="49.305711773339354" lon="0.9720527620675802"><ele>119.0</ele><time>2026-04-19T17:18:02.999Z</time></trkpt><trkpt lat="49.30586410386635" lon="0.9720881259054153"><ele>119.0</ele><time>2026-04-19T17:18:03.999Z</time></trkpt><trkpt lat="49.3060314886885" lon="0.9721206172760389"><ele>119.0</ele><time>2026-04-19T17:18:04.999Z</time></trkpt><trkpt lat="49.30616143733431" lon="0.9721653520042145"><ele>119.0</ele><time>2026-04-19T17:18:05.999Z</time></trkpt><trkpt lat="49.30628476343404" lon="0.9722094555554563"><ele>119.0</ele><time>2026-04-19T17:18:06.999Z</time></trkpt><trkpt lat="49.30640053235131" lon="0.9722483020871955"><ele>119.0</ele><time>2026-04-19T17:18:07.999Z</time></trkpt><trkpt lat="49.30648391999865" lon="0.9722461472200877"><ele>119.0</ele><time>2026-04-19T17:18:08.999Z</time></trkpt><trkpt lat="49.306574118869385" lon="0.9722098542743617"><ele>119.0</ele><time>2026-04-19T17:18:09.999Z</time></trkpt><trkpt lat="49.30665567242195" lon="0.9721844238519105"><ele>119.2</ele><time>2026-04-19T17:18:10.999Z</time></trkpt><trkpt lat="49.30674051195489" lon="0.9721041846242477"><ele>119.4</ele><time>2026-04-19T17:18:11.999Z</time></trkpt><trkpt lat="49.306825275968556" lon="0.9720043568259705"><ele>119.6</ele><time>2026-04-19T17:18:12.999Z</time></trkpt><trkpt lat="49.3069133607205" lon="0.9719087805917402"><ele>119.8</ele><time>2026-04-19T17:18:13.999Z</time></trkpt><trkpt lat="49.307006019411865" lon="0.9718092613502902"><ele>120.0</ele><time>2026-04-19T17:18:14.999Z</time></trkpt><trkpt lat="49.30708727698304" lon="0.9717138503535091"><ele>119.8</ele><time>2026-04-19T17:18:15.999Z</time></trkpt><trkpt lat="49.307141776871035" lon="0.9716336641419769"><ele>119.6</ele><time>2026-04-19T17:18:16.999Z</time></trkpt><trkpt lat="49.30719132553945" lon="0.9715267774897363"><ele>119.4</ele><time>2026-04-19T17:18:17.999Z</time></trkpt><trkpt lat="49.307236358851334" lon="0.971360310626846"><ele>119.2</ele><time>2026-04-19T17:18:18.999Z</time></trkpt><trkpt lat="49.307303646663094" lon="0.9711862534590052"><ele>119.0</ele><time>2026-04-19T17:18:19.999Z</time></trkpt><trkpt lat="49.307345575674915" lon="0.9710446338972881"><ele>120.0</ele><time>2026-04-19T17:18:20.999Z</time></trkpt><trkpt lat="49.30736905303873" lon="0.9709283280861739"><ele>121.0</ele><time>2026-04-19T17:18:21.999Z</time></trkpt><trkpt lat="49.30742228917404" lon="0.9708308945517314"><ele>122.0</ele><time>2026-04-19T17:18:22.999Z</time></trkpt><trkpt lat="49.30749548467267" lon="0.9707109770582195"><ele>123.0</ele><time>2026-04-19T17:18:23.999Z</time></trkpt><trkpt lat="49.30756969668836" lon="0.9705898020616237"><ele>124.0</ele><time>2026-04-19T17:18:24.999Z</time></trkpt><trkpt lat="49.30762820752941" lon="0.9705064761281564"><ele>124.0</ele><time>2026-04-19T17:18:25.999Z</time></trkpt><trkpt lat="49.307673206614695" lon="0.97040617622796"><ele>124.0</ele><time>2026-04-19T17:18:27.999Z</time></trkpt><trkpt lat="49.307851954232994" lon="0.9705211970718886"><ele>124.0</ele><time>2026-04-19T17:18:30.999Z</time></trkpt><trkpt lat="49.30795369657521" lon="0.9706443639150033"><ele>124.0</ele><time>2026-04-19T17:18:32.999Z</time></trkpt><trkpt lat="49.308021486462984" lon="0.9707015302429043"><ele>124.50000000000001</ele><time>2026-04-19T17:18:33.999Z</time></trkpt><trkpt lat="49.308091001130485" lon="0.9707579964142434"><ele>125.0</ele><time>2026-04-19T17:18:34.999Z</time></trkpt><trkpt lat="49.308155018040644" lon="0.9708184003704955"><ele>125.5</ele><time>2026-04-19T17:18:35.999Z</time></trkpt><trkpt lat="49.30823296359774" lon="0.9708837972567671"><ele>126.0</ele><time>2026-04-19T17:18:36.999Z</time></trkpt><trkpt lat="49.30830351572901" lon="0.9709494056109017"><ele>126.50000000000001</ele><time>2026-04-19T17:18:37.999Z</time></trkpt><trkpt lat="49.30838962716915" lon="0.9710172674701429"><ele>127.0</ele><time>2026-04-19T17:18:38.999Z</time></trkpt><trkpt lat="49.30848656424516" lon="0.9711030057059203"><ele>127.19999999999999</ele><time>2026-04-19T17:18:39.999Z</time></trkpt><trkpt lat="49.30858922545807" lon="0.9711794166727348"><ele>127.39999999999999</ele><time>2026-04-19T17:18:40.999Z</time></trkpt><trkpt lat="49.30867214353995" lon="0.9712432535079941"><ele>127.60000000000001</ele><time>2026-04-19T17:18:41.999Z</time></trkpt><trkpt lat="49.308738720698024" lon="0.9713201545864977"><ele>127.80000000000001</ele><time>2026-04-19T17:18:42.999Z</time></trkpt><trkpt lat="49.30880690084773" lon="0.9713849060692915"><ele>128.0</ele><time>2026-04-19T17:18:43.999Z</time></trkpt><trkpt lat="49.30888044908791" lon="0.9714567131439837"><ele>128.25</ele><time>2026-04-19T17:18:44.999Z</time></trkpt><trkpt lat="49.30896956851174" lon="0.9715404188241817"><ele>128.5</ele><time>2026-04-19T17:18:45.999Z</time></trkpt><trkpt lat="49.30905591459276" lon="0.9716375087780087"><ele>128.75</ele><time>2026-04-19T17:18:46.999Z</time></trkpt><trkpt lat="49.30916609024859" lon="0.9717333279953256"><ele>129.0</ele><time>2026-04-19T17:18:47.998Z</time></trkpt><trkpt lat="49.30930915912063" lon="0.9718552123347348"><ele>129.0</ele><time>2026-04-19T17:18:48.998Z</time></trkpt><trkpt lat="49.30946219894264" lon="0.9719930907254462"><ele>129.0</ele><time>2026-04-19T17:18:49.998Z</time></trkpt><trkpt lat="49.3096390000116" lon="0.9721456740915713"><ele>129.0</ele><time>2026-04-19T17:18:50.998Z</time></trkpt><trkpt lat="49.30983167848427" lon="0.9723262577313888"><ele>128.66666666666666</ele><time>2026-04-19T17:18:51.998Z</time></trkpt><trkpt lat="49.31001917156757" lon="0.9724893465119262"><ele>128.33333333333331</ele><time>2026-04-19T17:18:52.998Z</time></trkpt><trkpt lat="49.310174770025796" lon="0.9726371433528549"><ele>128.0</ele><time>2026-04-19T17:18:53.998Z</time></trkpt><trkpt lat="49.31031859492717" lon="0.9727799574953138"><ele>127.33333333333333</ele><time>2026-04-19T17:18:54.998Z</time></trkpt><trkpt lat="49.31045790490567" lon="0.9729068132629866"><ele>126.66666666666666</ele><time>2026-04-19T17:18:55.998Z</time></trkpt><trkpt lat="49.31059868273755" lon="0.9730498934074515"><ele>126.0</ele><time>2026-04-19T17:18:56.998Z</time></trkpt><trkpt lat="49.310741228740504" lon="0.9731755348963268"><ele>125.25</ele><time>2026-04-19T17:18:57.998Z</time></trkpt><trkpt lat="49.31086834449533" lon="0.9732904124029708"><ele>124.5</ele><time>2026-04-19T17:18:58.998Z</time></trkpt><trkpt lat="49.31097433593741" lon="0.9733989959883098"><ele>123.75</ele><time>2026-04-19T17:18:59.998Z</time></trkpt><trkpt lat="49.31107038985464" lon="0.9734920504361912"><ele>123.0</ele><time>2026-04-19T17:19:00.998Z</time></trkpt><trkpt lat="49.31115696956093" lon="0.9735717131641087"><ele>123.25</ele><time>2026-04-19T17:19:01.998Z</time></trkpt><trkpt lat="49.31124379362522" lon="0.9736365011273961"><ele>123.5</ele><time>2026-04-19T17:19:02.998Z</time></trkpt><trkpt lat="49.311338851328486" lon="0.9737219729835628"><ele>123.75</ele><time>2026-04-19T17:19:03.998Z</time></trkpt><trkpt lat="49.31145881192496" lon="0.9738320328234548"><ele>124.0</ele><time>2026-04-19T17:19:04.998Z</time></trkpt><trkpt lat="49.311558326989335" lon="0.973925363757424"><ele>124.0</ele><time>2026-04-19T17:19:05.998Z</time></trkpt><trkpt lat="49.31164814955511" lon="0.9740055735286764"><ele>124.0</ele><time>2026-04-19T17:19:06.998Z</time></trkpt><trkpt lat="49.31175339261951" lon="0.9741079022923915"><ele>124.0</ele><time>2026-04-19T17:19:07.998Z</time></trkpt><trkpt lat="49.311877787714245" lon="0.9742185370986332"><ele>124.0</ele><time>2026-04-19T17:19:08.998Z</time></trkpt><trkpt lat="49.31199911732758" lon="0.974337701819735"><ele>124.0</ele><time>2026-04-19T17:19:09.998Z</time></trkpt><trkpt lat="49.312125381788675" lon="0.9744546514517084"><ele>124.0</ele><time>2026-04-19T17:19:10.998Z</time></trkpt><trkpt lat="49.312253710769696" lon="0.974569000407834"><ele>124.0</ele><time>2026-04-19T17:19:11.998Z</time></trkpt><trkpt lat="49.31238505708403" lon="0.9746887461735627"><ele>124.0</ele><time>2026-04-19T17:19:12.998Z</time></trkpt><trkpt lat="49.31253839914681" lon="0.9748360382595043"><ele>124.0</ele><time>2026-04-19T17:19:13.998Z</time></trkpt><trkpt lat="49.312706931069066" lon="0.9750046587685587"><ele>124.0</ele><time>2026-04-19T17:19:14.998Z</time></trkpt><trkpt lat="49.312866422673665" lon="0.975151122917831"><ele>124.0</ele><time>2026-04-19T17:19:16Z</time></trkpt><trkpt lat="49.3130030417495" lon="0.9752751792973031"><ele>123.75</ele><time>2026-04-19T17:19:17Z</time></trkpt><trkpt lat="49.313131843136766" lon="0.9753864801137879"><ele>123.5</ele><time>2026-04-19T17:19:18Z</time></trkpt><trkpt lat="49.31324568849751" lon="0.9754898748822416"><ele>123.25</ele><time>2026-04-19T17:19:19Z</time></trkpt><trkpt lat="49.313376740724344" lon="0.9756065874543134"><ele>123.0</ele><time>2026-04-19T17:19:20Z</time></trkpt><trkpt lat="49.31354333108326" lon="0.9757565662337568"><ele>123.0</ele><time>2026-04-19T17:19:21Z</time></trkpt><trkpt lat="49.31370396492117" lon="0.9758865584960436"><ele>123.0</ele><time>2026-04-19T17:19:22Z</time></trkpt><trkpt lat="49.31385443964276" lon="0.9760120734934298"><ele>123.0</ele><time>2026-04-19T17:19:23Z</time></trkpt><trkpt lat="49.31398108171044" lon="0.9761168266600346"><ele>123.0</ele><time>2026-04-19T17:19:24Z</time></trkpt><trkpt lat="49.31408742304158" lon="0.9762199857797473"><ele>123.00000000000001</ele><time>2026-04-19T17:19:25Z</time></trkpt><trkpt lat="49.3141893681443" lon="0.9763120823835422"><ele>123.00000000000001</ele><time>2026-04-19T17:19:26Z</time></trkpt><trkpt lat="49.31427615585081" lon="0.9763973600808401"><ele>123.0</ele><time>2026-04-19T17:19:27Z</time></trkpt><trkpt lat="49.31435173185174" lon="0.9764686865629569"><ele>123.0</ele><time>2026-04-19T17:19:28Z</time></trkpt><trkpt lat="49.31443031747321" lon="0.9765367137834725"><ele>123.0</ele><time>2026-04-19T17:19:29Z</time></trkpt><trkpt lat="49.314505018053" lon="0.9766037459443002"><ele>123.00000000000001</ele><time>2026-04-19T17:19:30Z</time></trkpt><trkpt lat="49.31458547745907" lon="0.9767023255110299"><ele>123.00000000000001</ele><time>2026-04-19T17:19:31Z</time></trkpt><trkpt lat="49.31469893687433" lon="0.9768028658343979"><ele>123.0</ele><time>2026-04-19T17:19:32Z</time></trkpt><trkpt lat="49.31479138082873" lon="0.976900319196602"><ele>123.0</ele><time>2026-04-19T17:19:33.001Z</time></trkpt><trkpt lat="49.314894846378294" lon="0.9770167268534266"><ele>122.4</ele><time>2026-04-19T17:19:34.001Z</time></trkpt><trkpt lat="49.314987419337236" lon="0.9770989671505428"><ele>121.80000000000001</ele><time>2026-04-19T17:19:35.001Z</time></trkpt><trkpt lat="49.315064454115024" lon="0.9771836220866056"><ele>121.2</ele><time>2026-04-19T17:19:36.001Z</time></trkpt><trkpt lat="49.31515078807858" lon="0.9772500218586776"><ele>120.6</ele><time>2026-04-19T17:19:37.001Z</time></trkpt><trkpt lat="49.315235986143165" lon="0.9773293776961046"><ele>120.0</ele><time>2026-04-19T17:19:38.001Z</time></trkpt><trkpt lat="49.315313193360005" lon="0.9774013517115561"><ele>120.0</ele><time>2026-04-19T17:19:39.001Z</time></trkpt><trkpt lat="49.315389900945064" lon="0.9774720334646697"><ele>120.0</ele><time>2026-04-19T17:19:40.001Z</time></trkpt><trkpt lat="49.315450479673515" lon="0.9775449689916189"><ele>120.0</ele><time>2026-04-19T17:19:41.001Z</time></trkpt><trkpt lat="49.31551820364251" lon="0.9776141109907152"><ele>120.0</ele><time>2026-04-19T17:19:42.001Z</time></trkpt><trkpt lat="49.31559623835575" lon="0.9776721717410892"><ele>120.0</ele><time>2026-04-19T17:19:43Z</time></trkpt><trkpt lat="49.315665272297544" lon="0.9777351780683075"><ele>120.0</ele><time>2026-04-19T17:19:44Z</time></trkpt><trkpt lat="49.31573603489143" lon="0.9778014449354419"><ele>118.5</ele><time>2026-04-19T17:19:45Z</time></trkpt><trkpt lat="49.31580453002869" lon="0.9778643676196743"><ele>117.0</ele><time>2026-04-19T17:19:46Z</time></trkpt><trkpt lat="49.31587031418553" lon="0.9779167919324947"><ele>115.5</ele><time>2026-04-19T17:19:47Z</time></trkpt><trkpt lat="49.31593693003192" lon="0.9779854188473337"><ele>114.0</ele><time>2026-04-19T17:19:48Z</time></trkpt><trkpt lat="49.31600082256101" lon="0.9780503226535947"><ele>112.5</ele><time>2026-04-19T17:19:49Z</time></trkpt><trkpt lat="49.31607229474708" lon="0.9781111418281524"><ele>111.0</ele><time>2026-04-19T17:19:50Z</time></trkpt><trkpt lat="49.31613942325431" lon="0.9781629556481318"><ele>111.0</ele><time>2026-04-19T17:19:51Z</time></trkpt><trkpt lat="49.31620076993735" lon="0.9782238922251381"><ele>111.0</ele><time>2026-04-19T17:19:52Z</time></trkpt><trkpt lat="49.316271996672974" lon="0.9782666974880011"><ele>111.0</ele><time>2026-04-19T17:19:53Z</time></trkpt><trkpt lat="49.31633365509999" lon="0.9783307412178589"><ele>111.0</ele><time>2026-04-19T17:19:54Z</time></trkpt><trkpt lat="49.316394562825224" lon="0.978395779722768"><ele>111.0</ele><time>2026-04-19T17:19:55Z</time></trkpt><trkpt lat="49.3164938258241" lon="0.978490462304339"><ele>111.0</ele><time>2026-04-19T17:19:57Z</time></trkpt><trkpt lat="49.31658368056661" lon="0.9786029562203039"><ele>108.0</ele><time>2026-04-19T17:19:59Z</time></trkpt><trkpt lat="49.31665932689664" lon="0.9786739742900799"><ele>105.0</ele><time>2026-04-19T17:20:01Z</time></trkpt><trkpt lat="49.31671109838786" lon="0.9787503856227728"><ele>102.0</ele><time>2026-04-19T17:20:03Z</time></trkpt><trkpt lat="49.31676602529044" lon="0.9788054590443432"><ele>99.0</ele><time>2026-04-19T17:20:05Z</time></trkpt><trkpt lat="49.31684006529486" lon="0.9788620037376474"><ele>96.0</ele><time>2026-04-19T17:20:07Z</time></trkpt><trkpt lat="49.31690187391902" lon="0.9789138115734758"><ele>93.0</ele><time>2026-04-19T17:20:09Z</time></trkpt><trkpt lat="49.31698109323288" lon="0.9789520308599474"><ele>93.0</ele><time>2026-04-19T17:20:11Z</time></trkpt><trkpt lat="49.31705346693215" lon="0.9789912263444873"><ele>93.0</ele><time>2026-04-19T17:20:13Z</time></trkpt><trkpt lat="49.31714006946342" lon="0.9790658936741752"><ele>93.0</ele><time>2026-04-19T17:20:15Z</time></trkpt><trkpt lat="49.31726216599932" lon="0.9790864916699226"><ele>93.0</ele><time>2026-04-19T17:20:17Z</time></trkpt><trkpt lat="49.317321426506375" lon="0.9791256957220112"><ele>93.0</ele><time>2026-04-19T17:20:18Z</time></trkpt><trkpt lat="49.31738619902992" lon="0.9791892457993671"><ele>93.0</ele><time>2026-04-19T17:20:19Z</time></trkpt><trkpt lat="49.31745771607719" lon="0.9792562220347427"><ele>87.4</ele><time>2026-04-19T17:20:20Z</time></trkpt><trkpt lat="49.3175308968095" lon="0.9793525126600006"><ele>81.80000000000001</ele><time>2026-04-19T17:20:21Z</time></trkpt><trkpt lat="49.31760348829579" lon="0.9794328365460179"><ele>76.2</ele><time>2026-04-19T17:20:22Z</time></trkpt><trkpt lat="49.317664701940636" lon="0.9794963394575932"><ele>70.6</ele><time>2026-04-19T17:20:23Z</time></trkpt><trkpt lat="49.31776212781035" lon="0.9795965307852361"><ele>65.0</ele><time>2026-04-19T17:20:25Z</time></trkpt><trkpt lat="49.317856366162125" lon="0.9796991531586333"><ele>65.0</ele><time>2026-04-19T17:20:27Z</time></trkpt><trkpt lat="49.31794130908883" lon="0.9797689658258223"><ele>65.0</ele><time>2026-04-19T17:20:29Z</time></trkpt><trkpt lat="49.318020866361685" lon="0.9798584447751386"><ele>65.0</ele><time>2026-04-19T17:20:31Z</time></trkpt><trkpt lat="49.3180881707612" lon="0.9798632554038976"><ele>65.0</ele><time>2026-04-19T17:20:33Z</time></trkpt><trkpt lat="49.3180145460357" lon="0.9798291836094667"><ele>65.0</ele><time>2026-04-19T17:23:29.001Z</time></trkpt><trkpt lat="49.317936281475696" lon="0.9798179924424759"><ele>65.0</ele><time>2026-04-19T17:23:32.001Z</time></trkpt><trkpt lat="49.317877680334185" lon="0.9797703003512597"><ele>65.0</ele><time>2026-04-19T17:23:33.001Z</time></trkpt><trkpt lat="49.317763097018826" lon="0.9796588515752652"><ele>65.0</ele><time>2026-04-19T17:23:35.001Z</time></trkpt><trkpt lat="49.31769067537126" lon="0.9795819309099452"><ele>65.0</ele><time>2026-04-19T17:23:36.001Z</time></trkpt><trkpt lat="49.31761126783686" lon="0.9794823453475094"><ele>65.0</ele><time>2026-04-19T17:23:37.001Z</time></trkpt><trkpt lat="49.317515322972895" lon="0.9793799543689938"><ele>65.0</ele><time>2026-04-19T17:23:38.001Z</time></trkpt><trkpt lat="49.31742774427945" lon="0.9792747824206728"><ele>68.75</ele><time>2026-04-19T17:23:39.001Z</time></trkpt><trkpt lat="49.31730894756562" lon="0.9791808486733846"><ele>72.5</ele><time>2026-04-19T17:23:40.001Z</time></trkpt><trkpt lat="49.31719436353773" lon="0.9790911982082325"><ele>76.25</ele><time>2026-04-19T17:23:41.001Z</time></trkpt><trkpt lat="49.31709117252575" lon="0.9790169118348037"><ele>80.0</ele><time>2026-04-19T17:23:42.001Z</time></trkpt><trkpt lat="49.31701180084641" lon="0.9789577025354566"><ele>82.16666666666667</ele><time>2026-04-19T17:23:43.001Z</time></trkpt><trkpt lat="49.316932689363995" lon="0.9789067579479653"><ele>84.33333333333334</ele><time>2026-04-19T17:23:45Z</time></trkpt><trkpt lat="49.31686703560601" lon="0.9788065549669206"><ele>86.5</ele><time>2026-04-19T17:23:47Z</time></trkpt><trkpt lat="49.31678510571046" lon="0.9787634064326886"><ele>88.66666666666667</ele><time>2026-04-19T17:23:48Z</time></trkpt><trkpt lat="49.31670619737679" lon="0.9786856260895201"><ele>90.83333333333333</ele><time>2026-04-19T17:23:49Z</time></trkpt><trkpt lat="49.3166298069817" lon="0.9786429350648974"><ele>93.0</ele><time>2026-04-19T17:23:50Z</time></trkpt><trkpt lat="49.31657014123344" lon="0.978591767483925"><ele>93.0</ele><time>2026-04-19T17:23:51Z</time></trkpt><trkpt lat="49.31649608001574" lon="0.9785017320667684"><ele>93.0</ele><time>2026-04-19T17:23:52Z</time></trkpt><trkpt lat="49.31642653137583" lon="0.9784351295073878"><ele>93.0</ele><time>2026-04-19T17:23:53Z</time></trkpt><trkpt lat="49.316357168572544" lon="0.9783631149999171"><ele>93.0</ele><time>2026-04-19T17:23:54Z</time></trkpt><trkpt lat="49.316264618241426" lon="0.9782753211085757"><ele>93.0</ele><time>2026-04-19T17:23:55Z</time></trkpt><trkpt lat="49.31617563233585" lon="0.9781915967309348"><ele>96.0</ele><time>2026-04-19T17:23:56Z</time></trkpt><trkpt lat="49.316115026587035" lon="0.9781551453754112"><ele>99.0</ele><time>2026-04-19T17:23:57Z</time></trkpt><trkpt lat="49.316057252408456" lon="0.9780998169353161"><ele>102.0</ele><time>2026-04-19T17:23:58Z</time></trkpt><trkpt lat="49.315998293970644" lon="0.9780296965336961"><ele>105.0</ele><time>2026-04-19T17:23:59Z</time></trkpt><trkpt lat="49.31594310168455" lon="0.9779780268450332"><ele>108.0</ele><time>2026-04-19T17:24:00Z</time></trkpt><trkpt lat="49.31587446454915" lon="0.9778994806954748"><ele>111.0</ele><time>2026-04-19T17:24:01Z</time></trkpt><trkpt lat="49.315781267744676" lon="0.9778280252472931"><ele>111.0</ele><time>2026-04-19T17:24:02Z</time></trkpt><trkpt lat="49.31568995760923" lon="0.9777378440236639"><ele>111.0</ele><time>2026-04-19T17:24:03Z</time></trkpt><trkpt lat="49.31558349468011" lon="0.977638086798682"><ele>111.0</ele><time>2026-04-19T17:24:04Z</time></trkpt><trkpt lat="49.31546575067931" lon="0.9775229156301678"><ele>111.0</ele><time>2026-04-19T17:24:05Z</time></trkpt><trkpt lat="49.31533959962208" lon="0.9774125388768458"><ele>114.0</ele><time>2026-04-19T17:24:06Z</time></trkpt><trkpt lat="49.315207549233264" lon="0.9772841461540682"><ele>117.0</ele><time>2026-04-19T17:24:07Z</time></trkpt><trkpt lat="49.3150673346977" lon="0.9771705255694683"><ele>120.0</ele><time>2026-04-19T17:24:08Z</time></trkpt><trkpt lat="49.31494524574955" lon="0.9770606979226262"><ele>120.0</ele><time>2026-04-19T17:24:09Z</time></trkpt><trkpt lat="49.31484328768575" lon="0.976963864861775"><ele>120.0</ele><time>2026-04-19T17:24:10Z</time></trkpt><trkpt lat="49.31476834733196" lon="0.9768684397152915"><ele>120.0</ele><time>2026-04-19T17:24:11Z</time></trkpt><trkpt lat="49.314671418811734" lon="0.9767889740579498"><ele>120.0</ele><time>2026-04-19T17:24:12Z</time></trkpt><trkpt lat="49.31457789337621" lon="0.9767301222694261"><ele>120.0</ele><time>2026-04-19T17:24:13Z</time></trkpt><trkpt lat="49.314515295056204" lon="0.976658480016956"><ele>120.5</ele><time>2026-04-19T17:24:14Z</time></trkpt><trkpt lat="49.31444348872136" lon="0.9766032688639134"><ele>121.0</ele><time>2026-04-19T17:24:15Z</time></trkpt><trkpt lat="49.31437760103148" lon="0.9765313332152454"><ele>121.5</ele><time>2026-04-19T17:24:16Z</time></trkpt><trkpt lat="49.31431884553426" lon="0.9764814855474317"><ele>122.0</ele><time>2026-04-19T17:24:17Z</time></trkpt><trkpt lat="49.31425831132082" lon="0.9764217487919948"><ele>122.5</ele><time>2026-04-19T17:24:18Z</time></trkpt><trkpt lat="49.3142019757817" lon="0.9763543684705096"><ele>123.0</ele><time>2026-04-19T17:24:19Z</time></trkpt><trkpt lat="49.314118701175786" lon="0.9762764727396123"><ele>123.0</ele><time>2026-04-19T17:24:20Z</time></trkpt><trkpt lat="49.31400775057344" lon="0.976177242830906"><ele>123.0</ele><time>2026-04-19T17:24:21Z</time></trkpt><trkpt lat="49.31392162025379" lon="0.9760977536901027"><ele>123.0</ele><time>2026-04-19T17:24:22Z</time></trkpt><trkpt lat="49.313860256633966" lon="0.976034278037294"><ele>123.0</ele><time>2026-04-19T17:24:23Z</time></trkpt><trkpt lat="49.31380091219276" lon="0.9759888332308475"><ele>123.0</ele><time>2026-04-19T17:24:24Z</time></trkpt><trkpt lat="49.31373327194245" lon="0.9759322128202913"><ele>123.0</ele><time>2026-04-19T17:24:25Z</time></trkpt><trkpt lat="49.31365822029907" lon="0.9758697818670236"><ele>123.0</ele><time>2026-04-19T17:24:26Z</time></trkpt><trkpt lat="49.31359971704299" lon="0.9758149198363967"><ele>123.00000000000001</ele><time>2026-04-19T17:24:27Z</time></trkpt><trkpt lat="49.313480910203225" lon="0.9757210880258389"><ele>123.00000000000001</ele><time>2026-04-19T17:24:29Z</time></trkpt><trkpt lat="49.313416449149436" lon="0.9756576313706754"><ele>123.0</ele><time>2026-04-19T17:24:30Z</time></trkpt><trkpt lat="49.313335877213675" lon="0.9755777161500745"><ele>123.0</ele><time>2026-04-19T17:24:31Z</time></trkpt><trkpt lat="49.313250924159696" lon="0.9754975883674589"><ele>123.0</ele><time>2026-04-19T17:24:32Z</time></trkpt><trkpt lat="49.31318078188927" lon="0.975438555852933"><ele>123.00000000000001</ele><time>2026-04-19T17:24:33Z</time></trkpt><trkpt lat="49.313119766036564" lon="0.9753915222007683"><ele>123.00000000000001</ele><time>2026-04-19T17:24:34Z</time></trkpt><trkpt lat="49.31300220393958" lon="0.97528268213228"><ele>123.0</ele><time>2026-04-19T17:24:36Z</time></trkpt><trkpt lat="49.31294495104317" lon="0.9752226165020637"><ele>123.0</ele><time>2026-04-19T17:24:37Z</time></trkpt><trkpt lat="49.31284950901407" lon="0.9751368689013225"><ele>123.2</ele><time>2026-04-19T17:24:39Z</time></trkpt><trkpt lat="49.31275127626343" lon="0.9750409084474256"><ele>123.4</ele><time>2026-04-19T17:24:40.999Z</time></trkpt><trkpt lat="49.31269416174628" lon="0.9749952256809892"><ele>123.60000000000001</ele><time>2026-04-19T17:24:41.999Z</time></trkpt><trkpt lat="49.31262155803453" lon="0.9749214766910059"><ele>123.80000000000001</ele><time>2026-04-19T17:24:43.999Z</time></trkpt><trkpt lat="49.31253094729371" lon="0.9748454714558692"><ele>124.0</ele><time>2026-04-19T17:24:45.999Z</time></trkpt><trkpt lat="49.312448347280686" lon="0.9747793865663253"><ele>124.0</ele><time>2026-04-19T17:24:46.999Z</time></trkpt><trkpt lat="49.31234497652781" lon="0.9746788114100953"><ele>124.0</ele><time>2026-04-19T17:24:47.999Z</time></trkpt><trkpt lat="49.31222829468077" lon="0.9745654531643264"><ele>124.0</ele><time>2026-04-19T17:24:48.999Z</time></trkpt><trkpt lat="49.31213035407042" lon="0.9744709465430843"><ele>124.0</ele><time>2026-04-19T17:24:49.999Z</time></trkpt><trkpt lat="49.31203416467038" lon="0.9743903839980862"><ele>124.0</ele><time>2026-04-19T17:24:50.999Z</time></trkpt><trkpt lat="49.31193328629842" lon="0.9742993514406783"><ele>124.0</ele><time>2026-04-19T17:24:51.999Z</time></trkpt><trkpt lat="49.311844285502545" lon="0.9742172211612709"><ele>124.0</ele><time>2026-04-19T17:24:52.999Z</time></trkpt><trkpt lat="49.311766524980015" lon="0.9741420375744678"><ele>124.0</ele><time>2026-04-19T17:24:53.999Z</time></trkpt><trkpt lat="49.311701324700344" lon="0.974077073572734"><ele>124.0</ele><time>2026-04-19T17:24:54.999Z</time></trkpt><trkpt lat="49.31164367964371" lon="0.9740255372368696"><ele>124.0</ele><time>2026-04-19T17:24:55.999Z</time></trkpt><trkpt lat="49.311550801972075" lon="0.9739335379001591"><ele>124.0</ele><time>2026-04-19T17:24:57.999Z</time></trkpt><trkpt lat="49.31152270352481" lon="0.9738106522307273"><ele>124.0</ele><time>2026-04-19T17:24:59.999Z</time></trkpt><trkpt lat="49.31158381209946" lon="0.9736659251554647"><ele>124.0</ele><time>2026-04-19T17:25:01.999Z</time></trkpt><trkpt lat="49.31166752563822" lon="0.973599086899743"><ele>124.0</ele><time>2026-04-19T17:25:03.999Z</time></trkpt><trkpt lat="49.31176542007064" lon="0.9736808079163476"><ele>124.0</ele><time>2026-04-19T17:25:05.999Z</time></trkpt><trkpt lat="49.31184789143496" lon="0.9737604122259814"><ele>124.0</ele><time>2026-04-19T17:25:06.999Z</time></trkpt><trkpt lat="49.31199525827374" lon="0.9738402071651178"><ele>124.0</ele><time>2026-04-19T17:25:07.999Z</time></trkpt><trkpt lat="49.312152998693556" lon="0.9739344929413077"><ele>124.0</ele><time>2026-04-19T17:25:08.999Z</time></trkpt><trkpt lat="49.31230203902392" lon="0.974000125390487"><ele>124.75</ele><time>2026-04-19T17:25:09.999Z</time></trkpt><trkpt lat="49.3124105217935" lon="0.9740416151210545"><ele>125.5</ele><time>2026-04-19T17:25:10.999Z</time></trkpt><trkpt lat="49.312522072337806" lon="0.9740651369984049"><ele>126.25</ele><time>2026-04-19T17:25:11.999Z</time></trkpt><trkpt lat="49.31265079458062" lon="0.9740584465375194"><ele>127.0</ele><time>2026-04-19T17:25:12.999Z</time></trkpt><trkpt lat="49.31278682109314" lon="0.9740620828420306"><ele>127.0</ele><time>2026-04-19T17:25:13.999Z</time></trkpt><trkpt lat="49.31290781462566" lon="0.9740859386751552"><ele>126.99999999999999</ele><time>2026-04-19T17:25:14.999Z</time></trkpt><trkpt lat="49.313002315248866" lon="0.9741325312482905"><ele>126.99999999999999</ele><time>2026-04-19T17:25:15.999Z</time></trkpt><trkpt lat="49.31309209990579" lon="0.9741994938004003"><ele>127.0</ele><time>2026-04-19T17:25:16.999Z</time></trkpt><trkpt lat="49.31317681426215" lon="0.9742455476166426"><ele>127.0</ele><time>2026-04-19T17:25:17.999Z</time></trkpt><trkpt lat="49.31327279319067" lon="0.9742563254997053"><ele>127.00000000000001</ele><time>2026-04-19T17:25:18.999Z</time></trkpt><trkpt lat="49.31335976962693" lon="0.9742494173193433"><ele>127.0</ele><time>2026-04-19T17:25:19.999Z</time></trkpt><trkpt lat="49.313442647017006" lon="0.9742240290030885"><ele>127.0</ele><time>2026-04-19T17:25:20.999Z</time></trkpt><trkpt lat="49.31352854310141" lon="0.9741773214417144"><ele>127.0</ele><time>2026-04-19T17:25:21.999Z</time></trkpt><trkpt lat="49.313610081949" lon="0.9741093111735724"><ele>127.00000000000001</ele><time>2026-04-19T17:25:22.999Z</time></trkpt><trkpt lat="49.31369236959415" lon="0.9740652923054941"><ele>127.0</ele><time>2026-04-19T17:25:23.999Z</time></trkpt><trkpt lat="49.31377526092163" lon="0.9740500104203773"><ele>127.0</ele><time>2026-04-19T17:25:24.999Z</time></trkpt><trkpt lat="49.313876050560715" lon="0.9740552881672913"><ele>126.99999999999999</ele><time>2026-04-19T17:25:25.999Z</time></trkpt><trkpt lat="49.31397211711355" lon="0.9740771200885817"><ele>126.99999999999999</ele><time>2026-04-19T17:25:26.999Z</time></trkpt><trkpt lat="49.314079614971305" lon="0.9741060667413813"><ele>127.0</ele><time>2026-04-19T17:25:27.999Z</time></trkpt><trkpt lat="49.314219657720614" lon="0.9741244317388922"><ele>127.0</ele><time>2026-04-19T17:25:28.999Z</time></trkpt><trkpt lat="49.3143945359225" lon="0.9741787890596354"><ele>126.5</ele><time>2026-04-19T17:25:29.999Z</time></trkpt><trkpt lat="49.31452950308213" lon="0.9742138687267689"><ele>126.0</ele><time>2026-04-19T17:25:31Z</time></trkpt><trkpt lat="49.314666125006546" lon="0.9742565369023748"><ele>125.5</ele><time>2026-04-19T17:25:32Z</time></trkpt><trkpt lat="49.31479364150441" lon="0.9742899475450918"><ele>125.0</ele><time>2026-04-19T17:25:33Z</time></trkpt><trkpt lat="49.31490516079925" lon="0.9743270322042795"><ele>124.8</ele><time>2026-04-19T17:25:34Z</time></trkpt><trkpt lat="49.314999606349765" lon="0.974354321405525"><ele>124.6</ele><time>2026-04-19T17:25:35Z</time></trkpt><trkpt lat="49.315101332457154" lon="0.9743813991936585"><ele>124.4</ele><time>2026-04-19T17:25:36Z</time></trkpt><trkpt lat="49.315194658595956" lon="0.9744229109702839"><ele>124.2</ele><time>2026-04-19T17:25:37Z</time></trkpt><trkpt lat="49.31530238923942" lon="0.9744530821881898"><ele>124.0</ele><time>2026-04-19T17:25:38Z</time></trkpt><trkpt lat="49.31541099121055" lon="0.9744838111335223"><ele>124.0</ele><time>2026-04-19T17:25:39Z</time></trkpt><trkpt lat="49.31550302442304" lon="0.9745085324849299"><ele>124.0</ele><time>2026-04-19T17:25:40Z</time></trkpt><trkpt lat="49.315596077597384" lon="0.9745356210168789"><ele>124.0</ele><time>2026-04-19T17:25:41Z</time></trkpt><trkpt lat="49.315702005827596" lon="0.9745565611807826"><ele>124.0</ele><time>2026-04-19T17:25:42Z</time></trkpt><trkpt lat="49.31580731809027" lon="0.974588378064549"><ele>124.0</ele><time>2026-04-19T17:25:43Z</time></trkpt><trkpt lat="49.3159102457947" lon="0.9746257972889492"><ele>123.2</ele><time>2026-04-19T17:25:44Z</time></trkpt><trkpt lat="49.31600029604218" lon="0.9746676754594489"><ele>122.4</ele><time>2026-04-19T17:25:45Z</time></trkpt><trkpt lat="49.31609116899885" lon="0.9746943218870361"><ele>121.6</ele><time>2026-04-19T17:25:46Z</time></trkpt><trkpt lat="49.31618040152918" lon="0.9747263911413846"><ele>120.8</ele><time>2026-04-19T17:25:47Z</time></trkpt><trkpt lat="49.31627420401586" lon="0.9747497785598922"><ele>120.0</ele><time>2026-04-19T17:25:48Z</time></trkpt><trkpt lat="49.31637420421762" lon="0.9747736879444104"><ele>119.0</ele><time>2026-04-19T17:25:49Z</time></trkpt><trkpt lat="49.316486191379354" lon="0.9747976471222868"><ele>118.0</ele><time>2026-04-19T17:25:50Z</time></trkpt><trkpt lat="49.31657393995652" lon="0.9748451714352421"><ele>117.0</ele><time>2026-04-19T17:25:51Z</time></trkpt><trkpt lat="49.31666799755993" lon="0.974873125553068"><ele>116.0</ele><time>2026-04-19T17:25:52Z</time></trkpt><trkpt lat="49.3167512267573" lon="0.9749013524239245"><ele>115.0</ele><time>2026-04-19T17:25:53Z</time></trkpt><trkpt lat="49.31683005252205" lon="0.9749247358850754"><ele>115.00000000000001</ele><time>2026-04-19T17:25:54Z</time></trkpt><trkpt lat="49.31690163297824" lon="0.9749602468140851"><ele>115.0</ele><time>2026-04-19T17:25:55Z</time></trkpt><trkpt lat="49.31697428774399" lon="0.9749821785424444"><ele>115.0</ele><time>2026-04-19T17:25:56Z</time></trkpt><trkpt lat="49.31704452934958" lon="0.975005738698195"><ele>115.0</ele><time>2026-04-19T17:25:57Z</time></trkpt><trkpt lat="49.31711396899602" lon="0.9750262378295673"><ele>115.00000000000001</ele><time>2026-04-19T17:25:58Z</time></trkpt><trkpt lat="49.31719163763148" lon="0.9750456282388609"><ele>115.0</ele><time>2026-04-19T17:25:59Z</time></trkpt><trkpt lat="49.31729022995224" lon="0.9750734864494686"><ele>113.6</ele><time>2026-04-19T17:26:00Z</time></trkpt><trkpt lat="49.31737684746275" lon="0.975096309261751"><ele>112.2</ele><time>2026-04-19T17:26:01Z</time></trkpt><trkpt lat="49.31745698572261" lon="0.9751273148296695"><ele>110.80000000000001</ele><time>2026-04-19T17:26:02Z</time></trkpt><trkpt lat="49.31754787488293" lon="0.9751731373800162"><ele>109.4</ele><time>2026-04-19T17:26:03Z</time></trkpt><trkpt lat="49.317652385631824" lon="0.9752113291095048"><ele>108.0</ele><time>2026-04-19T17:26:04Z</time></trkpt><trkpt lat="49.31775637858227" lon="0.9752424846980173"><ele>108.0</ele><time>2026-04-19T17:26:05Z</time></trkpt><trkpt lat="49.31785367043298" lon="0.9752687851408454"><ele>108.00000000000001</ele><time>2026-04-19T17:26:06Z</time></trkpt><trkpt lat="49.317940800915494" lon="0.975289585365583"><ele>108.00000000000001</ele><time>2026-04-19T17:26:07Z</time></trkpt><trkpt lat="49.31803170467441" lon="0.9753246609019481"><ele>108.0</ele><time>2026-04-19T17:26:08Z</time></trkpt><trkpt lat="49.31812917762076" lon="0.9753515522543871"><ele>108.0</ele><time>2026-04-19T17:26:09Z</time></trkpt><trkpt lat="49.318212572908465" lon="0.9753808558242354"><ele>107.2</ele><time>2026-04-19T17:26:10Z</time></trkpt><trkpt lat="49.31829389778891" lon="0.97539869525723"><ele>106.4</ele><time>2026-04-19T17:26:11Z</time></trkpt><trkpt lat="49.31837021421862" lon="0.9754223409759762"><ele>105.60000000000001</ele><time>2026-04-19T17:26:12Z</time></trkpt><trkpt lat="49.31847333344625" lon="0.9754507700914442"><ele>104.80000000000001</ele><time>2026-04-19T17:26:13Z</time></trkpt><trkpt lat="49.31857719161458" lon="0.9754827854737289"><ele>104.0</ele><time>2026-04-19T17:26:14Z</time></trkpt><trkpt lat="49.318683035121744" lon="0.9755128106968242"><ele>104.0</ele><time>2026-04-19T17:26:15Z</time></trkpt><trkpt lat="49.318785964206434" lon="0.9755425165604232"><ele>104.0</ele><time>2026-04-19T17:26:16Z</time></trkpt><trkpt lat="49.31887446822651" lon="0.9755922893486245"><ele>104.0</ele><time>2026-04-19T17:26:17Z</time></trkpt><trkpt lat="49.31897994109223" lon="0.9756111841617778"><ele>104.0</ele><time>2026-04-19T17:26:18Z</time></trkpt><trkpt lat="49.31913632130788" lon="0.9756541237895934"><ele>103.0</ele><time>2026-04-19T17:26:19Z</time></trkpt><trkpt lat="49.31933899546472" lon="0.9757404488665739"><ele>102.0</ele><time>2026-04-19T17:26:20Z</time></trkpt><trkpt lat="49.31952983205799" lon="0.975820879066029"><ele>101.0</ele><time>2026-04-19T17:26:21Z</time></trkpt><trkpt lat="49.31970108190787" lon="0.975871074860666"><ele>100.0</ele><time>2026-04-19T17:26:22Z</time></trkpt><trkpt lat="49.319854046456406" lon="0.9758882665030848"><ele>99.0</ele><time>2026-04-19T17:26:23Z</time></trkpt><trkpt lat="49.31998638007837" lon="0.9759219152784129"><ele>98.0</ele><time>2026-04-19T17:26:24Z</time></trkpt><trkpt lat="49.32010028915099" lon="0.9759574379854989"><ele>97.0</ele><time>2026-04-19T17:26:25Z</time></trkpt><trkpt lat="49.32019555148003" lon="0.9759956167104687"><ele>97.0</ele><time>2026-04-19T17:26:26Z</time></trkpt><trkpt lat="49.32028798234179" lon="0.9760391555178796"><ele>97.0</ele><time>2026-04-19T17:26:27Z</time></trkpt><trkpt lat="49.32038328388047" lon="0.9760673903534545"><ele>97.0</ele><time>2026-04-19T17:26:28Z</time></trkpt><trkpt lat="49.32048147649805" lon="0.9760856124732695"><ele>97.0</ele><time>2026-04-19T17:26:29Z</time></trkpt><trkpt lat="49.32056828000904" lon="0.9760985024396271"><ele>97.0</ele><time>2026-04-19T17:26:30Z</time></trkpt><trkpt lat="49.3206490056184" lon="0.9761157056223865"><ele>96.66666666666667</ele><time>2026-04-19T17:26:31Z</time></trkpt><trkpt lat="49.320709683777515" lon="0.9761577699480731"><ele>96.33333333333334</ele><time>2026-04-19T17:26:32Z</time></trkpt><trkpt lat="49.32077902559818" lon="0.9762006711656245"><ele>96.0</ele><time>2026-04-19T17:26:33Z</time></trkpt><trkpt lat="49.32085962012464" lon="0.9762189632969661"><ele>95.66666666666667</ele><time>2026-04-19T17:26:34Z</time></trkpt><trkpt lat="49.32094510907086" lon="0.9762363380422415"><ele>95.33333333333334</ele><time>2026-04-19T17:26:34.999Z</time></trkpt><trkpt lat="49.321037323931115" lon="0.9762561348009078"><ele>95.0</ele><time>2026-04-19T17:26:35.999Z</time></trkpt><trkpt lat="49.321129781196326" lon="0.9762923292873038"><ele>95.0</ele><time>2026-04-19T17:26:36.999Z</time></trkpt><trkpt lat="49.32121872526642" lon="0.9763149411869692"><ele>95.0</ele><time>2026-04-19T17:26:37.999Z</time></trkpt><trkpt lat="49.32130112138904" lon="0.9763429782916254"><ele>95.0</ele><time>2026-04-19T17:26:38.999Z</time></trkpt><trkpt lat="49.32137255237034" lon="0.9763744654185644"><ele>95.0</ele><time>2026-04-19T17:26:39.999Z</time></trkpt><trkpt lat="49.321444687884785" lon="0.9763867694883784"><ele>95.0</ele><time>2026-04-19T17:26:40.999Z</time></trkpt><trkpt lat="49.321516802496696" lon="0.9764129178551946"><ele>95.0</ele><time>2026-04-19T17:26:41.999Z</time></trkpt><trkpt lat="49.32158978222763" lon="0.9764419627639931"><ele>94.0</ele><time>2026-04-19T17:26:42.999Z</time></trkpt><trkpt lat="49.321658618525724" lon="0.9764637549055"><ele>93.0</ele><time>2026-04-19T17:26:43.999Z</time></trkpt><trkpt lat="49.32173597360252" lon="0.9764884847670083"><ele>92.0</ele><time>2026-04-19T17:26:44.999Z</time></trkpt><trkpt lat="49.32181611154325" lon="0.9765175565489994"><ele>91.0</ele><time>2026-04-19T17:26:45.999Z</time></trkpt><trkpt lat="49.32190334625433" lon="0.97654843350742"><ele>90.0</ele><time>2026-04-19T17:26:46.999Z</time></trkpt><trkpt lat="49.3219756272139" lon="0.9765727585955063"><ele>89.0</ele><time>2026-04-19T17:26:47.999Z</time></trkpt><trkpt lat="49.322042701102866" lon="0.9765836666297446"><ele>88.99999999999999</ele><time>2026-04-19T17:26:48.999Z</time></trkpt><trkpt lat="49.322111931426676" lon="0.9765963220648414"><ele>89.0</ele><time>2026-04-19T17:26:49.999Z</time></trkpt><trkpt lat="49.32218552369971" lon="0.9766224641830895"><ele>89.0</ele><time>2026-04-19T17:26:50.999Z</time></trkpt><trkpt lat="49.32227633011865" lon="0.9766486590360817"><ele>89.0</ele><time>2026-04-19T17:26:51.999Z</time></trkpt><trkpt lat="49.32234845913362" lon="0.9766757762658634"><ele>89.0</ele><time>2026-04-19T17:26:52.999Z</time></trkpt><trkpt lat="49.32241375464575" lon="0.9766922984807689"><ele>88.99999999999999</ele><time>2026-04-19T17:26:53.999Z</time></trkpt><trkpt lat="49.32247534390916" lon="0.9767167599239229"><ele>89.0</ele><time>2026-04-19T17:26:54.999Z</time></trkpt><trkpt lat="49.3225372933715" lon="0.9767411710462954"><ele>87.0</ele><time>2026-04-19T17:26:55.999Z</time></trkpt><trkpt lat="49.322602473988034" lon="0.9767736435957063"><ele>85.0</ele><time>2026-04-19T17:26:56.999Z</time></trkpt><trkpt lat="49.322666808646225" lon="0.9768027020283756"><ele>83.0</ele><time>2026-04-19T17:26:57.999Z</time></trkpt><trkpt lat="49.32275983398152" lon="0.9768263704887289"><ele>81.0</ele><time>2026-04-19T17:26:59.999Z</time></trkpt><trkpt lat="49.322814461650935" lon="0.9767638438060183"><ele>79.0</ele><time>2026-04-19T17:27:01.999Z</time></trkpt><trkpt lat="49.322860502664334" lon="0.9766417781903544"><ele>77.0</ele><time>2026-04-19T17:27:04.999Z</time></trkpt><trkpt lat="49.32291475214622" lon="0.9765510252933509"><ele>77.0</ele><time>2026-04-19T17:27:06.999Z</time></trkpt><trkpt lat="49.32298851651283" lon="0.9764595649726172"><ele>77.0</ele><time>2026-04-19T17:27:08.999Z</time></trkpt><trkpt lat="49.32304601917016" lon="0.9763952666521222"><ele>77.0</ele><time>2026-04-19T17:27:10.999Z</time></trkpt><trkpt lat="49.3231007411932" lon="0.9762805471258166"><ele>77.0</ele><time>2026-04-19T17:27:13.999Z</time></trkpt><trkpt lat="49.323132814847646" lon="0.9761638381946702"><ele>77.0</ele><time>2026-04-19T17:27:16.999Z</time></trkpt><trkpt lat="49.32313780730422" lon="0.9760626482415744"><ele>77.0</ele><time>2026-04-19T17:27:19.999Z</time></trkpt><trkpt lat="49.323164629166776" lon="0.9759072324945242"><ele>74.0</ele><time>2026-04-19T17:27:22.999Z</time></trkpt><trkpt lat="49.323190982035335" lon="0.9757917145616041"><ele>71.0</ele><time>2026-04-19T17:27:24.999Z</time></trkpt><trkpt lat="49.323226673553" lon="0.9756688051504765"><ele>68.0</ele><time>2026-04-19T17:27:26.999Z</time></trkpt><trkpt lat="49.32326712549563" lon="0.9755474938132306"><ele>65.0</ele><time>2026-04-19T17:27:28.999Z</time></trkpt><trkpt lat="49.323319044511614" lon="0.975430493610652"><ele>62.00000000000001</ele><time>2026-04-19T17:27:31.999Z</time></trkpt><trkpt lat="49.32336019463608" lon="0.9753436018210452"><ele>59.0</ele><time>2026-04-19T17:27:33.999Z</time></trkpt><trkpt lat="49.32340753606604" lon="0.9752334077010842"><ele>59.0</ele><time>2026-04-19T17:27:35.998Z</time></trkpt><trkpt lat="49.323443346687924" lon="0.9750908130530294"><ele>59.00000000000001</ele><time>2026-04-19T17:27:38Z</time></trkpt><trkpt lat="49.32350370752211" lon="0.9749582325473116"><ele>59.00000000000001</ele><time>2026-04-19T17:27:40Z</time></trkpt><trkpt lat="49.32356335317591" lon="0.9748251569550495"><ele>59.0</ele><time>2026-04-19T17:27:42Z</time></trkpt><trkpt lat="49.323655327330634" lon="0.9747441317329208"><ele>59.0</ele><time>2026-04-19T17:27:44Z</time></trkpt><trkpt lat="49.32373009280184" lon="0.9746840752747884"><ele>57.333333333333336</ele><time>2026-04-19T17:27:46Z</time></trkpt><trkpt lat="49.32375661266954" lon="0.9745850031869023"><ele>55.66666666666667</ele><time>2026-04-19T17:27:48Z</time></trkpt><trkpt lat="49.323804075383435" lon="0.9745160812658723"><ele>54.0</ele><time>2026-04-19T17:27:50Z</time></trkpt><trkpt lat="49.323721327590576" lon="0.9744732767056327"><ele>52.33333333333333</ele><time>2026-04-19T17:28:31Z</time></trkpt><trkpt lat="49.32365353335563" lon="0.9744399554528106"><ele>50.666666666666664</ele><time>2026-04-19T17:28:32Z</time></trkpt><trkpt lat="49.32357004502293" lon="0.9743649440783874"><ele>49.0</ele><time>2026-04-19T17:28:33Z</time></trkpt><trkpt lat="49.323494819055334" lon="0.9742955030762979"><ele>49.0</ele><time>2026-04-19T17:28:34Z</time></trkpt><trkpt lat="49.32341758593161" lon="0.974202423278482"><ele>49.0</ele><time>2026-04-19T17:28:34.999Z</time></trkpt><trkpt lat="49.32333866116679" lon="0.9740952642450971"><ele>49.0</ele><time>2026-04-19T17:28:35.999Z</time></trkpt><trkpt lat="49.323263548977" lon="0.9739982926232268"><ele>49.0</ele><time>2026-04-19T17:28:36.999Z</time></trkpt><trkpt lat="49.323188144099184" lon="0.9739053899678134"><ele>49.0</ele><time>2026-04-19T17:28:37.999Z</time></trkpt><trkpt lat="49.32309256683823" lon="0.9738053896161877"><ele>49.5</ele><time>2026-04-19T17:28:38.999Z</time></trkpt><trkpt lat="49.322988438863305" lon="0.973740936039633"><ele>50.0</ele><time>2026-04-19T17:28:39.999Z</time></trkpt><trkpt lat="49.322865971113856" lon="0.9736681759427988"><ele>50.5</ele><time>2026-04-19T17:28:40.999Z</time></trkpt><trkpt lat="49.32274515530862" lon="0.9736069804461536"><ele>51.0</ele><time>2026-04-19T17:28:41.999Z</time></trkpt><trkpt lat="49.32262424763046" lon="0.9735516482852331"><ele>51.0</ele><time>2026-04-19T17:28:42.999Z</time></trkpt><trkpt lat="49.32250991011453" lon="0.9734957078451965"><ele>51.0</ele><time>2026-04-19T17:28:43.999Z</time></trkpt><trkpt lat="49.32240292266261" lon="0.9734436806369328"><ele>51.0</ele><time>2026-04-19T17:28:44.999Z</time></trkpt><trkpt lat="49.32228433455701" lon="0.9733828136906475"><ele>51.0</ele><time>2026-04-19T17:28:45.999Z</time></trkpt><trkpt lat="49.32215744608969" lon="0.973320577831507"><ele>51.25</ele><time>2026-04-19T17:28:46.999Z</time></trkpt><trkpt lat="49.322037731338334" lon="0.9732612098968181"><ele>51.5</ele><time>2026-04-19T17:28:47.999Z</time></trkpt><trkpt lat="49.32193809398771" lon="0.9731946609214643"><ele>51.75</ele><time>2026-04-19T17:28:48.999Z</time></trkpt><trkpt lat="49.321843682815256" lon="0.9731266612930053"><ele>52.0</ele><time>2026-04-19T17:28:49.999Z</time></trkpt><trkpt lat="49.3217317769976" lon="0.9730653762351053"><ele>52.0</ele><time>2026-04-19T17:28:50.999Z</time></trkpt><trkpt lat="49.32163651001719" lon="0.9730187025636917"><ele>52.0</ele><time>2026-04-19T17:28:51.999Z</time></trkpt><trkpt lat="49.32155535082503" lon="0.9729698972041899"><ele>52.0</ele><time>2026-04-19T17:28:52.999Z</time></trkpt><trkpt lat="49.321479176817796" lon="0.9729293324125134"><ele>52.0</ele><time>2026-04-19T17:28:53.999Z</time></trkpt><trkpt lat="49.32141431888298" lon="0.9728883057399039"><ele>52.0</ele><time>2026-04-19T17:28:54.999Z</time></trkpt><trkpt lat="49.32132581278992" lon="0.9727717679296103"><ele>52.2</ele><time>2026-04-19T17:28:56.999Z</time></trkpt><trkpt lat="49.32127902205294" lon="0.9725874233931471"><ele>52.400000000000006</ele><time>2026-04-19T17:28:58.999Z</time></trkpt><trkpt lat="49.321283845949026" lon="0.97248059310969"><ele>52.599999999999994</ele><time>2026-04-19T17:28:59.999Z</time></trkpt><trkpt lat="49.32128021861921" lon="0.9723446938675143"><ele>52.8</ele><time>2026-04-19T17:29:00.999Z</time></trkpt><trkpt lat="49.321269414824" lon="0.9722005807660151"><ele>53.0</ele><time>2026-04-19T17:29:01.999Z</time></trkpt><trkpt lat="49.32126882334538" lon="0.9720693054724453"><ele>53.0</ele><time>2026-04-19T17:29:02.999Z</time></trkpt><trkpt lat="49.3212601792821" lon="0.9719447654794959"><ele>53.0</ele><time>2026-04-19T17:29:03.999Z</time></trkpt><trkpt lat="49.32125937598913" lon="0.9717918485164414"><ele>53.0</ele><time>2026-04-19T17:29:04.999Z</time></trkpt><trkpt lat="49.32125925410819" lon="0.9716241607908473"><ele>53.0</ele><time>2026-04-19T17:29:05.999Z</time></trkpt><trkpt lat="49.321272759851176" lon="0.9714434495466228"><ele>53.0</ele><time>2026-04-19T17:29:06.999Z</time></trkpt><trkpt lat="49.32129287449008" lon="0.9712532587247728"><ele>54.2</ele><time>2026-04-19T17:29:07.999Z</time></trkpt><trkpt lat="49.32132491605893" lon="0.9710753191512265"><ele>55.4</ele><time>2026-04-19T17:29:08.999Z</time></trkpt><trkpt lat="49.32137034859583" lon="0.9709354029740414"><ele>56.60000000000001</ele><time>2026-04-19T17:29:09.999Z</time></trkpt><trkpt lat="49.32142171359333" lon="0.9708028002930329"><ele>57.800000000000004</ele><time>2026-04-19T17:29:10.999Z</time></trkpt><trkpt lat="49.3214789657877" lon="0.9706613854232239"><ele>59.0</ele><time>2026-04-19T17:29:11.999Z</time></trkpt><trkpt lat="49.32153237236653" lon="0.9705000100632428"><ele>59.5</ele><time>2026-04-19T17:29:12.999Z</time></trkpt><trkpt lat="49.32158389566906" lon="0.9703286032085153"><ele>60.0</ele><time>2026-04-19T17:29:13.999Z</time></trkpt><trkpt lat="49.32164761802389" lon="0.9701288586396398"><ele>60.5</ele><time>2026-04-19T17:29:14.999Z</time></trkpt><trkpt lat="49.321713239046915" lon="0.9699397237623744"><ele>61.0</ele><time>2026-04-19T17:29:15.999Z</time></trkpt><trkpt lat="49.32177926548279" lon="0.9697623683780825"><ele>61.0</ele><time>2026-04-19T17:29:16.999Z</time></trkpt><trkpt lat="49.32185483395635" lon="0.9695668323929559"><ele>61.0</ele><time>2026-04-19T17:29:17.999Z</time></trkpt><trkpt lat="49.321943791474155" lon="0.9693417941264917"><ele>61.0</ele><time>2026-04-19T17:29:18.999Z</time></trkpt><trkpt lat="49.32202030550775" lon="0.9691525155908266"><ele>60.4</ele><time>2026-04-19T17:29:19.999Z</time></trkpt><trkpt lat="49.32209073063389" lon="0.9689876084145872"><ele>59.8</ele><time>2026-04-19T17:29:20.999Z</time></trkpt><trkpt lat="49.32214512093773" lon="0.968838689503512"><ele>59.199999999999996</ele><time>2026-04-19T17:29:21.999Z</time></trkpt><trkpt lat="49.32219737652647" lon="0.968696296297432"><ele>58.599999999999994</ele><time>2026-04-19T17:29:22.999Z</time></trkpt><trkpt lat="49.322233049681" lon="0.9685513478789827"><ele>58.0</ele><time>2026-04-19T17:29:23.999Z</time></trkpt><trkpt lat="49.32226021349443" lon="0.9683973096316862"><ele>58.25</ele><time>2026-04-19T17:29:24.999Z</time></trkpt><trkpt lat="49.32226848416341" lon="0.9682143473927816"><ele>58.5</ele><time>2026-04-19T17:29:25.999Z</time></trkpt><trkpt lat="49.322257514276295" lon="0.9680306252881881"><ele>58.75</ele><time>2026-04-19T17:29:26.999Z</time></trkpt><trkpt lat="49.32221847540452" lon="0.9678569195132294"><ele>59.0</ele><time>2026-04-19T17:29:27.999Z</time></trkpt><trkpt lat="49.32215554482665" lon="0.9676877893550873"><ele>59.0</ele><time>2026-04-19T17:29:28.999Z</time></trkpt><trkpt lat="49.32208198657314" lon="0.9675311545319601"><ele>59.0</ele><time>2026-04-19T17:29:29.999Z</time></trkpt><trkpt lat="49.322017824104414" lon="0.9673805688047683"><ele>59.0</ele><time>2026-04-19T17:29:30.999Z</time></trkpt><trkpt lat="49.32194864706313" lon="0.967228972038575"><ele>59.0</ele><time>2026-04-19T17:29:31.999Z</time></trkpt><trkpt lat="49.321878085560684" lon="0.9670772646146568"><ele>59.16666666666667</ele><time>2026-04-19T17:29:32.999Z</time></trkpt><trkpt lat="49.321818095676484" lon="0.9669330457224924"><ele>59.333333333333336</ele><time>2026-04-19T17:29:33.999Z</time></trkpt><trkpt lat="49.32176768719974" lon="0.9668035010424859"><ele>59.5</ele><time>2026-04-19T17:29:34.999Z</time></trkpt><trkpt lat="49.32174668236446" lon="0.9666861947368282"><ele>59.66666666666667</ele><time>2026-04-19T17:29:35.998Z</time></trkpt><trkpt lat="49.3217255897214" lon="0.9665676797109476"><ele>59.833333333333336</ele><time>2026-04-19T17:29:37.998Z</time></trkpt><trkpt lat="49.3217201052816" lon="0.966459198815034"><ele>60.0</ele><time>2026-04-19T17:30:43Z</time></trkpt><trkpt lat="49.32168893328335" lon="0.9665534645300774"><ele>60.0</ele><time>2026-04-19T17:30:59.999Z</time></trkpt><trkpt lat="49.32173739406953" lon="0.9666629951536393"><ele>60.0</ele><time>2026-04-19T17:31:02.999Z</time></trkpt><trkpt lat="49.321751801831965" lon="0.9667806024416792"><ele>60.0</ele><time>2026-04-19T17:31:05.999Z</time></trkpt><trkpt lat="49.32177951033554" lon="0.9668911871390873"><ele>60.0</ele><time>2026-04-19T17:31:23.999Z</time></trkpt><trkpt lat="49.32186265825317" lon="0.966951295291767"><ele>60.0</ele><time>2026-04-19T17:31:25.999Z</time></trkpt><trkpt lat="49.321947756220034" lon="0.9669629221008738"><ele>60.0</ele><time>2026-04-19T17:31:27.999Z</time></trkpt><trkpt lat="49.32200521884551" lon="0.9670049063211521"><ele>60.0</ele><time>2026-04-19T17:31:28.999Z</time></trkpt><trkpt lat="49.32208135485266" lon="0.9670107488263464"><ele>60.0</ele><time>2026-04-19T17:31:29.999Z</time></trkpt><trkpt lat="49.32219449084765" lon="0.9670250360085242"><ele>60.0</ele><time>2026-04-19T17:31:31.999Z</time></trkpt><trkpt lat="49.3223158549672" lon="0.9670567725675291"><ele>60.0</ele><time>2026-04-19T17:31:33.999Z</time></trkpt><trkpt lat="49.32237839500434" lon="0.9670849026223628"><ele>60.0</ele><time>2026-04-19T17:31:34.999Z</time></trkpt><trkpt lat="49.322507745832894" lon="0.9671326969935228"><ele>63.8</ele><time>2026-04-19T17:31:36.999Z</time></trkpt><trkpt lat="49.32262934406874" lon="0.9671445625531342"><ele>67.6</ele><time>2026-04-19T17:31:38.999Z</time></trkpt><trkpt lat="49.322740077232986" lon="0.9671662240637641"><ele>71.4</ele><time>2026-04-19T17:31:40.999Z</time></trkpt><trkpt lat="49.322820200066815" lon="0.967205214441531"><ele>75.2</ele><time>2026-04-19T17:31:42.999Z</time></trkpt><trkpt lat="49.322890172717315" lon="0.9672362641869765"><ele>79.0</ele><time>2026-04-19T17:31:44.999Z</time></trkpt><trkpt lat="49.32296316121743" lon="0.9672381298889002"><ele>79.0</ele><time>2026-04-19T17:31:46.998Z</time></trkpt><trkpt lat="49.323029490438905" lon="0.9672385869197693"><ele>79.0</ele><time>2026-04-19T17:31:49Z</time></trkpt><trkpt lat="49.32295529725813" lon="0.9672279849958069"><ele>79.0</ele><time>2026-04-19T17:34:19Z</time></trkpt><trkpt lat="49.32282934774447" lon="0.9671970564612707"><ele>79.0</ele><time>2026-04-19T17:34:21Z</time></trkpt><trkpt lat="49.32273592054146" lon="0.9671652354340604"><ele>79.0</ele><time>2026-04-19T17:34:23Z</time></trkpt><trkpt lat="49.3226631080708" lon="0.9671638772386006"><ele>79.0</ele><time>2026-04-19T17:34:25Z</time></trkpt><trkpt lat="49.322565547890804" lon="0.96715087391009"><ele>79.0</ele><time>2026-04-19T17:34:27Z</time></trkpt><trkpt lat="49.32243810813636" lon="0.9671090163873722"><ele>79.0</ele><time>2026-04-19T17:34:29Z</time></trkpt><trkpt lat="49.32237739296408" lon="0.9670786149610476"><ele>79.0</ele><time>2026-04-19T17:34:30Z</time></trkpt><trkpt lat="49.32228673780853" lon="0.9670463644901338"><ele>79.0</ele><time>2026-04-19T17:34:32Z</time></trkpt><trkpt lat="49.32219892761997" lon="0.967041137559838"><ele>79.0</ele><time>2026-04-19T17:34:34Z</time></trkpt><trkpt lat="49.322134878946784" lon="0.9670215232559112"><ele>79.0</ele><time>2026-04-19T17:34:36Z</time></trkpt><trkpt lat="49.32202086071528" lon="0.9669817850507617"><ele>76.28571428571429</ele><time>2026-04-19T17:34:38Z</time></trkpt><trkpt lat="49.32195606038538" lon="0.9669650898623461"><ele>73.57142857142857</ele><time>2026-04-19T17:34:39Z</time></trkpt><trkpt lat="49.321875105334065" lon="0.9669297332758214"><ele>70.85714285714286</ele><time>2026-04-19T17:34:41Z</time></trkpt><trkpt lat="49.321811342309765" lon="0.9669668939608393"><ele>68.14285714285714</ele><time>2026-04-19T17:34:45Z</time></trkpt><trkpt lat="49.32179959618438" lon="0.9670681593023862"><ele>65.42857142857143</ele><time>2026-04-19T17:38:38Z</time></trkpt><trkpt lat="49.3218191447641" lon="0.9669444645735235"><ele>62.714285714285715</ele><time>2026-04-19T17:38:56Z</time></trkpt><trkpt lat="49.32178844006215" lon="0.9668479759869152"><ele>60.0</ele><time>2026-04-19T17:38:56.999Z</time></trkpt><trkpt lat="49.321759940544695" lon="0.9667193400556074"><ele>60.0</ele><time>2026-04-19T17:38:58.999Z</time></trkpt><trkpt lat="49.321778855619165" lon="0.9668245381266964"><ele>60.0</ele><time>2026-04-19T17:39:06.999Z</time></trkpt><trkpt lat="49.32184017145648" lon="0.9669224400583541"><ele>60.0</ele><time>2026-04-19T17:39:09.999Z</time></trkpt><trkpt lat="49.32193270637147" lon="0.9669554457474792"><ele>60.0</ele><time>2026-04-19T17:39:11.999Z</time></trkpt><trkpt lat="49.322046665513206" lon="0.9669923764447443"><ele>60.0</ele><time>2026-04-19T17:39:13.999Z</time></trkpt><trkpt lat="49.32215060313395" lon="0.9670362228816409"><ele>63.166666666666664</ele><time>2026-04-19T17:39:15.999Z</time></trkpt><trkpt lat="49.32223997354414" lon="0.9670496150172594"><ele>66.33333333333333</ele><time>2026-04-19T17:39:17.999Z</time></trkpt><trkpt lat="49.32233045757928" lon="0.967089064460654"><ele>69.5</ele><time>2026-04-19T17:39:19.999Z</time></trkpt><trkpt lat="49.32245586018699" lon="0.9671234271618218"><ele>72.66666666666666</ele><time>2026-04-19T17:39:21.999Z</time></trkpt><trkpt lat="49.322524447595896" lon="0.9671395267070046"><ele>75.83333333333333</ele><time>2026-04-19T17:39:22.999Z</time></trkpt><trkpt lat="49.32258952844944" lon="0.9671531218519602"><ele>79.0</ele><time>2026-04-19T17:39:23.999Z</time></trkpt><trkpt lat="49.322654210238326" lon="0.9671562815844479"><ele>79.00000000000001</ele><time>2026-04-19T17:39:24.999Z</time></trkpt><trkpt lat="49.322720506166995" lon="0.9671727397329792"><ele>79.0</ele><time>2026-04-19T17:39:25.999Z</time></trkpt><trkpt lat="49.32278439982218" lon="0.9672001453842617"><ele>79.0</ele><time>2026-04-19T17:39:26.999Z</time></trkpt><trkpt lat="49.32285541094153" lon="0.9672308465053442"><ele>79.0</ele><time>2026-04-19T17:39:28.999Z</time></trkpt><trkpt lat="49.32295402942004" lon="0.9672564868973597"><ele>79.0</ele><time>2026-04-19T17:39:31.999Z</time></trkpt><trkpt lat="49.32302037809702" lon="0.9672547092937319"><ele>79.00000000000001</ele><time>2026-04-19T17:39:35.999Z</time></trkpt><trkpt lat="49.32307859747084" lon="0.9672027382864942"><ele>79.0</ele><time>2026-04-19T17:40:19Z</time></trkpt><trkpt lat="49.32298944948788" lon="0.9672434577823815"><ele>79.0</ele><time>2026-04-19T17:41:21.999Z</time></trkpt><trkpt lat="49.322924003144806" lon="0.9672232438384815"><ele>79.0</ele><time>2026-04-19T17:41:52.999Z</time></trkpt><trkpt lat="49.322838674265924" lon="0.9672107441181491"><ele>79.0</ele><time>2026-04-19T17:41:56.998Z</time></trkpt><trkpt lat="49.32277043660833" lon="0.9671838821877579"><ele>79.0</ele><time>2026-04-19T17:41:59.998Z</time></trkpt><trkpt lat="49.322696711087985" lon="0.9671542095906371"><ele>79.0</ele><time>2026-04-19T17:42:02.998Z</time></trkpt><trkpt lat="49.3226187308083" lon="0.9671358784228489"><ele>79.0</ele><time>2026-04-19T17:42:04.998Z</time></trkpt><trkpt lat="49.3225228720601" lon="0.9671431906465812"><ele>79.0</ele><time>2026-04-19T17:42:07.998Z</time></trkpt><trkpt lat="49.32243324550002" lon="0.9671099486685334"><ele>79.0</ele><time>2026-04-19T17:42:09.998Z</time></trkpt><trkpt lat="49.322341705094246" lon="0.9670811082994871"><ele>79.0</ele><time>2026-04-19T17:42:11.998Z</time></trkpt><trkpt lat="49.32226398939866" lon="0.9670496508487891"><ele>79.0</ele><time>2026-04-19T17:42:13.998Z</time></trkpt><trkpt lat="49.32217973304323" lon="0.9670248524670931"><ele>79.0</ele><time>2026-04-19T17:42:15.998Z</time></trkpt><trkpt lat="49.32211065279454" lon="0.9670281722463743"><ele>79.0</ele><time>2026-04-19T17:42:18Z</time></trkpt><trkpt lat="49.322025968415154" lon="0.9669894847093394"><ele>75.83333333333333</ele><time>2026-04-19T17:42:22Z</time></trkpt><trkpt lat="49.32195733781958" lon="0.9669767057660226"><ele>72.66666666666666</ele><time>2026-04-19T17:42:24Z</time></trkpt><trkpt lat="49.3218826289763" lon="0.9669382512037812"><ele>69.5</ele><time>2026-04-19T17:42:27Z</time></trkpt><trkpt lat="49.321871483349135" lon="0.9670491198243298"><ele>66.33333333333333</ele><time>2026-04-19T17:42:53.999Z</time></trkpt><trkpt lat="49.321954590744745" lon="0.967220238622925"><ele>63.166666666666664</ele><time>2026-04-19T17:42:55.999Z</time></trkpt><trkpt lat="49.32200098847679" lon="0.9673185934039954"><ele>60.0</ele><time>2026-04-19T17:42:56.999Z</time></trkpt><trkpt lat="49.32205278053507" lon="0.9674339909868973"><ele>59.833333333333336</ele><time>2026-04-19T17:42:57.999Z</time></trkpt><trkpt lat="49.32210853088021" lon="0.9675732203264915"><ele>59.66666666666667</ele><time>2026-04-19T17:42:58.999Z</time></trkpt><trkpt lat="49.32216068598342" lon="0.9677072555059146"><ele>59.5</ele><time>2026-04-19T17:42:59.999Z</time></trkpt><trkpt lat="49.3221998234116" lon="0.967822931128155"><ele>59.333333333333336</ele><time>2026-04-19T17:43:00.999Z</time></trkpt><trkpt lat="49.322232932194794" lon="0.9679279792148224"><ele>59.16666666666667</ele><time>2026-04-19T17:43:01.999Z</time></trkpt><trkpt lat="49.32225226720339" lon="0.9680417028541838"><ele>59.0</ele><time>2026-04-19T17:43:02.999Z</time></trkpt><trkpt lat="49.32226307589719" lon="0.9681643047996865"><ele>58.800000000000004</ele><time>2026-04-19T17:43:03.999Z</time></trkpt><trkpt lat="49.32226701285744" lon="0.9683114269160072"><ele>58.60000000000001</ele><time>2026-04-19T17:43:04.999Z</time></trkpt><trkpt lat="49.3222552842196" lon="0.9684597867879159"><ele>58.4</ele><time>2026-04-19T17:43:05.999Z</time></trkpt><trkpt lat="49.32223033478239" lon="0.9685993815882974"><ele>58.2</ele><time>2026-04-19T17:43:06.999Z</time></trkpt><trkpt lat="49.322187618419484" lon="0.9687416892067923"><ele>58.0</ele><time>2026-04-19T17:43:07.999Z</time></trkpt><trkpt lat="49.32213332103142" lon="0.9688990730791287"><ele>58.0</ele><time>2026-04-19T17:43:08.999Z</time></trkpt><trkpt lat="49.322064488846834" lon="0.969065412230763"><ele>58.0</ele><time>2026-04-19T17:43:09.999Z</time></trkpt><trkpt lat="49.32200106319153" lon="0.9692183695006964"><ele>58.0</ele><time>2026-04-19T17:43:10.999Z</time></trkpt><trkpt lat="49.32193436811088" lon="0.9693697414662542"><ele>58.0</ele><time>2026-04-19T17:43:11.999Z</time></trkpt><trkpt lat="49.32187031337013" lon="0.9695306945113993"><ele>58.75</ele><time>2026-04-19T17:43:12.999Z</time></trkpt><trkpt lat="49.32180885795129" lon="0.9696957142094658"><ele>59.5</ele><time>2026-04-19T17:43:13.999Z</time></trkpt><trkpt lat="49.3217443928802" lon="0.9698572228247717"><ele>60.25</ele><time>2026-04-19T17:43:14.999Z</time></trkpt><trkpt lat="49.321685916550045" lon="0.9700137337024348"><ele>61.0</ele><time>2026-04-19T17:43:15.999Z</time></trkpt><trkpt lat="49.32163737105467" lon="0.9701634853166553"><ele>61.75</ele><time>2026-04-19T17:43:16.999Z</time></trkpt><trkpt lat="49.321594915865624" lon="0.9703018874414292"><ele>62.5</ele><time>2026-04-19T17:43:17.999Z</time></trkpt><trkpt lat="49.321539849057125" lon="0.9704735082440975"><ele>63.25</ele><time>2026-04-19T17:43:18.999Z</time></trkpt><trkpt lat="49.32147932640959" lon="0.9706539970696787"><ele>64.0</ele><time>2026-04-19T17:43:19.999Z</time></trkpt><trkpt lat="49.32142237496147" lon="0.9708072646235357"><ele>63.0</ele><time>2026-04-19T17:43:20.999Z</time></trkpt><trkpt lat="49.32136865318835" lon="0.9709441385128519"><ele>62.00000000000001</ele><time>2026-04-19T17:43:21.999Z</time></trkpt><trkpt lat="49.32132289300102" lon="0.9710800136883185"><ele>61.00000000000001</ele><time>2026-04-19T17:43:22.999Z</time></trkpt><trkpt lat="49.32129557702183" lon="0.9712142668119217"><ele>60.0</ele><time>2026-04-19T17:43:23.999Z</time></trkpt><trkpt lat="49.32128032406263" lon="0.9713559965081502"><ele>59.0</ele><time>2026-04-19T17:43:24.999Z</time></trkpt><trkpt lat="49.32126721120255" lon="0.9715006180887342"><ele>59.00000000000001</ele><time>2026-04-19T17:43:25.999Z</time></trkpt><trkpt lat="49.32125875235805" lon="0.9716523722922216"><ele>59.0</ele><time>2026-04-19T17:43:26.999Z</time></trkpt><trkpt lat="49.32124749481063" lon="0.9717878460401486"><ele>59.0</ele><time>2026-04-19T17:43:27.999Z</time></trkpt><trkpt lat="49.32124548975084" lon="0.9719163233853094"><ele>59.0</ele><time>2026-04-19T17:43:28.999Z</time></trkpt><trkpt lat="49.32124901598623" lon="0.9720369762251276"><ele>59.00000000000001</ele><time>2026-04-19T17:43:29.999Z</time></trkpt><trkpt lat="49.32125083973754" lon="0.9721802250080299"><ele>59.0</ele><time>2026-04-19T17:43:30.999Z</time></trkpt><trkpt lat="49.321256264244276" lon="0.9723266428938203"><ele>59.0</ele><time>2026-04-19T17:43:31.999Z</time></trkpt><trkpt lat="49.32126876332681" lon="0.9724535882373139"><ele>59.00000000000001</ele><time>2026-04-19T17:43:32.999Z</time></trkpt><trkpt lat="49.32128590409137" lon="0.9725500043784966"><ele>59.00000000000001</ele><time>2026-04-19T17:43:33.999Z</time></trkpt><trkpt lat="49.32130998696762" lon="0.9727051818437067"><ele>59.0</ele><time>2026-04-19T17:43:35.999Z</time></trkpt><trkpt lat="49.321368516551495" lon="0.9728363304589206"><ele>59.0</ele><time>2026-04-19T17:43:37.999Z</time></trkpt><trkpt lat="49.32144414690899" lon="0.972926980214097"><ele>57.25</ele><time>2026-04-19T17:43:39.999Z</time></trkpt><trkpt lat="49.321521937831804" lon="0.9729725666761724"><ele>55.5</ele><time>2026-04-19T17:43:40.999Z</time></trkpt><trkpt lat="49.32161967900802" lon="0.9730450185749325"><ele>53.75</ele><time>2026-04-19T17:43:41.999Z</time></trkpt><trkpt lat="49.321747746910674" lon="0.9731240359908673"><ele>52.0</ele><time>2026-04-19T17:43:42.999Z</time></trkpt><trkpt lat="49.321893140746376" lon="0.9732004674734213"><ele>52.0</ele><time>2026-04-19T17:43:43.999Z</time></trkpt><trkpt lat="49.322046515065736" lon="0.9732781791082952"><ele>52.0</ele><time>2026-04-19T17:43:44.999Z</time></trkpt><trkpt lat="49.32222986587746" lon="0.973377582190046"><ele>52.0</ele><time>2026-04-19T17:43:45.999Z</time></trkpt><trkpt lat="49.322429713112236" lon="0.973484286841195"><ele>51.666666666666664</ele><time>2026-04-19T17:43:46.999Z</time></trkpt><trkpt lat="49.32262697236361" lon="0.9735739562268474"><ele>51.33333333333333</ele><time>2026-04-19T17:43:47.999Z</time></trkpt><trkpt lat="49.32280244598362" lon="0.9736576455020948"><ele>51.0</ele><time>2026-04-19T17:43:48.999Z</time></trkpt><trkpt lat="49.32296078674717" lon="0.9737461063201166"><ele>50.25</ele><time>2026-04-19T17:43:49.999Z</time></trkpt><trkpt lat="49.32310068984735" lon="0.9738217499058203"><ele>49.5</ele><time>2026-04-19T17:43:50.999Z</time></trkpt><trkpt lat="49.32324127818164" lon="0.9739200119869875"><ele>48.75</ele><time>2026-04-19T17:43:51.999Z</time></trkpt><trkpt lat="49.323337518648685" lon="0.9740347501681917"><ele>48.0</ele><time>2026-04-19T17:43:52.999Z</time></trkpt><trkpt lat="49.323425464244934" lon="0.9741692959222633"><ele>48.166666666666664</ele><time>2026-04-19T17:43:53.999Z</time></trkpt><trkpt lat="49.32350612787562" lon="0.974283698220999"><ele>48.33333333333333</ele><time>2026-04-19T17:43:54.998Z</time></trkpt><trkpt lat="49.3235851680813" lon="0.9743733719580461"><ele>48.5</ele><time>2026-04-19T17:43:55.998Z</time></trkpt><trkpt lat="49.323649486836395" lon="0.9744248468066536"><ele>48.666666666666664</ele><time>2026-04-19T17:43:56.998Z</time></trkpt><trkpt lat="49.323711308460716" lon="0.9744634395919948"><ele>48.83333333333333</ele><time>2026-04-19T17:43:57.998Z</time></trkpt><trkpt lat="49.323792208076206" lon="0.9744993358350107"><ele>49.0</ele><time>2026-04-19T17:43:59.998Z</time></trkpt><trkpt lat="49.32386211635296" lon="0.9744961069121589"><ele>48.99999999999999</ele><time>2026-04-19T17:44:02.998Z</time></trkpt><trkpt lat="49.32393874514764" lon="0.9745106446582255"><ele>49.0</ele><time>2026-04-19T17:44:10.998Z</time></trkpt><trkpt lat="49.323846271474444" lon="0.974526091071572"><ele>49.0</ele><time>2026-04-19T17:44:31Z</time></trkpt><trkpt lat="49.3237328804328" lon="0.9745037587444548"><ele>49.0</ele><time>2026-04-19T17:44:33Z</time></trkpt><trkpt lat="49.323652646602746" lon="0.9744597789778308"><ele>48.99999999999999</ele><time>2026-04-19T17:44:35Z</time></trkpt><trkpt lat="49.323592212908785" lon="0.9744166885530589"><ele>49.0</ele><time>2026-04-19T17:44:37Z</time></trkpt><trkpt lat="49.323534729722674" lon="0.9743628008307503"><ele>48.99999999999999</ele><time>2026-04-19T17:44:39Z</time></trkpt><trkpt lat="49.32346416305967" lon="0.9742654201317791"><ele>49.0</ele><time>2026-04-19T17:44:42Z</time></trkpt><trkpt lat="49.3234174308298" lon="0.9741937164001683"><ele>49.0</ele><time>2026-04-19T17:44:44Z</time></trkpt><trkpt lat="49.32336615205824" lon="0.9741260799327974"><ele>49.0</ele><time>2026-04-19T17:44:46Z</time></trkpt><trkpt lat="49.32330975544684" lon="0.9740536162602176"><ele>48.99999999999999</ele><time>2026-04-19T17:44:48Z</time></trkpt><trkpt lat="49.32325107504706" lon="0.9739748623740734"><ele>49.0</ele><time>2026-04-19T17:44:50Z</time></trkpt><trkpt lat="49.32317511344073" lon="0.9738880817346516"><ele>48.800000000000004</ele><time>2026-04-19T17:44:52Z</time></trkpt><trkpt lat="49.32311374777421" lon="0.9738268102557194"><ele>48.6</ele><time>2026-04-19T17:44:53Z</time></trkpt><trkpt lat="49.32304619512862" lon="0.9737933319669307"><ele>48.4</ele><time>2026-04-19T17:44:54Z</time></trkpt><trkpt lat="49.32296692974727" lon="0.9737311108698542"><ele>48.2</ele><time>2026-04-19T17:44:55Z</time></trkpt><trkpt lat="49.32286787887306" lon="0.9736576559488733"><ele>48.0</ele><time>2026-04-19T17:44:56Z</time></trkpt><trkpt lat="49.322752993331285" lon="0.9735974413912934"><ele>48.5</ele><time>2026-04-19T17:44:57Z</time></trkpt><trkpt lat="49.322654988170044" lon="0.9735498525111151"><ele>49.0</ele><time>2026-04-19T17:44:58Z</time></trkpt><trkpt lat="49.32257643797765" lon="0.9735158930420579"><ele>49.5</ele><time>2026-04-19T17:44:58.999Z</time></trkpt><trkpt lat="49.32249402786662" lon="0.973470474880387"><ele>50.0</ele><time>2026-04-19T17:44:59.999Z</time></trkpt><trkpt lat="49.32241967755992" lon="0.9734418659202955"><ele>50.5</ele><time>2026-04-19T17:45:00.999Z</time></trkpt><trkpt lat="49.32233557014073" lon="0.9733984744917276"><ele>51.0</ele><time>2026-04-19T17:45:01.999Z</time></trkpt><trkpt lat="49.32225900036766" lon="0.9733614018783472"><ele>51.166666666666664</ele><time>2026-04-19T17:45:02.999Z</time></trkpt><trkpt lat="49.32218110263392" lon="0.9733215130080745"><ele>51.33333333333333</ele><time>2026-04-19T17:45:03.999Z</time></trkpt><trkpt lat="49.32210854182404" lon="0.9732833279050209"><ele>51.5</ele><time>2026-04-19T17:45:04.999Z</time></trkpt><trkpt lat="49.32204303923884" lon="0.9732542221925818"><ele>51.666666666666664</ele><time>2026-04-19T17:45:05.999Z</time></trkpt><trkpt lat="49.32195202543103" lon="0.9731955448929606"><ele>51.83333333333333</ele><time>2026-04-19T17:45:07.999Z</time></trkpt><trkpt lat="49.32188912963905" lon="0.9731282592846298"><ele>52.0</ele><time>2026-04-19T17:45:09.999Z</time></trkpt><trkpt lat="49.32190920897964" lon="0.9730237873092543"><ele>52.0</ele><time>2026-04-19T17:45:11.999Z</time></trkpt><trkpt lat="49.321990806184836" lon="0.9730348740900235"><ele>52.0</ele><time>2026-04-19T17:45:13.999Z</time></trkpt><trkpt lat="49.322123046222764" lon="0.9730592177724645"><ele>52.0</ele><time>2026-04-19T17:45:15.999Z</time></trkpt><trkpt lat="49.32219968291725" lon="0.9730660277356146"><ele>52.0</ele><time>2026-04-19T17:45:16.999Z</time></trkpt><trkpt lat="49.322280311689006" lon="0.9730661873719805"><ele>52.0</ele><time>2026-04-19T17:45:17.999Z</time></trkpt><trkpt lat="49.322385699711056" lon="0.9730754653355623"><ele>51.5</ele><time>2026-04-19T17:45:18.999Z</time></trkpt><trkpt lat="49.32251096085679" lon="0.9730871878615296"><ele>51.0</ele><time>2026-04-19T17:45:19.999Z</time></trkpt><trkpt lat="49.32264494185647" lon="0.9731126291080625"><ele>50.5</ele><time>2026-04-19T17:45:20.999Z</time></trkpt><trkpt lat="49.32279831995357" lon="0.9731548969221703"><ele>50.0</ele><time>2026-04-19T17:45:21.999Z</time></trkpt><trkpt lat="49.32294087834135" lon="0.9731921053517536"><ele>49.6</ele><time>2026-04-19T17:45:22.999Z</time></trkpt><trkpt lat="49.323078143933365" lon="0.9732384371332232"><ele>49.2</ele><time>2026-04-19T17:45:23.999Z</time></trkpt><trkpt lat="49.323191608215616" lon="0.9732669295479173"><ele>48.8</ele><time>2026-04-19T17:45:24.999Z</time></trkpt><trkpt lat="49.323286822007425" lon="0.9733065785060754"><ele>48.4</ele><time>2026-04-19T17:45:25.999Z</time></trkpt><trkpt lat="49.32336009495577" lon="0.9733591388157806"><ele>48.0</ele><time>2026-04-19T17:45:26.999Z</time></trkpt><trkpt lat="49.32345932493035" lon="0.9734222772143531"><ele>48.0</ele><time>2026-04-19T17:45:27.999Z</time></trkpt><trkpt lat="49.3235390697846" lon="0.9734825829499821"><ele>48.0</ele><time>2026-04-19T17:45:28.999Z</time></trkpt><trkpt lat="49.32363214055585" lon="0.9735409968017259"><ele>48.0</ele><time>2026-04-19T17:45:29.999Z</time></trkpt><trkpt lat="49.32372105383109" lon="0.9735894096229349"><ele>48.0</ele><time>2026-04-19T17:45:30.999Z</time></trkpt><trkpt lat="49.32379117222592" lon="0.9736441288979789"><ele>48.0</ele><time>2026-04-19T17:45:31.999Z</time></trkpt><trkpt lat="49.32386289169306" lon="0.9737036331756748"><ele>48.0</ele><time>2026-04-19T17:45:32.999Z</time></trkpt><trkpt lat="49.32394315666937" lon="0.973769996293081"><ele>48.71428571428571</ele><time>2026-04-19T17:45:33.999Z</time></trkpt><trkpt lat="49.32400750327136" lon="0.9738363137087342"><ele>49.42857142857143</ele><time>2026-04-19T17:45:34.999Z</time></trkpt><trkpt lat="49.32409056710058" lon="0.9739057896088358"><ele>50.14285714285714</ele><time>2026-04-19T17:45:36.999Z</time></trkpt><trkpt lat="49.32415334664514" lon="0.9739365479513553"><ele>50.857142857142854</ele><time>2026-04-19T17:45:38.999Z</time></trkpt><trkpt lat="49.324164161307536" lon="0.9740347443004538"><ele>51.57142857142857</ele><time>2026-04-19T17:46:23.998Z</time></trkpt><trkpt lat="49.324179749153885" lon="0.9739327783022153"><ele>52.285714285714285</ele><time>2026-04-19T17:46:26.998Z</time></trkpt><trkpt lat="49.3241256713594" lon="0.9738588282272198"><ele>53.0</ele><time>2026-04-19T17:46:30Z</time></trkpt><trkpt lat="49.32404551694394" lon="0.9737373510683552"><ele>53.0</ele><time>2026-04-19T17:46:33Z</time></trkpt><trkpt lat="49.323951643155816" lon="0.9735990036998917"><ele>53.0</ele><time>2026-04-19T17:46:35Z</time></trkpt><trkpt lat="49.32385859430811" lon="0.9734801049142945"><ele>53.0</ele><time>2026-04-19T17:46:36Z</time></trkpt><trkpt lat="49.32377072227766" lon="0.9733546906016334"><ele>53.0</ele><time>2026-04-19T17:46:37Z</time></trkpt><trkpt lat="49.3236608879647" lon="0.973203702263489"><ele>54.333333333333336</ele><time>2026-04-19T17:46:38Z</time></trkpt><trkpt lat="49.3235415304448" lon="0.9730527309722572"><ele>55.66666666666667</ele><time>2026-04-19T17:46:39Z</time></trkpt><trkpt lat="49.32343416532401" lon="0.9729088905699191"><ele>57.0</ele><time>2026-04-19T17:46:40Z</time></trkpt><trkpt lat="49.3233126025096" lon="0.9727680044526407"><ele>57.0</ele><time>2026-04-19T17:46:41Z</time></trkpt><trkpt lat="49.323211548867306" lon="0.9726218599853822"><ele>57.0</ele><time>2026-04-19T17:46:42Z</time></trkpt><trkpt lat="49.3230600632445" lon="0.9724599726486447"><ele>57.0</ele><time>2026-04-19T17:46:43Z</time></trkpt><trkpt lat="49.32291392298236" lon="0.9722928333599499"><ele>58.6</ele><time>2026-04-19T17:46:44Z</time></trkpt><trkpt lat="49.322816709017026" lon="0.9721805809197924"><ele>60.2</ele><time>2026-04-19T17:46:45Z</time></trkpt><trkpt lat="49.32272809498674" lon="0.9720833651074609"><ele>61.8</ele><time>2026-04-19T17:46:46Z</time></trkpt><trkpt lat="49.32265036148456" lon="0.972029050767144"><ele>63.4</ele><time>2026-04-19T17:46:47Z</time></trkpt><trkpt lat="49.32258832896472" lon="0.9720044405767818"><ele>65.0</ele><time>2026-04-19T17:46:48Z</time></trkpt><trkpt lat="49.322519063278044" lon="0.9719537064630673"><ele>65.0</ele><time>2026-04-19T17:46:49Z</time></trkpt><trkpt lat="49.32243416470293" lon="0.9719253925752521"><ele>65.0</ele><time>2026-04-19T17:46:50Z</time></trkpt><trkpt lat="49.32235617207513" lon="0.9718982689902924"><ele>65.0</ele><time>2026-04-19T17:46:51Z</time></trkpt><trkpt lat="49.322285285322415" lon="0.9718725573749493"><ele>65.0</ele><time>2026-04-19T17:46:52Z</time></trkpt><trkpt lat="49.32218762097591" lon="0.9718241629623459"><ele>65.0</ele><time>2026-04-19T17:46:54Z</time></trkpt><trkpt lat="49.32214387220115" lon="0.9717184745581199"><ele>65.0</ele><time>2026-04-19T17:46:56Z</time></trkpt><trkpt lat="49.32214238311683" lon="0.9716173994051281"><ele>65.4</ele><time>2026-04-19T17:46:57Z</time></trkpt><trkpt lat="49.322153930546015" lon="0.9714900204818828"><ele>65.8</ele><time>2026-04-19T17:46:58Z</time></trkpt><trkpt lat="49.322166390689844" lon="0.9713452104894371"><ele>66.2</ele><time>2026-04-19T17:46:59Z</time></trkpt><trkpt lat="49.32218541588182" lon="0.9711731247311622"><ele>66.6</ele><time>2026-04-19T17:47:00Z</time></trkpt><trkpt lat="49.32222361588396" lon="0.9710149750065346"><ele>67.0</ele><time>2026-04-19T17:47:01Z</time></trkpt><trkpt lat="49.32225965762617" lon="0.9708487096282254"><ele>71.25</ele><time>2026-04-19T17:47:02Z</time></trkpt><trkpt lat="49.32230378756884" lon="0.9706792691726019"><ele>75.5</ele><time>2026-04-19T17:47:03Z</time></trkpt><trkpt lat="49.32237357564174" lon="0.970522134709844"><ele>79.75</ele><time>2026-04-19T17:47:04Z</time></trkpt><trkpt lat="49.322456899096316" lon="0.9703502807263477"><ele>84.0</ele><time>2026-04-19T17:47:05Z</time></trkpt><trkpt lat="49.3225290885606" lon="0.9701733211676551"><ele>83.0</ele><time>2026-04-19T17:47:06Z</time></trkpt><trkpt lat="49.3225922011852" lon="0.9699995556068975"><ele>82.0</ele><time>2026-04-19T17:47:06.999Z</time></trkpt><trkpt lat="49.322687151645084" lon="0.9697753549297733"><ele>81.0</ele><time>2026-04-19T17:47:07.999Z</time></trkpt><trkpt lat="49.32277847193331" lon="0.969559574246691"><ele>81.0</ele><time>2026-04-19T17:47:08.999Z</time></trkpt><trkpt lat="49.32288083966759" lon="0.9693440942590191"><ele>81.0</ele><time>2026-04-19T17:47:09.999Z</time></trkpt><trkpt lat="49.32297682714663" lon="0.9691144948671976"><ele>81.0</ele><time>2026-04-19T17:47:10.999Z</time></trkpt><trkpt lat="49.32306469341778" lon="0.9688791377128662"><ele>87.66666666666666</ele><time>2026-04-19T17:47:11.999Z</time></trkpt><trkpt lat="49.32314109741448" lon="0.968654155065525"><ele>94.33333333333333</ele><time>2026-04-19T17:47:12.999Z</time></trkpt><trkpt lat="49.323213161452955" lon="0.9684449937458431"><ele>101.0</ele><time>2026-04-19T17:47:13.999Z</time></trkpt><trkpt lat="49.323280732378464" lon="0.9682248847194421"><ele>101.0</ele><time>2026-04-19T17:47:14.999Z</time></trkpt><trkpt lat="49.323325145510104" lon="0.9680492259477469"><ele>101.0</ele><time>2026-04-19T17:47:15.999Z</time></trkpt><trkpt lat="49.32336180881712" lon="0.9679056358162893"><ele>101.0</ele><time>2026-04-19T17:47:16.999Z</time></trkpt><trkpt lat="49.323417460126954" lon="0.9677331296696119"><ele>101.0</ele><time>2026-04-19T17:47:18.999Z</time></trkpt><trkpt lat="49.323475105229804" lon="0.9675982146183519"><ele>101.0</ele><time>2026-04-19T17:47:20.999Z</time></trkpt><trkpt lat="49.32357153388495" lon="0.9675385939144228"><ele>101.0</ele><time>2026-04-19T17:47:22.999Z</time></trkpt><trkpt lat="49.323690883513606" lon="0.9675172792993767"><ele>101.0</ele><time>2026-04-19T17:47:24.999Z</time></trkpt><trkpt lat="49.323765487553295" lon="0.9675224348876551"><ele>101.0</ele><time>2026-04-19T17:47:25.999Z</time></trkpt><trkpt lat="49.3238528489498" lon="0.9675355876798943"><ele>101.0</ele><time>2026-04-19T17:47:26.999Z</time></trkpt><trkpt lat="49.32393930382388" lon="0.9675564536189191"><ele>102.83333333333333</ele><time>2026-04-19T17:47:27.999Z</time></trkpt><trkpt lat="49.32403516944243" lon="0.9675901732719508"><ele>104.66666666666666</ele><time>2026-04-19T17:47:28.999Z</time></trkpt><trkpt lat="49.32412905249589" lon="0.9676214609707653"><ele>106.5</ele><time>2026-04-19T17:47:29.999Z</time></trkpt><trkpt lat="49.32420974345161" lon="0.9676362344824666"><ele>108.33333333333334</ele><time>2026-04-19T17:47:30.999Z</time></trkpt><trkpt lat="49.32428480743017" lon="0.9676226433562101"><ele>110.16666666666667</ele><time>2026-04-19T17:47:31.999Z</time></trkpt><trkpt lat="49.324354031348804" lon="0.967593675945057"><ele>112.0</ele><time>2026-04-19T17:47:32.999Z</time></trkpt><trkpt lat="49.32441137424777" lon="0.9675505063977254"><ele>112.16666666666667</ele><time>2026-04-19T17:47:33.999Z</time></trkpt><trkpt lat="49.3244710816037" lon="0.9675050500954254"><ele>112.33333333333334</ele><time>2026-04-19T17:47:34.999Z</time></trkpt><trkpt lat="49.3245421837694" lon="0.9674591105839966"><ele>112.5</ele><time>2026-04-19T17:47:35.999Z</time></trkpt><trkpt lat="49.32462085015295" lon="0.9674092897124118"><ele>112.66666666666666</ele><time>2026-04-19T17:47:36.999Z</time></trkpt><trkpt lat="49.324697071898164" lon="0.9673615870014206"><ele>112.83333333333333</ele><time>2026-04-19T17:47:37.999Z</time></trkpt><trkpt lat="49.32476728988413" lon="0.9673105664420002"><ele>113.0</ele><time>2026-04-19T17:47:38.999Z</time></trkpt><trkpt lat="49.32482240952335" lon="0.967258990670617"><ele>112.4</ele><time>2026-04-19T17:47:39.999Z</time></trkpt><trkpt lat="49.32486425498613" lon="0.967179433713524"><ele>111.80000000000001</ele><time>2026-04-19T17:47:40.999Z</time></trkpt><trkpt lat="49.32488779973388" lon="0.9670781834628682"><ele>111.2</ele><time>2026-04-19T17:47:41.999Z</time></trkpt><trkpt lat="49.32490851345684" lon="0.9669436033876099"><ele>110.6</ele><time>2026-04-19T17:47:42.999Z</time></trkpt><trkpt lat="49.32492317296843" lon="0.9667344121484225"><ele>110.0</ele><time>2026-04-19T17:47:43.999Z</time></trkpt><trkpt lat="49.324954812172976" lon="0.9665103178156405"><ele>110.0</ele><time>2026-04-19T17:47:44.999Z</time></trkpt><trkpt lat="49.3250006734423" lon="0.9663221313650012"><ele>110.0</ele><time>2026-04-19T17:47:45.999Z</time></trkpt><trkpt lat="49.32503699665511" lon="0.9661600399471915"><ele>110.0</ele><time>2026-04-19T17:47:46.999Z</time></trkpt><trkpt lat="49.3250658518562" lon="0.9660163390357452"><ele>110.0</ele><time>2026-04-19T17:47:47.999Z</time></trkpt><trkpt lat="49.325090336068996" lon="0.9658762656717886"><ele>110.0</ele><time>2026-04-19T17:47:48.999Z</time></trkpt><trkpt lat="49.325104839694106" lon="0.9657612964090493"><ele>110.0</ele><time>2026-04-19T17:47:49.999Z</time></trkpt><trkpt lat="49.32511503473033" lon="0.9656643314482248"><ele>110.0</ele><time>2026-04-19T17:47:50.999Z</time></trkpt><trkpt lat="49.32514258927926" lon="0.9655344450891713"><ele>110.0</ele><time>2026-04-19T17:47:51.999Z</time></trkpt><trkpt lat="49.32520161908065" lon="0.9653736123195044"><ele>110.0</ele><time>2026-04-19T17:47:52.999Z</time></trkpt><trkpt lat="49.32527761742964" lon="0.9651724181667346"><ele>110.0</ele><time>2026-04-19T17:47:53.999Z</time></trkpt><trkpt lat="49.32537422872542" lon="0.9649716659525648"><ele>112.0</ele><time>2026-04-19T17:47:54.999Z</time></trkpt><trkpt lat="49.325488600780105" lon="0.9647956014696613"><ele>114.0</ele><time>2026-04-19T17:47:55.999Z</time></trkpt><trkpt lat="49.325618105070205" lon="0.9646698739484435"><ele>116.0</ele><time>2026-04-19T17:47:56.999Z</time></trkpt><trkpt lat="49.32576148596301" lon="0.9645486383583"><ele>116.0</ele><time>2026-04-19T17:47:57.999Z</time></trkpt><trkpt lat="49.32586967754296" lon="0.9643973375802976"><ele>116.0</ele><time>2026-04-19T17:47:58.999Z</time></trkpt><trkpt lat="49.325940537202236" lon="0.964222732227099"><ele>116.0</ele><time>2026-04-19T17:47:59.999Z</time></trkpt><trkpt lat="49.32600444926248" lon="0.964048927014673"><ele>116.0</ele><time>2026-04-19T17:48:00.999Z</time></trkpt><trkpt lat="49.32607398653418" lon="0.9639141051655042"><ele>116.4</ele><time>2026-04-19T17:48:01.999Z</time></trkpt><trkpt lat="49.326155097626824" lon="0.9638276313235254"><ele>116.8</ele><time>2026-04-19T17:48:02.999Z</time></trkpt><trkpt lat="49.32625014709825" lon="0.9637813602726788"><ele>117.20000000000002</ele><time>2026-04-19T17:48:03.999Z</time></trkpt><trkpt lat="49.32636638423224" lon="0.9637610231055848"><ele>117.60000000000001</ele><time>2026-04-19T17:48:04.999Z</time></trkpt><trkpt lat="49.326495071980325" lon="0.9637278153941453"><ele>118.0</ele><time>2026-04-19T17:48:05.999Z</time></trkpt><trkpt lat="49.3266374941126" lon="0.9636816263575521"><ele>118.0</ele><time>2026-04-19T17:48:06.998Z</time></trkpt><trkpt lat="49.32676234070882" lon="0.9636311021239982"><ele>118.0</ele><time>2026-04-19T17:48:07.998Z</time></trkpt><trkpt lat="49.32687442058285" lon="0.963589157863955"><ele>118.0</ele><time>2026-04-19T17:48:08.998Z</time></trkpt><trkpt lat="49.326971962992566" lon="0.9635494470752135"><ele>118.0</ele><time>2026-04-19T17:48:09.998Z</time></trkpt><trkpt lat="49.327081369454234" lon="0.9635104937740804"><ele>118.0</ele><time>2026-04-19T17:48:10.998Z</time></trkpt><trkpt lat="49.32720231757408" lon="0.9634702081364732"><ele>118.0</ele><time>2026-04-19T17:48:11.998Z</time></trkpt><trkpt lat="49.32733066635963" lon="0.9634152127168611"><ele>118.0</ele><time>2026-04-19T17:48:12.998Z</time></trkpt><trkpt lat="49.32746013858124" lon="0.9633841661091853"><ele>118.0</ele><time>2026-04-19T17:48:13.998Z</time></trkpt><trkpt lat="49.327579330420164" lon="0.9633546380501007"><ele>117.50000000000001</ele><time>2026-04-19T17:48:14.998Z</time></trkpt><trkpt lat="49.327689184245536" lon="0.9633249887149155"><ele>117.0</ele><time>2026-04-19T17:48:15.998Z</time></trkpt><trkpt lat="49.327775209011335" lon="0.9633019474366362"><ele>116.5</ele><time>2026-04-19T17:48:16.998Z</time></trkpt><trkpt lat="49.3278559370616" lon="0.9632767374693453"><ele>116.0</ele><time>2026-04-19T17:48:17.998Z</time></trkpt><trkpt lat="49.32792367228201" lon="0.963260774742909"><ele>115.50000000000001</ele><time>2026-04-19T17:48:18.998Z</time></trkpt><trkpt lat="49.32800159577364" lon="0.9632391253714376"><ele>115.0</ele><time>2026-04-19T17:48:20.998Z</time></trkpt><trkpt lat="49.328049091798775" lon="0.9633560145152891"><ele>115.4</ele><time>2026-04-19T17:48:23.998Z</time></trkpt><trkpt lat="49.328064408455816" lon="0.9634612957010391"><ele>115.8</ele><time>2026-04-19T17:48:25.998Z</time></trkpt><trkpt lat="49.32805312203262" lon="0.9636119078892791"><ele>116.19999999999999</ele><time>2026-04-19T17:48:27.998Z</time></trkpt><trkpt lat="49.328042278774674" lon="0.9637086404184017"><ele>116.6</ele><time>2026-04-19T17:48:28.998Z</time></trkpt><trkpt lat="49.32804096436606" lon="0.9638824093911165"><ele>117.0</ele><time>2026-04-19T17:48:30.998Z</time></trkpt><trkpt lat="49.32800270263589" lon="0.9640642588059676"><ele>118.16666666666667</ele><time>2026-04-19T17:48:32.998Z</time></trkpt><trkpt lat="49.32799394006722" lon="0.9642010414420381"><ele>119.33333333333334</ele><time>2026-04-19T17:48:34.998Z</time></trkpt><trkpt lat="49.327984752741095" lon="0.9643046509940676"><ele>120.5</ele><time>2026-04-19T17:48:36Z</time></trkpt><trkpt lat="49.32797130960891" lon="0.9644190847973563"><ele>121.66666666666667</ele><time>2026-04-19T17:48:37Z</time></trkpt><trkpt lat="49.327951394219824" lon="0.9645258343491175"><ele>122.83333333333334</ele><time>2026-04-19T17:48:38Z</time></trkpt><trkpt lat="49.327931343172" lon="0.9646375753385187"><ele>124.0</ele><time>2026-04-19T17:48:39Z</time></trkpt><trkpt lat="49.3279092220251" lon="0.964739402017776"><ele>124.0</ele><time>2026-04-19T17:48:40Z</time></trkpt><trkpt lat="49.327875038912154" lon="0.9649125806002723"><ele>124.0</ele><time>2026-04-19T17:48:42Z</time></trkpt><trkpt lat="49.327838735540446" lon="0.9650460214290197"><ele>124.0</ele><time>2026-04-19T17:48:44Z</time></trkpt><trkpt lat="49.32782293679816" lon="0.965167177819125"><ele>124.0</ele><time>2026-04-19T17:48:46Z</time></trkpt><trkpt lat="49.32780472113173" lon="0.9653167372967685"><ele>124.0</ele><time>2026-04-19T17:48:48Z</time></trkpt><trkpt lat="49.327800574265474" lon="0.9654266445029701"><ele>123.83333333333334</ele><time>2026-04-19T17:48:49Z</time></trkpt><trkpt lat="49.32778733313017" lon="0.9655307499702396"><ele>123.66666666666667</ele><time>2026-04-19T17:48:50Z</time></trkpt><trkpt lat="49.32775590786346" lon="0.9657149224428391"><ele>123.5</ele><time>2026-04-19T17:48:52Z</time></trkpt><trkpt lat="49.32773937162499" lon="0.9658689968835632"><ele>123.33333333333334</ele><time>2026-04-19T17:48:54Z</time></trkpt><trkpt lat="49.32771899818415" lon="0.9659663432327484"><ele>123.16666666666667</ele><time>2026-04-19T17:48:55Z</time></trkpt><trkpt lat="49.32771555594812" lon="0.966062895267725"><ele>123.0</ele><time>2026-04-19T17:48:56Z</time></trkpt><trkpt lat="49.327718577218384" lon="0.9662042498610643"><ele>122.60000000000001</ele><time>2026-04-19T17:48:58Z</time></trkpt><trkpt lat="49.32777410985938" lon="0.9663078348168047"><ele>122.20000000000002</ele><time>2026-04-19T17:49:00Z</time></trkpt><trkpt lat="49.32786993965851" lon="0.966357053774624"><ele>121.8</ele><time>2026-04-19T17:49:02Z</time></trkpt><trkpt lat="49.327967305770116" lon="0.9663678367348219"><ele>121.4</ele><time>2026-04-19T17:49:04Z</time></trkpt><trkpt lat="49.328050829275526" lon="0.966407317737981"><ele>121.0</ele><time>2026-04-19T17:49:06Z</time></trkpt><trkpt lat="49.3281258760793" lon="0.9664305789235483"><ele>120.19999999999999</ele><time>2026-04-19T17:49:08Z</time></trkpt><trkpt lat="49.32821520723437" lon="0.966471718083775"><ele>119.39999999999999</ele><time>2026-04-19T17:49:09.999Z</time></trkpt><trkpt lat="49.32831662623121" lon="0.9664983803232061"><ele>118.6</ele><time>2026-04-19T17:49:11.999Z</time></trkpt><trkpt lat="49.328394424867476" lon="0.9665234397168274"><ele>117.8</ele><time>2026-04-19T17:49:12.999Z</time></trkpt><trkpt lat="49.328468254808115" lon="0.9665450126035093"><ele>117.0</ele><time>2026-04-19T17:49:13.999Z</time></trkpt><trkpt lat="49.328586650459506" lon="0.9666010272004064"><ele>117.0</ele><time>2026-04-19T17:49:15.999Z</time></trkpt><trkpt lat="49.32865533379655" lon="0.9666294360622625"><ele>117.0</ele><time>2026-04-19T17:49:16.999Z</time></trkpt><trkpt lat="49.32874178537524" lon="0.9666480930142588"><ele>117.0</ele><time>2026-04-19T17:49:17.999Z</time></trkpt><trkpt lat="49.32881915619986" lon="0.9666774565975723"><ele>117.0</ele><time>2026-04-19T17:49:18.999Z</time></trkpt><trkpt lat="49.32888714397329" lon="0.9666983831300419"><ele>117.0</ele><time>2026-04-19T17:49:19.999Z</time></trkpt><trkpt lat="49.32900606880766" lon="0.9667215138665869"><ele>117.0</ele><time>2026-04-19T17:49:21.999Z</time></trkpt><trkpt lat="49.3290733913666" lon="0.9667478814011659"><ele>116.19999999999999</ele><time>2026-04-19T17:49:22.999Z</time></trkpt><trkpt lat="49.329166955757714" lon="0.9667769674277865"><ele>115.39999999999999</ele><time>2026-04-19T17:49:23.999Z</time></trkpt><trkpt lat="49.329256007492965" lon="0.9668040118683112"><ele>114.60000000000001</ele><time>2026-04-19T17:49:24.999Z</time></trkpt><trkpt lat="49.32934685402096" lon="0.9668305155412055"><ele>113.80000000000001</ele><time>2026-04-19T17:49:25.999Z</time></trkpt><trkpt lat="49.329446475110906" lon="0.9668694564346362"><ele>113.0</ele><time>2026-04-19T17:49:26.999Z</time></trkpt><trkpt lat="49.32953450860611" lon="0.9669113120274532"><ele>112.99999999999999</ele><time>2026-04-19T17:49:27.999Z</time></trkpt><trkpt lat="49.329609302001145" lon="0.9669400116179729"><ele>113.0</ele><time>2026-04-19T17:49:28.999Z</time></trkpt><trkpt lat="49.32968361034103" lon="0.9669662177468434"><ele>113.0</ele><time>2026-04-19T17:49:29.999Z</time></trkpt><trkpt lat="49.32975034517774" lon="0.9669862843579712"><ele>113.0</ele><time>2026-04-19T17:49:30.999Z</time></trkpt><trkpt lat="49.329822221714366" lon="0.9670202924518939"><ele>112.99999999999999</ele><time>2026-04-19T17:49:31.999Z</time></trkpt><trkpt lat="49.329896735739105" lon="0.9670468722206853"><ele>113.0</ele><time>2026-04-19T17:49:32.999Z</time></trkpt><trkpt lat="49.32997503805604" lon="0.9670587164547304"><ele>112.49999999999999</ele><time>2026-04-19T17:49:33.999Z</time></trkpt><trkpt lat="49.33006352479592" lon="0.9670752245980088"><ele>112.0</ele><time>2026-04-19T17:49:34.999Z</time></trkpt><trkpt lat="49.330151194322184" lon="0.9671049556842258"><ele>111.5</ele><time>2026-04-19T17:49:35.999Z</time></trkpt><trkpt lat="49.33023181971761" lon="0.9671356405546994"><ele>111.0</ele><time>2026-04-19T17:49:36.999Z</time></trkpt><trkpt lat="49.33031390549312" lon="0.9671678598856183"><ele>110.49999999999999</ele><time>2026-04-19T17:49:37.999Z</time></trkpt><trkpt lat="49.33038768407709" lon="0.9671941825953768"><ele>110.0</ele><time>2026-04-19T17:49:38.999Z</time></trkpt><trkpt lat="49.33046597651602" lon="0.967209569724337"><ele>109.99999999999999</ele><time>2026-04-19T17:49:39.999Z</time></trkpt><trkpt lat="49.330538784251836" lon="0.9672222891949163"><ele>110.0</ele><time>2026-04-19T17:49:40.999Z</time></trkpt><trkpt lat="49.330614495833366" lon="0.9672610479864076"><ele>110.0</ele><time>2026-04-19T17:49:41.999Z</time></trkpt><trkpt lat="49.330687527420565" lon="0.9672791952661126"><ele>110.0</ele><time>2026-04-19T17:49:42.999Z</time></trkpt><trkpt lat="49.330754159898355" lon="0.9672997287491494"><ele>109.99999999999999</ele><time>2026-04-19T17:49:43.999Z</time></trkpt><trkpt lat="49.330829460944145" lon="0.967324383493524"><ele>110.0</ele><time>2026-04-19T17:49:44.999Z</time></trkpt><trkpt lat="49.33091087672539" lon="0.967360590094807"><ele>108.99999999999999</ele><time>2026-04-19T17:49:45.999Z</time></trkpt><trkpt lat="49.33097874490914" lon="0.9673678604907886"><ele>108.0</ele><time>2026-04-19T17:49:46.999Z</time></trkpt><trkpt lat="49.33106386640343" lon="0.9674002340356304"><ele>107.0</ele><time>2026-04-19T17:49:47.999Z</time></trkpt><trkpt lat="49.33114156059844" lon="0.9674245300869531"><ele>106.0</ele><time>2026-04-19T17:49:48.999Z</time></trkpt><trkpt lat="49.33121036080509" lon="0.9674508935769667"><ele>104.99999999999999</ele><time>2026-04-19T17:49:49.999Z</time></trkpt><trkpt lat="49.33128869977357" lon="0.9674746958108397"><ele>104.0</ele><time>2026-04-19T17:49:50.999Z</time></trkpt><trkpt lat="49.331353014365625" lon="0.9675038250190733"><ele>101.2</ele><time>2026-04-19T17:49:51.999Z</time></trkpt><trkpt lat="49.33145342410713" lon="0.9675397033057791"><ele>98.4</ele><time>2026-04-19T17:49:53.999Z</time></trkpt><trkpt lat="49.331563329914495" lon="0.9675690634629758"><ele>95.6</ele><time>2026-04-19T17:49:55.999Z</time></trkpt><trkpt lat="49.33165198885377" lon="0.967591896869835"><ele>92.8</ele><time>2026-04-19T17:49:57.999Z</time></trkpt><trkpt lat="49.33171664425679" lon="0.9675623923564225"><ele>90.0</ele><time>2026-04-19T17:49:59.999Z</time></trkpt><trkpt lat="49.33177497851992" lon="0.9674362191760163"><ele>90.0</ele><time>2026-04-19T17:50:01.999Z</time></trkpt><trkpt lat="49.33184792807913" lon="0.9673107431842373"><ele>90.0</ele><time>2026-04-19T17:50:03.999Z</time></trkpt><trkpt lat="49.331909978316844" lon="0.9671899369599137"><ele>90.0</ele><time>2026-04-19T17:50:05.999Z</time></trkpt><trkpt lat="49.33197261657207" lon="0.9670554543943073"><ele>90.0</ele><time>2026-04-19T17:50:07.999Z</time></trkpt><trkpt lat="49.332020170981025" lon="0.9669443125296191"><ele>90.0</ele><time>2026-04-19T17:50:09.998Z</time></trkpt><trkpt lat="49.33208776580701" lon="0.9668989059778348"><ele>90.0</ele><time>2026-04-19T17:50:11.998Z</time></trkpt><trkpt lat="49.33214464359505" lon="0.9669425034001073"><ele>90.0</ele><time>2026-04-19T17:50:13.998Z</time></trkpt><trkpt lat="49.33224998271011" lon="0.9670944164817136"><ele>90.0</ele><time>2026-04-19T17:50:15.998Z</time></trkpt><trkpt lat="49.33231151142705" lon="0.9672002426555196"><ele>90.0</ele><time>2026-04-19T17:50:16.998Z</time></trkpt><trkpt lat="49.332372970989184" lon="0.9673058947640005"><ele>90.0</ele><time>2026-04-19T17:50:17.998Z</time></trkpt><trkpt lat="49.33243157296252" lon="0.9674001108659218"><ele>85.66666666666667</ele><time>2026-04-19T17:50:18.998Z</time></trkpt><trkpt lat="49.332475574959524" lon="0.9674805128610954"><ele>81.33333333333333</ele><time>2026-04-19T17:50:19.998Z</time></trkpt><trkpt lat="49.332521923629166" lon="0.967555364941843"><ele>77.0</ele><time>2026-04-19T17:50:20.998Z</time></trkpt><trkpt lat="49.33256640147556" lon="0.9676322825497169"><ele>72.66666666666666</ele><time>2026-04-19T17:50:21.998Z</time></trkpt><trkpt lat="49.33265149402449" lon="0.9677525710044573"><ele>68.33333333333333</ele><time>2026-04-19T17:50:23.998Z</time></trkpt><trkpt lat="49.33271858212465" lon="0.967903390862729"><ele>64.0</ele><time>2026-04-19T17:50:25.998Z</time></trkpt><trkpt lat="49.332774334589445" lon="0.9680493340449599"><ele>63.99999999999999</ele><time>2026-04-19T17:50:27.998Z</time></trkpt><trkpt lat="49.332829476947374" lon="0.9681858798029331"><ele>64.0</ele><time>2026-04-19T17:50:29.998Z</time></trkpt><trkpt lat="49.332899790290014" lon="0.9682637841093673"><ele>64.0</ele><time>2026-04-19T17:50:31.998Z</time></trkpt><trkpt lat="49.33295987133915" lon="0.9683324775511041"><ele>64.0</ele><time>2026-04-19T17:50:33.998Z</time></trkpt><trkpt lat="49.332968882740104" lon="0.9684347992091004"><ele>63.99999999999999</ele><time>2026-04-19T17:50:39.998Z</time></trkpt><trkpt lat="49.33295598599878" lon="0.9685303951938804"><ele>64.0</ele><time>2026-04-19T17:52:00.999Z</time></trkpt><trkpt lat="49.33297886132174" lon="0.9686589440283319"><ele>63.99999999999999</ele><time>2026-04-19T17:52:18.998Z</time></trkpt><trkpt lat="49.33293444688924" lon="0.9685776179839143"><ele>64.0</ele><time>2026-04-19T17:52:24.998Z</time></trkpt><trkpt lat="49.33288406658722" lon="0.9684593539942001"><ele>64.0</ele><time>2026-04-19T17:52:27.998Z</time></trkpt><trkpt lat="49.332805221596935" lon="0.9683581303551323"><ele>64.0</ele><time>2026-04-19T17:52:29.998Z</time></trkpt><trkpt lat="49.33274020838389" lon="0.9682339040674981"><ele>63.99999999999999</ele><time>2026-04-19T17:52:31.998Z</time></trkpt><trkpt lat="49.33272033921102" lon="0.9681373130944475"><ele>64.0</ele><time>2026-04-19T17:52:32.998Z</time></trkpt><trkpt lat="49.332685656167044" lon="0.9680263321592687"><ele>64.0</ele><time>2026-04-19T17:52:33.998Z</time></trkpt><trkpt lat="49.33263851558924" lon="0.967930977031203"><ele>64.0</ele><time>2026-04-19T17:52:34.998Z</time></trkpt><trkpt lat="49.33259282684868" lon="0.9678237237399204"><ele>64.0</ele><time>2026-04-19T17:52:35.998Z</time></trkpt><trkpt lat="49.33253680259152" lon="0.9677017180641505"><ele>64.0</ele><time>2026-04-19T17:52:36.998Z</time></trkpt><trkpt lat="49.332476242643146" lon="0.9675750030399213"><ele>64.0</ele><time>2026-04-19T17:52:37.998Z</time></trkpt><trkpt lat="49.33240281370199" lon="0.9674259827650945"><ele>64.0</ele><time>2026-04-19T17:52:38.998Z</time></trkpt><trkpt lat="49.33232656292016" lon="0.9672761273133472"><ele>64.0</ele><time>2026-04-19T17:52:39.998Z</time></trkpt><trkpt lat="49.3322552136585" lon="0.9671667567849331"><ele>64.0</ele><time>2026-04-19T17:52:40.998Z</time></trkpt><trkpt lat="49.33219855254179" lon="0.9670873655216558"><ele>64.0</ele><time>2026-04-19T17:52:41.998Z</time></trkpt><trkpt lat="49.33214342571008" lon="0.9669847983883947"><ele>64.0</ele><time>2026-04-19T17:52:43.998Z</time></trkpt><trkpt lat="49.33213066890606" lon="0.9668854662277533"><ele>70.5</ele><time>2026-04-19T17:52:52Z</time></trkpt><trkpt lat="49.33208641641004" lon="0.9667959736824341"><ele>77.0</ele><time>2026-04-19T17:54:14.999Z</time></trkpt><trkpt lat="49.33203593109566" lon="0.966591260002742"><ele>83.5</ele><time>2026-04-19T17:54:16.999Z</time></trkpt><trkpt lat="49.331980547931" lon="0.9663993747850583"><ele>90.0</ele><time>2026-04-19T17:54:17.999Z</time></trkpt><trkpt lat="49.33189291879169" lon="0.9661439654929479"><ele>89.6</ele><time>2026-04-19T17:54:18.999Z</time></trkpt><trkpt lat="49.33183511037824" lon="0.9659614122166987"><ele>89.2</ele><time>2026-04-19T17:54:19.999Z</time></trkpt><trkpt lat="49.33180032733534" lon="0.965823025455577"><ele>88.80000000000001</ele><time>2026-04-19T17:54:20.999Z</time></trkpt><trkpt lat="49.33177196146247" lon="0.9657026670052616"><ele>88.4</ele><time>2026-04-19T17:54:21.998Z</time></trkpt><trkpt lat="49.331732707676714" lon="0.965588061911705"><ele>88.0</ele><time>2026-04-19T17:54:22.998Z</time></trkpt><trkpt lat="49.331692265800044" lon="0.9654578009513571"><ele>88.0</ele><time>2026-04-19T17:54:23.998Z</time></trkpt><trkpt lat="49.3316430664222" lon="0.9653273631971313"><ele>88.0</ele><time>2026-04-19T17:54:24.998Z</time></trkpt><trkpt lat="49.331601560184204" lon="0.9651971241610631"><ele>88.0</ele><time>2026-04-19T17:54:25.998Z</time></trkpt><trkpt lat="49.331537688137594" lon="0.9650331326603702"><ele>88.0</ele><time>2026-04-19T17:54:26.998Z</time></trkpt><trkpt lat="49.331480236204165" lon="0.9648669902096493"><ele>88.0</ele><time>2026-04-19T17:54:27.998Z</time></trkpt><trkpt lat="49.33142824582527" lon="0.964695000396939"><ele>87.4</ele><time>2026-04-19T17:54:28.998Z</time></trkpt><trkpt lat="49.3313792798944" lon="0.9645175436476279"><ele>86.80000000000001</ele><time>2026-04-19T17:54:29.998Z</time></trkpt><trkpt lat="49.331345838726214" lon="0.9643758155789695"><ele>86.2</ele><time>2026-04-19T17:54:30.998Z</time></trkpt><trkpt lat="49.33130924933218" lon="0.9642609445124598"><ele>85.6</ele><time>2026-04-19T17:54:31.998Z</time></trkpt><trkpt lat="49.33127017699115" lon="0.9641544793754432"><ele>85.0</ele><time>2026-04-19T17:54:32.998Z</time></trkpt><trkpt lat="49.331234287080925" lon="0.9640292067487765"><ele>85.0</ele><time>2026-04-19T17:54:33.998Z</time></trkpt><trkpt lat="49.331185810691466" lon="0.963891839329738"><ele>85.0</ele><time>2026-04-19T17:54:34.998Z</time></trkpt><trkpt lat="49.33114137470475" lon="0.9637611735155877"><ele>85.0</ele><time>2026-04-19T17:54:35.998Z</time></trkpt><trkpt lat="49.3310947889954" lon="0.9636669032475279"><ele>85.0</ele><time>2026-04-19T17:54:36.998Z</time></trkpt><trkpt lat="49.33105829615286" lon="0.9635413396038314"><ele>85.0</ele><time>2026-04-19T17:54:37.998Z</time></trkpt><trkpt lat="49.331022888495866" lon="0.9634065626337046"><ele>81.6</ele><time>2026-04-19T17:54:38.998Z</time></trkpt><trkpt lat="49.330982646186975" lon="0.9632686345089466"><ele>78.2</ele><time>2026-04-19T17:54:39.998Z</time></trkpt><trkpt lat="49.33093784825047" lon="0.9630824828753071"><ele>74.8</ele><time>2026-04-19T17:54:40.998Z</time></trkpt><trkpt lat="49.33090227939788" lon="0.9629502205782429"><ele>71.4</ele><time>2026-04-19T17:54:41.998Z</time></trkpt><trkpt lat="49.33086051151575" lon="0.9628230902536113"><ele>68.0</ele><time>2026-04-19T17:54:42.998Z</time></trkpt><trkpt lat="49.330831494159966" lon="0.9627024416504514"><ele>68.0</ele><time>2026-04-19T17:54:43.998Z</time></trkpt><trkpt lat="49.330785424132266" lon="0.9625792774509104"><ele>68.0</ele><time>2026-04-19T17:54:44.998Z</time></trkpt><trkpt lat="49.33074309148647" lon="0.9624745333077577"><ele>68.0</ele><time>2026-04-19T17:54:45.998Z</time></trkpt><trkpt lat="49.330706664815445" lon="0.9623793892810129"><ele>68.0</ele><time>2026-04-19T17:54:46.998Z</time></trkpt><trkpt lat="49.33066918934015" lon="0.9622400197819214"><ele>68.0</ele><time>2026-04-19T17:54:47.998Z</time></trkpt><trkpt lat="49.33064576865042" lon="0.9621257787431016"><ele>68.0</ele><time>2026-04-19T17:54:48.998Z</time></trkpt><trkpt lat="49.33060358011722" lon="0.9619446164798982"><ele>68.2</ele><time>2026-04-19T17:54:50.998Z</time></trkpt><trkpt lat="49.330567688701656" lon="0.9617733647995436"><ele>68.4</ele><time>2026-04-19T17:54:52.998Z</time></trkpt><trkpt lat="49.33054000711089" lon="0.9616570883060022"><ele>68.60000000000001</ele><time>2026-04-19T17:54:54Z</time></trkpt><trkpt lat="49.330496306530605" lon="0.9615350772842308"><ele>68.8</ele><time>2026-04-19T17:54:55Z</time></trkpt><trkpt lat="49.33045837459426" lon="0.9614014691985773"><ele>69.0</ele><time>2026-04-19T17:54:56Z</time></trkpt><trkpt lat="49.330410636167485" lon="0.9612793378719382"><ele>72.6</ele><time>2026-04-19T17:54:57Z</time></trkpt><trkpt lat="49.33037304067582" lon="0.9611881389073559"><ele>76.2</ele><time>2026-04-19T17:54:58Z</time></trkpt><trkpt lat="49.33033638821418" lon="0.9610727505442997"><ele>79.8</ele><time>2026-04-19T17:54:59Z</time></trkpt><trkpt lat="49.330294216529786" lon="0.9609211378036917"><ele>83.39999999999999</ele><time>2026-04-19T17:55:00Z</time></trkpt><trkpt lat="49.33024766578478" lon="0.9607814149581072"><ele>87.0</ele><time>2026-04-19T17:55:01Z</time></trkpt><trkpt lat="49.33019754253794" lon="0.9606306190871825"><ele>88.8</ele><time>2026-04-19T17:55:02Z</time></trkpt><trkpt lat="49.33014763250745" lon="0.9604957718366431"><ele>90.6</ele><time>2026-04-19T17:55:03Z</time></trkpt><trkpt lat="49.33011525063157" lon="0.9604076096598525"><ele>92.39999999999999</ele><time>2026-04-19T17:55:04Z</time></trkpt><trkpt lat="49.330075603180916" lon="0.960265435527671"><ele>94.19999999999999</ele><time>2026-04-19T17:55:06Z</time></trkpt><trkpt lat="49.330001283250084" lon="0.9600872163921722"><ele>96.0</ele><time>2026-04-19T17:55:08Z</time></trkpt><trkpt lat="49.32995117061422" lon="0.9599319134741294"><ele>96.4</ele><time>2026-04-19T17:55:09Z</time></trkpt><trkpt lat="49.32991529863302" lon="0.9598254866322067"><ele>96.8</ele><time>2026-04-19T17:55:10Z</time></trkpt><trkpt lat="49.32986729388621" lon="0.9597019319545753"><ele>97.2</ele><time>2026-04-19T17:55:11Z</time></trkpt><trkpt lat="49.32981303484514" lon="0.9595550475827161"><ele>97.60000000000001</ele><time>2026-04-19T17:55:12Z</time></trkpt><trkpt lat="49.32976083125269" lon="0.9594114567490071"><ele>98.0</ele><time>2026-04-19T17:55:13Z</time></trkpt><trkpt lat="49.329720031234515" lon="0.9592352570057432"><ele>99.2</ele><time>2026-04-19T17:55:14Z</time></trkpt><trkpt lat="49.329678322367684" lon="0.9590988363500125"><ele>100.4</ele><time>2026-04-19T17:55:15Z</time></trkpt><trkpt lat="49.32963430061219" lon="0.9589632439348174"><ele>101.60000000000001</ele><time>2026-04-19T17:55:16Z</time></trkpt><trkpt lat="49.32959851992933" lon="0.9588353884190324"><ele>102.80000000000001</ele><time>2026-04-19T17:55:17Z</time></trkpt><trkpt lat="49.32956170414995" lon="0.9586886342214649"><ele>104.0</ele><time>2026-04-19T17:55:18Z</time></trkpt><trkpt lat="49.329475089583525" lon="0.9584931616666336"><ele>104.6</ele><time>2026-04-19T17:55:19Z</time></trkpt><trkpt lat="49.32943004163534" lon="0.9582969959657418"><ele>105.2</ele><time>2026-04-19T17:55:20Z</time></trkpt><trkpt lat="49.32938949781609" lon="0.9581571091414576"><ele>105.79999999999998</ele><time>2026-04-19T17:55:21Z</time></trkpt><trkpt lat="49.3293431562685" lon="0.9580168092098417"><ele>106.39999999999999</ele><time>2026-04-19T17:55:22Z</time></trkpt><trkpt lat="49.32929631128989" lon="0.9578851921564869"><ele>107.0</ele><time>2026-04-19T17:55:23Z</time></trkpt><trkpt lat="49.329254006633604" lon="0.957764102130837"><ele>107.0</ele><time>2026-04-19T17:55:24Z</time></trkpt><trkpt lat="49.32921352688945" lon="0.957622787146052"><ele>106.99999999999999</ele><time>2026-04-19T17:55:24.999Z</time></trkpt><trkpt lat="49.32917715968237" lon="0.9575083741305087"><ele>106.99999999999999</ele><time>2026-04-19T17:55:25.999Z</time></trkpt><trkpt lat="49.32913058292925" lon="0.9573392255058307"><ele>107.0</ele><time>2026-04-19T17:55:27.999Z</time></trkpt><trkpt lat="49.32907679743224" lon="0.9571919695754445"><ele>107.0</ele><time>2026-04-19T17:55:29.999Z</time></trkpt><trkpt lat="49.32902987139943" lon="0.9570724932359282"><ele>107.16666666666666</ele><time>2026-04-19T17:55:31.999Z</time></trkpt><trkpt lat="49.329040688482024" lon="0.9569771449957779"><ele>107.33333333333333</ele><time>2026-04-19T17:55:35.999Z</time></trkpt><trkpt lat="49.329033671936045" lon="0.9568538361228129"><ele>107.5</ele><time>2026-04-19T17:55:38.999Z</time></trkpt><trkpt lat="49.328991601296934" lon="0.9569433243721798"><ele>107.66666666666666</ele><time>2026-04-19T17:55:42.999Z</time></trkpt><trkpt lat="49.32900753579741" lon="0.9570374493938064"><ele>107.83333333333333</ele><time>2026-04-19T17:55:44.999Z</time></trkpt><trkpt lat="49.32907940846949" lon="0.9571527804534807"><ele>108.0</ele><time>2026-04-19T17:55:45.999Z</time></trkpt><trkpt lat="49.32912512080539" lon="0.9572394118302193"><ele>108.0</ele><time>2026-04-19T17:55:46.999Z</time></trkpt><trkpt lat="49.329162219934936" lon="0.957343721519163"><ele>108.00000000000001</ele><time>2026-04-19T17:55:47.999Z</time></trkpt><trkpt lat="49.32920390647169" lon="0.9574912405072864"><ele>108.00000000000001</ele><time>2026-04-19T17:55:48.999Z</time></trkpt><trkpt lat="49.329267456858595" lon="0.9576551461676823"><ele>108.0</ele><time>2026-04-19T17:55:49.999Z</time></trkpt><trkpt lat="49.329312785240056" lon="0.9578387923359788"><ele>108.0</ele><time>2026-04-19T17:55:50.999Z</time></trkpt><trkpt lat="49.32936855262534" lon="0.9580312838077824"><ele>107.75</ele><time>2026-04-19T17:55:51.999Z</time></trkpt><trkpt lat="49.32942028809187" lon="0.9582302896361204"><ele>107.5</ele><time>2026-04-19T17:55:52.999Z</time></trkpt><trkpt lat="49.32946151571704" lon="0.9584058002976751"><ele>107.25</ele><time>2026-04-19T17:55:53.999Z</time></trkpt><trkpt lat="49.329499580899174" lon="0.9585567162467821"><ele>107.0</ele><time>2026-04-19T17:55:54.999Z</time></trkpt><trkpt lat="49.32953372957351" lon="0.9586790791713059"><ele>106.49999999999999</ele><time>2026-04-19T17:55:55.999Z</time></trkpt><trkpt lat="49.32956866352089" lon="0.9588043353973913"><ele>106.0</ele><time>2026-04-19T17:55:56.999Z</time></trkpt><trkpt lat="49.329605962992076" lon="0.9589244601277715"><ele>105.5</ele><time>2026-04-19T17:55:57.999Z</time></trkpt><trkpt lat="49.329630740463024" lon="0.9590410129083253"><ele>105.0</ele><time>2026-04-19T17:55:58.999Z</time></trkpt><trkpt lat="49.329663695540354" lon="0.9591492852142723"><ele>104.49999999999999</ele><time>2026-04-19T17:55:59.999Z</time></trkpt><trkpt lat="49.32971583543473" lon="0.959307965757189"><ele>104.0</ele><time>2026-04-19T17:56:01.999Z</time></trkpt><trkpt lat="49.329770894018644" lon="0.9594789758121882"><ele>102.80000000000001</ele><time>2026-04-19T17:56:03.999Z</time></trkpt><trkpt lat="49.32980421323479" lon="0.9595706667798063"><ele>101.60000000000001</ele><time>2026-04-19T17:56:04.999Z</time></trkpt><trkpt lat="49.32983671564132" lon="0.9596612736037942"><ele>100.4</ele><time>2026-04-19T17:56:05.999Z</time></trkpt><trkpt lat="49.329894909923844" lon="0.9597544311955133"><ele>99.2</ele><time>2026-04-19T17:56:06.999Z</time></trkpt><trkpt lat="49.32998437283895" lon="0.9599518607159646"><ele>98.0</ele><time>2026-04-19T17:56:08.999Z</time></trkpt><trkpt lat="49.330018370026615" lon="0.9600656487292071"><ele>97.66666666666666</ele><time>2026-04-19T17:56:09.999Z</time></trkpt><trkpt lat="49.330058178529576" lon="0.9601936489492923"><ele>97.33333333333333</ele><time>2026-04-19T17:56:10.999Z</time></trkpt><trkpt lat="49.33008637993602" lon="0.960312853488503"><ele>97.0</ele><time>2026-04-19T17:56:11.999Z</time></trkpt><trkpt lat="49.33011425498749" lon="0.9604243255899311"><ele>96.66666666666666</ele><time>2026-04-19T17:56:12.999Z</time></trkpt><trkpt lat="49.330151914164155" lon="0.960518046556783"><ele>96.33333333333333</ele><time>2026-04-19T17:56:13.999Z</time></trkpt><trkpt lat="49.33017863278935" lon="0.9606072251397081"><ele>96.0</ele><time>2026-04-19T17:56:14.999Z</time></trkpt><trkpt lat="49.33022642641004" lon="0.9606944831339044"><ele>96.0</ele><time>2026-04-19T17:56:15.999Z</time></trkpt><trkpt lat="49.33028056713944" lon="0.9608464365750663"><ele>96.0</ele><time>2026-04-19T17:56:17.999Z</time></trkpt><trkpt lat="49.33032743956703" lon="0.9610200291051612"><ele>96.0</ele><time>2026-04-19T17:56:19.999Z</time></trkpt><trkpt lat="49.330376179810436" lon="0.9610936698668192"><ele>96.0</ele><time>2026-04-19T17:56:20.999Z</time></trkpt><trkpt lat="49.33040953192738" lon="0.9611823066680546"><ele>96.0</ele><time>2026-04-19T17:56:21.999Z</time></trkpt><trkpt lat="49.330433398287965" lon="0.9612925122001378"><ele>96.0</ele><time>2026-04-19T17:56:22.999Z</time></trkpt><trkpt lat="49.33046041386734" lon="0.9613866929590208"><ele>94.19999999999999</ele><time>2026-04-19T17:56:23.998Z</time></trkpt><trkpt lat="49.330514750131755" lon="0.9615489740835803"><ele>92.39999999999999</ele><time>2026-04-19T17:56:25.998Z</time></trkpt><trkpt lat="49.330554551556425" lon="0.9616764762175116"><ele>90.6</ele><time>2026-04-19T17:56:28.998Z</time></trkpt><trkpt lat="49.33062886110131" lon="0.9617965843927275"><ele>88.8</ele><time>2026-04-19T17:56:31.998Z</time></trkpt><trkpt lat="49.3306548796584" lon="0.9619043143289074"><ele>87.0</ele><time>2026-04-19T17:56:33.998Z</time></trkpt><trkpt lat="49.33074909881302" lon="0.9623886089431671"><ele>84.0</ele><time>2026-04-19T17:56:36.998Z</time></trkpt><trkpt lat="49.33079686049047" lon="0.9624954327720643"><ele>81.0</ele><time>2026-04-19T17:56:38.998Z</time></trkpt><trkpt lat="49.330841156037074" lon="0.9625986704231717"><ele>78.0</ele><time>2026-04-19T17:56:40.998Z</time></trkpt><trkpt lat="49.33089119622172" lon="0.9626943868902481"><ele>75.0</ele><time>2026-04-19T17:56:42.998Z</time></trkpt><trkpt lat="49.330949940762366" lon="0.9628183958092462"><ele>72.0</ele><time>2026-04-19T17:56:44.998Z</time></trkpt><trkpt lat="49.33100292118347" lon="0.9629275340559948"><ele>69.0</ele><time>2026-04-19T17:56:46.998Z</time></trkpt><trkpt lat="49.331058428893726" lon="0.9630140017595339"><ele>68.75</ele><time>2026-04-19T17:56:48.998Z</time></trkpt><trkpt lat="49.3311562234957" lon="0.9630788074867562"><ele>68.5</ele><time>2026-04-19T17:56:50.998Z</time></trkpt><trkpt lat="49.33127470779671" lon="0.9631247789287368"><ele>68.25</ele><time>2026-04-19T17:56:52.998Z</time></trkpt><trkpt lat="49.33141081691573" lon="0.9630573131717135"><ele>68.0</ele><time>2026-04-19T17:56:54.998Z</time></trkpt><trkpt lat="49.33149354507879" lon="0.96304500209615"><ele>67.16666666666667</ele><time>2026-04-19T17:56:56.998Z</time></trkpt><trkpt lat="49.33160894768826" lon="0.9629765924189913"><ele>66.33333333333334</ele><time>2026-04-19T17:56:58.998Z</time></trkpt><trkpt lat="49.33166943753166" lon="0.9629497960708218"><ele>65.5</ele><time>2026-04-19T17:57:00Z</time></trkpt><trkpt lat="49.331737418990556" lon="0.963021684461567"><ele>64.66666666666667</ele><time>2026-04-19T17:57:02Z</time></trkpt><trkpt lat="49.33182507229578" lon="0.9631116352019116"><ele>63.833333333333336</ele><time>2026-04-19T17:57:04Z</time></trkpt><trkpt lat="49.33187416965848" lon="0.9631816371807973"><ele>63.0</ele><time>2026-04-19T17:57:05Z</time></trkpt><trkpt lat="49.33192112447543" lon="0.9632462487343089"><ele>63.0</ele><time>2026-04-19T17:57:06Z</time></trkpt><trkpt lat="49.33202177699139" lon="0.9632808415477455"><ele>63.0</ele><time>2026-04-19T17:57:08Z</time></trkpt><trkpt lat="49.33211460782194" lon="0.9632968893534162"><ele>63.0</ele><time>2026-04-19T17:57:11Z</time></trkpt><trkpt lat="49.33218881530064" lon="0.9632644027358994"><ele>63.0</ele><time>2026-04-19T17:57:12Z</time></trkpt><trkpt lat="49.33229262382879" lon="0.963320926939107"><ele>63.0</ele><time>2026-04-19T17:57:14Z</time></trkpt><trkpt lat="49.332382080699574" lon="0.963391842577521"><ele>62.333333333333336</ele><time>2026-04-19T17:57:16Z</time></trkpt><trkpt lat="49.33245040128945" lon="0.9634331569878913"><ele>61.66666666666667</ele><time>2026-04-19T17:57:19Z</time></trkpt><trkpt lat="49.33253779321026" lon="0.9633842128362546"><ele>61.0</ele><time>2026-04-19T17:57:23.999Z</time></trkpt><trkpt lat="49.332609337883504" lon="0.9633631996210474"><ele>60.333333333333336</ele><time>2026-04-19T17:57:27.999Z</time></trkpt><trkpt lat="49.33267051007236" lon="0.9633260650833697"><ele>59.66666666666667</ele><time>2026-04-19T17:57:30.999Z</time></trkpt><trkpt lat="49.33275327009716" lon="0.9632914159478991"><ele>59.0</ele><time>2026-04-19T17:57:32.999Z</time></trkpt><trkpt lat="49.33283001159652" lon="0.9632740400802724"><ele>59.00000000000001</ele><time>2026-04-19T17:57:37.999Z</time></trkpt><trkpt lat="49.33290130919603" lon="0.9632518836688561"><ele>59.0</ele><time>2026-04-19T17:58:15.999Z</time></trkpt><trkpt lat="49.332810175387316" lon="0.9633107576718675"><ele>59.0</ele><time>2026-04-19T17:59:13.999Z</time></trkpt><trkpt lat="49.33273556555587" lon="0.9633657125014045"><ele>59.0</ele><time>2026-04-19T17:59:16.999Z</time></trkpt><trkpt lat="49.33266895512483" lon="0.9634065873426367"><ele>59.00000000000001</ele><time>2026-04-19T17:59:18.999Z</time></trkpt><trkpt lat="49.33260241820685" lon="0.9634360054134249"><ele>59.0</ele><time>2026-04-19T17:59:20.999Z</time></trkpt><trkpt lat="49.33252710751187" lon="0.9634499732186977"><ele>59.0</ele><time>2026-04-19T17:59:22.999Z</time></trkpt><trkpt lat="49.33247433880862" lon="0.963384749668631"><ele>59.0</ele><time>2026-04-19T17:59:26.999Z</time></trkpt><trkpt lat="49.332531434109825" lon="0.9633396620190379"><ele>59.0</ele><time>2026-04-19T17:59:29.999Z</time></trkpt><trkpt lat="49.332604254659245" lon="0.963288402322398"><ele>59.0</ele><time>2026-04-19T17:59:31.999Z</time></trkpt><trkpt lat="49.33267287969846" lon="0.9632238189149744"><ele>59.0</ele><time>2026-04-19T17:59:33.999Z</time></trkpt><trkpt lat="49.33273819349733" lon="0.9631782363915483"><ele>59.0</ele><time>2026-04-19T17:59:36.999Z</time></trkpt><trkpt lat="49.33280257846466" lon="0.9631192903321928"><ele>59.0</ele><time>2026-04-19T17:59:38.999Z</time></trkpt><trkpt lat="49.33291442218892" lon="0.9630528422554334"><ele>58.333333333333336</ele><time>2026-04-19T17:59:41.999Z</time></trkpt><trkpt lat="49.33299819012965" lon="0.9630175194645343"><ele>57.66666666666667</ele><time>2026-04-19T17:59:43.999Z</time></trkpt><trkpt lat="49.333067786384106" lon="0.9630028711727615"><ele>57.0</ele><time>2026-04-19T17:59:45.999Z</time></trkpt><trkpt lat="49.3331333024637" lon="0.9629948875858465"><ele>56.33333333333333</ele><time>2026-04-19T18:00:24.998Z</time></trkpt><trkpt lat="49.333050397148824" lon="0.962989090495641"><ele>55.666666666666664</ele><time>2026-04-19T18:00:43.998Z</time></trkpt><trkpt lat="49.332980560745085" lon="0.9630323345237316"><ele>55.0</ele><time>2026-04-19T18:00:45.998Z</time></trkpt><trkpt lat="49.33290687249742" lon="0.9630795001592729"><ele>55.0</ele><time>2026-04-19T18:00:48.998Z</time></trkpt><trkpt lat="49.33282954439852" lon="0.9631527701480795"><ele>55.0</ele><time>2026-04-19T18:00:51.998Z</time></trkpt><trkpt lat="49.332771314030076" lon="0.9632068733527981"><ele>55.0</ele><time>2026-04-19T18:00:53.998Z</time></trkpt><trkpt lat="49.33269442824706" lon="0.9632544444337585"><ele>55.0</ele><time>2026-04-19T18:00:56.998Z</time></trkpt><trkpt lat="49.33261028348229" lon="0.9633152177625082"><ele>55.0</ele><time>2026-04-19T18:00:58.998Z</time></trkpt><trkpt lat="49.33249666095937" lon="0.9633640607720084"><ele>55.0</ele><time>2026-04-19T18:01:00.998Z</time></trkpt><trkpt lat="49.33238235563953" lon="0.9633664467895741"><ele>55.0</ele><time>2026-04-19T18:01:02.998Z</time></trkpt><trkpt lat="49.332307991358775" lon="0.9633547817963545"><ele>55.0</ele><time>2026-04-19T18:01:03.998Z</time></trkpt><trkpt lat="49.33222607075212" lon="0.9633554663958415"><ele>55.0</ele><time>2026-04-19T18:01:05.998Z</time></trkpt><trkpt lat="49.33211072996117" lon="0.9633733312555858"><ele>55.0</ele><time>2026-04-19T18:01:07.998Z</time></trkpt><trkpt lat="49.33199416558796" lon="0.9634180173302666"><ele>56.6</ele><time>2026-04-19T18:01:09.998Z</time></trkpt><trkpt lat="49.33192350063247" lon="0.9633530083863675"><ele>58.2</ele><time>2026-04-19T18:01:11.999Z</time></trkpt><trkpt lat="49.33186055799097" lon="0.9632662651426542"><ele>59.8</ele><time>2026-04-19T18:01:13.999Z</time></trkpt><trkpt lat="49.331781510747334" lon="0.963194859856416"><ele>61.4</ele><time>2026-04-19T18:01:15.999Z</time></trkpt><trkpt lat="49.33167956798905" lon="0.9632455850160287"><ele>63.0</ele><time>2026-04-19T18:01:17.999Z</time></trkpt><trkpt lat="49.33158184608078" lon="0.9633014005966359"><ele>63.0</ele><time>2026-04-19T18:01:19.999Z</time></trkpt><trkpt lat="49.33148034441176" lon="0.9633569639093251"><ele>63.0</ele><time>2026-04-19T18:01:21.999Z</time></trkpt><trkpt lat="49.331363944013944" lon="0.9633576925570746"><ele>63.0</ele><time>2026-04-19T18:01:23.999Z</time></trkpt><trkpt lat="49.3312895125006" lon="0.9633877204128173"><ele>63.0</ele><time>2026-04-19T18:01:25.999Z</time></trkpt><trkpt lat="49.331199115650485" lon="0.9633253620968125"><ele>63.0</ele><time>2026-04-19T18:01:27.999Z</time></trkpt><trkpt lat="49.33111790482506" lon="0.9633143576941077"><ele>63.0</ele><time>2026-04-19T18:01:29.999Z</time></trkpt><trkpt lat="49.33113322411426" lon="0.9632021540687349"><ele>63.0</ele><time>2026-04-19T18:01:31.999Z</time></trkpt><trkpt lat="49.33119309694593" lon="0.9630574901907266"><ele>63.0</ele><time>2026-04-19T18:01:33.999Z</time></trkpt><trkpt lat="49.33126498960002" lon="0.962968321197105"><ele>63.0</ele><time>2026-04-19T18:01:34.999Z</time></trkpt><trkpt lat="49.3313205655542" lon="0.9628874784523465"><ele>63.0</ele><time>2026-04-19T18:01:35.999Z</time></trkpt><trkpt lat="49.33140707479915" lon="0.9627600478133692"><ele>63.0</ele><time>2026-04-19T18:01:36.999Z</time></trkpt><trkpt lat="49.331439829919375" lon="0.9626329691789604"><ele>63.0</ele><time>2026-04-19T18:01:37.999Z</time></trkpt><trkpt lat="49.33146935760111" lon="0.9625286673462702"><ele>63.0</ele><time>2026-04-19T18:01:38.999Z</time></trkpt><trkpt lat="49.33148452006793" lon="0.962375087717451"><ele>63.0</ele><time>2026-04-19T18:01:40.999Z</time></trkpt><trkpt lat="49.33148891701925" lon="0.9622006207209195"><ele>63.0</ele><time>2026-04-19T18:01:42.999Z</time></trkpt><trkpt lat="49.331443383541526" lon="0.9620311718550324"><ele>62.5</ele><time>2026-04-19T18:01:43.999Z</time></trkpt><trkpt lat="49.331413938421704" lon="0.9619048953777358"><ele>62.0</ele><time>2026-04-19T18:01:44.999Z</time></trkpt><trkpt lat="49.33138059447048" lon="0.9618005315080401"><ele>61.5</ele><time>2026-04-19T18:01:45.999Z</time></trkpt><trkpt lat="49.331339644008594" lon="0.9617039495689134"><ele>61.0</ele><time>2026-04-19T18:01:46.999Z</time></trkpt><trkpt lat="49.33130066949323" lon="0.9616038468240357"><ele>60.5</ele><time>2026-04-19T18:01:47.999Z</time></trkpt><trkpt lat="49.331211035812714" lon="0.9615487202264185"><ele>60.0</ele><time>2026-04-19T18:01:49.999Z</time></trkpt><trkpt lat="49.33112860167921" lon="0.9615151920328043"><ele>63.4</ele><time>2026-04-19T18:01:50.999Z</time></trkpt><trkpt lat="49.331053224076875" lon="0.961472757333877"><ele>66.8</ele><time>2026-04-19T18:01:51.999Z</time></trkpt><trkpt lat="49.33097237764277" lon="0.9613877378878409"><ele>70.2</ele><time>2026-04-19T18:01:52.999Z</time></trkpt><trkpt lat="49.33089202058927" lon="0.9612853610325508"><ele>73.6</ele><time>2026-04-19T18:01:53.999Z</time></trkpt><trkpt lat="49.330818342473925" lon="0.9612156569661319"><ele>77.0</ele><time>2026-04-19T18:01:54.999Z</time></trkpt><trkpt lat="49.33074607328171" lon="0.9611255936097601"><ele>77.0</ele><time>2026-04-19T18:01:55.999Z</time></trkpt><trkpt lat="49.33066566489826" lon="0.9609891822326393"><ele>77.0</ele><time>2026-04-19T18:01:56.999Z</time></trkpt><trkpt lat="49.330587368504666" lon="0.9608446565709785"><ele>77.0</ele><time>2026-04-19T18:01:57.999Z</time></trkpt><trkpt lat="49.33050030816185" lon="0.960689913448013"><ele>77.0</ele><time>2026-04-19T18:01:58.999Z</time></trkpt><trkpt lat="49.33042404085318" lon="0.96052336993664"><ele>80.8</ele><time>2026-04-19T18:01:59.999Z</time></trkpt><trkpt lat="49.33036331268421" lon="0.9603704256547427"><ele>84.6</ele><time>2026-04-19T18:02:00.999Z</time></trkpt><trkpt lat="49.33031323351865" lon="0.9602573474893327"><ele>88.39999999999999</ele><time>2026-04-19T18:02:01.999Z</time></trkpt><trkpt lat="49.33027222399353" lon="0.9601332980259958"><ele>92.2</ele><time>2026-04-19T18:02:02.999Z</time></trkpt><trkpt lat="49.33024407146635" lon="0.9600239462733784"><ele>96.0</ele><time>2026-04-19T18:02:03.999Z</time></trkpt><trkpt lat="49.330187431906" lon="0.9598097869134845"><ele>96.4</ele><time>2026-04-19T18:02:04.999Z</time></trkpt><trkpt lat="49.33017185173476" lon="0.9596362993115392"><ele>96.8</ele><time>2026-04-19T18:02:05.999Z</time></trkpt><trkpt lat="49.330157141516224" lon="0.9594621577640134"><ele>97.2</ele><time>2026-04-19T18:02:06.999Z</time></trkpt><trkpt lat="49.330148778573964" lon="0.9593359266201368"><ele>97.60000000000001</ele><time>2026-04-19T18:02:07.999Z</time></trkpt><trkpt lat="49.33014258297259" lon="0.9591941906931781"><ele>98.0</ele><time>2026-04-19T18:02:08.999Z</time></trkpt><trkpt lat="49.33013780957189" lon="0.9590106128232444"><ele>98.0</ele><time>2026-04-19T18:02:09.999Z</time></trkpt><trkpt lat="49.33013555307858" lon="0.9587455497002759"><ele>98.0</ele><time>2026-04-19T18:02:10.999Z</time></trkpt><trkpt lat="49.33012223421552" lon="0.9585280187601609"><ele>98.0</ele><time>2026-04-19T18:02:11.999Z</time></trkpt><trkpt lat="49.3301124546803" lon="0.9583467561626875"><ele>98.0</ele><time>2026-04-19T18:02:12.999Z</time></trkpt><trkpt lat="49.330123167859405" lon="0.9581335307326305"><ele>98.60000000000001</ele><time>2026-04-19T18:02:13.999Z</time></trkpt><trkpt lat="49.3301144786771" lon="0.9579694603897291"><ele>99.2</ele><time>2026-04-19T18:02:14.999Z</time></trkpt><trkpt lat="49.33010993108871" lon="0.9578655831380175"><ele>99.8</ele><time>2026-04-19T18:02:15.999Z</time></trkpt><trkpt lat="49.33018636188128" lon="0.9577612743848343"><ele>100.4</ele><time>2026-04-19T18:02:17.999Z</time></trkpt><trkpt lat="49.33023227416773" lon="0.9575523083099794"><ele>101.0</ele><time>2026-04-19T18:02:19.999Z</time></trkpt><trkpt lat="49.33024512687823" lon="0.9573877985767475"><ele>101.0</ele><time>2026-04-19T18:02:20.999Z</time></trkpt><trkpt lat="49.330285214801684" lon="0.9572537498754274"><ele>101.0</ele><time>2026-04-19T18:02:21.999Z</time></trkpt><trkpt lat="49.33029267269336" lon="0.9571388487958273"><ele>101.0</ele><time>2026-04-19T18:02:22.998Z</time></trkpt><trkpt lat="49.330336945453425" lon="0.957001905790207"><ele>101.0</ele><time>2026-04-19T18:02:23.998Z</time></trkpt><trkpt lat="49.33038883936012" lon="0.9568507836473343"><ele>101.0</ele><time>2026-04-19T18:02:24.998Z</time></trkpt><trkpt lat="49.33045286266694" lon="0.9566892839463825"><ele>101.16666666666666</ele><time>2026-04-19T18:02:25.998Z</time></trkpt><trkpt lat="49.33049589599572" lon="0.956571772439813"><ele>101.33333333333333</ele><time>2026-04-19T18:02:26.998Z</time></trkpt><trkpt lat="49.33049469161554" lon="0.9564448614991992"><ele>101.5</ele><time>2026-04-19T18:02:28.998Z</time></trkpt><trkpt lat="49.330499687388084" lon="0.9563257822676138"><ele>101.66666666666666</ele><time>2026-04-19T18:02:30.998Z</time></trkpt><trkpt lat="49.33039939186675" lon="0.9563134347140171"><ele>101.83333333333333</ele><time>2026-04-19T18:02:33.998Z</time></trkpt><trkpt lat="49.33031001533212" lon="0.956284697555941"><ele>102.0</ele><time>2026-04-19T18:02:34.998Z</time></trkpt><trkpt lat="49.33021233310545" lon="0.9562446809670511"><ele>102.0</ele><time>2026-04-19T18:02:35.998Z</time></trkpt><trkpt lat="49.33012387159492" lon="0.9562178563366174"><ele>102.0</ele><time>2026-04-19T18:02:36.998Z</time></trkpt><trkpt lat="49.330046107303495" lon="0.9561577749710383"><ele>102.0</ele><time>2026-04-19T18:02:37.998Z</time></trkpt><trkpt lat="49.329956387480074" lon="0.9561315034449526"><ele>102.0</ele><time>2026-04-19T18:02:38.998Z</time></trkpt><trkpt lat="49.329866010768896" lon="0.9560977319376084"><ele>102.0</ele><time>2026-04-19T18:02:39.998Z</time></trkpt><trkpt lat="49.329763603741505" lon="0.9560682103395424"><ele>103.8</ele><time>2026-04-19T18:02:40.998Z</time></trkpt><trkpt lat="49.32968442863157" lon="0.9560386200178337"><ele>105.6</ele><time>2026-04-19T18:02:41.998Z</time></trkpt><trkpt lat="49.32954344607742" lon="0.9559953166794671"><ele>107.39999999999999</ele><time>2026-04-19T18:02:43.998Z</time></trkpt><trkpt lat="49.329451214611865" lon="0.9559822176789423"><ele>109.19999999999999</ele><time>2026-04-19T18:02:44.998Z</time></trkpt><trkpt lat="49.32937863192277" lon="0.9559566392578638"><ele>111.0</ele><time>2026-04-19T18:02:45.998Z</time></trkpt><trkpt lat="49.32928596788315" lon="0.9559505923282047"><ele>111.0</ele><time>2026-04-19T18:02:47.998Z</time></trkpt><trkpt lat="49.32921359137692" lon="0.955887241175011"><ele>111.0</ele><time>2026-04-19T18:02:49.998Z</time></trkpt><trkpt lat="49.32922964947662" lon="0.9557464219619493"><ele>111.0</ele><time>2026-04-19T18:02:51.998Z</time></trkpt><trkpt lat="49.3292487527844" lon="0.9556092220084952"><ele>111.0</ele><time>2026-04-19T18:02:52.998Z</time></trkpt><trkpt lat="49.329273820436626" lon="0.9554124483495031"><ele>111.0</ele><time>2026-04-19T18:02:53.998Z</time></trkpt><trkpt lat="49.329304279583376" lon="0.955219319059588"><ele>115.0</ele><time>2026-04-19T18:02:54.998Z</time></trkpt><trkpt lat="49.32932730689493" lon="0.9550191341652016"><ele>119.0</ele><time>2026-04-19T18:02:55.998Z</time></trkpt><trkpt lat="49.32935623852554" lon="0.9548069554430193"><ele>123.0</ele><time>2026-04-19T18:02:56.998Z</time></trkpt><trkpt lat="49.32938161501155" lon="0.9545532016262515"><ele>127.0</ele><time>2026-04-19T18:02:57.998Z</time></trkpt><trkpt lat="49.32942608745464" lon="0.9542732072597385"><ele>127.33333333333334</ele><time>2026-04-19T18:02:58.998Z</time></trkpt><trkpt lat="49.32945607426967" lon="0.954008026890784"><ele>127.66666666666666</ele><time>2026-04-19T18:02:59.998Z</time></trkpt><trkpt lat="49.3294849671714" lon="0.9537541720664612"><ele>128.0</ele><time>2026-04-19T18:03:00.998Z</time></trkpt><trkpt lat="49.329513108767635" lon="0.9535030500842618"><ele>127.0</ele><time>2026-04-19T18:03:01.998Z</time></trkpt><trkpt lat="49.329547816793614" lon="0.9533020884825372"><ele>126.0</ele><time>2026-04-19T18:03:02.998Z</time></trkpt><trkpt lat="49.32958095119259" lon="0.9531019806064747"><ele>125.0</ele><time>2026-04-19T18:03:03.998Z</time></trkpt><trkpt lat="49.3296041560091" lon="0.9529219685587678"><ele>124.0</ele><time>2026-04-19T18:03:04.998Z</time></trkpt><trkpt lat="49.32962744712146" lon="0.9527486840328114"><ele>124.0</ele><time>2026-04-19T18:03:05.998Z</time></trkpt><trkpt lat="49.329654704710336" lon="0.9525657185140398"><ele>124.0</ele><time>2026-04-19T18:03:06.998Z</time></trkpt><trkpt lat="49.329681277606404" lon="0.9523933998284008"><ele>124.0</ele><time>2026-04-19T18:03:07.998Z</time></trkpt><trkpt lat="49.32970989887172" lon="0.9522354336103062"><ele>124.0</ele><time>2026-04-19T18:03:08.998Z</time></trkpt><trkpt lat="49.329734614980595" lon="0.9520910791912727"><ele>124.0</ele><time>2026-04-19T18:03:09.998Z</time></trkpt><trkpt lat="49.32975333935054" lon="0.9519271460505456"><ele>122.83333333333334</ele><time>2026-04-19T18:03:11.998Z</time></trkpt><trkpt lat="49.32976247981312" lon="0.9518095324336812"><ele>121.66666666666667</ele><time>2026-04-19T18:03:13.998Z</time></trkpt><trkpt lat="49.32978204236745" lon="0.9517161162561258"><ele>120.5</ele><time>2026-04-19T18:03:16.998Z</time></trkpt><trkpt lat="49.329788873730514" lon="0.951600568030857"><ele>119.33333333333334</ele><time>2026-04-19T18:03:19.999Z</time></trkpt><trkpt lat="49.32985397215757" lon="0.9515075632972109"><ele>118.16666666666667</ele><time>2026-04-19T18:03:22.999Z</time></trkpt><trkpt lat="49.32988136109826" lon="0.9514071033722639"><ele>117.0</ele><time>2026-04-19T18:03:25.999Z</time></trkpt><trkpt lat="49.32985858667686" lon="0.9512798333917983"><ele>115.6</ele><time>2026-04-19T18:03:29.999Z</time></trkpt><trkpt lat="49.32984323964557" lon="0.9511855239832742"><ele>114.19999999999999</ele><time>2026-04-19T18:04:07Z</time></trkpt><trkpt lat="49.329913922398674" lon="0.9512268678332443"><ele>112.8</ele><time>2026-04-19T18:05:08.999Z</time></trkpt><trkpt lat="49.32996297824604" lon="0.9513130206927165"><ele>111.4</ele><time>2026-04-19T18:05:10.999Z</time></trkpt><trkpt lat="49.33007506022097" lon="0.951410536531537"><ele>110.0</ele><time>2026-04-19T18:05:12.999Z</time></trkpt><trkpt lat="49.33012653559297" lon="0.9515606663670589"><ele>109.99999999999999</ele><time>2026-04-19T18:05:13.999Z</time></trkpt><trkpt lat="49.330194425171015" lon="0.9516424502853155"><ele>110.0</ele><time>2026-04-19T18:05:14.999Z</time></trkpt><trkpt lat="49.330258616117646" lon="0.9517197786545891"><ele>110.0</ele><time>2026-04-19T18:05:15.999Z</time></trkpt><trkpt lat="49.33032028590873" lon="0.9517940698297146"><ele>110.0</ele><time>2026-04-19T18:05:16.999Z</time></trkpt><trkpt lat="49.33038267212462" lon="0.9518680910145036"><ele>109.99999999999999</ele><time>2026-04-19T18:05:17.999Z</time></trkpt><trkpt lat="49.3304658230536" lon="0.9519663603191854"><ele>110.0</ele><time>2026-04-19T18:05:18.999Z</time></trkpt><trkpt lat="49.33058314182885" lon="0.9521050097865841"><ele>110.25</ele><time>2026-04-19T18:05:19.999Z</time></trkpt><trkpt lat="49.33071570273381" lon="0.9522606190497533"><ele>110.5</ele><time>2026-04-19T18:05:20.999Z</time></trkpt><trkpt lat="49.330830132417844" lon="0.9523949389790837"><ele>110.75</ele><time>2026-04-19T18:05:21.999Z</time></trkpt><trkpt lat="49.3309334277557" lon="0.9525161891846337"><ele>111.0</ele><time>2026-04-19T18:05:22.999Z</time></trkpt><trkpt lat="49.33103179392192" lon="0.9526315542836896"><ele>111.0</ele><time>2026-04-19T18:05:24Z</time></trkpt><trkpt lat="49.33113732411997" lon="0.9527288356840835"><ele>111.0</ele><time>2026-04-19T18:05:25Z</time></trkpt><trkpt lat="49.33122733460629" lon="0.9528581511567542"><ele>111.0</ele><time>2026-04-19T18:05:26Z</time></trkpt><trkpt lat="49.331314012303004" lon="0.9529757566126547"><ele>111.0</ele><time>2026-04-19T18:05:27Z</time></trkpt><trkpt lat="49.33139582712002" lon="0.9530815664152924"><ele>108.19999999999999</ele><time>2026-04-19T18:05:28Z</time></trkpt><trkpt lat="49.331477016399944" lon="0.953174758985817"><ele>105.39999999999999</ele><time>2026-04-19T18:05:29Z</time></trkpt><trkpt lat="49.3315553746664" lon="0.9532659635678198"><ele>102.6</ele><time>2026-04-19T18:05:30Z</time></trkpt><trkpt lat="49.33163493405389" lon="0.9533548752828521"><ele>99.8</ele><time>2026-04-19T18:05:31Z</time></trkpt><trkpt lat="49.3317251574669" lon="0.953442477786516"><ele>97.0</ele><time>2026-04-19T18:05:32Z</time></trkpt><trkpt lat="49.33179421351905" lon="0.9535492234082134"><ele>97.00000000000001</ele><time>2026-04-19T18:05:33Z</time></trkpt><trkpt lat="49.33187297631886" lon="0.9536328760799925"><ele>97.0</ele><time>2026-04-19T18:05:34Z</time></trkpt><trkpt lat="49.33194843766534" lon="0.9537063130386125"><ele>97.0</ele><time>2026-04-19T18:05:35Z</time></trkpt><trkpt lat="49.33202251341075" lon="0.9537716093728786"><ele>97.0</ele><time>2026-04-19T18:05:36Z</time></trkpt><trkpt lat="49.332094453500275" lon="0.953842259982328"><ele>97.00000000000001</ele><time>2026-04-19T18:05:37Z</time></trkpt><trkpt lat="49.332151515530015" lon="0.9539399575837633"><ele>97.0</ele><time>2026-04-19T18:05:38Z</time></trkpt><trkpt lat="49.33221850060904" lon="0.9540181165987576"><ele>92.83333333333334</ele><time>2026-04-19T18:05:39Z</time></trkpt><trkpt lat="49.33228934136807" lon="0.9540974795793528"><ele>88.66666666666667</ele><time>2026-04-19T18:05:40Z</time></trkpt><trkpt lat="49.33235522487458" lon="0.9541624976166425"><ele>84.5</ele><time>2026-04-19T18:05:41Z</time></trkpt><trkpt lat="49.33242147321346" lon="0.9542298030218402"><ele>80.33333333333334</ele><time>2026-04-19T18:05:42Z</time></trkpt><trkpt lat="49.33248319161597" lon="0.9542995088177566"><ele>76.16666666666667</ele><time>2026-04-19T18:05:43Z</time></trkpt><trkpt lat="49.33253561908335" lon="0.95436760055957"><ele>72.0</ele><time>2026-04-19T18:05:44Z</time></trkpt><trkpt lat="49.33258261685129" lon="0.9544338246398034"><ele>71.8</ele><time>2026-04-19T18:05:45Z</time></trkpt><trkpt lat="49.33265838665325" lon="0.9545382784400764"><ele>71.6</ele><time>2026-04-19T18:05:47Z</time></trkpt><trkpt lat="49.33273885555633" lon="0.954653083994689"><ele>71.39999999999999</ele><time>2026-04-19T18:05:49Z</time></trkpt><trkpt lat="49.33282481136593" lon="0.9547585357129864"><ele>71.2</ele><time>2026-04-19T18:05:51Z</time></trkpt><trkpt lat="49.33286953434154" lon="0.9548730285115846"><ele>71.0</ele><time>2026-04-19T18:05:53Z</time></trkpt><trkpt lat="49.33291714351347" lon="0.9550099137013075"><ele>67.75</ele><time>2026-04-19T18:05:55Z</time></trkpt><trkpt lat="49.33287515108927" lon="0.9552139049383215"><ele>64.5</ele><time>2026-04-19T18:05:57Z</time></trkpt><trkpt lat="49.3328132189824" lon="0.9553543721917647"><ele>61.25</ele><time>2026-04-19T18:05:58Z</time></trkpt><trkpt lat="49.3327679030332" lon="0.9555442274824844"><ele>58.0</ele><time>2026-04-19T18:05:59Z</time></trkpt><trkpt lat="49.33275098746262" lon="0.9557054671099661"><ele>58.0</ele><time>2026-04-19T18:06:00Z</time></trkpt><trkpt lat="49.33275215888206" lon="0.9558599444489388"><ele>58.0</ele><time>2026-04-19T18:06:01Z</time></trkpt><trkpt lat="49.33277802242851" lon="0.9560014052038952"><ele>58.0</ele><time>2026-04-19T18:06:02Z</time></trkpt><trkpt lat="49.332841591357145" lon="0.9561238975119043"><ele>58.0</ele><time>2026-04-19T18:06:03Z</time></trkpt><trkpt lat="49.332945987908005" lon="0.9561775640652704"><ele>58.0</ele><time>2026-04-19T18:06:04Z</time></trkpt><trkpt lat="49.33306134631305" lon="0.9561115478668492"><ele>56.0</ele><time>2026-04-19T18:06:05Z</time></trkpt><trkpt lat="49.333171703219875" lon="0.9560868914849783"><ele>54.0</ele><time>2026-04-19T18:06:06Z</time></trkpt><trkpt lat="49.33327237106812" lon="0.956054548533997"><ele>52.0</ele><time>2026-04-19T18:06:07Z</time></trkpt><trkpt lat="49.333371051834256" lon="0.9560452527726595"><ele>50.0</ele><time>2026-04-19T18:06:08Z</time></trkpt><trkpt lat="49.333458375894274" lon="0.956053821560607"><ele>48.0</ele><time>2026-04-19T18:06:09Z</time></trkpt><trkpt lat="49.33358261356297" lon="0.956095576683101"><ele>48.0</ele><time>2026-04-19T18:06:11Z</time></trkpt><trkpt lat="49.33364373691978" lon="0.9561508084732943"><ele>48.0</ele><time>2026-04-19T18:06:12Z</time></trkpt><trkpt lat="49.3336843418892" lon="0.9562376045049482"><ele>48.0</ele><time>2026-04-19T18:06:13Z</time></trkpt><trkpt lat="49.33372634142344" lon="0.9563307898698801"><ele>48.0</ele><time>2026-04-19T18:06:16Z</time></trkpt><trkpt lat="49.33378260222125" lon="0.9563938267530885"><ele>48.0</ele><time>2026-04-19T18:06:17Z</time></trkpt><trkpt lat="49.33379109465715" lon="0.9565248321208334"><ele>48.0</ele><time>2026-04-19T18:06:18Z</time></trkpt><trkpt lat="49.33345120209487" lon="0.956735922864069"><ele>47.0</ele><time>2026-04-19T18:06:19Z</time></trkpt><trkpt lat="49.33334612775087" lon="0.956944610626177"><ele>46.0</ele><time>2026-04-19T18:06:20Z</time></trkpt><trkpt lat="49.333218443431335" lon="0.9571651802221708"><ele>45.0</ele><time>2026-04-19T18:06:21Z</time></trkpt><trkpt lat="49.333077106800054" lon="0.9574169895342056"><ele>45.0</ele><time>2026-04-19T18:06:22Z</time></trkpt><trkpt lat="49.332945084280205" lon="0.9576359142359293"><ele>45.0</ele><time>2026-04-19T18:06:23Z</time></trkpt><trkpt lat="49.33283277338845" lon="0.9578293429954037"><ele>45.0</ele><time>2026-04-19T18:06:24Z</time></trkpt><trkpt lat="49.33275779635498" lon="0.9579913624276027"><ele>45.0</ele><time>2026-04-19T18:06:25Z</time></trkpt><trkpt lat="49.33268868769299" lon="0.9581655585953959"><ele>45.0</ele><time>2026-04-19T18:06:26Z</time></trkpt><trkpt lat="49.332627731720955" lon="0.9583237144691944"><ele>45.0</ele><time>2026-04-19T18:06:27Z</time></trkpt><trkpt lat="49.332575852798435" lon="0.9584768762780519"><ele>45.0</ele><time>2026-04-19T18:06:28Z</time></trkpt><trkpt lat="49.33252194678786" lon="0.9586415359856625"><ele>44.0</ele><time>2026-04-19T18:06:29Z</time></trkpt><trkpt lat="49.33245517091995" lon="0.9588559307375782"><ele>43.0</ele><time>2026-04-19T18:06:30Z</time></trkpt><trkpt lat="49.332385590424465" lon="0.9590706434506878"><ele>42.0</ele><time>2026-04-19T18:06:31Z</time></trkpt><trkpt lat="49.33232911041493" lon="0.9592590934601944"><ele>41.0</ele><time>2026-04-19T18:06:32Z</time></trkpt><trkpt lat="49.33226631117848" lon="0.959474859259387"><ele>43.0</ele><time>2026-04-19T18:06:33Z</time></trkpt><trkpt lat="49.332217277466476" lon="0.9596840827372396"><ele>45.0</ele><time>2026-04-19T18:06:34Z</time></trkpt><trkpt lat="49.33217850106669" lon="0.9598900019171337"><ele>47.0</ele><time>2026-04-19T18:06:35Z</time></trkpt><trkpt lat="49.33214359273516" lon="0.9600712889438445"><ele>49.0</ele><time>2026-04-19T18:06:36Z</time></trkpt><trkpt lat="49.33211181858222" lon="0.960264791157782"><ele>50.5</ele><time>2026-04-19T18:06:37Z</time></trkpt><trkpt lat="49.33208987165096" lon="0.9604499709390326"><ele>52.0</ele><time>2026-04-19T18:06:37.999Z</time></trkpt><trkpt lat="49.33206579247405" lon="0.9606257858392822"><ele>53.5</ele><time>2026-04-19T18:06:38.999Z</time></trkpt><trkpt lat="49.332051077327144" lon="0.9608032608813495"><ele>55.0</ele><time>2026-04-19T18:06:39.999Z</time></trkpt><trkpt lat="49.332041657303186" lon="0.9609918910135438"><ele>56.0</ele><time>2026-04-19T18:06:40.999Z</time></trkpt><trkpt lat="49.33202696559139" lon="0.9612076664844839"><ele>57.0</ele><time>2026-04-19T18:06:41.999Z</time></trkpt><trkpt lat="49.332016329776195" lon="0.9614365353504384"><ele>58.0</ele><time>2026-04-19T18:06:42.999Z</time></trkpt><trkpt lat="49.332008123049604" lon="0.9616863744899243"><ele>58.666666666666664</ele><time>2026-04-19T18:06:43.999Z</time></trkpt><trkpt lat="49.332004664805744" lon="0.9619457899423289"><ele>59.33333333333333</ele><time>2026-04-19T18:06:44.999Z</time></trkpt><trkpt lat="49.332007581527265" lon="0.9621788333255021"><ele>60.0</ele><time>2026-04-19T18:06:45.999Z</time></trkpt><trkpt lat="49.33201051793574" lon="0.9623901083187052"><ele>61.0</ele><time>2026-04-19T18:06:46.999Z</time></trkpt><trkpt lat="49.33200080779189" lon="0.9626120120313674"><ele>62.0</ele><time>2026-04-19T18:06:47.999Z</time></trkpt><trkpt lat="49.33201830158193" lon="0.9628569348869395"><ele>63.0</ele><time>2026-04-19T18:06:48.999Z</time></trkpt><trkpt lat="49.332052266100476" lon="0.9630965649273023"><ele>63.0</ele><time>2026-04-19T18:06:49.999Z</time></trkpt><trkpt lat="49.33207583856412" lon="0.9632947660660717"><ele>63.0</ele><time>2026-04-19T18:06:50.999Z</time></trkpt><trkpt lat="49.33210050186108" lon="0.9634649140283619"><ele>63.0</ele><time>2026-04-19T18:06:51.999Z</time></trkpt><trkpt lat="49.33213543403888" lon="0.9636426188572624"><ele>63.0</ele><time>2026-04-19T18:06:52.999Z</time></trkpt><trkpt lat="49.33217307702263" lon="0.9638548362703909"><ele>62.66666666666667</ele><time>2026-04-19T18:06:53.999Z</time></trkpt><trkpt lat="49.33222078577271" lon="0.9640852408281572"><ele>62.333333333333336</ele><time>2026-04-19T18:06:54.999Z</time></trkpt><trkpt lat="49.33227814813089" lon="0.9643216005121731"><ele>62.0</ele><time>2026-04-19T18:06:55.999Z</time></trkpt><trkpt lat="49.332335362913874" lon="0.9645600133944036"><ele>62.0</ele><time>2026-04-19T18:06:56.999Z</time></trkpt><trkpt lat="49.33238949663551" lon="0.9648151663020008"><ele>62.0</ele><time>2026-04-19T18:06:57.999Z</time></trkpt><trkpt lat="49.33245916790021" lon="0.9650780420932558"><ele>62.0</ele><time>2026-04-19T18:06:58.999Z</time></trkpt><trkpt lat="49.33253564477982" lon="0.965328763956872"><ele>63.333333333333336</ele><time>2026-04-19T18:06:59.999Z</time></trkpt><trkpt lat="49.33259936734859" lon="0.9655914341200719"><ele>64.66666666666667</ele><time>2026-04-19T18:07:00.999Z</time></trkpt><trkpt lat="49.3326597179725" lon="0.965885696363227"><ele>66.0</ele><time>2026-04-19T18:07:01.999Z</time></trkpt><trkpt lat="49.33273094107596" lon="0.9662017073684972"><ele>66.0</ele><time>2026-04-19T18:07:02.999Z</time></trkpt><trkpt lat="49.332780156910644" lon="0.9665905550685177"><ele>66.0</ele><time>2026-04-19T18:07:03.999Z</time></trkpt><trkpt lat="49.33286501643149" lon="0.9669537701804799"><ele>65.33333333333333</ele><time>2026-04-19T18:07:04.999Z</time></trkpt><trkpt lat="49.33291012637516" lon="0.9672722135547268"><ele>64.66666666666666</ele><time>2026-04-19T18:07:05.999Z</time></trkpt><trkpt lat="49.33291592074125" lon="0.9675709613585461"><ele>64.0</ele><time>2026-04-19T18:07:06.999Z</time></trkpt><trkpt lat="49.332930500290914" lon="0.9678161808934999"><ele>64.0</ele><time>2026-04-19T18:07:07.999Z</time></trkpt><trkpt lat="49.33295454571587" lon="0.9681541558364404"><ele>64.0</ele><time>2026-04-19T18:07:09.999Z</time></trkpt><trkpt lat="49.33295430206033" lon="0.9682572402514501"><ele>64.0</ele><time>2026-04-19T18:07:10.999Z</time></trkpt><trkpt lat="49.332956296894245" lon="0.9683946597026121"><ele>64.0</ele><time>2026-04-19T18:07:11.999Z</time></trkpt><trkpt lat="49.33294288610354" lon="0.9685092714435136"><ele>63.49999999999999</ele><time>2026-04-19T18:07:12.999Z</time></trkpt><trkpt lat="49.33294371490056" lon="0.968622754521007"><ele>63.0</ele><time>2026-04-19T18:07:13.999Z</time></trkpt><trkpt lat="49.33292598556549" lon="0.9687435620719256"><ele>62.5</ele><time>2026-04-19T18:07:14.999Z</time></trkpt><trkpt lat="49.332901921897296" lon="0.9688785358853726"><ele>62.0</ele><time>2026-04-19T18:07:15.999Z</time></trkpt><trkpt lat="49.332856047406075" lon="0.9690548930112242"><ele>61.49999999999999</ele><time>2026-04-19T18:07:17.999Z</time></trkpt><trkpt lat="49.33282808156619" lon="0.9691515052542976"><ele>61.0</ele><time>2026-04-19T18:07:18.999Z</time></trkpt><trkpt lat="49.33281857098559" lon="0.9692676350184312"><ele>60.33333333333333</ele><time>2026-04-19T18:07:19.999Z</time></trkpt><trkpt lat="49.33280524548199" lon="0.9694037040687383"><ele>59.666666666666664</ele><time>2026-04-19T18:07:20.999Z</time></trkpt><trkpt lat="49.3328124185912" lon="0.9695244370436408"><ele>59.0</ele><time>2026-04-19T18:07:21.999Z</time></trkpt><trkpt lat="49.33281458442057" lon="0.9696432573800586"><ele>58.33333333333333</ele><time>2026-04-19T18:07:22.999Z</time></trkpt><trkpt lat="49.332844514920595" lon="0.9697508438054648"><ele>57.666666666666664</ele><time>2026-04-19T18:07:23.999Z</time></trkpt><trkpt lat="49.332852713404066" lon="0.9698733935884772"><ele>57.0</ele><time>2026-04-19T18:07:24.999Z</time></trkpt><trkpt lat="49.33286124544589" lon="0.9699994716946219"><ele>56.166666666666664</ele><time>2026-04-19T18:07:25.999Z</time></trkpt><trkpt lat="49.332856963853295" lon="0.9701090868550046"><ele>55.33333333333333</ele><time>2026-04-19T18:07:26.999Z</time></trkpt><trkpt lat="49.332839529827275" lon="0.9702362820040636"><ele>54.5</ele><time>2026-04-19T18:07:27.999Z</time></trkpt><trkpt lat="49.332829203185675" lon="0.9703411784762431"><ele>53.666666666666664</ele><time>2026-04-19T18:07:28.999Z</time></trkpt><trkpt lat="49.332813155326775" lon="0.9704452722844502"><ele>52.83333333333333</ele><time>2026-04-19T18:07:30.001Z</time></trkpt><trkpt lat="49.332768723321855" lon="0.9705894330590841"><ele>52.0</ele><time>2026-04-19T18:07:31.001Z</time></trkpt><trkpt lat="49.33273315814112" lon="0.9707113129014439"><ele>52.0</ele><time>2026-04-19T18:07:32.001Z</time></trkpt><trkpt lat="49.33269872929824" lon="0.9708025904276307"><ele>52.0</ele><time>2026-04-19T18:07:33.001Z</time></trkpt><trkpt lat="49.3326328170701" lon="0.9709100149713198"><ele>52.0</ele><time>2026-04-19T18:07:35.001Z</time></trkpt><trkpt lat="49.33255446802979" lon="0.9710682802404685"><ele>52.0</ele><time>2026-04-19T18:07:37.001Z</time></trkpt><trkpt lat="49.33251312255199" lon="0.9711896563387482"><ele>52.0</ele><time>2026-04-19T18:07:38.001Z</time></trkpt><trkpt lat="49.33245659477963" lon="0.9713391809488092"><ele>50.8</ele><time>2026-04-19T18:07:39.001Z</time></trkpt><trkpt lat="49.33239745427172" lon="0.9714744138447898"><ele>49.6</ele><time>2026-04-19T18:07:40.001Z</time></trkpt><trkpt lat="49.332344349168395" lon="0.971591281839236"><ele>48.4</ele><time>2026-04-19T18:07:41.001Z</time></trkpt><trkpt lat="49.332291916032425" lon="0.971704378209677"><ele>47.199999999999996</ele><time>2026-04-19T18:07:42.001Z</time></trkpt><trkpt lat="49.33224083723521" lon="0.9718247522705873"><ele>46.0</ele><time>2026-04-19T18:07:43.001Z</time></trkpt><trkpt lat="49.33219375109345" lon="0.9719135469111366"><ele>45.285714285714285</ele><time>2026-04-19T18:07:44.001Z</time></trkpt><trkpt lat="49.33216022861452" lon="0.9720023025347688"><ele>44.57142857142857</ele><time>2026-04-19T18:07:45.001Z</time></trkpt><trkpt lat="49.3321080868016" lon="0.972103399052638"><ele>43.857142857142854</ele><time>2026-04-19T18:07:46.001Z</time></trkpt><trkpt lat="49.33206339960333" lon="0.972172395792855"><ele>43.14285714285714</ele><time>2026-04-19T18:07:47Z</time></trkpt><trkpt lat="49.33203555745128" lon="0.9722759262802355"><ele>42.42857142857143</ele><time>2026-04-19T18:07:48Z</time></trkpt><trkpt lat="49.3319904624174" lon="0.9723737376229429"><ele>41.71428571428571</ele><time>2026-04-19T18:07:49Z</time></trkpt><trkpt lat="49.33193928040546" lon="0.9724680620864761"><ele>41.0</ele><time>2026-04-19T18:07:50Z</time></trkpt><trkpt lat="49.33188231912381" lon="0.9725712261645928"><ele>39.666666666666664</ele><time>2026-04-19T18:07:51Z</time></trkpt><trkpt lat="49.331803784785045" lon="0.9726540422542398"><ele>38.33333333333333</ele><time>2026-04-19T18:07:52Z</time></trkpt><trkpt lat="49.33174400855246" lon="0.9727354920911084"><ele>37.0</ele><time>2026-04-19T18:07:53Z</time></trkpt><trkpt lat="49.331671771437925" lon="0.9728183523485353"><ele>35.666666666666664</ele><time>2026-04-19T18:07:54Z</time></trkpt><trkpt lat="49.331606769113094" lon="0.9728718429985032"><ele>34.333333333333336</ele><time>2026-04-19T18:07:55Z</time></trkpt><trkpt lat="49.33154952152604" lon="0.9729184527224577"><ele>33.0</ele><time>2026-04-19T18:07:56Z</time></trkpt><trkpt lat="49.33145985177816" lon="0.9730281790739477"><ele>33.0</ele><time>2026-04-19T18:07:58Z</time></trkpt><trkpt lat="49.331410044593454" lon="0.9731672935905"><ele>33.0</ele><time>2026-04-19T18:08:00Z</time></trkpt><trkpt lat="49.33136722044377" lon="0.9732448555145689"><ele>33.0</ele><time>2026-04-19T18:08:02Z</time></trkpt><trkpt lat="49.33126927537688" lon="0.9733342566701392"><ele>33.0</ele><time>2026-04-19T18:08:04Z</time></trkpt><trkpt lat="49.331209203426496" lon="0.9733882922296143"><ele>33.0</ele><time>2026-04-19T18:08:05Z</time></trkpt><trkpt lat="49.33114688118119" lon="0.9734327361488379"><ele>33.0</ele><time>2026-04-19T18:08:06Z</time></trkpt><trkpt lat="49.331082661476586" lon="0.9735856126004541"><ele>32.666666666666664</ele><time>2026-04-19T18:08:08Z</time></trkpt><trkpt lat="49.3310401559165" lon="0.9736624775866898"><ele>32.333333333333336</ele><time>2026-04-19T18:08:09Z</time></trkpt><trkpt lat="49.33097102415697" lon="0.9737188544603606"><ele>32.0</ele><time>2026-04-19T18:08:10Z</time></trkpt><trkpt lat="49.33088222087497" lon="0.973783082686936"><ele>31.666666666666668</ele><time>2026-04-19T18:08:11Z</time></trkpt><trkpt lat="49.33081550240438" lon="0.9738030924990796"><ele>31.333333333333336</ele><time>2026-04-19T18:08:12Z</time></trkpt><trkpt lat="49.33075165806644" lon="0.9739024849186284"><ele>31.0</ele><time>2026-04-19T18:08:14Z</time></trkpt><trkpt lat="49.33070927971401" lon="0.9740457429126529"><ele>31.000000000000004</ele><time>2026-04-19T18:08:16Z</time></trkpt><trkpt lat="49.33064866620249" lon="0.9740922105080755"><ele>31.0</ele><time>2026-04-19T18:08:17Z</time></trkpt><trkpt lat="49.33057793449005" lon="0.97417950169469"><ele>31.0</ele><time>2026-04-19T18:08:18Z</time></trkpt><trkpt lat="49.33050135659076" lon="0.9743017612640762"><ele>31.0</ele><time>2026-04-19T18:08:20Z</time></trkpt><trkpt lat="49.330459575067785" lon="0.9743781213220692"><ele>31.000000000000004</ele><time>2026-04-19T18:08:22Z</time></trkpt><trkpt lat="49.330474604669206" lon="0.9744728569302346"><ele>31.0</ele><time>2026-04-19T18:08:23Z</time></trkpt><trkpt lat="49.33051809608716" lon="0.9745724834731311"><ele>32.0</ele><time>2026-04-19T18:08:24Z</time></trkpt><trkpt lat="49.33056676486744" lon="0.9746906855105898"><ele>33.0</ele><time>2026-04-19T18:08:25Z</time></trkpt><trkpt lat="49.330599650898776" lon="0.9747852107868824"><ele>34.0</ele><time>2026-04-19T18:08:26Z</time></trkpt><trkpt lat="49.33070439588218" lon="0.9748519993750111"><ele>35.0</ele><time>2026-04-19T18:08:28Z</time></trkpt><trkpt lat="49.330792203602165" lon="0.9748910750975545"><ele>36.0</ele><time>2026-04-19T18:08:30Z</time></trkpt><trkpt lat="49.33086202164077" lon="0.9750156079185184"><ele>37.75</ele><time>2026-04-19T18:08:32Z</time></trkpt><trkpt lat="49.33095062957319" lon="0.9751122987872755"><ele>39.5</ele><time>2026-04-19T18:08:34Z</time></trkpt><trkpt lat="49.33107148867993" lon="0.9752317702108436"><ele>41.25</ele><time>2026-04-19T18:08:36Z</time></trkpt><trkpt lat="49.331194166637424" lon="0.97530873609513"><ele>43.0</ele><time>2026-04-19T18:08:37Z</time></trkpt><trkpt lat="49.33128736928564" lon="0.9753759440988213"><ele>43.0</ele><time>2026-04-19T18:08:38Z</time></trkpt><trkpt lat="49.33138767641243" lon="0.9754750538604546"><ele>43.0</ele><time>2026-04-19T18:08:39Z</time></trkpt><trkpt lat="49.33148210053618" lon="0.9755708652067424"><ele>43.0</ele><time>2026-04-19T18:08:40Z</time></trkpt><trkpt lat="49.331538828486416" lon="0.9756512439268346"><ele>43.0</ele><time>2026-04-19T18:08:41Z</time></trkpt><trkpt lat="49.331602762062985" lon="0.9757587770010194"><ele>43.0</ele><time>2026-04-19T18:08:42Z</time></trkpt><trkpt lat="49.331699858524374" lon="0.9758882956343523"><ele>45.25</ele><time>2026-04-19T18:08:43Z</time></trkpt><trkpt lat="49.33181799107773" lon="0.9760530621411329"><ele>47.5</ele><time>2026-04-19T18:08:44Z</time></trkpt><trkpt lat="49.33193343148449" lon="0.9762127533076963"><ele>49.75</ele><time>2026-04-19T18:08:45Z</time></trkpt><trkpt lat="49.33202967850312" lon="0.9763259747811146"><ele>52.0</ele><time>2026-04-19T18:08:46Z</time></trkpt><trkpt lat="49.332134320969175" lon="0.9764517297338691"><ele>51.75</ele><time>2026-04-19T18:08:46.999Z</time></trkpt><trkpt lat="49.33224513822351" lon="0.9766011662864145"><ele>51.5</ele><time>2026-04-19T18:08:47.999Z</time></trkpt><trkpt lat="49.33233670088735" lon="0.9767372918960854"><ele>51.25</ele><time>2026-04-19T18:08:48.999Z</time></trkpt><trkpt lat="49.332405780816565" lon="0.9768565543185768"><ele>51.0</ele><time>2026-04-19T18:08:49.999Z</time></trkpt><trkpt lat="49.33248521006195" lon="0.9769681642254526"><ele>51.0</ele><time>2026-04-19T18:08:50.999Z</time></trkpt><trkpt lat="49.33252704294042" lon="0.9770450263533997"><ele>51.0</ele><time>2026-04-19T18:08:51.999Z</time></trkpt><trkpt lat="49.33258016212719" lon="0.9771078357647217"><ele>51.0</ele><time>2026-04-19T18:08:52.999Z</time></trkpt><trkpt lat="49.332630378607206" lon="0.9771719874355428"><ele>51.0</ele><time>2026-04-19T18:08:53.999Z</time></trkpt><trkpt lat="49.33269720215156" lon="0.9773601286081606"><ele>51.0</ele><time>2026-04-19T18:08:55.999Z</time></trkpt><trkpt lat="49.332756133465686" lon="0.9774855022322301"><ele>51.0</ele><time>2026-04-19T18:08:56.999Z</time></trkpt><trkpt lat="49.332813159535775" lon="0.9775955902954565"><ele>51.5</ele><time>2026-04-19T18:08:57.999Z</time></trkpt><trkpt lat="49.33286659442205" lon="0.9777264997735579"><ele>52.0</ele><time>2026-04-19T18:08:59.999Z</time></trkpt><trkpt lat="49.332889356722724" lon="0.9778247093565703"><ele>52.5</ele><time>2026-04-19T18:09:01.999Z</time></trkpt><trkpt lat="49.33288755103679" lon="0.9779497426738625"><ele>53.0</ele><time>2026-04-19T18:09:04.999Z</time></trkpt><trkpt lat="49.332892900510366" lon="0.9780506774560244"><ele>53.5</ele><time>2026-04-19T18:09:06.999Z</time></trkpt><trkpt lat="49.33294625267438" lon="0.9781706369990716"><ele>54.0</ele><time>2026-04-19T18:09:08.999Z</time></trkpt><trkpt lat="49.33298712259255" lon="0.9783055785567163"><ele>55.5</ele><time>2026-04-19T18:09:10.999Z</time></trkpt><trkpt lat="49.33304067223877" lon="0.9784362464590937"><ele>57.0</ele><time>2026-04-19T18:09:12.999Z</time></trkpt><trkpt lat="49.33307704887326" lon="0.9785324236402134"><ele>58.5</ele><time>2026-04-19T18:09:13.999Z</time></trkpt><trkpt lat="49.33311154615652" lon="0.9786291219800022"><ele>60.0</ele><time>2026-04-19T18:09:14.999Z</time></trkpt><trkpt lat="49.33313712256672" lon="0.9787242518939828"><ele>61.5</ele><time>2026-04-19T18:09:15.999Z</time></trkpt><trkpt lat="49.33316224054935" lon="0.9789116243907724"><ele>63.0</ele><time>2026-04-19T18:09:17.999Z</time></trkpt><trkpt lat="49.33318262492379" lon="0.9790159143794013"><ele>63.0</ele><time>2026-04-19T18:09:18.999Z</time></trkpt><trkpt lat="49.33321316587149" lon="0.9791439196684751"><ele>63.0</ele><time>2026-04-19T18:09:19.999Z</time></trkpt><trkpt lat="49.3332302393997" lon="0.9792619914194399"><ele>63.0</ele><time>2026-04-19T18:09:20.999Z</time></trkpt><trkpt lat="49.33322943188492" lon="0.9793752995246741"><ele>63.0</ele><time>2026-04-19T18:09:21.999Z</time></trkpt><trkpt lat="49.3332202309646" lon="0.9794753752795861"><ele>63.0</ele><time>2026-04-19T18:09:22.999Z</time></trkpt><trkpt lat="49.333215088991416" lon="0.9795897342890951"><ele>63.0</ele><time>2026-04-19T18:09:23.999Z</time></trkpt><trkpt lat="49.33322446710899" lon="0.9797807554554664"><ele>63.833333333333336</ele><time>2026-04-19T18:09:25.999Z</time></trkpt><trkpt lat="49.33325568717115" lon="0.9799021775342125"><ele>64.66666666666667</ele><time>2026-04-19T18:09:26.999Z</time></trkpt><trkpt lat="49.3332638038473" lon="0.9800306264067308"><ele>65.5</ele><time>2026-04-19T18:09:27.999Z</time></trkpt><trkpt lat="49.333271761490984" lon="0.9801545568470725"><ele>66.33333333333334</ele><time>2026-04-19T18:09:28.999Z</time></trkpt><trkpt lat="49.33329745554051" lon="0.9802576467492589"><ele>67.16666666666667</ele><time>2026-04-19T18:09:29.999Z</time></trkpt><trkpt lat="49.333297675320146" lon="0.9803880585627578"><ele>68.0</ele><time>2026-04-19T18:09:30.999Z</time></trkpt><trkpt lat="49.33328758560309" lon="0.9804923499577578"><ele>69.0</ele><time>2026-04-19T18:09:31.999Z</time></trkpt><trkpt lat="49.333300312563125" lon="0.9806606171295009"><ele>70.0</ele><time>2026-04-19T18:09:34.999Z</time></trkpt><trkpt lat="49.33327095622555" lon="0.9808011189041321"><ele>71.0</ele><time>2026-04-19T18:09:37.001Z</time></trkpt><trkpt lat="49.333270291654316" lon="0.9809153633779407"><ele>72.0</ele><time>2026-04-19T18:09:40.001Z</time></trkpt><trkpt lat="49.33329559926982" lon="0.9810112062284604"><ele>73.0</ele><time>2026-04-19T18:09:42.001Z</time></trkpt><trkpt lat="49.333329232330094" lon="0.9811457578867384"><ele>74.0</ele><time>2026-04-19T18:09:45.001Z</time></trkpt><trkpt lat="49.333391389989" lon="0.9815851809931417"><ele>76.4</ele><time>2026-04-19T18:09:48.001Z</time></trkpt><trkpt lat="49.333438288484366" lon="0.981762394337551"><ele>78.80000000000001</ele><time>2026-04-19T18:09:50.001Z</time></trkpt><trkpt lat="49.333472006081934" lon="0.9818875617819514"><ele>81.19999999999999</ele><time>2026-04-19T18:09:52.001Z</time></trkpt><trkpt lat="49.33349550638303" lon="0.9820155388126122"><ele>83.6</ele><time>2026-04-19T18:09:54Z</time></trkpt><trkpt lat="49.33350872918571" lon="0.9821537098385728"><ele>86.0</ele><time>2026-04-19T18:09:56Z</time></trkpt><trkpt lat="49.333552742320066" lon="0.9823013052789139"><ele>86.00000000000001</ele><time>2026-04-19T18:09:58Z</time></trkpt><trkpt lat="49.333552706659425" lon="0.9824456439107907"><ele>86.0</ele><time>2026-04-19T18:10:00Z</time></trkpt><trkpt lat="49.33354178307587" lon="0.9825467707543668"><ele>86.0</ele><time>2026-04-19T18:10:02Z</time></trkpt><trkpt lat="49.33354154059672" lon="0.9826455266738193"><ele>86.0</ele><time>2026-04-19T18:10:04Z</time></trkpt><trkpt lat="49.3335721598189" lon="0.9827391060597881"><ele>86.0</ele><time>2026-04-19T18:10:07Z</time></trkpt><trkpt lat="49.33359714618438" lon="0.9828552337739596"><ele>86.00000000000001</ele><time>2026-04-19T18:10:09Z</time></trkpt><trkpt lat="49.33352415261238" lon="0.9828814065717726"><ele>86.0</ele><time>2026-04-19T18:10:12Z</time></trkpt><trkpt lat="49.333434000278835" lon="0.9829429984810408"><ele>88.0</ele><time>2026-04-19T18:10:15Z</time></trkpt><trkpt lat="49.33336955900414" lon="0.9829351111611558"><ele>90.0</ele><time>2026-04-19T18:10:18Z</time></trkpt><trkpt lat="49.333273197743246" lon="0.9829029574707707"><ele>92.0</ele><time>2026-04-19T18:10:21Z</time></trkpt><trkpt lat="49.333200604954804" lon="0.9828645706459862"><ele>94.0</ele><time>2026-04-19T18:10:25Z</time></trkpt><trkpt lat="49.33315956199373" lon="0.982780772304384"><ele>95.99999999999999</ele><time>2026-04-19T18:10:28Z</time></trkpt><trkpt lat="49.333125455907535" lon="0.9826740239002855"><ele>98.0</ele><time>2026-04-19T18:10:31Z</time></trkpt><trkpt lat="49.333124209381744" lon="0.9825706502345267"><ele>100.83333333333333</ele><time>2026-04-19T18:10:33Z</time></trkpt><trkpt lat="49.33305302325428" lon="0.9825589978605166"><ele>103.66666666666666</ele><time>2026-04-19T18:10:36Z</time></trkpt><trkpt lat="49.332986545221125" lon="0.9825819183376671"><ele>106.5</ele><time>2026-04-19T18:10:39Z</time></trkpt><trkpt lat="49.332899551628195" lon="0.9826010025928718"><ele>109.33333333333334</ele><time>2026-04-19T18:10:41Z</time></trkpt><trkpt lat="49.332811474694914" lon="0.9826459850179047"><ele>112.16666666666667</ele><time>2026-04-19T18:10:43Z</time></trkpt><trkpt lat="49.33274560444679" lon="0.9826754308144607"><ele>115.0</ele><time>2026-04-19T18:10:44Z</time></trkpt><trkpt lat="49.33267084113532" lon="0.9827393202385603"><ele>115.00000000000001</ele><time>2026-04-19T18:10:46Z</time></trkpt><trkpt lat="49.33264044343557" lon="0.9828264350175999"><ele>115.0</ele><time>2026-04-19T18:10:48Z</time></trkpt><trkpt lat="49.3326388334089" lon="0.9829487836589862"><ele>115.0</ele><time>2026-04-19T18:10:50.999Z</time></trkpt><trkpt lat="49.332624842246965" lon="0.9830666014553521"><ele>115.0</ele><time>2026-04-19T18:10:52.999Z</time></trkpt><trkpt lat="49.33261619681738" lon="0.9831935960664796"><ele>115.00000000000001</ele><time>2026-04-19T18:10:54.999Z</time></trkpt><trkpt lat="49.33258622039792" lon="0.9832947180599982"><ele>115.0</ele><time>2026-04-19T18:10:59.999Z</time></trkpt><trkpt lat="49.332613734412895" lon="0.9834288988058245"><ele>117.0</ele><time>2026-04-19T18:11:02.999Z</time></trkpt><trkpt lat="49.33266287217033" lon="0.9836233105661986"><ele>119.0</ele><time>2026-04-19T18:11:04.999Z</time></trkpt><trkpt lat="49.33273104794979" lon="0.9838258115773864"><ele>121.0</ele><time>2026-04-19T18:11:05.999Z</time></trkpt><trkpt lat="49.33278970974147" lon="0.984027143169442"><ele>123.0</ele><time>2026-04-19T18:11:06.999Z</time></trkpt><trkpt lat="49.33282001325001" lon="0.9841777371278629"><ele>122.4</ele><time>2026-04-19T18:11:07.999Z</time></trkpt><trkpt lat="49.332843446281224" lon="0.9842698083639838"><ele>121.80000000000001</ele><time>2026-04-19T18:11:08.999Z</time></trkpt><trkpt lat="49.332903120944266" lon="0.9844286054699856"><ele>121.2</ele><time>2026-04-19T18:11:10.999Z</time></trkpt><trkpt lat="49.33297801556511" lon="0.9845728660526725"><ele>120.6</ele><time>2026-04-19T18:11:11.999Z</time></trkpt><trkpt lat="49.33302520456491" lon="0.984694356273864"><ele>120.0</ele><time>2026-04-19T18:11:12.999Z</time></trkpt><trkpt lat="49.33305961640444" lon="0.9847863691713337"><ele>120.0</ele><time>2026-04-19T18:11:13.999Z</time></trkpt><trkpt lat="49.333117267640176" lon="0.9849065274236799"><ele>120.0</ele><time>2026-04-19T18:11:14.999Z</time></trkpt><trkpt lat="49.33315013094918" lon="0.9850146206462888"><ele>120.0</ele><time>2026-04-19T18:11:15.999Z</time></trkpt><trkpt lat="49.33318871748634" lon="0.9850934916498776"><ele>120.0</ele><time>2026-04-19T18:11:16.999Z</time></trkpt><trkpt lat="49.33323268189312" lon="0.9851911061826465"><ele>120.0</ele><time>2026-04-19T18:11:17.999Z</time></trkpt><trkpt lat="49.33328164684593" lon="0.9853365717959702"><ele>120.0</ele><time>2026-04-19T18:11:19.999Z</time></trkpt><trkpt lat="49.33332602462397" lon="0.9854135872405149"><ele>121.5</ele><time>2026-04-19T18:11:20.999Z</time></trkpt><trkpt lat="49.333330221332815" lon="0.985521728684861"><ele>123.0</ele><time>2026-04-19T18:11:21.999Z</time></trkpt><trkpt lat="49.33336961820517" lon="0.9856500277732694"><ele>124.5</ele><time>2026-04-19T18:11:23.999Z</time></trkpt><trkpt lat="49.33343146294789" lon="0.9856263203010176"><ele>126.0</ele><time>2026-04-19T18:11:25.999Z</time></trkpt><trkpt lat="49.333502532234235" lon="0.985561847559546"><ele>127.5</ele><time>2026-04-19T18:11:27.999Z</time></trkpt><trkpt lat="49.33357331784194" lon="0.9854950759182018"><ele>129.0</ele><time>2026-04-19T18:11:29.999Z</time></trkpt><trkpt lat="49.33362097092779" lon="0.9854315624878404"><ele>129.0</ele><time>2026-04-19T18:11:30.999Z</time></trkpt><trkpt lat="49.333688926344315" lon="0.9853561190147188"><ele>129.0</ele><time>2026-04-19T18:11:31.999Z</time></trkpt><trkpt lat="49.33375819984652" lon="0.9853218772785866"><ele>129.0</ele><time>2026-04-19T18:11:32.999Z</time></trkpt><trkpt lat="49.3338251032052" lon="0.9852770734478552"><ele>129.0</ele><time>2026-04-19T18:11:33.999Z</time></trkpt><trkpt lat="49.33391076814003" lon="0.9852359068314925"><ele>129.0</ele><time>2026-04-19T18:11:34.999Z</time></trkpt><trkpt lat="49.33397306523058" lon="0.9851908609609112"><ele>129.0</ele><time>2026-04-19T18:11:35.999Z</time></trkpt><trkpt lat="49.3340370056113" lon="0.9851591488199307"><ele>129.16666666666666</ele><time>2026-04-19T18:11:36.999Z</time></trkpt><trkpt lat="49.33410974262394" lon="0.9851074926443568"><ele>129.33333333333334</ele><time>2026-04-19T18:11:37.999Z</time></trkpt><trkpt lat="49.33416772440006" lon="0.9850581583567307"><ele>129.5</ele><time>2026-04-19T18:11:38.999Z</time></trkpt><trkpt lat="49.33425912965067" lon="0.9849860059722894"><ele>129.66666666666669</ele><time>2026-04-19T18:11:40.999Z</time></trkpt><trkpt lat="49.334333716555534" lon="0.9849511795275996"><ele>129.83333333333334</ele><time>2026-04-19T18:11:43.001Z</time></trkpt><trkpt lat="49.334396089925086" lon="0.9849145123040869"><ele>130.0</ele><time>2026-04-19T18:11:44.001Z</time></trkpt><trkpt lat="49.334470071343056" lon="0.9848741865331023"><ele>128.4</ele><time>2026-04-19T18:11:45.001Z</time></trkpt><trkpt lat="49.33453185808244" lon="0.9848179948571439"><ele>126.8</ele><time>2026-04-19T18:11:47.001Z</time></trkpt><trkpt lat="49.334609246542435" lon="0.9847360066534998"><ele>125.19999999999999</ele><time>2026-04-19T18:11:49.001Z</time></trkpt><trkpt lat="49.33469333271343" lon="0.9846865895720265"><ele>123.6</ele><time>2026-04-19T18:11:51.001Z</time></trkpt><trkpt lat="49.334804596905194" lon="0.9845979563651932"><ele>122.0</ele><time>2026-04-19T18:11:53.001Z</time></trkpt><trkpt lat="49.33487644451668" lon="0.9845472802928892"><ele>121.66666666666666</ele><time>2026-04-19T18:11:54.001Z</time></trkpt><trkpt lat="49.334952990247274" lon="0.9845136762443447"><ele>121.33333333333333</ele><time>2026-04-19T18:11:55.001Z</time></trkpt><trkpt lat="49.3350193437834" lon="0.9844735360867888"><ele>121.0</ele><time>2026-04-19T18:11:56.001Z</time></trkpt><trkpt lat="49.335078517498395" lon="0.9844291081144511"><ele>120.66666666666666</ele><time>2026-04-19T18:11:57Z</time></trkpt><trkpt lat="49.335130154368635" lon="0.9843622002466156"><ele>120.33333333333333</ele><time>2026-04-19T18:11:59Z</time></trkpt><trkpt lat="49.33519547522881" lon="0.9843078090872278"><ele>120.0</ele><time>2026-04-19T18:12:01Z</time></trkpt><trkpt lat="49.33566673469537" lon="0.9838860073385766"><ele>119.0</ele><time>2026-04-19T18:12:05Z</time></trkpt><trkpt lat="49.335742551170256" lon="0.9838095698348489"><ele>118.0</ele><time>2026-04-19T18:12:06Z</time></trkpt><trkpt lat="49.33585316862223" lon="0.9837256373232466"><ele>117.0</ele><time>2026-04-19T18:12:07Z</time></trkpt><trkpt lat="49.33594854419106" lon="0.9836462439557477"><ele>116.0</ele><time>2026-04-19T18:12:08Z</time></trkpt><trkpt lat="49.33605220076933" lon="0.983556158881698"><ele>115.0</ele><time>2026-04-19T18:12:09Z</time></trkpt><trkpt lat="49.336140986521904" lon="0.9835014540601802"><ele>115.0</ele><time>2026-04-19T18:12:10Z</time></trkpt><trkpt lat="49.33623201011631" lon="0.9834562100785526"><ele>115.0</ele><time>2026-04-19T18:12:11Z</time></trkpt><trkpt lat="49.33631867347135" lon="0.9834067990652815"><ele>115.0</ele><time>2026-04-19T18:12:12Z</time></trkpt><trkpt lat="49.33641366654517" lon="0.9833598023170869"><ele>115.0</ele><time>2026-04-19T18:12:13Z</time></trkpt><trkpt lat="49.33650497769255" lon="0.9832980578408481"><ele>115.0</ele><time>2026-04-19T18:12:14Z</time></trkpt><trkpt lat="49.33659683926694" lon="0.9832445501071332"><ele>117.4</ele><time>2026-04-19T18:12:15Z</time></trkpt><trkpt lat="49.33667764117146" lon="0.9831836695006149"><ele>119.8</ele><time>2026-04-19T18:12:16Z</time></trkpt><trkpt lat="49.336752280236546" lon="0.9831177422503322"><ele>122.19999999999999</ele><time>2026-04-19T18:12:17Z</time></trkpt><trkpt lat="49.33685285398241" lon="0.9830434246516248"><ele>124.6</ele><time>2026-04-19T18:12:18Z</time></trkpt><trkpt lat="49.336963625469565" lon="0.9829726506959733"><ele>127.0</ele><time>2026-04-19T18:12:20Z</time></trkpt><trkpt lat="49.33705954478031" lon="0.982907819949958"><ele>127.0</ele><time>2026-04-19T18:12:22Z</time></trkpt><trkpt lat="49.33711455492974" lon="0.9828491688012855"><ele>127.0</ele><time>2026-04-19T18:12:24Z</time></trkpt><trkpt lat="49.33705706580924" lon="0.9829016109979617"><ele>127.0</ele><time>2026-04-19T18:12:27Z</time></trkpt><trkpt lat="49.33712779131412" lon="0.9828896514619956"><ele>127.0</ele><time>2026-04-19T18:12:33Z</time></trkpt><trkpt lat="49.337031988912685" lon="0.9829399772919917"><ele>127.0</ele><time>2026-04-19T18:14:48.999Z</time></trkpt><trkpt lat="49.33697313536989" lon="0.9829932607670234"><ele>127.0</ele><time>2026-04-19T18:14:49.999Z</time></trkpt><trkpt lat="49.33690843138985" lon="0.9830405856577387"><ele>127.0</ele><time>2026-04-19T18:14:50.999Z</time></trkpt><trkpt lat="49.33684013681336" lon="0.9830854301899523"><ele>127.00000000000001</ele><time>2026-04-19T18:14:51.999Z</time></trkpt><trkpt lat="49.33678160158803" lon="0.9831245825208321"><ele>127.0</ele><time>2026-04-19T18:14:52.999Z</time></trkpt><trkpt lat="49.3366903226166" lon="0.9831979528916943"><ele>127.0</ele><time>2026-04-19T18:14:54.999Z</time></trkpt><trkpt lat="49.33661335275763" lon="0.9832792034111528"><ele>127.0</ele><time>2026-04-19T18:14:56.999Z</time></trkpt><trkpt lat="49.336547341304545" lon="0.9833468357541368"><ele>127.00000000000001</ele><time>2026-04-19T18:14:58.999Z</time></trkpt><trkpt lat="49.33647956583903" lon="0.9834082176769144"><ele>127.0</ele><time>2026-04-19T18:15:00.999Z</time></trkpt><trkpt lat="49.33643544068597" lon="0.9834854224982097"><ele>125.00000000000001</ele><time>2026-04-19T18:15:02.999Z</time></trkpt><trkpt lat="49.336369302873244" lon="0.9834997505347722"><ele>123.0</ele><time>2026-04-19T18:15:06.999Z</time></trkpt><trkpt lat="49.336282057492305" lon="0.9834992967679875"><ele>121.0</ele><time>2026-04-19T18:15:20.999Z</time></trkpt><trkpt lat="49.33620991155292" lon="0.9835590473557708"><ele>119.0</ele><time>2026-04-19T18:15:24.999Z</time></trkpt><trkpt lat="49.336118316625964" lon="0.983623354357802"><ele>117.00000000000001</ele><time>2026-04-19T18:15:27.999Z</time></trkpt><trkpt lat="49.336042551290895" lon="0.9837336281745892"><ele>115.0</ele><time>2026-04-19T18:15:30.999Z</time></trkpt><trkpt lat="49.3359456621595" lon="0.9838128658200957"><ele>115.00000000000001</ele><time>2026-04-19T18:15:32.999Z</time></trkpt><trkpt lat="49.335845381235096" lon="0.9838637918650965"><ele>115.0</ele><time>2026-04-19T18:15:34.999Z</time></trkpt><trkpt lat="49.33578392257753" lon="0.983907901173671"><ele>115.0</ele><time>2026-04-19T18:15:35.999Z</time></trkpt><trkpt lat="49.335708996889416" lon="0.9839531211715"><ele>115.0</ele><time>2026-04-19T18:15:36.999Z</time></trkpt><trkpt lat="49.33561959231281" lon="0.9840000361740268"><ele>115.00000000000001</ele><time>2026-04-19T18:15:37.999Z</time></trkpt><trkpt lat="49.33553582382155" lon="0.9840545460044017"><ele>115.0</ele><time>2026-04-19T18:15:38.999Z</time></trkpt><trkpt lat="49.33547015028983" lon="0.9840814211814541"><ele>116.0</ele><time>2026-04-19T18:15:39.999Z</time></trkpt><trkpt lat="49.335380581381294" lon="0.9841621200795"><ele>117.0</ele><time>2026-04-19T18:15:41.999Z</time></trkpt><trkpt lat="49.335289231037734" lon="0.9842578506868322"><ele>118.0</ele><time>2026-04-19T18:15:43.998Z</time></trkpt><trkpt lat="49.33523441635934" lon="0.9843115912167126"><ele>119.0</ele><time>2026-04-19T18:15:44.998Z</time></trkpt><trkpt lat="49.335131314637636" lon="0.9843875369294365"><ele>120.0</ele><time>2026-04-19T18:15:46.998Z</time></trkpt><trkpt lat="49.3350595863019" lon="0.9844087242233052"><ele>120.0</ele><time>2026-04-19T18:15:48.998Z</time></trkpt><trkpt lat="49.33494597563411" lon="0.9844852104096381"><ele>120.0</ele><time>2026-04-19T18:15:50.998Z</time></trkpt><trkpt lat="49.33485858259906" lon="0.9845536997318435"><ele>120.0</ele><time>2026-04-19T18:15:53Z</time></trkpt><trkpt lat="49.334789353144856" lon="0.9845709326312716"><ele>120.0</ele><time>2026-04-19T18:15:55Z</time></trkpt><trkpt lat="49.334714363693635" lon="0.9846200926814896"><ele>120.0</ele><time>2026-04-19T18:15:58Z</time></trkpt><trkpt lat="49.33464395043245" lon="0.9846189718574182"><ele>120.0</ele><time>2026-04-19T18:16:54.999Z</time></trkpt><trkpt lat="49.33471858945148" lon="0.9845830897190024"><ele>120.0</ele><time>2026-04-19T18:16:59.999Z</time></trkpt><trkpt lat="49.33479795578561" lon="0.9845363636157843"><ele>120.0</ele><time>2026-04-19T18:17:01.999Z</time></trkpt><trkpt lat="49.33485690967062" lon="0.9844983016116298"><ele>120.0</ele><time>2026-04-19T18:17:03.999Z</time></trkpt><trkpt lat="49.33492993654344" lon="0.9844557534376545"><ele>120.0</ele><time>2026-04-19T18:17:05.999Z</time></trkpt><trkpt lat="49.33502283577239" lon="0.984385480485283"><ele>120.0</ele><time>2026-04-19T18:17:07.999Z</time></trkpt><trkpt lat="49.33511764804338" lon="0.9843076621231915"><ele>120.0</ele><time>2026-04-19T18:17:09.999Z</time></trkpt><trkpt lat="49.33520110909227" lon="0.9842210511787606"><ele>119.0</ele><time>2026-04-19T18:17:11.999Z</time></trkpt><trkpt lat="49.33527286054296" lon="0.9841696747499644"><ele>118.0</ele><time>2026-04-19T18:17:13.999Z</time></trkpt><trkpt lat="49.33537474303405" lon="0.9840979640069357"><ele>117.0</ele><time>2026-04-19T18:17:15.999Z</time></trkpt><trkpt lat="49.33547314605372" lon="0.9840548996197404"><ele>116.0</ele><time>2026-04-19T18:17:17.999Z</time></trkpt><trkpt lat="49.33555100888947" lon="0.9840176918096893"><ele>115.0</ele><time>2026-04-19T18:17:19.999Z</time></trkpt><trkpt lat="49.33568379540613" lon="0.9839556539305025"><ele>115.0</ele><time>2026-04-19T18:17:21.999Z</time></trkpt><trkpt lat="49.33574612896094" lon="0.9838953601172692"><ele>115.0</ele><time>2026-04-19T18:17:22.999Z</time></trkpt><trkpt lat="49.335830794764625" lon="0.9838007728620158"><ele>115.0</ele><time>2026-04-19T18:17:23.999Z</time></trkpt><trkpt lat="49.33592158297699" lon="0.9836968698801974"><ele>115.0</ele><time>2026-04-19T18:17:24.999Z</time></trkpt><trkpt lat="49.33602770694472" lon="0.9836238498361323"><ele>115.0</ele><time>2026-04-19T18:17:25.999Z</time></trkpt><trkpt lat="49.336109730752156" lon="0.9835559538002772"><ele>115.0</ele><time>2026-04-19T18:17:26.999Z</time></trkpt><trkpt lat="49.33620755860967" lon="0.9834900103724086"><ele>115.0</ele><time>2026-04-19T18:17:27.999Z</time></trkpt><trkpt lat="49.336304713274714" lon="0.9834179079103479"><ele>115.0</ele><time>2026-04-19T18:17:28.999Z</time></trkpt><trkpt lat="49.33639925228172" lon="0.9833529998473418"><ele>115.0</ele><time>2026-04-19T18:17:29.999Z</time></trkpt><trkpt lat="49.336461224097235" lon="0.9833267434628927"><ele>115.0</ele><time>2026-04-19T18:17:30.999Z</time></trkpt><trkpt lat="49.336587055841754" lon="0.9832191896056276"><ele>117.4</ele><time>2026-04-19T18:17:32.999Z</time></trkpt><trkpt lat="49.3366821172652" lon="0.9831072969122618"><ele>119.8</ele><time>2026-04-19T18:17:33.999Z</time></trkpt><trkpt lat="49.33678903609451" lon="0.9830122015700842"><ele>122.19999999999999</ele><time>2026-04-19T18:17:34.999Z</time></trkpt><trkpt lat="49.33689661413693" lon="0.9829537227736508"><ele>124.6</ele><time>2026-04-19T18:17:35.999Z</time></trkpt><trkpt lat="49.33696250101519" lon="0.9829339592864988"><ele>127.0</ele><time>2026-04-19T18:17:36.999Z</time></trkpt><trkpt lat="49.33704254145201" lon="0.9828569032975628"><ele>127.00000000000001</ele><time>2026-04-19T18:17:38.999Z</time></trkpt><trkpt lat="49.3369915375263" lon="0.9829405005282819"><ele>127.0</ele><time>2026-04-19T18:17:46.998Z</time></trkpt><trkpt lat="49.33688517073267" lon="0.9830246994025226"><ele>127.0</ele><time>2026-04-19T18:17:48.998Z</time></trkpt><trkpt lat="49.336807650559514" lon="0.9830833845373584"><ele>127.0</ele><time>2026-04-19T18:17:49.998Z</time></trkpt><trkpt lat="49.336738344403486" lon="0.983136414856031"><ele>127.00000000000001</ele><time>2026-04-19T18:17:50.998Z</time></trkpt><trkpt lat="49.33667203196563" lon="0.9831813023121065"><ele>127.0</ele><time>2026-04-19T18:17:51.998Z</time></trkpt><trkpt lat="49.33658813390043" lon="0.9832634389717434"><ele>127.00000000000001</ele><time>2026-04-19T18:17:53.998Z</time></trkpt><trkpt lat="49.33650640263511" lon="0.9833376223507438"><ele>127.0</ele><time>2026-04-19T18:17:55.998Z</time></trkpt><trkpt lat="49.33643380520457" lon="0.9833845867520956"><ele>127.0</ele><time>2026-04-19T18:17:57.998Z</time></trkpt><trkpt lat="49.33637251187398" lon="0.9834265312748833"><ele>127.0</ele><time>2026-04-19T18:18:00Z</time></trkpt><trkpt lat="49.33629114841909" lon="0.9834818251150182"><ele>127.00000000000001</ele><time>2026-04-19T18:18:02Z</time></trkpt><trkpt lat="49.33619776335212" lon="0.98355334369952"><ele>127.0</ele><time>2026-04-19T18:18:04Z</time></trkpt><trkpt lat="49.33611920442244" lon="0.9836179802391978"><ele>125.00000000000001</ele><time>2026-04-19T18:18:06Z</time></trkpt><trkpt lat="49.33602202605568" lon="0.9836724700533382"><ele>123.0</ele><time>2026-04-19T18:18:08Z</time></trkpt><trkpt lat="49.335941728759536" lon="0.9837249370611313"><ele>121.0</ele><time>2026-04-19T18:18:10Z</time></trkpt><trkpt lat="49.33587965545209" lon="0.9837552579509734"><ele>119.0</ele><time>2026-04-19T18:18:13Z</time></trkpt><trkpt lat="49.33578246480633" lon="0.9838368387721679"><ele>117.00000000000001</ele><time>2026-04-19T18:18:24Z</time></trkpt><trkpt lat="49.335725861791246" lon="0.9839269513940821"><ele>115.0</ele><time>2026-04-19T18:19:14.999Z</time></trkpt><trkpt lat="49.33564596308166" lon="0.9839830532402981"><ele>116.0</ele><time>2026-04-19T18:19:16.999Z</time></trkpt><trkpt lat="49.3355259106528" lon="0.9840328575119542"><ele>117.0</ele><time>2026-04-19T18:19:18.999Z</time></trkpt><trkpt lat="49.33544571463775" lon="0.9840684674581662"><ele>118.0</ele><time>2026-04-19T18:19:19.999Z</time></trkpt><trkpt lat="49.33536768442141" lon="0.9841005048588711"><ele>119.0</ele><time>2026-04-19T18:19:20.999Z</time></trkpt><trkpt lat="49.33530118434553" lon="0.9841789332358858"><ele>120.0</ele><time>2026-04-19T18:19:22.999Z</time></trkpt><trkpt lat="49.33522279753676" lon="0.9842915513012692"><ele>120.0</ele><time>2026-04-19T18:19:25.999Z</time></trkpt><trkpt lat="49.335129468124904" lon="0.984351413777079"><ele>120.0</ele><time>2026-04-19T18:19:27.999Z</time></trkpt><trkpt lat="49.33506509407015" lon="0.9843855389646269"><ele>120.0</ele><time>2026-04-19T18:19:29.999Z</time></trkpt><trkpt lat="49.33497079836606" lon="0.9844831284201321"><ele>120.0</ele><time>2026-04-19T18:19:31.999Z</time></trkpt><trkpt lat="49.33490208450012" lon="0.9845135785522005"><ele>120.0</ele><time>2026-04-19T18:19:32.999Z</time></trkpt><trkpt lat="49.33482011434809" lon="0.9845852502785966"><ele>120.0</ele><time>2026-04-19T18:19:33.999Z</time></trkpt><trkpt lat="49.33472828982765" lon="0.9846515883668672"><ele>120.4</ele><time>2026-04-19T18:19:35.999Z</time></trkpt><trkpt lat="49.33464285973066" lon="0.9847472832775885"><ele>120.8</ele><time>2026-04-19T18:19:37.999Z</time></trkpt><trkpt lat="49.33459160342794" lon="0.9848134770984401"><ele>121.19999999999999</ele><time>2026-04-19T18:19:38.999Z</time></trkpt><trkpt lat="49.33449408349301" lon="0.9848538860445505"><ele>121.6</ele><time>2026-04-19T18:19:39.999Z</time></trkpt><trkpt lat="49.33434958184955" lon="0.9849442920363954"><ele>122.0</ele><time>2026-04-19T18:19:41.999Z</time></trkpt><trkpt lat="49.3342506437452" lon="0.9850085218238704"><ele>123.75</ele><time>2026-04-19T18:19:42.998Z</time></trkpt><trkpt lat="49.33412563551447" lon="0.9850668711469613"><ele>125.5</ele><time>2026-04-19T18:19:43.998Z</time></trkpt><trkpt lat="49.334010418922176" lon="0.9851208018355075"><ele>127.25</ele><time>2026-04-19T18:19:44.998Z</time></trkpt><trkpt lat="49.33391942583832" lon="0.9851730924348014"><ele>129.0</ele><time>2026-04-19T18:19:45.998Z</time></trkpt><trkpt lat="49.33382260661054" lon="0.9852525591932539"><ele>129.0</ele><time>2026-04-19T18:19:46.998Z</time></trkpt><trkpt lat="49.333732266721505" lon="0.9853098410195514"><ele>129.0</ele><time>2026-04-19T18:19:47.998Z</time></trkpt><trkpt lat="49.33366063670052" lon="0.9853479695408768"><ele>129.0</ele><time>2026-04-19T18:19:48.998Z</time></trkpt><trkpt lat="49.333609448985136" lon="0.9854151860424109"><ele>129.0</ele><time>2026-04-19T18:19:49.998Z</time></trkpt><trkpt lat="49.33352822392615" lon="0.9855256741596393"><ele>129.0</ele><time>2026-04-19T18:19:51.998Z</time></trkpt><trkpt lat="49.333460729380846" lon="0.9855807208422099"><ele>129.0</ele><time>2026-04-19T18:19:52.998Z</time></trkpt><trkpt lat="49.33340792449621" lon="0.9856611626268922"><ele>129.0</ele><time>2026-04-19T18:19:54.998Z</time></trkpt><trkpt lat="49.333405450446215" lon="0.9857944508064291"><ele>129.0</ele><time>2026-04-19T18:19:56.998Z</time></trkpt><trkpt lat="49.3334333530386" lon="0.985889583694724"><ele>129.0</ele><time>2026-04-19T18:19:57.998Z</time></trkpt><trkpt lat="49.33348094640381" lon="0.9860089287371269"><ele>129.0</ele><time>2026-04-19T18:19:58.998Z</time></trkpt><trkpt lat="49.33352748977197" lon="0.9861854052028184"><ele>129.0</ele><time>2026-04-19T18:19:59.998Z</time></trkpt><trkpt lat="49.33356654842544" lon="0.9864101994396941"><ele>129.6</ele><time>2026-04-19T18:20:00.998Z</time></trkpt><trkpt lat="49.33364245786598" lon="0.9865708932350161"><ele>130.2</ele><time>2026-04-19T18:20:01.998Z</time></trkpt><trkpt lat="49.33368501090841" lon="0.9867072157091756"><ele>130.79999999999998</ele><time>2026-04-19T18:20:02.998Z</time></trkpt><trkpt lat="49.333730768329595" lon="0.9868530158813378"><ele>131.4</ele><time>2026-04-19T18:20:03.998Z</time></trkpt><trkpt lat="49.333783455474425" lon="0.9870063779436935"><ele>132.0</ele><time>2026-04-19T18:20:04.999Z</time></trkpt><trkpt lat="49.33383721449255" lon="0.987180802280923"><ele>132.5</ele><time>2026-04-19T18:20:05.999Z</time></trkpt><trkpt lat="49.33390190534929" lon="0.9873755797730074"><ele>133.0</ele><time>2026-04-19T18:20:06.999Z</time></trkpt><trkpt lat="49.33397576115307" lon="0.9875645851048417"><ele>133.5</ele><time>2026-04-19T18:20:07.999Z</time></trkpt><trkpt lat="49.3340351046879" lon="0.9877546264506561"><ele>134.0</ele><time>2026-04-19T18:20:08.999Z</time></trkpt><trkpt lat="49.334080468864556" lon="0.9879003822870559"><ele>134.2</ele><time>2026-04-19T18:20:09.999Z</time></trkpt><trkpt lat="49.334114616285135" lon="0.9880369705955645"><ele>134.4</ele><time>2026-04-19T18:20:11Z</time></trkpt><trkpt lat="49.33417129681806" lon="0.9881746421691268"><ele>134.6</ele><time>2026-04-19T18:20:13Z</time></trkpt><trkpt lat="49.33419521118299" lon="0.9883311520896624"><ele>134.8</ele><time>2026-04-19T18:20:15Z</time></trkpt><trkpt lat="49.33419252451231" lon="0.9885080807412783"><ele>135.0</ele><time>2026-04-19T18:20:17Z</time></trkpt><trkpt lat="49.33418729628223" lon="0.9886546250847492"><ele>135.5</ele><time>2026-04-19T18:20:18Z</time></trkpt><trkpt lat="49.3341542405607" lon="0.9888532904729627"><ele>136.0</ele><time>2026-04-19T18:20:19Z</time></trkpt><trkpt lat="49.33411056109532" lon="0.9890996952761304"><ele>136.5</ele><time>2026-04-19T18:20:20Z</time></trkpt><trkpt lat="49.33406177600846" lon="0.9893142731635637"><ele>137.0</ele><time>2026-04-19T18:20:21Z</time></trkpt><trkpt lat="49.334006518853435" lon="0.9895038149325792"><ele>137.5</ele><time>2026-04-19T18:20:22Z</time></trkpt><trkpt lat="49.33395978696389" lon="0.9897269986123978"><ele>138.0</ele><time>2026-04-19T18:20:23Z</time></trkpt><trkpt lat="49.33391181047008" lon="0.9899399845338599"><ele>138.5</ele><time>2026-04-19T18:20:24Z</time></trkpt><trkpt lat="49.3338661157141" lon="0.9901370803107307"><ele>139.0</ele><time>2026-04-19T18:20:25Z</time></trkpt><trkpt lat="49.33381753506268" lon="0.9903044775737304"><ele>138.6</ele><time>2026-04-19T18:20:26Z</time></trkpt><trkpt lat="49.33376968418734" lon="0.9904748837641411"><ele>138.2</ele><time>2026-04-19T18:20:27Z</time></trkpt><trkpt lat="49.333729830314006" lon="0.9906184254010956"><ele>137.79999999999998</ele><time>2026-04-19T18:20:28Z</time></trkpt><trkpt lat="49.33369588066661" lon="0.9907667320468517"><ele>137.4</ele><time>2026-04-19T18:20:29Z</time></trkpt><trkpt lat="49.33366530740347" lon="0.9909251215312809"><ele>137.0</ele><time>2026-04-19T18:20:30Z</time></trkpt><trkpt lat="49.33363078959225" lon="0.9911248907123082"><ele>137.0</ele><time>2026-04-19T18:20:31Z</time></trkpt><trkpt lat="49.33359482461056" lon="0.9913150454902873"><ele>137.0</ele><time>2026-04-19T18:20:32Z</time></trkpt><trkpt lat="49.333545529654266" lon="0.9915489626357308"><ele>137.0</ele><time>2026-04-19T18:20:33Z</time></trkpt><trkpt lat="49.33349887941509" lon="0.9917692719993721"><ele>137.0</ele><time>2026-04-19T18:20:34Z</time></trkpt><trkpt lat="49.33345368551183" lon="0.991974037040966"><ele>137.5</ele><time>2026-04-19T18:20:35Z</time></trkpt><trkpt lat="49.33341345094291" lon="0.9921645370309463"><ele>138.0</ele><time>2026-04-19T18:20:35.999Z</time></trkpt><trkpt lat="49.33337620698229" lon="0.9923344598044649"><ele>138.5</ele><time>2026-04-19T18:20:36.999Z</time></trkpt><trkpt lat="49.33333964813395" lon="0.9925109640353108"><ele>139.0</ele><time>2026-04-19T18:20:37.999Z</time></trkpt><trkpt lat="49.33329912618185" lon="0.992720042015915"><ele>139.0</ele><time>2026-04-19T18:20:38.999Z</time></trkpt><trkpt lat="49.33325775239956" lon="0.9929484359550526"><ele>139.0</ele><time>2026-04-19T18:20:39.999Z</time></trkpt><trkpt lat="49.33321921015368" lon="0.9931659442412034"><ele>139.0</ele><time>2026-04-19T18:20:40.999Z</time></trkpt><trkpt lat="49.333176406982396" lon="0.993376344280721"><ele>139.0</ele><time>2026-04-19T18:20:41.999Z</time></trkpt><trkpt lat="49.333135798515606" lon="0.9935766846170305"><ele>139.25</ele><time>2026-04-19T18:20:42.999Z</time></trkpt><trkpt lat="49.33310630007873" lon="0.9937833601525692"><ele>139.5</ele><time>2026-04-19T18:20:43.999Z</time></trkpt><trkpt lat="49.33306453020327" lon="0.9939888381378524"><ele>139.75</ele><time>2026-04-19T18:20:44.999Z</time></trkpt><trkpt lat="49.33302134111232" lon="0.9941847463700577"><ele>140.0</ele><time>2026-04-19T18:20:45.999Z</time></trkpt><trkpt lat="49.33298185745875" lon="0.9943898844845301"><ele>139.25</ele><time>2026-04-19T18:20:46.999Z</time></trkpt><trkpt lat="49.33294560052165" lon="0.9945938909182549"><ele>138.5</ele><time>2026-04-19T18:20:47.999Z</time></trkpt><trkpt lat="49.33290667246413" lon="0.9947953401378844"><ele>137.75</ele><time>2026-04-19T18:20:48.999Z</time></trkpt><trkpt lat="49.33286785194148" lon="0.9949834185415988"><ele>137.0</ele><time>2026-04-19T18:20:49.999Z</time></trkpt><trkpt lat="49.332829954190174" lon="0.9951598229904747"><ele>137.0</ele><time>2026-04-19T18:20:50.999Z</time></trkpt><trkpt lat="49.332795490619986" lon="0.9953202701743171"><ele>137.0</ele><time>2026-04-19T18:20:51.999Z</time></trkpt><trkpt lat="49.33276306457365" lon="0.9954653034912043"><ele>137.0</ele><time>2026-04-19T18:20:52.999Z</time></trkpt><trkpt lat="49.33273251760113" lon="0.9955889485952975"><ele>137.0</ele><time>2026-04-19T18:20:53.999Z</time></trkpt><trkpt lat="49.33270035169732" lon="0.9957035967740974"><ele>137.0</ele><time>2026-04-19T18:20:54.999Z</time></trkpt><trkpt lat="49.33268543706952" lon="0.9958260280053814"><ele>136.0</ele><time>2026-04-19T18:20:55.999Z</time></trkpt><trkpt lat="49.33266327707002" lon="0.995928143359294"><ele>135.0</ele><time>2026-04-19T18:20:56.999Z</time></trkpt><trkpt lat="49.3326338639546" lon="0.996045096725937"><ele>134.0</ele><time>2026-04-19T18:20:58.999Z</time></trkpt><trkpt lat="49.332614146072714" lon="0.9961640447511751"><ele>133.0</ele><time>2026-04-19T18:21:02.999Z</time></trkpt><trkpt lat="49.33258217077366" lon="0.9962905268819832"><ele>132.0</ele><time>2026-04-19T18:21:05.999Z</time></trkpt><trkpt lat="49.33255897283832" lon="0.9963978696374368"><ele>131.0</ele><time>2026-04-19T18:21:07.999Z</time></trkpt><trkpt lat="49.33250693881552" lon="0.9964755520608128"><ele>131.0</ele><time>2026-04-19T18:21:10.999Z</time></trkpt><trkpt lat="49.33258240118588" lon="0.9963979750744019"><ele>131.0</ele><time>2026-04-19T18:21:18.999Z</time></trkpt><trkpt lat="49.33261251028656" lon="0.9962526541899814"><ele>131.0</ele><time>2026-04-19T18:21:19.999Z</time></trkpt><trkpt lat="49.33265065513418" lon="0.9960747730905378"><ele>131.0</ele><time>2026-04-19T18:21:20.999Z</time></trkpt><trkpt lat="49.33270556356488" lon="0.9958706776362987"><ele>133.0</ele><time>2026-04-19T18:21:21.999Z</time></trkpt><trkpt lat="49.33276418367068" lon="0.9956405600172159"><ele>135.0</ele><time>2026-04-19T18:21:22.999Z</time></trkpt><trkpt lat="49.33281210200516" lon="0.9953858495872124"><ele>137.0</ele><time>2026-04-19T18:21:23.999Z</time></trkpt><trkpt lat="49.33285861471926" lon="0.9951307847465984"><ele>136.66666666666666</ele><time>2026-04-19T18:21:24.999Z</time></trkpt><trkpt lat="49.33290845259349" lon="0.9948727091573574"><ele>136.33333333333334</ele><time>2026-04-19T18:21:25.999Z</time></trkpt><trkpt lat="49.33295860146276" lon="0.994612103154302"><ele>136.0</ele><time>2026-04-19T18:21:26.999Z</time></trkpt><trkpt lat="49.33300888007591" lon="0.9943617285037134"><ele>136.66666666666669</ele><time>2026-04-19T18:21:27.999Z</time></trkpt><trkpt lat="49.33304712721304" lon="0.9940977279440881"><ele>137.33333333333334</ele><time>2026-04-19T18:21:28.999Z</time></trkpt><trkpt lat="49.33309420310496" lon="0.9938463325035245"><ele>138.0</ele><time>2026-04-19T18:21:29.999Z</time></trkpt><trkpt lat="49.333145846000384" lon="0.9935964505875441"><ele>138.33333333333334</ele><time>2026-04-19T18:21:30.999Z</time></trkpt><trkpt lat="49.33319695572206" lon="0.9933594053327859"><ele>138.66666666666669</ele><time>2026-04-19T18:21:31.999Z</time></trkpt><trkpt lat="49.333237057313745" lon="0.9931249175464779"><ele>139.0</ele><time>2026-04-19T18:21:32.999Z</time></trkpt><trkpt lat="49.333282444024924" lon="0.9929219331618578"><ele>139.0</ele><time>2026-04-19T18:21:33.999Z</time></trkpt><trkpt lat="49.33331559396664" lon="0.9927381589354478"><ele>139.0</ele><time>2026-04-19T18:21:34.999Z</time></trkpt><trkpt lat="49.333344466320796" lon="0.9925679911029966"><ele>139.0</ele><time>2026-04-19T18:21:35.999Z</time></trkpt><trkpt lat="49.33337361808229" lon="0.9924158875597755"><ele>139.0</ele><time>2026-04-19T18:21:36.999Z</time></trkpt><trkpt lat="49.33339916393288" lon="0.9922652666481407"><ele>139.0</ele><time>2026-04-19T18:21:37.999Z</time></trkpt><trkpt lat="49.33342638992619" lon="0.9921074319977005"><ele>139.0</ele><time>2026-04-19T18:21:38.999Z</time></trkpt><trkpt lat="49.33346200575359" lon="0.9919626219568559"><ele>139.0</ele><time>2026-04-19T18:21:39.999Z</time></trkpt><trkpt lat="49.33349305248583" lon="0.9917990860006857"><ele>139.0</ele><time>2026-04-19T18:21:40.999Z</time></trkpt><trkpt lat="49.333519155975544" lon="0.991656241113772"><ele>139.0</ele><time>2026-04-19T18:21:41.999Z</time></trkpt><trkpt lat="49.3335337969253" lon="0.9915324803506195"><ele>139.0</ele><time>2026-04-19T18:21:42.999Z</time></trkpt><trkpt lat="49.3335414639877" lon="0.9914320072759898"><ele>138.6</ele><time>2026-04-19T18:21:43.999Z</time></trkpt><trkpt lat="49.3335766971225" lon="0.9913045998986109"><ele>138.2</ele><time>2026-04-19T18:21:44.999Z</time></trkpt><trkpt lat="49.33361087097147" lon="0.9911861872137554"><ele>137.79999999999998</ele><time>2026-04-19T18:21:45.999Z</time></trkpt><trkpt lat="49.33364096409412" lon="0.9910494958840541"><ele>137.4</ele><time>2026-04-19T18:21:46.999Z</time></trkpt><trkpt lat="49.333661121994446" lon="0.9909004008890239"><ele>137.0</ele><time>2026-04-19T18:21:47.999Z</time></trkpt><trkpt lat="49.33369177920612" lon="0.9907671835283327"><ele>136.4</ele><time>2026-04-19T18:21:48.999Z</time></trkpt><trkpt lat="49.33371174702753" lon="0.9906561135214722"><ele>135.79999999999998</ele><time>2026-04-19T18:21:49.999Z</time></trkpt><trkpt lat="49.33374379467991" lon="0.990525966978573"><ele>135.2</ele><time>2026-04-19T18:21:50.999Z</time></trkpt><trkpt lat="49.33378050749874" lon="0.9903688378745402"><ele>134.6</ele><time>2026-04-19T18:21:51.999Z</time></trkpt><trkpt lat="49.33380741266822" lon="0.9901970800040379"><ele>134.0</ele><time>2026-04-19T18:21:52.998Z</time></trkpt><trkpt lat="49.333833604719324" lon="0.9900663881112001"><ele>134.2</ele><time>2026-04-19T18:21:53.998Z</time></trkpt><trkpt lat="49.33386173194691" lon="0.9899247775380392"><ele>134.4</ele><time>2026-04-19T18:21:54.998Z</time></trkpt><trkpt lat="49.333893409180995" lon="0.9897710203338775"><ele>134.6</ele><time>2026-04-19T18:21:55.998Z</time></trkpt><trkpt lat="49.33391428263075" lon="0.9896293080697947"><ele>134.8</ele><time>2026-04-19T18:21:56.998Z</time></trkpt><trkpt lat="49.333930253174074" lon="0.9895054001303173"><ele>135.0</ele><time>2026-04-19T18:21:57.998Z</time></trkpt><trkpt lat="49.333958780373244" lon="0.9893874393241389"><ele>135.5</ele><time>2026-04-19T18:21:58.998Z</time></trkpt><trkpt lat="49.33400404617551" lon="0.989248189403221"><ele>136.0</ele><time>2026-04-19T18:21:59.998Z</time></trkpt><trkpt lat="49.33404814749973" lon="0.9890733257903246"><ele>136.5</ele><time>2026-04-19T18:22:00.998Z</time></trkpt><trkpt lat="49.334080788360836" lon="0.9889047465931321"><ele>137.0</ele><time>2026-04-19T18:22:01.998Z</time></trkpt><trkpt lat="49.33411203730994" lon="0.9887400288434576"><ele>137.0</ele><time>2026-04-19T18:22:02.998Z</time></trkpt><trkpt lat="49.33413339564249" lon="0.988592134129562"><ele>137.0</ele><time>2026-04-19T18:22:03.998Z</time></trkpt><trkpt lat="49.334144725076804" lon="0.9884716923593476"><ele>137.0</ele><time>2026-04-19T18:22:04.998Z</time></trkpt><trkpt lat="49.33415755653288" lon="0.988369393599111"><ele>137.0</ele><time>2026-04-19T18:22:05.998Z</time></trkpt><trkpt lat="49.334180602586365" lon="0.9882185130343426"><ele>137.0</ele><time>2026-04-19T18:22:07.998Z</time></trkpt><trkpt lat="49.33414964699039" lon="0.9880723657799686"><ele>137.0</ele><time>2026-04-19T18:22:09.998Z</time></trkpt><trkpt lat="49.33411212558733" lon="0.9879552677734992"><ele>136.33333333333331</ele><time>2026-04-19T18:22:11Z</time></trkpt><trkpt lat="49.33404026817726" lon="0.9877898659581641"><ele>135.66666666666666</ele><time>2026-04-19T18:22:12Z</time></trkpt><trkpt lat="49.333974248717205" lon="0.9875894416007946"><ele>135.0</ele><time>2026-04-19T18:22:13Z</time></trkpt><trkpt lat="49.33388695322834" lon="0.9873582214020746"><ele>134.66666666666666</ele><time>2026-04-19T18:22:14Z</time></trkpt><trkpt lat="49.333801084985794" lon="0.9871156706322483"><ele>134.33333333333331</ele><time>2026-04-19T18:22:15Z</time></trkpt><trkpt lat="49.33373455643225" lon="0.9868936152468105"><ele>134.0</ele><time>2026-04-19T18:22:16Z</time></trkpt><trkpt lat="49.33366465757009" lon="0.9866877779433366"><ele>133.5</ele><time>2026-04-19T18:22:17Z</time></trkpt><trkpt lat="49.333606285563306" lon="0.9865042607858076"><ele>133.0</ele><time>2026-04-19T18:22:18Z</time></trkpt><trkpt lat="49.33355527856293" lon="0.9863384581314505"><ele>132.5</ele><time>2026-04-19T18:22:19Z</time></trkpt><trkpt lat="49.333501240876444" lon="0.9861835307073118"><ele>132.0</ele><time>2026-04-19T18:22:20Z</time></trkpt><trkpt lat="49.33345662371063" lon="0.9860433145048897"><ele>132.0</ele><time>2026-04-19T18:22:21Z</time></trkpt><trkpt lat="49.33341719756646" lon="0.9859257902623626"><ele>132.0</ele><time>2026-04-19T18:22:22Z</time></trkpt><trkpt lat="49.333387019657806" lon="0.9858236374266733"><ele>132.0</ele><time>2026-04-19T18:22:23Z</time></trkpt><trkpt lat="49.33335309318983" lon="0.9857363536655422"><ele>132.0</ele><time>2026-04-19T18:22:24Z</time></trkpt><trkpt lat="49.333306611174045" lon="0.9856089514362687"><ele>132.0</ele><time>2026-04-19T18:22:26Z</time></trkpt><trkpt lat="49.333250364768396" lon="0.9854202766744009"><ele>131.25</ele><time>2026-04-19T18:22:28Z</time></trkpt><trkpt lat="49.3331900600124" lon="0.9852319357733467"><ele>130.5</ele><time>2026-04-19T18:22:29Z</time></trkpt><trkpt lat="49.33314444639497" lon="0.9850772317857287"><ele>129.75</ele><time>2026-04-19T18:22:30Z</time></trkpt><trkpt lat="49.33308943912585" lon="0.9849452518212474"><ele>129.0</ele><time>2026-04-19T18:22:31Z</time></trkpt><trkpt lat="49.333049573747786" lon="0.984797971222149"><ele>128.8</ele><time>2026-04-19T18:22:32Z</time></trkpt><trkpt lat="49.33299668198925" lon="0.9846548836628287"><ele>128.60000000000002</ele><time>2026-04-19T18:22:33Z</time></trkpt><trkpt lat="49.33294537606765" lon="0.9845032929951198"><ele>128.4</ele><time>2026-04-19T18:22:34Z</time></trkpt><trkpt lat="49.33289834217933" lon="0.9843764108816032"><ele>128.20000000000002</ele><time>2026-04-19T18:22:35Z</time></trkpt><trkpt lat="49.33285359178827" lon="0.9842530650062776"><ele>128.0</ele><time>2026-04-19T18:22:36Z</time></trkpt><trkpt lat="49.33281649268353" lon="0.9841214613627958"><ele>127.0</ele><time>2026-04-19T18:22:37Z</time></trkpt><trkpt lat="49.33277253204908" lon="0.9839831341852588"><ele>126.00000000000001</ele><time>2026-04-19T18:22:38Z</time></trkpt><trkpt lat="49.332722757322415" lon="0.9838506164165162"><ele>125.00000000000001</ele><time>2026-04-19T18:22:39Z</time></trkpt><trkpt lat="49.33267999667893" lon="0.9837228165686507"><ele>124.0</ele><time>2026-04-19T18:22:40Z</time></trkpt><trkpt lat="49.33263276579047" lon="0.9836017188457764"><ele>123.0</ele><time>2026-04-19T18:22:41Z</time></trkpt><trkpt lat="49.332592128542586" lon="0.9834863931635104"><ele>123.0</ele><time>2026-04-19T18:22:42Z</time></trkpt><trkpt lat="49.33255463763051" lon="0.9833905849871993"><ele>123.0</ele><time>2026-04-19T18:22:43Z</time></trkpt><trkpt lat="49.33252277700325" lon="0.9832844603898666"><ele>123.0</ele><time>2026-04-19T18:22:44Z</time></trkpt><trkpt lat="49.332486982614874" lon="0.9831705599954171"><ele>123.0</ele><time>2026-04-19T18:22:45Z</time></trkpt><trkpt lat="49.3324486313026" lon="0.9830650288004341"><ele>123.0</ele><time>2026-04-19T18:22:46Z</time></trkpt><trkpt lat="49.33241914048451" lon="0.9829694674628643"><ele>123.0</ele><time>2026-04-19T18:22:47Z</time></trkpt><trkpt lat="49.33236316440195" lon="0.9828102701733001"><ele>121.66666666666667</ele><time>2026-04-19T18:22:49Z</time></trkpt><trkpt lat="49.33232733959044" lon="0.9826715920677292"><ele>120.33333333333334</ele><time>2026-04-19T18:22:51Z</time></trkpt><trkpt lat="49.332365665012546" lon="0.982588251654943"><ele>119.0</ele><time>2026-04-19T18:22:54Z</time></trkpt><trkpt lat="49.33243411814857" lon="0.9825512422687191"><ele>117.66666666666667</ele><time>2026-04-19T18:22:57Z</time></trkpt><trkpt lat="49.332499234924114" lon="0.9824783803111767"><ele>116.33333333333334</ele><time>2026-04-19T18:23:00Z</time></trkpt><trkpt lat="49.33258551267882" lon="0.9824293107163429"><ele>115.0</ele><time>2026-04-19T18:23:03.999Z</time></trkpt><trkpt lat="49.33268051854732" lon="0.9823593616831451"><ele>113.42857142857142</ele><time>2026-04-19T18:23:05.999Z</time></trkpt><trkpt lat="49.332760014371345" lon="0.9823048818364485"><ele>111.85714285714286</ele><time>2026-04-19T18:23:07.999Z</time></trkpt><trkpt lat="49.33282202086583" lon="0.9822672631685683"><ele>110.28571428571428</ele><time>2026-04-19T18:23:09.999Z</time></trkpt><trkpt lat="49.332886511213296" lon="0.9822131660152157"><ele>108.71428571428571</ele><time>2026-04-19T18:23:11.999Z</time></trkpt><trkpt lat="49.33295640194662" lon="0.9822006461138665"><ele>107.14285714285714</ele><time>2026-04-19T18:23:13.999Z</time></trkpt><trkpt lat="49.33302169261439" lon="0.9821552177532769"><ele>105.57142857142857</ele><time>2026-04-19T18:23:15.999Z</time></trkpt><trkpt lat="49.33309461665387" lon="0.9821689584676534"><ele>104.0</ele><time>2026-04-19T18:23:36.999Z</time></trkpt><trkpt lat="49.333121331075766" lon="0.9823137508073613"><ele>102.99999999999999</ele><time>2026-04-19T18:23:44.999Z</time></trkpt><trkpt lat="49.333157103980966" lon="0.9824519297667025"><ele>102.0</ele><time>2026-04-19T18:23:45.999Z</time></trkpt><trkpt lat="49.333206097301144" lon="0.9825636537422143"><ele>101.0</ele><time>2026-04-19T18:23:46.999Z</time></trkpt><trkpt lat="49.333261606634004" lon="0.9826511993234277"><ele>100.0</ele><time>2026-04-19T18:23:47.999Z</time></trkpt><trkpt lat="49.333318567268215" lon="0.9827163741571968"><ele>98.99999999999999</ele><time>2026-04-19T18:23:48.999Z</time></trkpt><trkpt lat="49.33338174299634" lon="0.9827592418840106"><ele>98.0</ele><time>2026-04-19T18:23:49.999Z</time></trkpt><trkpt lat="49.333476707780314" lon="0.9827571408675343"><ele>97.99999999999999</ele><time>2026-04-19T18:23:51.999Z</time></trkpt><trkpt lat="49.33354240872129" lon="0.9826873539774421"><ele>98.0</ele><time>2026-04-19T18:23:53.999Z</time></trkpt><trkpt lat="49.33364759799678" lon="0.9826572114836107"><ele>98.0</ele><time>2026-04-19T18:23:55.999Z</time></trkpt><trkpt lat="49.333705721751095" lon="0.9825466088937083"><ele>98.0</ele><time>2026-04-19T18:23:56.999Z</time></trkpt><trkpt lat="49.33371243798333" lon="0.9824354155250091"><ele>97.99999999999999</ele><time>2026-04-19T18:23:58.999Z</time></trkpt><trkpt lat="49.33372540982059" lon="0.9823351041307634"><ele>98.0</ele><time>2026-04-19T18:23:59.999Z</time></trkpt><trkpt lat="49.33372853407281" lon="0.9822353934822309"><ele>95.0</ele><time>2026-04-19T18:24:00.999Z</time></trkpt><trkpt lat="49.33348616763991" lon="0.982156128236593"><ele>92.0</ele><time>2026-04-19T18:24:18Z</time></trkpt><trkpt lat="49.33348208749801" lon="0.9820432409558965"><ele>89.0</ele><time>2026-04-19T18:24:30Z</time></trkpt><trkpt lat="49.33344907141405" lon="0.9818882884391389"><ele>86.0</ele><time>2026-04-19T18:24:32Z</time></trkpt><trkpt lat="49.33342177562925" lon="0.9817212289921979"><ele>85.0</ele><time>2026-04-19T18:24:34Z</time></trkpt><trkpt lat="49.33339184383991" lon="0.9815776537783296"><ele>84.0</ele><time>2026-04-19T18:24:36Z</time></trkpt><trkpt lat="49.33338286530582" lon="0.9813957034525346"><ele>83.0</ele><time>2026-04-19T18:24:38Z</time></trkpt><trkpt lat="49.33336019563136" lon="0.9812611726590448"><ele>82.0</ele><time>2026-04-19T18:24:40Z</time></trkpt><trkpt lat="49.333303748607364" lon="0.9811935936078169"><ele>81.0</ele><time>2026-04-19T18:24:42Z</time></trkpt><trkpt lat="49.33326581083053" lon="0.9810911399761212"><ele>81.0</ele><time>2026-04-19T18:24:45Z</time></trkpt><trkpt lat="49.3332788019408" lon="0.9809769052147524"><ele>81.0</ele><time>2026-04-19T18:24:47Z</time></trkpt><trkpt lat="49.333261366795014" lon="0.9808360004660799"><ele>81.0</ele><time>2026-04-19T18:24:49Z</time></trkpt><trkpt lat="49.333220540149185" lon="0.9806967839229112"><ele>81.0</ele><time>2026-04-19T18:24:51Z</time></trkpt><trkpt lat="49.33320739044283" lon="0.9805320323380192"><ele>81.0</ele><time>2026-04-19T18:24:53Z</time></trkpt><trkpt lat="49.33319294429084" lon="0.9803778880452404"><ele>79.6</ele><time>2026-04-19T18:24:55Z</time></trkpt><trkpt lat="49.33316152784554" lon="0.9802069014828423"><ele>78.19999999999999</ele><time>2026-04-19T18:24:57Z</time></trkpt><trkpt lat="49.333132849853534" lon="0.9800455069793109"><ele>76.80000000000001</ele><time>2026-04-19T18:24:59Z</time></trkpt><trkpt lat="49.33311515762635" lon="0.9799470592409243"><ele>75.4</ele><time>2026-04-19T18:25:00Z</time></trkpt><trkpt lat="49.333080700130466" lon="0.9797504208246022"><ele>74.0</ele><time>2026-04-19T18:25:02Z</time></trkpt><trkpt lat="49.33307067550049" lon="0.9795835244993616"><ele>73.0</ele><time>2026-04-19T18:25:04Z</time></trkpt><trkpt lat="49.333060044900584" lon="0.9794812425056383"><ele>72.0</ele><time>2026-04-19T18:25:05Z</time></trkpt><trkpt lat="49.33306009502467" lon="0.9793524359824775"><ele>71.0</ele><time>2026-04-19T18:25:06Z</time></trkpt><trkpt lat="49.333062344586665" lon="0.9792350468628402"><ele>70.0</ele><time>2026-04-19T18:25:07Z</time></trkpt><trkpt lat="49.33307055715869" lon="0.9791385476692529"><ele>69.0</ele><time>2026-04-19T18:25:08Z</time></trkpt><trkpt lat="49.33308885467858" lon="0.9790429756023831"><ele>68.0</ele><time>2026-04-19T18:25:09Z</time></trkpt><trkpt lat="49.333082742943354" lon="0.9788924293033772"><ele>67.4</ele><time>2026-04-19T18:25:11Z</time></trkpt><trkpt lat="49.33301458556692" lon="0.9787613191703223"><ele>66.8</ele><time>2026-04-19T18:25:12.999Z</time></trkpt><trkpt lat="49.332976599773566" lon="0.978568617277064"><ele>66.2</ele><time>2026-04-19T18:25:14.999Z</time></trkpt><trkpt lat="49.3329527201426" lon="0.9784567605133042"><ele>65.6</ele><time>2026-04-19T18:25:15.999Z</time></trkpt><trkpt lat="49.332914293563576" lon="0.978323762805186"><ele>65.0</ele><time>2026-04-19T18:25:17.999Z</time></trkpt><trkpt lat="49.33284172787744" lon="0.9782151933302958"><ele>63.16666666666667</ele><time>2026-04-19T18:25:20.999Z</time></trkpt><trkpt lat="49.33281201404271" lon="0.9780845469814657"><ele>61.333333333333336</ele><time>2026-04-19T18:25:22.999Z</time></trkpt><trkpt lat="49.33283269002329" lon="0.9779415307308179"><ele>59.5</ele><time>2026-04-19T18:25:24.999Z</time></trkpt><trkpt lat="49.33285427002855" lon="0.977834028431874"><ele>57.66666666666667</ele><time>2026-04-19T18:25:26.999Z</time></trkpt><trkpt lat="49.33280337571549" lon="0.9777236963783458"><ele>55.833333333333336</ele><time>2026-04-19T18:25:30.999Z</time></trkpt><trkpt lat="49.33276771959708" lon="0.9776055660244951"><ele>54.0</ele><time>2026-04-19T18:25:33.999Z</time></trkpt><trkpt lat="49.3326853175948" lon="0.9774563288457995"><ele>53.25</ele><time>2026-04-19T18:25:35.999Z</time></trkpt><trkpt lat="49.332613474026545" lon="0.9773483784817751"><ele>52.5</ele><time>2026-04-19T18:25:36.999Z</time></trkpt><trkpt lat="49.33254394085584" lon="0.9772339005176758"><ele>51.75</ele><time>2026-04-19T18:25:37.999Z</time></trkpt><trkpt lat="49.33244655190734" lon="0.9770663324802598"><ele>51.0</ele><time>2026-04-19T18:25:38.999Z</time></trkpt><trkpt lat="49.33235349857623" lon="0.9769238335738614"><ele>51.0</ele><time>2026-04-19T18:25:39.999Z</time></trkpt><trkpt lat="49.33226774432042" lon="0.9767917495312117"><ele>51.0</ele><time>2026-04-19T18:25:40.999Z</time></trkpt><trkpt lat="49.33216382544069" lon="0.9766776703204926"><ele>51.0</ele><time>2026-04-19T18:25:41.999Z</time></trkpt><trkpt lat="49.33204680709415" lon="0.9765247713369697"><ele>51.0</ele><time>2026-04-19T18:25:42.999Z</time></trkpt><trkpt lat="49.331930338503405" lon="0.976399966464238"><ele>51.199999999999996</ele><time>2026-04-19T18:25:43.999Z</time></trkpt><trkpt lat="49.331833856920106" lon="0.9762577684983519"><ele>51.4</ele><time>2026-04-19T18:25:44.999Z</time></trkpt><trkpt lat="49.33175611517713" lon="0.9761365677264272"><ele>51.6</ele><time>2026-04-19T18:25:45.999Z</time></trkpt><trkpt lat="49.331689713911565" lon="0.9760408180305246"><ele>51.8</ele><time>2026-04-19T18:25:46.999Z</time></trkpt><trkpt lat="49.33163378198952" lon="0.9759543212893385"><ele>52.0</ele><time>2026-04-19T18:25:47.999Z</time></trkpt><trkpt lat="49.3315722487199" lon="0.9758509968566763"><ele>50.83333333333333</ele><time>2026-04-19T18:25:48.999Z</time></trkpt><trkpt lat="49.33151009646984" lon="0.975770652917822"><ele>49.666666666666664</ele><time>2026-04-19T18:25:49.999Z</time></trkpt><trkpt lat="49.33144989229456" lon="0.975696973838968"><ele>48.5</ele><time>2026-04-19T18:25:50.999Z</time></trkpt><trkpt lat="49.33138125351619" lon="0.9756302266754597"><ele>47.33333333333333</ele><time>2026-04-19T18:25:51.999Z</time></trkpt><trkpt lat="49.33130892577561" lon="0.9755402911409906"><ele>46.166666666666664</ele><time>2026-04-19T18:25:52.999Z</time></trkpt><trkpt lat="49.33121870386618" lon="0.9754608668808689"><ele>45.0</ele><time>2026-04-19T18:25:53.999Z</time></trkpt><trkpt lat="49.331139462291624" lon="0.9753926386124095"><ele>44.6</ele><time>2026-04-19T18:25:54.999Z</time></trkpt><trkpt lat="49.331068642715685" lon="0.9753108257456145"><ele>44.2</ele><time>2026-04-19T18:25:55.999Z</time></trkpt><trkpt lat="49.330999981678126" lon="0.9752298690381469"><ele>43.8</ele><time>2026-04-19T18:25:56.999Z</time></trkpt><trkpt lat="49.33093725486197" lon="0.9751709003816562"><ele>43.4</ele><time>2026-04-19T18:25:57.999Z</time></trkpt><trkpt lat="49.33084799726137" lon="0.9750272210111357"><ele>43.0</ele><time>2026-04-19T18:25:59.999Z</time></trkpt><trkpt lat="49.33081193613383" lon="0.9749273908997317"><ele>41.6</ele><time>2026-04-19T18:26:00.999Z</time></trkpt><trkpt lat="49.33068524795363" lon="0.9748451560509247"><ele>40.199999999999996</ele><time>2026-04-19T18:26:02.999Z</time></trkpt><trkpt lat="49.330591434893584" lon="0.9747648714350771"><ele>38.8</ele><time>2026-04-19T18:26:04.999Z</time></trkpt><trkpt lat="49.33052969346712" lon="0.9746621018309066"><ele>37.4</ele><time>2026-04-19T18:26:06.999Z</time></trkpt><trkpt lat="49.33049244695169" lon="0.9745154905132458"><ele>36.0</ele><time>2026-04-19T18:26:08.999Z</time></trkpt><trkpt lat="49.33043012453227" lon="0.9744577939329155"><ele>34.5</ele><time>2026-04-19T18:26:09.999Z</time></trkpt><trkpt lat="49.33036003502203" lon="0.9743545967049101"><ele>33.0</ele><time>2026-04-19T18:26:10.999Z</time></trkpt><trkpt lat="49.33024103015187" lon="0.974255069908834"><ele>31.5</ele><time>2026-04-19T18:26:11.999Z</time></trkpt><trkpt lat="49.33011110256656" lon="0.9741718892399122"><ele>30.0</ele><time>2026-04-19T18:26:12.999Z</time></trkpt><trkpt lat="49.32997719365218" lon="0.9741316076913061"><ele>29.666666666666664</ele><time>2026-04-19T18:26:13.999Z</time></trkpt><trkpt lat="49.32981958222919" lon="0.9740875488932579"><ele>29.333333333333332</ele><time>2026-04-19T18:26:14.999Z</time></trkpt><trkpt lat="49.3296582215319" lon="0.9740437570874354"><ele>29.0</ele><time>2026-04-19T18:26:15.999Z</time></trkpt><trkpt lat="49.32948593826495" lon="0.9739882959995869"><ele>28.333333333333332</ele><time>2026-04-19T18:26:16.999Z</time></trkpt><trkpt lat="49.32930431825972" lon="0.9739293247898358"><ele>27.666666666666664</ele><time>2026-04-19T18:26:17.999Z</time></trkpt><trkpt lat="49.329113432018445" lon="0.9738734933916193"><ele>27.0</ele><time>2026-04-19T18:26:18.999Z</time></trkpt><trkpt lat="49.328913136004644" lon="0.973809830249511"><ele>28.666666666666664</ele><time>2026-04-19T18:26:19.999Z</time></trkpt><trkpt lat="49.32871794630841" lon="0.9737628096307067"><ele>30.333333333333332</ele><time>2026-04-19T18:26:20.999Z</time></trkpt><trkpt lat="49.32854565249218" lon="0.9737152127207377"><ele>32.0</ele><time>2026-04-19T18:26:21.999Z</time></trkpt><trkpt lat="49.328394115054074" lon="0.9736590460042344"><ele>32.0</ele><time>2026-04-19T18:26:23Z</time></trkpt><trkpt lat="49.328255427959654" lon="0.9736199557551934"><ele>32.0</ele><time>2026-04-19T18:26:24Z</time></trkpt><trkpt lat="49.32813364997198" lon="0.9735866360918369"><ele>32.0</ele><time>2026-04-19T18:26:25Z</time></trkpt><trkpt lat="49.328007459047235" lon="0.9735543656680371"><ele>32.0</ele><time>2026-04-19T18:26:26Z</time></trkpt><trkpt lat="49.32787891395297" lon="0.9735302774385435"><ele>32.6</ele><time>2026-04-19T18:26:27Z</time></trkpt><trkpt lat="49.32776717369921" lon="0.9735048346309336"><ele>33.2</ele><time>2026-04-19T18:26:28Z</time></trkpt><trkpt lat="49.32766006751349" lon="0.9735122510281712"><ele>33.8</ele><time>2026-04-19T18:26:29Z</time></trkpt><trkpt lat="49.327564077917934" lon="0.9735728920720396"><ele>34.4</ele><time>2026-04-19T18:26:30Z</time></trkpt><trkpt lat="49.327477236539345" lon="0.9736706966098589"><ele>35.0</ele><time>2026-04-19T18:26:31Z</time></trkpt><trkpt lat="49.32739394802096" lon="0.9737814981089425"><ele>35.0</ele><time>2026-04-19T18:26:32Z</time></trkpt><trkpt lat="49.32731095462305" lon="0.9738836512382714"><ele>35.0</ele><time>2026-04-19T18:26:33Z</time></trkpt><trkpt lat="49.32723968159078" lon="0.9740071667244862"><ele>35.0</ele><time>2026-04-19T18:26:34Z</time></trkpt><trkpt lat="49.327171514512834" lon="0.9741378497657075"><ele>35.0</ele><time>2026-04-19T18:26:35Z</time></trkpt><trkpt lat="49.32711706637278" lon="0.9742896015254774"><ele>35.0</ele><time>2026-04-19T18:26:36Z</time></trkpt><trkpt lat="49.32706560960681" lon="0.9744366994837514"><ele>33.5</ele><time>2026-04-19T18:26:37Z</time></trkpt><trkpt lat="49.32701844151053" lon="0.974590178981496"><ele>32.0</ele><time>2026-04-19T18:26:38Z</time></trkpt><trkpt lat="49.32697409216963" lon="0.9747533828086321"><ele>30.5</ele><time>2026-04-19T18:26:39Z</time></trkpt><trkpt lat="49.32693549524093" lon="0.9749281218169377"><ele>29.0</ele><time>2026-04-19T18:26:40Z</time></trkpt><trkpt lat="49.326897673524016" lon="0.975112463796528"><ele>29.0</ele><time>2026-04-19T18:26:41Z</time></trkpt><trkpt lat="49.32687640960826" lon="0.9753020350432529"><ele>29.0</ele><time>2026-04-19T18:26:42Z</time></trkpt><trkpt lat="49.32686526907329" lon="0.9754988185644021"><ele>29.0</ele><time>2026-04-19T18:26:43Z</time></trkpt><trkpt lat="49.32685755630883" lon="0.9756996198862452"><ele>29.0</ele><time>2026-04-19T18:26:44Z</time></trkpt><trkpt lat="49.326874764462524" lon="0.975883397053267"><ele>28.666666666666664</ele><time>2026-04-19T18:26:45Z</time></trkpt><trkpt lat="49.32688955208475" lon="0.9760315490622796"><ele>28.333333333333332</ele><time>2026-04-19T18:26:46Z</time></trkpt><trkpt lat="49.326904506555" lon="0.9761551447534624"><ele>28.0</ele><time>2026-04-19T18:26:47Z</time></trkpt><trkpt lat="49.32691430636024" lon="0.9762908481235728"><ele>27.666666666666664</ele><time>2026-04-19T18:26:49Z</time></trkpt><trkpt lat="49.32681533366714" lon="0.9763581604249392"><ele>27.333333333333332</ele><time>2026-04-19T18:26:52Z</time></trkpt><trkpt lat="49.3267466147084" lon="0.9763657176783589"><ele>27.0</ele><time>2026-04-19T18:26:53Z</time></trkpt><trkpt lat="49.326661423968055" lon="0.9763990816260134"><ele>27.0</ele><time>2026-04-19T18:26:54Z</time></trkpt><trkpt lat="49.32656778198917" lon="0.9764380695724805"><ele>27.0</ele><time>2026-04-19T18:26:55Z</time></trkpt><trkpt lat="49.326464934885394" lon="0.9764657184933311"><ele>27.0</ele><time>2026-04-19T18:26:56Z</time></trkpt><trkpt lat="49.326317950724466" lon="0.9764968996974603"><ele>27.0</ele><time>2026-04-19T18:26:57Z</time></trkpt><trkpt lat="49.32614947771499" lon="0.9765311897834983"><ele>29.333333333333336</ele><time>2026-04-19T18:26:58Z</time></trkpt><trkpt lat="49.32595892289376" lon="0.9765708740809507"><ele>31.666666666666668</ele><time>2026-04-19T18:26:59Z</time></trkpt><trkpt lat="49.325800941853466" lon="0.9765891368188905"><ele>34.0</ele><time>2026-04-19T18:27:00Z</time></trkpt><trkpt lat="49.32568129166789" lon="0.9765791176728655"><ele>34.0</ele><time>2026-04-19T18:27:01Z</time></trkpt><trkpt lat="49.32556960714993" lon="0.9765619150672584"><ele>34.0</ele><time>2026-04-19T18:27:02Z</time></trkpt><trkpt lat="49.32546879235831" lon="0.9765239030746954"><ele>34.0</ele><time>2026-04-19T18:27:03Z</time></trkpt><trkpt lat="49.325335975570944" lon="0.9764414560080451"><ele>34.0</ele><time>2026-04-19T18:27:04Z</time></trkpt><trkpt lat="49.32520754738017" lon="0.976353519323035"><ele>35.5</ele><time>2026-04-19T18:27:05Z</time></trkpt><trkpt lat="49.32509478149295" lon="0.9762523781037905"><ele>37.0</ele><time>2026-04-19T18:27:06Z</time></trkpt><trkpt lat="49.32499207729921" lon="0.9761216936755738"><ele>38.5</ele><time>2026-04-19T18:27:07Z</time></trkpt><trkpt lat="49.32489425613383" lon="0.9759718792355624"><ele>40.0</ele><time>2026-04-19T18:27:08Z</time></trkpt><trkpt lat="49.32481011034326" lon="0.9758116432305031"><ele>40.75</ele><time>2026-04-19T18:27:09Z</time></trkpt><trkpt lat="49.324733128793945" lon="0.9756400024797037"><ele>41.5</ele><time>2026-04-19T18:27:10Z</time></trkpt><trkpt lat="49.32466166067316" lon="0.9754698621238591"><ele>42.25</ele><time>2026-04-19T18:27:11Z</time></trkpt><trkpt lat="49.3245976588189" lon="0.9752917540976404"><ele>43.0</ele><time>2026-04-19T18:27:12Z</time></trkpt><trkpt lat="49.324521022632084" lon="0.9751262802984965"><ele>43.599999999999994</ele><time>2026-04-19T18:27:13Z</time></trkpt><trkpt lat="49.32444979656901" lon="0.9749997668946552"><ele>44.199999999999996</ele><time>2026-04-19T18:27:14Z</time></trkpt><trkpt lat="49.32438791356383" lon="0.9749190344406492"><ele>44.8</ele><time>2026-04-19T18:27:15Z</time></trkpt><trkpt lat="49.32432112132058" lon="0.9748223452187625"><ele>45.4</ele><time>2026-04-19T18:27:16Z</time></trkpt><trkpt lat="49.324233144956324" lon="0.9746998014127788"><ele>46.0</ele><time>2026-04-19T18:27:17Z</time></trkpt><trkpt lat="49.3241633888906" lon="0.9746094190261058"><ele>46.0</ele><time>2026-04-19T18:27:18Z</time></trkpt><trkpt lat="49.32409457356161" lon="0.9745066427189022"><ele>46.0</ele><time>2026-04-19T18:27:19Z</time></trkpt><trkpt lat="49.32392205279228" lon="0.9745054908750156"><ele>46.0</ele><time>2026-04-19T18:27:21Z</time></trkpt><trkpt lat="49.32380257760496" lon="0.9744816928678272"><ele>46.0</ele><time>2026-04-19T18:27:22Z</time></trkpt><trkpt lat="49.323689919937685" lon="0.9744400991148437"><ele>46.5</ele><time>2026-04-19T18:27:23Z</time></trkpt><trkpt lat="49.32357719933509" lon="0.9743730080757504"><ele>47.0</ele><time>2026-04-19T18:27:24Z</time></trkpt><trkpt lat="49.323464501755495" lon="0.9742598996349447"><ele>47.5</ele><time>2026-04-19T18:27:24.999Z</time></trkpt><trkpt lat="49.3233529999576" lon="0.9741080745287094"><ele>48.0</ele><time>2026-04-19T18:27:25.999Z</time></trkpt><trkpt lat="49.32323173493399" lon="0.9739585893993903"><ele>48.0</ele><time>2026-04-19T18:27:26.999Z</time></trkpt><trkpt lat="49.323092919301814" lon="0.9738276661351674"><ele>48.0</ele><time>2026-04-19T18:27:27.999Z</time></trkpt><trkpt lat="49.322969564638875" lon="0.9737364601203747"><ele>48.0</ele><time>2026-04-19T18:27:28.999Z</time></trkpt><trkpt lat="49.32281444803488" lon="0.9736411391977625"><ele>48.66666666666667</ele><time>2026-04-19T18:27:29.999Z</time></trkpt><trkpt lat="49.32263754101488" lon="0.9735425241418852"><ele>49.333333333333336</ele><time>2026-04-19T18:27:30.999Z</time></trkpt><trkpt lat="49.322453074521036" lon="0.9734532985166477"><ele>50.0</ele><time>2026-04-19T18:27:31.999Z</time></trkpt><trkpt lat="49.32225980884353" lon="0.973352058197969"><ele>50.66666666666667</ele><time>2026-04-19T18:27:32.999Z</time></trkpt><trkpt lat="49.32205904731738" lon="0.9732378560782059"><ele>51.33333333333333</ele><time>2026-04-19T18:27:33.999Z</time></trkpt><trkpt lat="49.321849540800606" lon="0.9731077207475682"><ele>52.0</ele><time>2026-04-19T18:27:34.999Z</time></trkpt><trkpt lat="49.321640173063166" lon="0.9729829137408498"><ele>52.0</ele><time>2026-04-19T18:27:35.999Z</time></trkpt><trkpt lat="49.321449743606316" lon="0.97288088837609"><ele>52.0</ele><time>2026-04-19T18:27:36.999Z</time></trkpt><trkpt lat="49.32128152983629" lon="0.9727924943543125"><ele>52.0</ele><time>2026-04-19T18:27:37.999Z</time></trkpt><trkpt lat="49.321130523412094" lon="0.9727221156411461"><ele>53.75</ele><time>2026-04-19T18:27:38.999Z</time></trkpt><trkpt lat="49.320992427973415" lon="0.9726847823567849"><ele>55.5</ele><time>2026-04-19T18:27:39.999Z</time></trkpt><trkpt lat="49.320868433155105" lon="0.972681278385144"><ele>57.25</ele><time>2026-04-19T18:27:40.999Z</time></trkpt><trkpt lat="49.3207496535808" lon="0.9726798897710334"><ele>59.0</ele><time>2026-04-19T18:27:41.999Z</time></trkpt><trkpt lat="49.32061181374397" lon="0.9726789608619564"><ele>61.25</ele><time>2026-04-19T18:27:42.999Z</time></trkpt><trkpt lat="49.32047618930487" lon="0.9726705412522928"><ele>63.5</ele><time>2026-04-19T18:27:43.999Z</time></trkpt><trkpt lat="49.32033364453888" lon="0.9726529585366224"><ele>65.75</ele><time>2026-04-19T18:27:44.999Z</time></trkpt><trkpt lat="49.3202216838235" lon="0.97263037189658"><ele>68.0</ele><time>2026-04-19T18:27:45.999Z</time></trkpt><trkpt lat="49.32012932915843" lon="0.9726097485845406"><ele>68.0</ele><time>2026-04-19T18:27:46.999Z</time></trkpt><trkpt lat="49.32005476640945" lon="0.9725733787817782"><ele>68.0</ele><time>2026-04-19T18:27:47.999Z</time></trkpt><trkpt lat="49.319990387187055" lon="0.9725086464572147"><ele>68.0</ele><time>2026-04-19T18:27:48.999Z</time></trkpt><trkpt lat="49.31989924786159" lon="0.9724570233385174"><ele>68.0</ele><time>2026-04-19T18:27:50.999Z</time></trkpt><trkpt lat="49.31983382937811" lon="0.9724316637641285"><ele>68.0</ele><time>2026-04-19T18:27:51.999Z</time></trkpt><trkpt lat="49.31976459590869" lon="0.9723809565499916"><ele>68.0</ele><time>2026-04-19T18:27:52.999Z</time></trkpt><trkpt lat="49.31969933990879" lon="0.972333434013464"><ele>67.75</ele><time>2026-04-19T18:27:53.999Z</time></trkpt><trkpt lat="49.31961456321026" lon="0.9722747590603511"><ele>67.5</ele><time>2026-04-19T18:27:54.999Z</time></trkpt><trkpt lat="49.31950347620362" lon="0.9721962195874592"><ele>67.25</ele><time>2026-04-19T18:27:55.999Z</time></trkpt><trkpt lat="49.31939179960269" lon="0.9721026506879032"><ele>67.0</ele><time>2026-04-19T18:27:56.999Z</time></trkpt><trkpt lat="49.319279883167766" lon="0.9719919478865804"><ele>67.0</ele><time>2026-04-19T18:27:57.999Z</time></trkpt><trkpt lat="49.319159655979604" lon="0.9718648938731558"><ele>67.0</ele><time>2026-04-19T18:27:58.999Z</time></trkpt><trkpt lat="49.31903563334213" lon="0.9717245181227211"><ele>67.0</ele><time>2026-04-19T18:27:59.999Z</time></trkpt><trkpt lat="49.31891198212198" lon="0.9715882117657777"><ele>68.0</ele><time>2026-04-19T18:28:00.999Z</time></trkpt><trkpt lat="49.31877253363647" lon="0.9714174664180913"><ele>69.0</ele><time>2026-04-19T18:28:01.999Z</time></trkpt><trkpt lat="49.318651280971814" lon="0.9712491386659674"><ele>70.0</ele><time>2026-04-19T18:28:02.999Z</time></trkpt><trkpt lat="49.318550044881405" lon="0.971093742891404"><ele>70.0</ele><time>2026-04-19T18:28:03.999Z</time></trkpt><trkpt lat="49.318464124903805" lon="0.9709617021517036"><ele>70.0</ele><time>2026-04-19T18:28:04.999Z</time></trkpt><trkpt lat="49.318399171359175" lon="0.9708241949983712"><ele>70.0</ele><time>2026-04-19T18:28:05.999Z</time></trkpt><trkpt lat="49.31833198542347" lon="0.9706757074394308"><ele>70.0</ele><time>2026-04-19T18:28:06.999Z</time></trkpt><trkpt lat="49.3182496146855" lon="0.9705069849537361"><ele>70.0</ele><time>2026-04-19T18:28:07.999Z</time></trkpt><trkpt lat="49.31815994054308" lon="0.970305910002661"><ele>70.0</ele><time>2026-04-19T18:28:08.999Z</time></trkpt><trkpt lat="49.31805973157495" lon="0.9700820019368035"><ele>70.0</ele><time>2026-04-19T18:28:09.999Z</time></trkpt><trkpt lat="49.31794818979598" lon="0.9698431364224535"><ele>74.0</ele><time>2026-04-19T18:28:10.999Z</time></trkpt><trkpt lat="49.31783215150105" lon="0.9696053435677608"><ele>78.0</ele><time>2026-04-19T18:28:11.999Z</time></trkpt><trkpt lat="49.31771428437713" lon="0.9693789678197173"><ele>82.0</ele><time>2026-04-19T18:28:12.999Z</time></trkpt><trkpt lat="49.3176052218793" lon="0.9692064810161227"><ele>80.33333333333333</ele><time>2026-04-19T18:28:13.999Z</time></trkpt><trkpt lat="49.317499156570356" lon="0.9690465272309324"><ele>78.66666666666667</ele><time>2026-04-19T18:28:14.999Z</time></trkpt><trkpt lat="49.317375853176166" lon="0.9688808194460362"><ele>77.0</ele><time>2026-04-19T18:28:15.999Z</time></trkpt><trkpt lat="49.317267555996416" lon="0.9687279382688798"><ele>79.75</ele><time>2026-04-19T18:28:16.999Z</time></trkpt><trkpt lat="49.317176371112225" lon="0.9685907132396595"><ele>82.5</ele><time>2026-04-19T18:28:17.999Z</time></trkpt><trkpt lat="49.31708548399625" lon="0.9684568988095242"><ele>85.25</ele><time>2026-04-19T18:28:18.999Z</time></trkpt><trkpt lat="49.31699301356041" lon="0.9683212535339948"><ele>88.0</ele><time>2026-04-19T18:28:19.999Z</time></trkpt><trkpt lat="49.316910146304856" lon="0.9681799903656513"><ele>88.0</ele><time>2026-04-19T18:28:20.999Z</time></trkpt><trkpt lat="49.31682293867021" lon="0.9680327603458793"><ele>88.0</ele><time>2026-04-19T18:28:21.999Z</time></trkpt><trkpt lat="49.31674224603183" lon="0.9678774070650404"><ele>88.0</ele><time>2026-04-19T18:28:22.999Z</time></trkpt><trkpt lat="49.31665729507869" lon="0.9677214846354645"><ele>88.0</ele><time>2026-04-19T18:28:23.999Z</time></trkpt><trkpt lat="49.31657257734029" lon="0.967590025850178"><ele>88.5</ele><time>2026-04-19T18:28:24.999Z</time></trkpt><trkpt lat="49.316503651997785" lon="0.9674960875625432"><ele>89.0</ele><time>2026-04-19T18:28:25.999Z</time></trkpt><trkpt lat="49.31644893201581" lon="0.967418562261973"><ele>89.5</ele><time>2026-04-19T18:28:26.999Z</time></trkpt><trkpt lat="49.316382212825935" lon="0.9673375256612612"><ele>90.0</ele><time>2026-04-19T18:28:29.001Z</time></trkpt><trkpt lat="49.3163115539578" lon="0.9672317618347409"><ele>90.5</ele><time>2026-04-19T18:28:32.001Z</time></trkpt><trkpt lat="49.316258417104585" lon="0.9671478330090155"><ele>91.0</ele><time>2026-04-19T18:28:34Z</time></trkpt><trkpt lat="49.31613034387766" lon="0.9670144389830849"><ele>92.5</ele><time>2026-04-19T18:28:36Z</time></trkpt><trkpt lat="49.31603658421509" lon="0.9669094739453273"><ele>94.0</ele><time>2026-04-19T18:28:37Z</time></trkpt><trkpt lat="49.31592006728867" lon="0.9667836548878109"><ele>95.5</ele><time>2026-04-19T18:28:38Z</time></trkpt><trkpt lat="49.31579660085304" lon="0.966656617160149"><ele>97.0</ele><time>2026-04-19T18:28:39Z</time></trkpt><trkpt lat="49.31567756786788" lon="0.9665438253572051"><ele>98.0</ele><time>2026-04-19T18:28:40Z</time></trkpt><trkpt lat="49.31556797723251" lon="0.9664571539166819"><ele>99.0</ele><time>2026-04-19T18:28:41Z</time></trkpt><trkpt lat="49.315437648210704" lon="0.9663977565794669"><ele>100.0</ele><time>2026-04-19T18:28:42Z</time></trkpt><trkpt lat="49.31529456023933" lon="0.9663236699876839"><ele>101.0</ele><time>2026-04-19T18:28:43Z</time></trkpt><trkpt lat="49.315139277183015" lon="0.9662399666025376"><ele>101.0</ele><time>2026-04-19T18:28:44Z</time></trkpt><trkpt lat="49.314964743412034" lon="0.9661487705668542"><ele>101.0</ele><time>2026-04-19T18:28:45Z</time></trkpt><trkpt lat="49.3147872309173" lon="0.9660696219781643"><ele>101.0</ele><time>2026-04-19T18:28:46Z</time></trkpt><trkpt lat="49.314600098734914" lon="0.9660201061055229"><ele>104.0</ele><time>2026-04-19T18:28:47Z</time></trkpt><trkpt lat="49.314413791777994" lon="0.9659694318291159"><ele>107.0</ele><time>2026-04-19T18:28:48Z</time></trkpt><trkpt lat="49.31420853908747" lon="0.9659237648700579"><ele>110.0</ele><time>2026-04-19T18:28:49Z</time></trkpt><trkpt lat="49.31399538737245" lon="0.9658636509323215"><ele>110.33333333333333</ele><time>2026-04-19T18:28:50Z</time></trkpt><trkpt lat="49.31377750950379" lon="0.9657728900341819"><ele>110.66666666666666</ele><time>2026-04-19T18:28:51Z</time></trkpt><trkpt lat="49.31356454865984" lon="0.9656804581841991"><ele>111.0</ele><time>2026-04-19T18:28:52Z</time></trkpt><trkpt lat="49.31338538865595" lon="0.9655883373590644"><ele>111.0</ele><time>2026-04-19T18:28:53Z</time></trkpt><trkpt lat="49.313234704118834" lon="0.9654927957900774"><ele>111.0</ele><time>2026-04-19T18:28:54Z</time></trkpt><trkpt lat="49.31309984373685" lon="0.9654054189411229"><ele>111.0</ele><time>2026-04-19T18:28:55Z</time></trkpt><trkpt lat="49.312975073237205" lon="0.9653142427939888"><ele>111.0</ele><time>2026-04-19T18:28:56Z</time></trkpt><trkpt lat="49.31287523872164" lon="0.9652409185901473"><ele>112.16666666666667</ele><time>2026-04-19T18:28:57Z</time></trkpt><trkpt lat="49.31278013829399" lon="0.9651655508136139"><ele>113.33333333333334</ele><time>2026-04-19T18:28:58Z</time></trkpt><trkpt lat="49.31269530459063" lon="0.965111361482759"><ele>114.5</ele><time>2026-04-19T18:28:59Z</time></trkpt><trkpt lat="49.31261884804229" lon="0.9650573145174568"><ele>115.66666666666667</ele><time>2026-04-19T18:29:00Z</time></trkpt><trkpt lat="49.31256818539556" lon="0.9649821075240512"><ele>116.83333333333334</ele><time>2026-04-19T18:29:01Z</time></trkpt><trkpt lat="49.31250590876225" lon="0.9648964305786178"><ele>118.0</ele><time>2026-04-19T18:29:02Z</time></trkpt><trkpt lat="49.31243974817054" lon="0.9647881983361702"><ele>118.0</ele><time>2026-04-19T18:29:03Z</time></trkpt><trkpt lat="49.31238573457754" lon="0.964669620598942"><ele>118.00000000000001</ele><time>2026-04-19T18:29:04Z</time></trkpt><trkpt lat="49.31233508115334" lon="0.9645423771530537"><ele>118.00000000000001</ele><time>2026-04-19T18:29:05Z</time></trkpt><trkpt lat="49.31228452882091" lon="0.9644126708745734"><ele>118.0</ele><time>2026-04-19T18:29:06Z</time></trkpt><trkpt lat="49.31223264524062" lon="0.9642737336178467"><ele>118.0</ele><time>2026-04-19T18:29:07Z</time></trkpt><trkpt lat="49.3121868757981" lon="0.964147136745903"><ele>118.2</ele><time>2026-04-19T18:29:08Z</time></trkpt><trkpt lat="49.312145974742826" lon="0.9640410185148586"><ele>118.4</ele><time>2026-04-19T18:29:09Z</time></trkpt><trkpt lat="49.31210658593708" lon="0.9639443586695634"><ele>118.60000000000001</ele><time>2026-04-19T18:29:10Z</time></trkpt><trkpt lat="49.31203921176523" lon="0.9638038189235897"><ele>118.80000000000001</ele><time>2026-04-19T18:29:12Z</time></trkpt><trkpt lat="49.31195687241049" lon="0.9636706249625098"><ele>119.0</ele><time>2026-04-19T18:29:14Z</time></trkpt><trkpt lat="49.311907674062134" lon="0.9635802376323453"><ele>118.99999999999999</ele><time>2026-04-19T18:29:16Z</time></trkpt><trkpt lat="49.31184435905866" lon="0.9634738936143056"><ele>119.0</ele><time>2026-04-19T18:29:19Z</time></trkpt><trkpt lat="49.31179308350771" lon="0.9634011932954434"><ele>119.0</ele><time>2026-04-19T18:29:21Z</time></trkpt><trkpt lat="49.31173572550734" lon="0.9633438660233343"><ele>119.0</ele><time>2026-04-19T18:29:23Z</time></trkpt><trkpt lat="49.31169136327656" lon="0.9632648509274262"><ele>118.99999999999999</ele><time>2026-04-19T18:29:25Z</time></trkpt><trkpt lat="49.311641396156425" lon="0.9631529319990976"><ele>119.0</ele><time>2026-04-19T18:29:28Z</time></trkpt><trkpt lat="49.3115937462882" lon="0.9630833862368614"><ele>119.16666666666666</ele><time>2026-04-19T18:29:29.999Z</time></trkpt><trkpt lat="49.31154283994295" lon="0.9630212081500933"><ele>119.33333333333333</ele><time>2026-04-19T18:29:31.999Z</time></trkpt><trkpt lat="49.31149307676247" lon="0.962943541259859"><ele>119.5</ele><time>2026-04-19T18:29:33.999Z</time></trkpt><trkpt lat="49.31143490838882" lon="0.9628855335156936"><ele>119.66666666666666</ele><time>2026-04-19T18:29:35.999Z</time></trkpt><trkpt lat="49.3113218900782" lon="0.9627811409204237"><ele>119.83333333333333</ele><time>2026-04-19T18:29:37.999Z</time></trkpt><trkpt lat="49.31125130154596" lon="0.9627261569452065"><ele>120.0</ele><time>2026-04-19T18:29:38.999Z</time></trkpt><trkpt lat="49.31116419511164" lon="0.9626586692133484"><ele>120.0</ele><time>2026-04-19T18:29:40.999Z</time></trkpt><trkpt lat="49.3110903804356" lon="0.9626096610361505"><ele>120.0</ele><time>2026-04-19T18:29:41.999Z</time></trkpt><trkpt lat="49.31102741761738" lon="0.9625749909827551"><ele>120.0</ele><time>2026-04-19T18:29:42.999Z</time></trkpt><trkpt lat="49.310955697261406" lon="0.9625212080108388"><ele>120.0</ele><time>2026-04-19T18:29:43.999Z</time></trkpt><trkpt lat="49.310857511919565" lon="0.9624561128198618"><ele>120.0</ele><time>2026-04-19T18:29:45.999Z</time></trkpt><trkpt lat="49.310793400685924" lon="0.9624246163900836"><ele>120.0</ele><time>2026-04-19T18:29:46.999Z</time></trkpt><trkpt lat="49.31072793542804" lon="0.9625161439239355"><ele>120.0</ele><time>2026-04-19T18:29:49.999Z</time></trkpt><trkpt lat="49.31068367369056" lon="0.9626833852332797"><ele>120.0</ele><time>2026-04-19T18:29:51.999Z</time></trkpt><trkpt lat="49.31065803512189" lon="0.9627902443964855"><ele>120.0</ele><time>2026-04-19T18:29:52.999Z</time></trkpt><trkpt lat="49.3106249318679" lon="0.9629049500158481"><ele>120.0</ele><time>2026-04-19T18:29:53.999Z</time></trkpt><trkpt lat="49.31058342415466" lon="0.9630207947647575"><ele>120.0</ele><time>2026-04-19T18:29:54.999Z</time></trkpt><trkpt lat="49.31055317138995" lon="0.9631515174445932"><ele>119.83333333333333</ele><time>2026-04-19T18:29:55.999Z</time></trkpt><trkpt lat="49.31052558310287" lon="0.9632707268903871"><ele>119.66666666666666</ele><time>2026-04-19T18:29:56.999Z</time></trkpt><trkpt lat="49.310500140752914" lon="0.9633983383331954"><ele>119.5</ele><time>2026-04-19T18:29:57.999Z</time></trkpt><trkpt lat="49.31047864290628" lon="0.9635035696288519"><ele>119.33333333333333</ele><time>2026-04-19T18:29:58.999Z</time></trkpt><trkpt lat="49.31045725750726" lon="0.963597611941952"><ele>119.16666666666666</ele><time>2026-04-19T18:30:00.999Z</time></trkpt><trkpt lat="49.31042766115912" lon="0.9637115690363233"><ele>119.0</ele><time>2026-04-19T18:30:02.999Z</time></trkpt><trkpt lat="49.3104193002764" lon="0.9638248025512419"><ele>119.4</ele><time>2026-04-19T18:30:04.999Z</time></trkpt><trkpt lat="49.310373453039375" lon="0.9639628286681997"><ele>119.80000000000001</ele><time>2026-04-19T18:30:06.999Z</time></trkpt><trkpt lat="49.31032768388785" lon="0.9641738268833516"><ele>120.19999999999999</ele><time>2026-04-19T18:30:08.999Z</time></trkpt><trkpt lat="49.31030659648141" lon="0.9643232884004144"><ele>120.6</ele><time>2026-04-19T18:30:09.999Z</time></trkpt><trkpt lat="49.31026030722661" lon="0.9644572212350506"><ele>121.0</ele><time>2026-04-19T18:30:10.999Z</time></trkpt><trkpt lat="49.31021260154978" lon="0.9646301017124177"><ele>121.66666666666667</ele><time>2026-04-19T18:30:11.999Z</time></trkpt><trkpt lat="49.31013326995987" lon="0.9648476159882485"><ele>122.33333333333334</ele><time>2026-04-19T18:30:12.999Z</time></trkpt><trkpt lat="49.31002608755133" lon="0.9650777005311577"><ele>123.0</ele><time>2026-04-19T18:30:13.999Z</time></trkpt><trkpt lat="49.30990502312914" lon="0.965300331865539"><ele>123.25</ele><time>2026-04-19T18:30:14.999Z</time></trkpt><trkpt lat="49.309792391561594" lon="0.9654805398510025"><ele>123.5</ele><time>2026-04-19T18:30:15.999Z</time></trkpt><trkpt lat="49.30969422172187" lon="0.9656320524212252"><ele>123.75</ele><time>2026-04-19T18:30:16.999Z</time></trkpt><trkpt lat="49.30960302480356" lon="0.9657796194473319"><ele>124.0</ele><time>2026-04-19T18:30:17.999Z</time></trkpt><trkpt lat="49.309520984357825" lon="0.9659143763410485"><ele>124.5</ele><time>2026-04-19T18:30:18.999Z</time></trkpt><trkpt lat="49.3094438837531" lon="0.9660410192230459"><ele>125.0</ele><time>2026-04-19T18:30:19.999Z</time></trkpt><trkpt lat="49.309353452238234" lon="0.9661903817050375"><ele>125.5</ele><time>2026-04-19T18:30:20.999Z</time></trkpt><trkpt lat="49.30927439439601" lon="0.9663219315633838"><ele>126.0</ele><time>2026-04-19T18:30:21.999Z</time></trkpt><trkpt lat="49.309206366169555" lon="0.9664351284825624"><ele>126.0</ele><time>2026-04-19T18:30:22.999Z</time></trkpt><trkpt lat="49.30914250025182" lon="0.9665415718973704"><ele>126.0</ele><time>2026-04-19T18:30:23.999Z</time></trkpt><trkpt lat="49.30907863175005" lon="0.9666475527042326"><ele>126.0</ele><time>2026-04-19T18:30:24.999Z</time></trkpt><trkpt lat="49.309008819572554" lon="0.9667588452249545"><ele>126.0</ele><time>2026-04-19T18:30:25.999Z</time></trkpt><trkpt lat="49.30897503775045" lon="0.9668508435096924"><ele>126.0</ele><time>2026-04-19T18:30:26.999Z</time></trkpt><trkpt lat="49.30890231132405" lon="0.9669002282126211"><ele>126.0</ele><time>2026-04-19T18:30:28.999Z</time></trkpt><trkpt lat="49.308825897561" lon="0.9667441917419017"><ele>125.5</ele><time>2026-04-19T18:30:29.999Z</time></trkpt><trkpt lat="49.30872210221418" lon="0.9666609485836689"><ele>125.0</ele><time>2026-04-19T18:30:30.999Z</time></trkpt><trkpt lat="49.30860408356298" lon="0.9665662984354645"><ele>124.5</ele><time>2026-04-19T18:30:31.998Z</time></trkpt><trkpt lat="49.30847238903078" lon="0.9664606803152005"><ele>124.0</ele><time>2026-04-19T18:30:32.998Z</time></trkpt><trkpt lat="49.3083196632034" lon="0.966338195257965"><ele>124.0</ele><time>2026-04-19T18:30:33.998Z</time></trkpt><trkpt lat="49.30815976403461" lon="0.9662121745938981"><ele>124.0</ele><time>2026-04-19T18:30:35Z</time></trkpt><trkpt lat="49.30799335082398" lon="0.9660841549275361"><ele>124.0</ele><time>2026-04-19T18:30:36Z</time></trkpt><trkpt lat="49.30781512066322" lon="0.9659368106465752"><ele>124.0</ele><time>2026-04-19T18:30:37Z</time></trkpt><trkpt lat="49.30761245963437" lon="0.9657642638153681"><ele>124.0</ele><time>2026-04-19T18:30:38Z</time></trkpt><trkpt lat="49.30738462734106" lon="0.9655851454193465"><ele>124.5</ele><time>2026-04-19T18:30:39Z</time></trkpt><trkpt lat="49.30713890650626" lon="0.9654177440476032"><ele>125.0</ele><time>2026-04-19T18:30:40Z</time></trkpt><trkpt lat="49.30692972770396" lon="0.9652262674305855"><ele>125.0</ele><time>2026-04-19T18:30:41Z</time></trkpt><trkpt lat="49.30674106318126" lon="0.9650900703263022"><ele>125.0</ele><time>2026-04-19T18:30:42Z</time></trkpt><trkpt lat="49.30656885685367" lon="0.9649695959791027"><ele>125.0</ele><time>2026-04-19T18:30:43Z</time></trkpt><trkpt lat="49.3064131248071" lon="0.9648638770604775"><ele>125.5</ele><time>2026-04-19T18:30:44Z</time></trkpt><trkpt lat="49.306279431062535" lon="0.9647755368161615"><ele>126.0</ele><time>2026-04-19T18:30:45Z</time></trkpt><trkpt lat="49.30616060492768" lon="0.964704177699067"><ele>126.5</ele><time>2026-04-19T18:30:46Z</time></trkpt><trkpt lat="49.3060557867852" lon="0.9646635562679525"><ele>127.0</ele><time>2026-04-19T18:30:47Z</time></trkpt><trkpt lat="49.30596856312261" lon="0.9646071033370839"><ele>127.0</ele><time>2026-04-19T18:30:48Z</time></trkpt><trkpt lat="49.3059014992018" lon="0.9645291498880648"><ele>127.0</ele><time>2026-04-19T18:30:49Z</time></trkpt><trkpt lat="49.30583351734298" lon="0.9644690995825419"><ele>127.0</ele><time>2026-04-19T18:30:50Z</time></trkpt><trkpt lat="49.305777381447655" lon="0.9644101732014673"><ele>127.0</ele><time>2026-04-19T18:30:51Z</time></trkpt><trkpt lat="49.30572576182963" lon="0.9643529270939682"><ele>127.0</ele><time>2026-04-19T18:30:52Z</time></trkpt><trkpt lat="49.3056601903061" lon="0.9642777854800854"><ele>127.0</ele><time>2026-04-19T18:30:53Z</time></trkpt><trkpt lat="49.305608646254164" lon="0.9642187186218788"><ele>127.0</ele><time>2026-04-19T18:30:54Z</time></trkpt><trkpt lat="49.30554306684425" lon="0.9641435677208358"><ele>127.0</ele><time>2026-04-19T18:30:55Z</time></trkpt><trkpt lat="49.305441845999134" lon="0.9640268492930147"><ele>126.99999999999999</ele><time>2026-04-19T18:30:57Z</time></trkpt><trkpt lat="49.30538585719208" lon="0.9639623695552352"><ele>126.99999999999999</ele><time>2026-04-19T18:30:58Z</time></trkpt><trkpt lat="49.30533314788057" lon="0.963901666670334"><ele>127.0</ele><time>2026-04-19T18:30:59Z</time></trkpt><trkpt lat="49.305223503896094" lon="0.9637792790498517"><ele>127.0</ele><time>2026-04-19T18:31:01Z</time></trkpt><trkpt lat="49.305160304990316" lon="0.9637424460039155"><ele>127.00000000000001</ele><time>2026-04-19T18:31:02Z</time></trkpt><trkpt lat="49.30511559208179" lon="0.9636678554119783"><ele>127.0</ele><time>2026-04-19T18:31:03Z</time></trkpt><trkpt lat="49.30502456504656" lon="0.963607529332893"><ele>127.0</ele><time>2026-04-19T18:31:04Z</time></trkpt><trkpt lat="49.30492634503509" lon="0.9635186673313113"><ele>127.0</ele><time>2026-04-19T18:31:06Z</time></trkpt><trkpt lat="49.304847514456206" lon="0.9634555549328495"><ele>127.00000000000001</ele><time>2026-04-19T18:31:07Z</time></trkpt><trkpt lat="49.304776474355464" lon="0.9634140027273629"><ele>127.0</ele><time>2026-04-19T18:31:09Z</time></trkpt><trkpt lat="49.30475213314668" lon="0.9632709430909612"><ele>127.25</ele><time>2026-04-19T18:31:11Z</time></trkpt><trkpt lat="49.30466653419741" lon="0.9630824408691488"><ele>127.5</ele><time>2026-04-19T18:31:13Z</time></trkpt><trkpt lat="49.304612064017824" lon="0.9628920308050478"><ele>127.75</ele><time>2026-04-19T18:31:14Z</time></trkpt><trkpt lat="49.30453251879747" lon="0.962688768528225"><ele>128.0</ele><time>2026-04-19T18:31:15Z</time></trkpt><trkpt lat="49.30444736669194" lon="0.96245140974796"><ele>127.33333333333333</ele><time>2026-04-19T18:31:16Z</time></trkpt><trkpt lat="49.3043506360426" lon="0.9621867745242861"><ele>126.66666666666666</ele><time>2026-04-19T18:31:17Z</time></trkpt><trkpt lat="49.30428308439555" lon="0.9619443141609371"><ele>126.0</ele><time>2026-04-19T18:31:18Z</time></trkpt><trkpt lat="49.30422060703253" lon="0.9617547880029031"><ele>125.8</ele><time>2026-04-19T18:31:19Z</time></trkpt><trkpt lat="49.30415801653747" lon="0.9616051347453243"><ele>125.6</ele><time>2026-04-19T18:31:20Z</time></trkpt><trkpt lat="49.30409540109144" lon="0.9614802838508458"><ele>125.4</ele><time>2026-04-19T18:31:21Z</time></trkpt><trkpt lat="49.30403940802548" lon="0.961372658558696"><ele>125.2</ele><time>2026-04-19T18:31:22Z</time></trkpt><trkpt lat="49.3039811686554" lon="0.961279482708476"><ele>125.0</ele><time>2026-04-19T18:31:23Z</time></trkpt><trkpt lat="49.303932670539126" lon="0.9611805127216775"><ele>125.0</ele><time>2026-04-19T18:31:24Z</time></trkpt><trkpt lat="49.303815226780195" lon="0.9611826234084578"><ele>125.0</ele><time>2026-04-19T18:31:25Z</time></trkpt><trkpt lat="49.303698175162715" lon="0.9611383697072542"><ele>125.0</ele><time>2026-04-19T18:31:25.999Z</time></trkpt><trkpt lat="49.30353996327617" lon="0.9611266146743699"><ele>125.0</ele><time>2026-04-19T18:31:26.999Z</time></trkpt><trkpt lat="49.30338213610857" lon="0.9611216519352218"><ele>125.0</ele><time>2026-04-19T18:31:27.999Z</time></trkpt><trkpt lat="49.30325677678054" lon="0.9610981659198499"><ele>125.0</ele><time>2026-04-19T18:31:28.999Z</time></trkpt><trkpt lat="49.30314873397844" lon="0.961051326569651"><ele>125.0</ele><time>2026-04-19T18:31:29.999Z</time></trkpt><trkpt lat="49.30303696387632" lon="0.9609813958190242"><ele>125.0</ele><time>2026-04-19T18:31:30.999Z</time></trkpt><trkpt lat="49.302891909565375" lon="0.9608798555725973"><ele>124.0</ele><time>2026-04-19T18:31:31.999Z</time></trkpt><trkpt lat="49.30275531193165" lon="0.9607751954598962"><ele>123.0</ele><time>2026-04-19T18:31:32.999Z</time></trkpt><trkpt lat="49.302633514200494" lon="0.9606847531536057"><ele>122.0</ele><time>2026-04-19T18:31:33.999Z</time></trkpt><trkpt lat="49.30251633184407" lon="0.960606779824705"><ele>121.0</ele><time>2026-04-19T18:31:34.999Z</time></trkpt><trkpt lat="49.30240672909958" lon="0.9605394158174443"><ele>121.0</ele><time>2026-04-19T18:31:35.999Z</time></trkpt><trkpt lat="49.30230437837529" lon="0.9604814269433405"><ele>121.0</ele><time>2026-04-19T18:31:36.999Z</time></trkpt><trkpt lat="49.30220635005167" lon="0.9604321708072711"><ele>121.0</ele><time>2026-04-19T18:31:37.999Z</time></trkpt><trkpt lat="49.302115967406515" lon="0.960400698861343"><ele>121.0</ele><time>2026-04-19T18:31:38.999Z</time></trkpt><trkpt lat="49.30203499347963" lon="0.9603791749477223"><ele>121.0</ele><time>2026-04-19T18:31:39.999Z</time></trkpt><trkpt lat="49.30196532759497" lon="0.9603629957836055"><ele>120.0</ele><time>2026-04-19T18:31:40.999Z</time></trkpt><trkpt lat="49.30186615887614" lon="0.9603420435984316"><ele>119.0</ele><time>2026-04-19T18:31:42.999Z</time></trkpt><trkpt lat="49.3017800706964" lon="0.9603196745799255"><ele>118.0</ele><time>2026-04-19T18:31:44.999Z</time></trkpt><trkpt lat="49.30166401126079" lon="0.9604962323082545"><ele>117.0</ele><time>2026-04-19T18:31:46.999Z</time></trkpt><trkpt lat="49.30159313279212" lon="0.9606171383008067"><ele>117.0</ele><time>2026-04-19T18:31:47.999Z</time></trkpt><trkpt lat="49.30150662900452" lon="0.9607523691381246"><ele>117.0</ele><time>2026-04-19T18:31:48.999Z</time></trkpt><trkpt lat="49.301430021211765" lon="0.960885784501391"><ele>117.0</ele><time>2026-04-19T18:31:49.999Z</time></trkpt><trkpt lat="49.30135336999413" lon="0.9610160903513933"><ele>117.0</ele><time>2026-04-19T18:31:50.999Z</time></trkpt><trkpt lat="49.301271427449514" lon="0.9611710533757758"><ele>116.25</ele><time>2026-04-19T18:31:51.999Z</time></trkpt><trkpt lat="49.30117924912975" lon="0.9613033422409526"><ele>115.5</ele><time>2026-04-19T18:31:52.999Z</time></trkpt><trkpt lat="49.301106818552476" lon="0.9614687480259644"><ele>114.75</ele><time>2026-04-19T18:31:53.999Z</time></trkpt><trkpt lat="49.30102841607664" lon="0.9615807841455346"><ele>114.0</ele><time>2026-04-19T18:31:54.999Z</time></trkpt><trkpt lat="49.30097907095243" lon="0.9616916841761073"><ele>114.6</ele><time>2026-04-19T18:31:55.999Z</time></trkpt><trkpt lat="49.30093905072296" lon="0.961793676572932"><ele>115.2</ele><time>2026-04-19T18:31:56.999Z</time></trkpt><trkpt lat="49.30091445975153" lon="0.9618911923831702"><ele>115.79999999999998</ele><time>2026-04-19T18:31:57.999Z</time></trkpt><trkpt lat="49.30079898686897" lon="0.9619013387286548"><ele>116.39999999999999</ele><time>2026-04-19T18:31:59.999Z</time></trkpt><trkpt lat="49.30071125281375" lon="0.9618679616674203"><ele>117.0</ele><time>2026-04-19T18:32:00.999Z</time></trkpt><trkpt lat="49.300598474643586" lon="0.961846104046459"><ele>117.33333333333334</ele><time>2026-04-19T18:32:01.999Z</time></trkpt><trkpt lat="49.30047280312559" lon="0.9617621763469537"><ele>117.66666666666667</ele><time>2026-04-19T18:32:02.999Z</time></trkpt><trkpt lat="49.30031830551749" lon="0.9616904147890201"><ele>118.0</ele><time>2026-04-19T18:32:03.999Z</time></trkpt><trkpt lat="49.30012897847306" lon="0.9616049577995643"><ele>118.5</ele><time>2026-04-19T18:32:04.999Z</time></trkpt><trkpt lat="49.29991753714404" lon="0.961511733944494"><ele>119.0</ele><time>2026-04-19T18:32:05.999Z</time></trkpt><trkpt lat="49.299692854657586" lon="0.9614126720737514"><ele>121.0</ele><time>2026-04-19T18:32:06.999Z</time></trkpt><trkpt lat="49.299468462206036" lon="0.9613137381048513"><ele>123.0</ele><time>2026-04-19T18:32:07.999Z</time></trkpt><trkpt lat="49.29924050849484" lon="0.9612132339572267"><ele>123.0</ele><time>2026-04-19T18:32:08.999Z</time></trkpt><trkpt lat="49.299034246504284" lon="0.9611222936494256"><ele>123.0</ele><time>2026-04-19T18:32:09.999Z</time></trkpt><trkpt lat="49.298864065990195" lon="0.9610472615510384"><ele>123.0</ele><time>2026-04-19T18:32:10.999Z</time></trkpt><trkpt lat="49.29872700846502" lon="0.9609846260182657"><ele>123.60000000000001</ele><time>2026-04-19T18:32:11.999Z</time></trkpt><trkpt lat="49.298618094277586" lon="0.9609341047894088"><ele>124.20000000000002</ele><time>2026-04-19T18:32:12.999Z</time></trkpt><trkpt lat="49.2985283108794" lon="0.960892457600151"><ele>124.8</ele><time>2026-04-19T18:32:13.999Z</time></trkpt><trkpt lat="49.29845826514639" lon="0.9608833874533801"><ele>125.4</ele><time>2026-04-19T18:32:14.999Z</time></trkpt><trkpt lat="49.298378166765836" lon="0.9608135090529925"><ele>126.0</ele><time>2026-04-19T18:32:16.999Z</time></trkpt><trkpt lat="49.29824545806111" lon="0.9610863814599788"><ele>126.0</ele><time>2026-04-19T18:32:18.999Z</time></trkpt><trkpt lat="49.29817913796432" lon="0.9612466165189255"><ele>126.0</ele><time>2026-04-19T18:32:19.999Z</time></trkpt><trkpt lat="49.29809284176945" lon="0.9614327208241931"><ele>126.0</ele><time>2026-04-19T18:32:20.999Z</time></trkpt><trkpt lat="49.29798834798273" lon="0.9616643414042126"><ele>126.66666666666666</ele><time>2026-04-19T18:32:21.999Z</time></trkpt><trkpt lat="49.297880886780995" lon="0.9619293626469804"><ele>127.33333333333333</ele><time>2026-04-19T18:32:22.999Z</time></trkpt><trkpt lat="49.29776947226322" lon="0.9622272370866748"><ele>128.0</ele><time>2026-04-19T18:32:23.999Z</time></trkpt><trkpt lat="49.297659446221196" lon="0.9625354554740665"><ele>128.0</ele><time>2026-04-19T18:32:24.999Z</time></trkpt><trkpt lat="49.29755192834578" lon="0.9628624143102754"><ele>128.0</ele><time>2026-04-19T18:32:25.998Z</time></trkpt><trkpt lat="49.29744509417645" lon="0.9632119070662354"><ele>128.0</ele><time>2026-04-19T18:32:26.998Z</time></trkpt><trkpt lat="49.29734282292676" lon="0.9635853839092232"><ele>128.0</ele><time>2026-04-19T18:32:27.998Z</time></trkpt><trkpt lat="49.29724363577233" lon="0.9639865453471718"><ele>128.5</ele><time>2026-04-19T18:32:28.998Z</time></trkpt><trkpt lat="49.297143897398826" lon="0.9643988385788488"><ele>129.0</ele><time>2026-04-19T18:32:29.998Z</time></trkpt><trkpt lat="49.29704293268243" lon="0.9648186085900157"><ele>129.0</ele><time>2026-04-19T18:32:30.998Z</time></trkpt><trkpt lat="49.2969485792307" lon="0.9652077578130551"><ele>129.0</ele><time>2026-04-19T18:32:31.998Z</time></trkpt><trkpt lat="49.29687523157958" lon="0.9655380859954662"><ele>129.0</ele><time>2026-04-19T18:32:32.998Z</time></trkpt><trkpt lat="49.296814446762184" lon="0.9658097720255397"><ele>129.0</ele><time>2026-04-19T18:32:33.998Z</time></trkpt><trkpt lat="49.29676208953674" lon="0.9660353774662237"><ele>129.0</ele><time>2026-04-19T18:32:34.998Z</time></trkpt><trkpt lat="49.29672133686807" lon="0.9662466120167779"><ele>129.0</ele><time>2026-04-19T18:32:35.998Z</time></trkpt><trkpt lat="49.29667686853982" lon="0.9664393343328421"><ele>129.0</ele><time>2026-04-19T18:32:36.998Z</time></trkpt><trkpt lat="49.29662897383637" lon="0.9666825453054562"><ele>129.0</ele><time>2026-04-19T18:32:37.998Z</time></trkpt><trkpt lat="49.2965880392384" lon="0.9669603660555337"><ele>129.0</ele><time>2026-04-19T18:32:38.998Z</time></trkpt><trkpt lat="49.29655310488022" lon="0.9672778467407003"><ele>129.0</ele><time>2026-04-19T18:32:39.998Z</time></trkpt><trkpt lat="49.29651810425477" lon="0.9676223564890806"><ele>129.0</ele><time>2026-04-19T18:32:41Z</time></trkpt><trkpt lat="49.296487148241276" lon="0.9680309460642427"><ele>127.5</ele><time>2026-04-19T18:32:42Z</time></trkpt><trkpt lat="49.29643825581086" lon="0.9684514446795628"><ele>126.0</ele><time>2026-04-19T18:32:43Z</time></trkpt><trkpt lat="49.29642060216468" lon="0.9688478020453407"><ele>126.0</ele><time>2026-04-19T18:32:44Z</time></trkpt><trkpt lat="49.296386611994116" lon="0.9692057269778498"><ele>126.0</ele><time>2026-04-19T18:32:45Z</time></trkpt><trkpt lat="49.296355022068745" lon="0.9695504344696882"><ele>126.0</ele><time>2026-04-19T18:32:46Z</time></trkpt><trkpt lat="49.296324563503795" lon="0.9698573224296395"><ele>126.0</ele><time>2026-04-19T18:32:47Z</time></trkpt><trkpt lat="49.29629843819396" lon="0.9701243718944907"><ele>126.0</ele><time>2026-04-19T18:32:48Z</time></trkpt><trkpt lat="49.29627691729129" lon="0.9703577757665329"><ele>125.4</ele><time>2026-04-19T18:32:49Z</time></trkpt><trkpt lat="49.296263681734324" lon="0.97055409190784"><ele>124.8</ele><time>2026-04-19T18:32:50Z</time></trkpt><trkpt lat="49.296250551696964" lon="0.9706819130454263"><ele>124.20000000000002</ele><time>2026-04-19T18:32:51Z</time></trkpt><trkpt lat="49.296233331204455" lon="0.9707787369049605"><ele>123.60000000000001</ele><time>2026-04-19T18:32:52Z</time></trkpt><trkpt lat="49.29618480156092" lon="0.970872241171996"><ele>123.0</ele><time>2026-04-19T18:32:53Z</time></trkpt><trkpt lat="49.2960940038032" lon="0.9709409746795844"><ele>122.75</ele><time>2026-04-19T18:32:54Z</time></trkpt><trkpt lat="49.295983715372635" lon="0.9710567816221801"><ele>122.5</ele><time>2026-04-19T18:32:55Z</time></trkpt><trkpt lat="49.2958572340037" lon="0.9712207329134874"><ele>122.25</ele><time>2026-04-19T18:32:56Z</time></trkpt><trkpt lat="49.29573438327706" lon="0.971320059436807"><ele>122.0</ele><time>2026-04-19T18:32:57Z</time></trkpt><trkpt lat="49.29562642369427" lon="0.9714055278252708"><ele>121.8</ele><time>2026-04-19T18:32:58Z</time></trkpt><trkpt lat="49.295524533881185" lon="0.9714753941796539"><ele>121.6</ele><time>2026-04-19T18:32:59Z</time></trkpt><trkpt lat="49.295434066242" lon="0.9715002712341309"><ele>121.39999999999999</ele><time>2026-04-19T18:33:00Z</time></trkpt><trkpt lat="49.29534466963132" lon="0.9714921641812336"><ele>121.19999999999999</ele><time>2026-04-19T18:33:01Z</time></trkpt><trkpt lat="49.295261449432445" lon="0.9714746149507012"><ele>121.0</ele><time>2026-04-19T18:33:02Z</time></trkpt><trkpt lat="49.295164523452144" lon="0.9713842164833798"><ele>121.0</ele><time>2026-04-19T18:33:03Z</time></trkpt><trkpt lat="49.29503813360374" lon="0.971259306861253"><ele>121.0</ele><time>2026-04-19T18:33:04Z</time></trkpt><trkpt lat="49.2948925290546" lon="0.9711153098969738"><ele>121.0</ele><time>2026-04-19T18:33:05Z</time></trkpt><trkpt lat="49.29477958464555" lon="0.9710166050197108"><ele>120.4</ele><time>2026-04-19T18:33:06Z</time></trkpt><trkpt lat="49.29467088529482" lon="0.9709569733127018"><ele>119.8</ele><time>2026-04-19T18:33:07Z</time></trkpt><trkpt lat="49.294570985333806" lon="0.9709191629985354"><ele>119.20000000000002</ele><time>2026-04-19T18:33:08Z</time></trkpt><trkpt lat="49.294473066454906" lon="0.9709753361221437"><ele>118.60000000000001</ele><time>2026-04-19T18:33:09Z</time></trkpt><trkpt lat="49.29435561083946" lon="0.9710357187828941"><ele>118.0</ele><time>2026-04-19T18:33:10Z</time></trkpt><trkpt lat="49.29419825355658" lon="0.9711204219096705"><ele>118.0</ele><time>2026-04-19T18:33:11Z</time></trkpt><trkpt lat="49.294047619403884" lon="0.971177356961251"><ele>118.0</ele><time>2026-04-19T18:33:12Z</time></trkpt><trkpt lat="49.293931487672076" lon="0.9712694473643788"><ele>118.0</ele><time>2026-04-19T18:33:13Z</time></trkpt><trkpt lat="49.293822011359914" lon="0.9713153418245145"><ele>118.0</ele><time>2026-04-19T18:33:14Z</time></trkpt><trkpt lat="49.29373736240177" lon="0.9713762485092279"><ele>118.0</ele><time>2026-04-19T18:33:15Z</time></trkpt><trkpt lat="49.29366388789868" lon="0.9714325647050961"><ele>118.00000000000001</ele><time>2026-04-19T18:33:16Z</time></trkpt><trkpt lat="49.293578548210604" lon="0.9715263433279356"><ele>118.00000000000001</ele><time>2026-04-19T18:33:17Z</time></trkpt><trkpt lat="49.29346191390492" lon="0.9715878398006494"><ele>118.0</ele><time>2026-04-19T18:33:18Z</time></trkpt><trkpt lat="49.29334527669588" lon="0.9716770040436692"><ele>118.0</ele><time>2026-04-19T18:33:19Z</time></trkpt><trkpt lat="49.2932277882483" lon="0.971765705992527"><ele>118.0</ele><time>2026-04-19T18:33:20Z</time></trkpt><trkpt lat="49.29311461053411" lon="0.9718820669062809"><ele>118.00000000000001</ele><time>2026-04-19T18:33:21Z</time></trkpt><trkpt lat="49.29299876591634" lon="0.9719698073608468"><ele>118.00000000000001</ele><time>2026-04-19T18:33:22Z</time></trkpt><trkpt lat="49.29290675313333" lon="0.9720369862952565"><ele>118.0</ele><time>2026-04-19T18:33:23Z</time></trkpt><trkpt lat="49.29283446844399" lon="0.9720478068171333"><ele>118.0</ele><time>2026-04-19T18:33:24Z</time></trkpt><trkpt lat="49.29275617319167" lon="0.9720761357831327"><ele>118.0</ele><time>2026-04-19T18:33:26Z</time></trkpt><trkpt lat="49.29276820010931" lon="0.9723426377841055"><ele>118.00000000000001</ele><time>2026-04-19T18:33:27.999Z</time></trkpt><trkpt lat="49.29278738652261" lon="0.9724587636948173"><ele>118.00000000000001</ele><time>2026-04-19T18:33:28.999Z</time></trkpt><trkpt lat="49.29279421612712" lon="0.9725570822528418"><ele>118.0</ele><time>2026-04-19T18:33:29.999Z</time></trkpt><trkpt lat="49.29283793547516" lon="0.972712137448137"><ele>118.0</ele><time>2026-04-19T18:33:31.999Z</time></trkpt><trkpt lat="49.292873971714556" lon="0.9728333756524544"><ele>117.83333333333334</ele><time>2026-04-19T18:33:33.999Z</time></trkpt><trkpt lat="49.292768653821774" lon="0.9728586893715306"><ele>117.66666666666667</ele><time>2026-04-19T18:34:09.999Z</time></trkpt><trkpt lat="49.29276083480244" lon="0.9727516371943935"><ele>117.5</ele><time>2026-04-19T18:34:20.999Z</time></trkpt><trkpt lat="49.29276486905369" lon="0.9728645252844867"><ele>117.33333333333334</ele><time>2026-04-19T18:34:41.998Z</time></trkpt><trkpt lat="49.29283164197342" lon="0.9728279826820829"><ele>117.16666666666667</ele><time>2026-04-19T18:34:47Z</time></trkpt><trkpt lat="49.29282298859595" lon="0.9729362042480758"><ele>117.0</ele><time>2026-04-19T18:34:57Z</time></trkpt><trkpt lat="49.292763572207946" lon="0.9729852614636472"><ele>117.0</ele><time>2026-04-19T18:35:33.999Z</time></trkpt><trkpt lat="49.29277906809655" lon="0.972877028592635"><ele>117.0</ele><time>2026-04-19T18:38:24.998Z</time></trkpt><trkpt lat="49.29284254810061" lon="0.9728728808223096"><ele>117.0</ele><time>2026-04-19T18:38:34.998Z</time></trkpt><trkpt lat="49.29275362525216" lon="0.9728390620879063"><ele>117.0</ele><time>2026-04-19T18:40:53.998Z</time></trkpt></trkseg></trk></gpx>